<?xml version="1.0" encoding="UTF-8" standalone="no" ?>
<gpx xmlns="http://www.topografix.com/GPX/1/1" xmlns:xsi="http://www.w3.org/2001/XMLSchema-instance" xsi:schemaLocation="http://www.topografix.com/GPX/1/1 http://www.topografix.com/GPX/1/1/gpx.xsd" version="1.1" creator="VisuGPX - https://www.visugpx.com">
  <metadata>
    <name>ski Roche a Thomas 2417m</name>
  </metadata>
  <trk>
    <name><![CDATA[ski Roche a Thomas 2417m]]></name>
    <trkseg>
      <trkpt lat="45.57787" lon="6.65216">
        <ele>1388.4000244141</ele>
        <time>2019-02-08T08:02:39.000Z</time>
      </trkpt>
      <trkpt lat="45.57787" lon="6.65216">
        <ele>1388.4000244141</ele>
        <time>2019-02-08T08:02:49.000Z</time>
      </trkpt>
      <trkpt lat="45.57787" lon="6.65216">
        <ele>1388.4000244141</ele>
        <time>2019-02-08T08:02:51.000Z</time>
      </trkpt>
      <trkpt lat="45.57787" lon="6.65216">
        <ele>1388.4000244141</ele>
        <time>2019-02-08T08:02:54.000Z</time>
      </trkpt>
      <trkpt lat="45.57787" lon="6.65216">
        <ele>1388.5999755859</ele>
        <time>2019-02-08T08:03:00.000Z</time>
      </trkpt>
      <trkpt lat="45.57788" lon="6.65214">
        <ele>1389.1999511719</ele>
        <time>2019-02-08T08:03:03.000Z</time>
      </trkpt>
      <trkpt lat="45.57788" lon="6.65212">
        <ele>1389.5999755859</ele>
        <time>2019-02-08T08:03:07.000Z</time>
      </trkpt>
      <trkpt lat="45.57788" lon="6.65212">
        <ele>1389.5999755859</ele>
        <time>2019-02-08T08:03:19.000Z</time>
      </trkpt>
      <trkpt lat="45.57788" lon="6.65212">
        <ele>1389.5999755859</ele>
        <time>2019-02-08T08:03:31.000Z</time>
      </trkpt>
      <trkpt lat="45.57788" lon="6.65212">
        <ele>1389.5999755859</ele>
        <time>2019-02-08T08:03:36.000Z</time>
      </trkpt>
      <trkpt lat="45.57788" lon="6.65212">
        <ele>1389.5999755859</ele>
        <time>2019-02-08T08:03:41.000Z</time>
      </trkpt>
      <trkpt lat="45.57788" lon="6.65212">
        <ele>1389.5999755859</ele>
        <time>2019-02-08T08:03:45.000Z</time>
      </trkpt>
      <trkpt lat="45.57789" lon="6.65212">
        <ele>1389.8000488281</ele>
        <time>2019-02-08T08:03:51.000Z</time>
      </trkpt>
      <trkpt lat="45.57789" lon="6.65212">
        <ele>1389.8000488281</ele>
        <time>2019-02-08T08:03:52.000Z</time>
      </trkpt>
      <trkpt lat="45.57789" lon="6.65212">
        <ele>1389.8000488281</ele>
        <time>2019-02-08T08:03:57.000Z</time>
      </trkpt>
      <trkpt lat="45.57789" lon="6.65212">
        <ele>1389.8000488281</ele>
        <time>2019-02-08T08:04:05.000Z</time>
      </trkpt>
      <trkpt lat="45.57789" lon="6.65212">
        <ele>1389.8000488281</ele>
        <time>2019-02-08T08:04:10.000Z</time>
      </trkpt>
      <trkpt lat="45.57789" lon="6.65212">
        <ele>1389.8000488281</ele>
        <time>2019-02-08T08:04:14.000Z</time>
      </trkpt>
      <trkpt lat="45.57792" lon="6.65213">
        <ele>1390.1999511719</ele>
        <time>2019-02-08T08:04:21.000Z</time>
      </trkpt>
      <trkpt lat="45.57791" lon="6.65207">
        <ele>1391.4000244141</ele>
        <time>2019-02-08T08:04:26.000Z</time>
      </trkpt>
      <trkpt lat="45.5779" lon="6.65205">
        <ele>1391.5999755859</ele>
        <time>2019-02-08T08:04:27.000Z</time>
      </trkpt>
      <trkpt lat="45.57786" lon="6.652">
        <ele>1391.8000488281</ele>
        <time>2019-02-08T08:04:32.000Z</time>
      </trkpt>
      <trkpt lat="45.57783" lon="6.65196">
        <ele>1392</ele>
        <time>2019-02-08T08:04:37.000Z</time>
      </trkpt>
      <trkpt lat="45.57782" lon="6.65192">
        <ele>1392.8000488281</ele>
        <time>2019-02-08T08:04:42.000Z</time>
      </trkpt>
      <trkpt lat="45.57781" lon="6.65191">
        <ele>1392.8000488281</ele>
        <time>2019-02-08T08:04:44.000Z</time>
      </trkpt>
      <trkpt lat="45.5778" lon="6.65191">
        <ele>1392.8000488281</ele>
        <time>2019-02-08T08:04:47.000Z</time>
      </trkpt>
      <trkpt lat="45.5778" lon="6.65191">
        <ele>1392.8000488281</ele>
        <time>2019-02-08T08:04:49.000Z</time>
      </trkpt>
      <trkpt lat="45.57779" lon="6.65189">
        <ele>1393</ele>
        <time>2019-02-08T08:04:52.000Z</time>
      </trkpt>
      <trkpt lat="45.57779" lon="6.65187">
        <ele>1393.1999511719</ele>
        <time>2019-02-08T08:04:53.000Z</time>
      </trkpt>
      <trkpt lat="45.57778" lon="6.65185">
        <ele>1393.5999755859</ele>
        <time>2019-02-08T08:04:55.000Z</time>
      </trkpt>
      <trkpt lat="45.57778" lon="6.65185">
        <ele>1393.5999755859</ele>
        <time>2019-02-08T08:04:57.000Z</time>
      </trkpt>
      <trkpt lat="45.57778" lon="6.65185">
        <ele>1393.5999755859</ele>
        <time>2019-02-08T08:04:58.000Z</time>
      </trkpt>
      <trkpt lat="45.57779" lon="6.65186">
        <ele>1393.5999755859</ele>
        <time>2019-02-08T08:05:02.000Z</time>
      </trkpt>
      <trkpt lat="45.57781" lon="6.65186">
        <ele>1393.8000488281</ele>
        <time>2019-02-08T08:05:04.000Z</time>
      </trkpt>
      <trkpt lat="45.57788" lon="6.65187">
        <ele>1395</ele>
        <time>2019-02-08T08:05:11.000Z</time>
      </trkpt>
      <trkpt lat="45.57791" lon="6.65187">
        <ele>1395.5999755859</ele>
        <time>2019-02-08T08:05:14.000Z</time>
      </trkpt>
      <trkpt lat="45.57795" lon="6.65186">
        <ele>1396.4000244141</ele>
        <time>2019-02-08T08:05:17.000Z</time>
      </trkpt>
      <trkpt lat="45.57795" lon="6.65186">
        <ele>1396.5999755859</ele>
        <time>2019-02-08T08:05:18.000Z</time>
      </trkpt>
      <trkpt lat="45.57798" lon="6.65185">
        <ele>1397.4000244141</ele>
        <time>2019-02-08T08:05:21.000Z</time>
      </trkpt>
      <trkpt lat="45.57799" lon="6.65185">
        <ele>1397.5999755859</ele>
        <time>2019-02-08T08:05:22.000Z</time>
      </trkpt>
      <trkpt lat="45.57803" lon="6.65184">
        <ele>1398.4000244141</ele>
        <time>2019-02-08T08:05:26.000Z</time>
      </trkpt>
      <trkpt lat="45.57805" lon="6.65184">
        <ele>1398.5999755859</ele>
        <time>2019-02-08T08:05:28.000Z</time>
      </trkpt>
      <trkpt lat="45.57808" lon="6.65185">
        <ele>1398.5999755859</ele>
        <time>2019-02-08T08:05:32.000Z</time>
      </trkpt>
      <trkpt lat="45.57809" lon="6.65182">
        <ele>1399.4000244141</ele>
        <time>2019-02-08T08:05:35.000Z</time>
      </trkpt>
      <trkpt lat="45.57808" lon="6.65178">
        <ele>1400.1999511719</ele>
        <time>2019-02-08T08:05:37.000Z</time>
      </trkpt>
      <trkpt lat="45.57807" lon="6.65174">
        <ele>1400.8000488281</ele>
        <time>2019-02-08T08:05:40.000Z</time>
      </trkpt>
      <trkpt lat="45.57806" lon="6.65173">
        <ele>1401</ele>
        <time>2019-02-08T08:05:41.000Z</time>
      </trkpt>
      <trkpt lat="45.57806" lon="6.65166">
        <ele>1402.5999755859</ele>
        <time>2019-02-08T08:05:46.000Z</time>
      </trkpt>
      <trkpt lat="45.57806" lon="6.65165">
        <ele>1402.5999755859</ele>
        <time>2019-02-08T08:05:47.000Z</time>
      </trkpt>
      <trkpt lat="45.57805" lon="6.6516">
        <ele>1403.5999755859</ele>
        <time>2019-02-08T08:05:51.000Z</time>
      </trkpt>
      <trkpt lat="45.57805" lon="6.6516">
        <ele>1403.8000488281</ele>
        <time>2019-02-08T08:05:52.000Z</time>
      </trkpt>
      <trkpt lat="45.57803" lon="6.65154">
        <ele>1405</ele>
        <time>2019-02-08T08:05:56.000Z</time>
      </trkpt>
      <trkpt lat="45.57803" lon="6.65152">
        <ele>1405.4000244141</ele>
        <time>2019-02-08T08:05:57.000Z</time>
      </trkpt>
      <trkpt lat="45.57803" lon="6.65149">
        <ele>1406.1999511719</ele>
        <time>2019-02-08T08:06:00.000Z</time>
      </trkpt>
      <trkpt lat="45.57802" lon="6.65147">
        <ele>1406.5999755859</ele>
        <time>2019-02-08T08:06:02.000Z</time>
      </trkpt>
      <trkpt lat="45.578" lon="6.65142">
        <ele>1407.4000244141</ele>
        <time>2019-02-08T08:06:07.000Z</time>
      </trkpt>
      <trkpt lat="45.57799" lon="6.65141">
        <ele>1407.4000244141</ele>
        <time>2019-02-08T08:06:08.000Z</time>
      </trkpt>
      <trkpt lat="45.57798" lon="6.65139">
        <ele>1407.8000488281</ele>
        <time>2019-02-08T08:06:12.000Z</time>
      </trkpt>
      <trkpt lat="45.57797" lon="6.65137">
        <ele>1408.1999511719</ele>
        <time>2019-02-08T08:06:13.000Z</time>
      </trkpt>
      <trkpt lat="45.57797" lon="6.65134">
        <ele>1409.1999511719</ele>
        <time>2019-02-08T08:06:16.000Z</time>
      </trkpt>
      <trkpt lat="45.57797" lon="6.65131">
        <ele>1409.5999755859</ele>
        <time>2019-02-08T08:06:18.000Z</time>
      </trkpt>
      <trkpt lat="45.57796" lon="6.65128">
        <ele>1410.4000244141</ele>
        <time>2019-02-08T08:06:21.000Z</time>
      </trkpt>
      <trkpt lat="45.57796" lon="6.65126">
        <ele>1411</ele>
        <time>2019-02-08T08:06:23.000Z</time>
      </trkpt>
      <trkpt lat="45.57797" lon="6.65122">
        <ele>1411.8000488281</ele>
        <time>2019-02-08T08:06:25.000Z</time>
      </trkpt>
      <trkpt lat="45.57797" lon="6.65119">
        <ele>1412.8000488281</ele>
        <time>2019-02-08T08:06:28.000Z</time>
      </trkpt>
      <trkpt lat="45.57797" lon="6.65118">
        <ele>1413.1999511719</ele>
        <time>2019-02-08T08:06:29.000Z</time>
      </trkpt>
      <trkpt lat="45.57797" lon="6.65111">
        <ele>1414.5999755859</ele>
        <time>2019-02-08T08:06:33.000Z</time>
      </trkpt>
      <trkpt lat="45.57796" lon="6.6511">
        <ele>1415</ele>
        <time>2019-02-08T08:06:34.000Z</time>
      </trkpt>
      <trkpt lat="45.57796" lon="6.65107">
        <ele>1415.4000244141</ele>
        <time>2019-02-08T08:06:36.000Z</time>
      </trkpt>
      <trkpt lat="45.57795" lon="6.65103">
        <ele>1416.1999511719</ele>
        <time>2019-02-08T08:06:39.000Z</time>
      </trkpt>
      <trkpt lat="45.57793" lon="6.65097">
        <ele>1417.5999755859</ele>
        <time>2019-02-08T08:06:44.000Z</time>
      </trkpt>
      <trkpt lat="45.57791" lon="6.6509">
        <ele>1419</ele>
        <time>2019-02-08T08:06:49.000Z</time>
      </trkpt>
      <trkpt lat="45.5779" lon="6.65088">
        <ele>1419.1999511719</ele>
        <time>2019-02-08T08:06:50.000Z</time>
      </trkpt>
      <trkpt lat="45.57788" lon="6.65082">
        <ele>1420.5999755859</ele>
        <time>2019-02-08T08:06:55.000Z</time>
      </trkpt>
      <trkpt lat="45.57788" lon="6.65082">
        <ele>1420.5999755859</ele>
        <time>2019-02-08T08:06:56.000Z</time>
      </trkpt>
      <trkpt lat="45.57787" lon="6.65077">
        <ele>1421.5999755859</ele>
        <time>2019-02-08T08:07:00.000Z</time>
      </trkpt>
      <trkpt lat="45.57786" lon="6.65074">
        <ele>1422.4000244141</ele>
        <time>2019-02-08T08:07:03.000Z</time>
      </trkpt>
      <trkpt lat="45.57786" lon="6.65072">
        <ele>1422.5999755859</ele>
        <time>2019-02-08T08:07:04.000Z</time>
      </trkpt>
      <trkpt lat="45.57784" lon="6.65068">
        <ele>1423.4000244141</ele>
        <time>2019-02-08T08:07:09.000Z</time>
      </trkpt>
      <trkpt lat="45.57782" lon="6.65061">
        <ele>1424.5999755859</ele>
        <time>2019-02-08T08:07:14.000Z</time>
      </trkpt>
      <trkpt lat="45.57782" lon="6.65059">
        <ele>1425</ele>
        <time>2019-02-08T08:07:15.000Z</time>
      </trkpt>
      <trkpt lat="45.5778" lon="6.65055">
        <ele>1425.5999755859</ele>
        <time>2019-02-08T08:07:19.000Z</time>
      </trkpt>
      <trkpt lat="45.57778" lon="6.65051">
        <ele>1426.1999511719</ele>
        <time>2019-02-08T08:07:23.000Z</time>
      </trkpt>
      <trkpt lat="45.57778" lon="6.65049">
        <ele>1426.5999755859</ele>
        <time>2019-02-08T08:07:25.000Z</time>
      </trkpt>
      <trkpt lat="45.57777" lon="6.65046">
        <ele>1427.1999511719</ele>
        <time>2019-02-08T08:07:28.000Z</time>
      </trkpt>
      <trkpt lat="45.57776" lon="6.65044">
        <ele>1427.5999755859</ele>
        <time>2019-02-08T08:07:30.000Z</time>
      </trkpt>
      <trkpt lat="45.57775" lon="6.65039">
        <ele>1428.5999755859</ele>
        <time>2019-02-08T08:07:34.000Z</time>
      </trkpt>
      <trkpt lat="45.57774" lon="6.65038">
        <ele>1428.5999755859</ele>
        <time>2019-02-08T08:07:35.000Z</time>
      </trkpt>
      <trkpt lat="45.57774" lon="6.65036">
        <ele>1429</ele>
        <time>2019-02-08T08:07:37.000Z</time>
      </trkpt>
      <trkpt lat="45.57773" lon="6.65033">
        <ele>1429.8000488281</ele>
        <time>2019-02-08T08:07:41.000Z</time>
      </trkpt>
      <trkpt lat="45.57774" lon="6.65033">
        <ele>1430</ele>
        <time>2019-02-08T08:07:44.000Z</time>
      </trkpt>
      <trkpt lat="45.57776" lon="6.65033">
        <ele>1430.4000244141</ele>
        <time>2019-02-08T08:07:47.000Z</time>
      </trkpt>
      <trkpt lat="45.57779" lon="6.65034">
        <ele>1431</ele>
        <time>2019-02-08T08:07:51.000Z</time>
      </trkpt>
      <trkpt lat="45.57781" lon="6.65034">
        <ele>1431.1999511719</ele>
        <time>2019-02-08T08:07:54.000Z</time>
      </trkpt>
      <trkpt lat="45.57786" lon="6.65035">
        <ele>1431.8000488281</ele>
        <time>2019-02-08T08:07:59.000Z</time>
      </trkpt>
      <trkpt lat="45.57788" lon="6.65035">
        <ele>1432.1999511719</ele>
        <time>2019-02-08T08:08:01.000Z</time>
      </trkpt>
      <trkpt lat="45.57793" lon="6.65036">
        <ele>1433</ele>
        <time>2019-02-08T08:08:06.000Z</time>
      </trkpt>
      <trkpt lat="45.57793" lon="6.65036">
        <ele>1433.1999511719</ele>
        <time>2019-02-08T08:08:07.000Z</time>
      </trkpt>
      <trkpt lat="45.57798" lon="6.65036">
        <ele>1434</ele>
        <time>2019-02-08T08:08:12.000Z</time>
      </trkpt>
      <trkpt lat="45.578" lon="6.65036">
        <ele>1434.4000244141</ele>
        <time>2019-02-08T08:08:13.000Z</time>
      </trkpt>
      <trkpt lat="45.57805" lon="6.65035">
        <ele>1435.8000488281</ele>
        <time>2019-02-08T08:08:19.000Z</time>
      </trkpt>
      <trkpt lat="45.57806" lon="6.65035">
        <ele>1436</ele>
        <time>2019-02-08T08:08:20.000Z</time>
      </trkpt>
      <trkpt lat="45.57808" lon="6.65034">
        <ele>1436.4000244141</ele>
        <time>2019-02-08T08:08:22.000Z</time>
      </trkpt>
      <trkpt lat="45.57811" lon="6.65034">
        <ele>1437</ele>
        <time>2019-02-08T08:08:25.000Z</time>
      </trkpt>
      <trkpt lat="45.57816" lon="6.65034">
        <ele>1437.8000488281</ele>
        <time>2019-02-08T08:08:30.000Z</time>
      </trkpt>
      <trkpt lat="45.57818" lon="6.65034">
        <ele>1438.1999511719</ele>
        <time>2019-02-08T08:08:31.000Z</time>
      </trkpt>
      <trkpt lat="45.57822" lon="6.65033">
        <ele>1439</ele>
        <time>2019-02-08T08:08:36.000Z</time>
      </trkpt>
      <trkpt lat="45.57826" lon="6.65033">
        <ele>1439.8000488281</ele>
        <time>2019-02-08T08:08:42.000Z</time>
      </trkpt>
      <trkpt lat="45.57827" lon="6.65033">
        <ele>1440</ele>
        <time>2019-02-08T08:08:43.000Z</time>
      </trkpt>
      <trkpt lat="45.57832" lon="6.65031">
        <ele>1441</ele>
        <time>2019-02-08T08:08:48.000Z</time>
      </trkpt>
      <trkpt lat="45.57833" lon="6.65031">
        <ele>1441.4000244141</ele>
        <time>2019-02-08T08:08:50.000Z</time>
      </trkpt>
      <trkpt lat="45.57836" lon="6.6503">
        <ele>1442.1999511719</ele>
        <time>2019-02-08T08:08:54.000Z</time>
      </trkpt>
      <trkpt lat="45.57839" lon="6.65029">
        <ele>1443</ele>
        <time>2019-02-08T08:08:58.000Z</time>
      </trkpt>
      <trkpt lat="45.5784" lon="6.65029">
        <ele>1443.1999511719</ele>
        <time>2019-02-08T08:08:59.000Z</time>
      </trkpt>
      <trkpt lat="45.57844" lon="6.65028">
        <ele>1444.1999511719</ele>
        <time>2019-02-08T08:09:05.000Z</time>
      </trkpt>
      <trkpt lat="45.57845" lon="6.65028">
        <ele>1444.4000244141</ele>
        <time>2019-02-08T08:09:06.000Z</time>
      </trkpt>
      <trkpt lat="45.57849" lon="6.65026">
        <ele>1445.4000244141</ele>
        <time>2019-02-08T08:09:12.000Z</time>
      </trkpt>
      <trkpt lat="45.5785" lon="6.65026">
        <ele>1445.5999755859</ele>
        <time>2019-02-08T08:09:13.000Z</time>
      </trkpt>
      <trkpt lat="45.57853" lon="6.65025">
        <ele>1446.1999511719</ele>
        <time>2019-02-08T08:09:16.000Z</time>
      </trkpt>
      <trkpt lat="45.57856" lon="6.65025">
        <ele>1446.8000488281</ele>
        <time>2019-02-08T08:09:20.000Z</time>
      </trkpt>
      <trkpt lat="45.57858" lon="6.65025">
        <ele>1447.1999511719</ele>
        <time>2019-02-08T08:09:22.000Z</time>
      </trkpt>
      <trkpt lat="45.57863" lon="6.65024">
        <ele>1448.1999511719</ele>
        <time>2019-02-08T08:09:27.000Z</time>
      </trkpt>
      <trkpt lat="45.57863" lon="6.65024">
        <ele>1448.4000244141</ele>
        <time>2019-02-08T08:09:28.000Z</time>
      </trkpt>
      <trkpt lat="45.57866" lon="6.65023">
        <ele>1449</ele>
        <time>2019-02-08T08:09:30.000Z</time>
      </trkpt>
      <trkpt lat="45.57867" lon="6.65023">
        <ele>1449.1999511719</ele>
        <time>2019-02-08T08:09:32.000Z</time>
      </trkpt>
      <trkpt lat="45.5787" lon="6.65024">
        <ele>1449.5999755859</ele>
        <time>2019-02-08T08:09:36.000Z</time>
      </trkpt>
      <trkpt lat="45.57872" lon="6.65024">
        <ele>1449.8000488281</ele>
        <time>2019-02-08T08:09:39.000Z</time>
      </trkpt>
      <trkpt lat="45.57879" lon="6.65023">
        <ele>1451</ele>
        <time>2019-02-08T08:09:47.000Z</time>
      </trkpt>
      <trkpt lat="45.57884" lon="6.65022">
        <ele>1452.1999511719</ele>
        <time>2019-02-08T08:09:53.000Z</time>
      </trkpt>
      <trkpt lat="45.57885" lon="6.65023">
        <ele>1452.4000244141</ele>
        <time>2019-02-08T08:09:54.000Z</time>
      </trkpt>
      <trkpt lat="45.57888" lon="6.65023">
        <ele>1452.5999755859</ele>
        <time>2019-02-08T08:09:59.000Z</time>
      </trkpt>
      <trkpt lat="45.5789" lon="6.65023">
        <ele>1452.5999755859</ele>
        <time>2019-02-08T08:10:01.000Z</time>
      </trkpt>
      <trkpt lat="45.57892" lon="6.65023">
        <ele>1452.8000488281</ele>
        <time>2019-02-08T08:10:04.000Z</time>
      </trkpt>
      <trkpt lat="45.57895" lon="6.65023">
        <ele>1453</ele>
        <time>2019-02-08T08:10:07.000Z</time>
      </trkpt>
      <trkpt lat="45.57895" lon="6.65023">
        <ele>1453</ele>
        <time>2019-02-08T08:10:08.000Z</time>
      </trkpt>
      <trkpt lat="45.57902" lon="6.65024">
        <ele>1453.4000244141</ele>
        <time>2019-02-08T08:10:16.000Z</time>
      </trkpt>
      <trkpt lat="45.57903" lon="6.65024">
        <ele>1453.4000244141</ele>
        <time>2019-02-08T08:10:17.000Z</time>
      </trkpt>
      <trkpt lat="45.57906" lon="6.65025">
        <ele>1453.4000244141</ele>
        <time>2019-02-08T08:10:22.000Z</time>
      </trkpt>
      <trkpt lat="45.57908" lon="6.65025">
        <ele>1453.5999755859</ele>
        <time>2019-02-08T08:10:24.000Z</time>
      </trkpt>
      <trkpt lat="45.57908" lon="6.65025">
        <ele>1453.5999755859</ele>
        <time>2019-02-08T08:10:25.000Z</time>
      </trkpt>
      <trkpt lat="45.57912" lon="6.65025">
        <ele>1454</ele>
        <time>2019-02-08T08:10:30.000Z</time>
      </trkpt>
      <trkpt lat="45.57913" lon="6.65025">
        <ele>1454</ele>
        <time>2019-02-08T08:10:31.000Z</time>
      </trkpt>
      <trkpt lat="45.57916" lon="6.65025">
        <ele>1454.1999511719</ele>
        <time>2019-02-08T08:10:36.000Z</time>
      </trkpt>
      <trkpt lat="45.57917" lon="6.65025">
        <ele>1454.4000244141</ele>
        <time>2019-02-08T08:10:37.000Z</time>
      </trkpt>
      <trkpt lat="45.5792" lon="6.65026">
        <ele>1454.4000244141</ele>
        <time>2019-02-08T08:10:42.000Z</time>
      </trkpt>
      <trkpt lat="45.57922" lon="6.65026">
        <ele>1454.4000244141</ele>
        <time>2019-02-08T08:10:45.000Z</time>
      </trkpt>
      <trkpt lat="45.57923" lon="6.65027">
        <ele>1454.4000244141</ele>
        <time>2019-02-08T08:10:47.000Z</time>
      </trkpt>
      <trkpt lat="45.57925" lon="6.65026">
        <ele>1454.8000488281</ele>
        <time>2019-02-08T08:10:50.000Z</time>
      </trkpt>
      <trkpt lat="45.57928" lon="6.65025">
        <ele>1455.4000244141</ele>
        <time>2019-02-08T08:10:53.000Z</time>
      </trkpt>
      <trkpt lat="45.5793" lon="6.65024">
        <ele>1456.1999511719</ele>
        <time>2019-02-08T08:10:58.000Z</time>
      </trkpt>
      <trkpt lat="45.57931" lon="6.65021">
        <ele>1457.1999511719</ele>
        <time>2019-02-08T08:11:00.000Z</time>
      </trkpt>
      <trkpt lat="45.57932" lon="6.65016">
        <ele>1459.1999511719</ele>
        <time>2019-02-08T08:11:04.000Z</time>
      </trkpt>
      <trkpt lat="45.57932" lon="6.65015">
        <ele>1459.4000244141</ele>
        <time>2019-02-08T08:11:05.000Z</time>
      </trkpt>
      <trkpt lat="45.57932" lon="6.65013">
        <ele>1460</ele>
        <time>2019-02-08T08:11:06.000Z</time>
      </trkpt>
      <trkpt lat="45.57933" lon="6.6501">
        <ele>1461.1999511719</ele>
        <time>2019-02-08T08:11:08.000Z</time>
      </trkpt>
      <trkpt lat="45.57932" lon="6.65008">
        <ele>1461.8000488281</ele>
        <time>2019-02-08T08:11:10.000Z</time>
      </trkpt>
      <trkpt lat="45.57932" lon="6.65005">
        <ele>1462.5999755859</ele>
        <time>2019-02-08T08:11:12.000Z</time>
      </trkpt>
      <trkpt lat="45.57931" lon="6.65002">
        <ele>1463.5999755859</ele>
        <time>2019-02-08T08:11:15.000Z</time>
      </trkpt>
      <trkpt lat="45.57931" lon="6.64999">
        <ele>1464.4000244141</ele>
        <time>2019-02-08T08:11:17.000Z</time>
      </trkpt>
      <trkpt lat="45.5793" lon="6.64997">
        <ele>1464.8000488281</ele>
        <time>2019-02-08T08:11:19.000Z</time>
      </trkpt>
      <trkpt lat="45.5793" lon="6.64996">
        <ele>1465.4000244141</ele>
        <time>2019-02-08T08:11:20.000Z</time>
      </trkpt>
      <trkpt lat="45.57929" lon="6.64991">
        <ele>1466.5999755859</ele>
        <time>2019-02-08T08:11:25.000Z</time>
      </trkpt>
      <trkpt lat="45.57928" lon="6.64986">
        <ele>1468.1999511719</ele>
        <time>2019-02-08T08:11:30.000Z</time>
      </trkpt>
      <trkpt lat="45.57927" lon="6.64984">
        <ele>1468.5999755859</ele>
        <time>2019-02-08T08:11:31.000Z</time>
      </trkpt>
      <trkpt lat="45.57926" lon="6.64981">
        <ele>1469.1999511719</ele>
        <time>2019-02-08T08:11:35.000Z</time>
      </trkpt>
      <trkpt lat="45.57925" lon="6.64976">
        <ele>1470.4000244141</ele>
        <time>2019-02-08T08:11:39.000Z</time>
      </trkpt>
      <trkpt lat="45.57925" lon="6.64974">
        <ele>1470.8000488281</ele>
        <time>2019-02-08T08:11:40.000Z</time>
      </trkpt>
      <trkpt lat="45.57924" lon="6.6497">
        <ele>1471.5999755859</ele>
        <time>2019-02-08T08:11:44.000Z</time>
      </trkpt>
      <trkpt lat="45.57923" lon="6.64968">
        <ele>1472</ele>
        <time>2019-02-08T08:11:45.000Z</time>
      </trkpt>
      <trkpt lat="45.57922" lon="6.64963">
        <ele>1473.1999511719</ele>
        <time>2019-02-08T08:11:50.000Z</time>
      </trkpt>
      <trkpt lat="45.57921" lon="6.64962">
        <ele>1473.4000244141</ele>
        <time>2019-02-08T08:11:51.000Z</time>
      </trkpt>
      <trkpt lat="45.5792" lon="6.64958">
        <ele>1474</ele>
        <time>2019-02-08T08:11:55.000Z</time>
      </trkpt>
      <trkpt lat="45.57919" lon="6.64956">
        <ele>1474.4000244141</ele>
        <time>2019-02-08T08:11:57.000Z</time>
      </trkpt>
      <trkpt lat="45.57918" lon="6.64953">
        <ele>1475</ele>
        <time>2019-02-08T08:12:00.000Z</time>
      </trkpt>
      <trkpt lat="45.57918" lon="6.64953">
        <ele>1475.1999511719</ele>
        <time>2019-02-08T08:12:01.000Z</time>
      </trkpt>
      <trkpt lat="45.57915" lon="6.64948">
        <ele>1476</ele>
        <time>2019-02-08T08:12:06.000Z</time>
      </trkpt>
      <trkpt lat="45.57913" lon="6.64943">
        <ele>1476.8000488281</ele>
        <time>2019-02-08T08:12:11.000Z</time>
      </trkpt>
      <trkpt lat="45.57912" lon="6.64941">
        <ele>1477.4000244141</ele>
        <time>2019-02-08T08:12:15.000Z</time>
      </trkpt>
      <trkpt lat="45.57912" lon="6.6494">
        <ele>1477.5999755859</ele>
        <time>2019-02-08T08:12:16.000Z</time>
      </trkpt>
      <trkpt lat="45.57911" lon="6.64937">
        <ele>1478.1999511719</ele>
        <time>2019-02-08T08:12:20.000Z</time>
      </trkpt>
      <trkpt lat="45.57911" lon="6.64935">
        <ele>1478.5999755859</ele>
        <time>2019-02-08T08:12:21.000Z</time>
      </trkpt>
      <trkpt lat="45.57909" lon="6.64932">
        <ele>1479</ele>
        <time>2019-02-08T08:12:25.000Z</time>
      </trkpt>
      <trkpt lat="45.57908" lon="6.6493">
        <ele>1479.4000244141</ele>
        <time>2019-02-08T08:12:27.000Z</time>
      </trkpt>
      <trkpt lat="45.57906" lon="6.64926">
        <ele>1480</ele>
        <time>2019-02-08T08:12:30.000Z</time>
      </trkpt>
      <trkpt lat="45.57905" lon="6.64925">
        <ele>1480.4000244141</ele>
        <time>2019-02-08T08:12:33.000Z</time>
      </trkpt>
      <trkpt lat="45.57905" lon="6.64923">
        <ele>1480.8000488281</ele>
        <time>2019-02-08T08:12:34.000Z</time>
      </trkpt>
      <trkpt lat="45.57905" lon="6.6492">
        <ele>1481.8000488281</ele>
        <time>2019-02-08T08:12:37.000Z</time>
      </trkpt>
      <trkpt lat="45.57904" lon="6.64919">
        <ele>1481.8000488281</ele>
        <time>2019-02-08T08:12:38.000Z</time>
      </trkpt>
      <trkpt lat="45.57903" lon="6.64914">
        <ele>1483.4000244141</ele>
        <time>2019-02-08T08:12:43.000Z</time>
      </trkpt>
      <trkpt lat="45.57902" lon="6.64908">
        <ele>1485.1999511719</ele>
        <time>2019-02-08T08:12:48.000Z</time>
      </trkpt>
      <trkpt lat="45.57901" lon="6.64907">
        <ele>1485.5999755859</ele>
        <time>2019-02-08T08:12:49.000Z</time>
      </trkpt>
      <trkpt lat="45.57899" lon="6.649">
        <ele>1487</ele>
        <time>2019-02-08T08:12:54.000Z</time>
      </trkpt>
      <trkpt lat="45.57897" lon="6.64894">
        <ele>1488.4000244141</ele>
        <time>2019-02-08T08:13:00.000Z</time>
      </trkpt>
      <trkpt lat="45.57898" lon="6.64891">
        <ele>1489</ele>
        <time>2019-02-08T08:13:02.000Z</time>
      </trkpt>
      <trkpt lat="45.57896" lon="6.64886">
        <ele>1489.8000488281</ele>
        <time>2019-02-08T08:13:06.000Z</time>
      </trkpt>
      <trkpt lat="45.57896" lon="6.64886">
        <ele>1489.8000488281</ele>
        <time>2019-02-08T08:13:07.000Z</time>
      </trkpt>
      <trkpt lat="45.57895" lon="6.64882">
        <ele>1490.5999755859</ele>
        <time>2019-02-08T08:13:11.000Z</time>
      </trkpt>
      <trkpt lat="45.57894" lon="6.6488">
        <ele>1491</ele>
        <time>2019-02-08T08:13:13.000Z</time>
      </trkpt>
      <trkpt lat="45.57893" lon="6.64878">
        <ele>1491.1999511719</ele>
        <time>2019-02-08T08:13:16.000Z</time>
      </trkpt>
      <trkpt lat="45.57891" lon="6.64875">
        <ele>1491.4000244141</ele>
        <time>2019-02-08T08:13:20.000Z</time>
      </trkpt>
      <trkpt lat="45.57891" lon="6.64874">
        <ele>1491.5999755859</ele>
        <time>2019-02-08T08:13:21.000Z</time>
      </trkpt>
      <trkpt lat="45.57889" lon="6.64872">
        <ele>1492</ele>
        <time>2019-02-08T08:13:24.000Z</time>
      </trkpt>
      <trkpt lat="45.57888" lon="6.64869">
        <ele>1492.4000244141</ele>
        <time>2019-02-08T08:13:27.000Z</time>
      </trkpt>
      <trkpt lat="45.57888" lon="6.64866">
        <ele>1493</ele>
        <time>2019-02-08T08:13:29.000Z</time>
      </trkpt>
      <trkpt lat="45.57888" lon="6.64861">
        <ele>1494.1999511719</ele>
        <time>2019-02-08T08:13:33.000Z</time>
      </trkpt>
      <trkpt lat="45.57888" lon="6.64858">
        <ele>1495</ele>
        <time>2019-02-08T08:13:35.000Z</time>
      </trkpt>
      <trkpt lat="45.57888" lon="6.64855">
        <ele>1495.8000488281</ele>
        <time>2019-02-08T08:13:38.000Z</time>
      </trkpt>
      <trkpt lat="45.57888" lon="6.64855">
        <ele>1496</ele>
        <time>2019-02-08T08:13:39.000Z</time>
      </trkpt>
      <trkpt lat="45.5789" lon="6.64853">
        <ele>1496.8000488281</ele>
        <time>2019-02-08T08:13:44.000Z</time>
      </trkpt>
      <trkpt lat="45.57892" lon="6.64853">
        <ele>1497.1999511719</ele>
        <time>2019-02-08T08:13:47.000Z</time>
      </trkpt>
      <trkpt lat="45.57895" lon="6.64853">
        <ele>1498</ele>
        <time>2019-02-08T08:13:52.000Z</time>
      </trkpt>
      <trkpt lat="45.57896" lon="6.64853">
        <ele>1498.1999511719</ele>
        <time>2019-02-08T08:13:53.000Z</time>
      </trkpt>
      <trkpt lat="45.57901" lon="6.64852">
        <ele>1499.8000488281</ele>
        <time>2019-02-08T08:14:00.000Z</time>
      </trkpt>
      <trkpt lat="45.57902" lon="6.64852">
        <ele>1500</ele>
        <time>2019-02-08T08:14:01.000Z</time>
      </trkpt>
      <trkpt lat="45.57905" lon="6.64851">
        <ele>1500.8000488281</ele>
        <time>2019-02-08T08:14:05.000Z</time>
      </trkpt>
      <trkpt lat="45.57906" lon="6.64851">
        <ele>1501.1999511719</ele>
        <time>2019-02-08T08:14:07.000Z</time>
      </trkpt>
      <trkpt lat="45.57908" lon="6.6485">
        <ele>1501.5999755859</ele>
        <time>2019-02-08T08:14:09.000Z</time>
      </trkpt>
      <trkpt lat="45.57912" lon="6.6485">
        <ele>1502.8000488281</ele>
        <time>2019-02-08T08:14:14.000Z</time>
      </trkpt>
      <trkpt lat="45.57913" lon="6.6485">
        <ele>1503</ele>
        <time>2019-02-08T08:14:15.000Z</time>
      </trkpt>
      <trkpt lat="45.57916" lon="6.6485">
        <ele>1503.5999755859</ele>
        <time>2019-02-08T08:14:18.000Z</time>
      </trkpt>
      <trkpt lat="45.57919" lon="6.6485">
        <ele>1504.5999755859</ele>
        <time>2019-02-08T08:14:22.000Z</time>
      </trkpt>
      <trkpt lat="45.5792" lon="6.6485">
        <ele>1504.8000488281</ele>
        <time>2019-02-08T08:14:23.000Z</time>
      </trkpt>
      <trkpt lat="45.57926" lon="6.64849">
        <ele>1506.5999755859</ele>
        <time>2019-02-08T08:14:31.000Z</time>
      </trkpt>
      <trkpt lat="45.57927" lon="6.64849">
        <ele>1507</ele>
        <time>2019-02-08T08:14:32.000Z</time>
      </trkpt>
      <trkpt lat="45.57932" lon="6.64847">
        <ele>1508.8000488281</ele>
        <time>2019-02-08T08:14:37.000Z</time>
      </trkpt>
      <trkpt lat="45.57933" lon="6.64847">
        <ele>1509.1999511719</ele>
        <time>2019-02-08T08:14:39.000Z</time>
      </trkpt>
      <trkpt lat="45.57935" lon="6.64846">
        <ele>1509.8000488281</ele>
        <time>2019-02-08T08:14:42.000Z</time>
      </trkpt>
      <trkpt lat="45.5794" lon="6.64845">
        <ele>1511.5999755859</ele>
        <time>2019-02-08T08:14:48.000Z</time>
      </trkpt>
      <trkpt lat="45.57941" lon="6.64845">
        <ele>1511.8000488281</ele>
        <time>2019-02-08T08:14:49.000Z</time>
      </trkpt>
      <trkpt lat="45.57944" lon="6.64844">
        <ele>1512.8000488281</ele>
        <time>2019-02-08T08:14:55.000Z</time>
      </trkpt>
      <trkpt lat="45.57949" lon="6.64844">
        <ele>1514.1999511719</ele>
        <time>2019-02-08T08:15:02.000Z</time>
      </trkpt>
      <trkpt lat="45.5795" lon="6.64844">
        <ele>1514.4000244141</ele>
        <time>2019-02-08T08:15:03.000Z</time>
      </trkpt>
      <trkpt lat="45.57952" lon="6.64843">
        <ele>1515.1999511719</ele>
        <time>2019-02-08T08:15:06.000Z</time>
      </trkpt>
      <trkpt lat="45.57954" lon="6.64842">
        <ele>1516.1999511719</ele>
        <time>2019-02-08T08:15:10.000Z</time>
      </trkpt>
      <trkpt lat="45.57955" lon="6.64841">
        <ele>1516.5999755859</ele>
        <time>2019-02-08T08:15:11.000Z</time>
      </trkpt>
      <trkpt lat="45.5796" lon="6.64841">
        <ele>1517.8000488281</ele>
        <time>2019-02-08T08:15:18.000Z</time>
      </trkpt>
      <trkpt lat="45.57961" lon="6.64841">
        <ele>1518</ele>
        <time>2019-02-08T08:15:19.000Z</time>
      </trkpt>
      <trkpt lat="45.57961" lon="6.64839">
        <ele>1518.4000244141</ele>
        <time>2019-02-08T08:15:25.000Z</time>
      </trkpt>
      <trkpt lat="45.5796" lon="6.64838">
        <ele>1518.8000488281</ele>
        <time>2019-02-08T08:15:26.000Z</time>
      </trkpt>
      <trkpt lat="45.57959" lon="6.64834">
        <ele>1519.4000244141</ele>
        <time>2019-02-08T08:15:31.000Z</time>
      </trkpt>
      <trkpt lat="45.57958" lon="6.64832">
        <ele>1519.5999755859</ele>
        <time>2019-02-08T08:15:32.000Z</time>
      </trkpt>
      <trkpt lat="45.57957" lon="6.64829">
        <ele>1520.1999511719</ele>
        <time>2019-02-08T08:15:35.000Z</time>
      </trkpt>
      <trkpt lat="45.57956" lon="6.64827">
        <ele>1520.8000488281</ele>
        <time>2019-02-08T08:15:37.000Z</time>
      </trkpt>
      <trkpt lat="45.57956" lon="6.64822">
        <ele>1522.1999511719</ele>
        <time>2019-02-08T08:15:40.000Z</time>
      </trkpt>
      <trkpt lat="45.57956" lon="6.6482">
        <ele>1522.8000488281</ele>
        <time>2019-02-08T08:15:42.000Z</time>
      </trkpt>
      <trkpt lat="45.57956" lon="6.64819">
        <ele>1522.8000488281</ele>
        <time>2019-02-08T08:15:44.000Z</time>
      </trkpt>
      <trkpt lat="45.57954" lon="6.64814">
        <ele>1523.5999755859</ele>
        <time>2019-02-08T08:15:48.000Z</time>
      </trkpt>
      <trkpt lat="45.57954" lon="6.64813">
        <ele>1523.5999755859</ele>
        <time>2019-02-08T08:15:49.000Z</time>
      </trkpt>
      <trkpt lat="45.57953" lon="6.64806">
        <ele>1525</ele>
        <time>2019-02-08T08:15:55.000Z</time>
      </trkpt>
      <trkpt lat="45.57952" lon="6.648">
        <ele>1526</ele>
        <time>2019-02-08T08:16:00.000Z</time>
      </trkpt>
      <trkpt lat="45.57952" lon="6.64798">
        <ele>1526.1999511719</ele>
        <time>2019-02-08T08:16:01.000Z</time>
      </trkpt>
      <trkpt lat="45.57952" lon="6.64794">
        <ele>1526.8000488281</ele>
        <time>2019-02-08T08:16:05.000Z</time>
      </trkpt>
      <trkpt lat="45.57951" lon="6.64793">
        <ele>1527</ele>
        <time>2019-02-08T08:16:07.000Z</time>
      </trkpt>
      <trkpt lat="45.57951" lon="6.64789">
        <ele>1527.5999755859</ele>
        <time>2019-02-08T08:16:10.000Z</time>
      </trkpt>
      <trkpt lat="45.57951" lon="6.64785">
        <ele>1528.4000244141</ele>
        <time>2019-02-08T08:16:12.000Z</time>
      </trkpt>
      <trkpt lat="45.57951" lon="6.64781">
        <ele>1529.1999511719</ele>
        <time>2019-02-08T08:16:15.000Z</time>
      </trkpt>
      <trkpt lat="45.57949" lon="6.64775">
        <ele>1530</ele>
        <time>2019-02-08T08:16:20.000Z</time>
      </trkpt>
      <trkpt lat="45.57949" lon="6.64772">
        <ele>1530.5999755859</ele>
        <time>2019-02-08T08:16:22.000Z</time>
      </trkpt>
      <trkpt lat="45.57949" lon="6.64771">
        <ele>1530.8000488281</ele>
        <time>2019-02-08T08:16:24.000Z</time>
      </trkpt>
      <trkpt lat="45.57949" lon="6.64768">
        <ele>1531.1999511719</ele>
        <time>2019-02-08T08:16:27.000Z</time>
      </trkpt>
      <trkpt lat="45.57948" lon="6.64765">
        <ele>1531.5999755859</ele>
        <time>2019-02-08T08:16:29.000Z</time>
      </trkpt>
      <trkpt lat="45.57947" lon="6.64758">
        <ele>1532.5999755859</ele>
        <time>2019-02-08T08:16:34.000Z</time>
      </trkpt>
      <trkpt lat="45.57947" lon="6.64754">
        <ele>1533.5999755859</ele>
        <time>2019-02-08T08:16:39.000Z</time>
      </trkpt>
      <trkpt lat="45.57947" lon="6.64752">
        <ele>1533.5999755859</ele>
        <time>2019-02-08T08:16:40.000Z</time>
      </trkpt>
      <trkpt lat="45.57947" lon="6.64752">
        <ele>1533.5999755859</ele>
        <time>2019-02-08T08:16:41.000Z</time>
      </trkpt>
      <trkpt lat="45.57947" lon="6.64752">
        <ele>1533.5999755859</ele>
        <time>2019-02-08T08:16:44.000Z</time>
      </trkpt>
      <trkpt lat="45.57947" lon="6.6475">
        <ele>1534</ele>
        <time>2019-02-08T08:16:46.000Z</time>
      </trkpt>
      <trkpt lat="45.57946" lon="6.64745">
        <ele>1535</ele>
        <time>2019-02-08T08:16:50.000Z</time>
      </trkpt>
      <trkpt lat="45.57947" lon="6.64743">
        <ele>1535.5999755859</ele>
        <time>2019-02-08T08:16:52.000Z</time>
      </trkpt>
      <trkpt lat="45.57949" lon="6.6474">
        <ele>1536.5999755859</ele>
        <time>2019-02-08T08:16:55.000Z</time>
      </trkpt>
      <trkpt lat="45.5795" lon="6.64739">
        <ele>1537</ele>
        <time>2019-02-08T08:16:56.000Z</time>
      </trkpt>
      <trkpt lat="45.57954" lon="6.64739">
        <ele>1538</ele>
        <time>2019-02-08T08:17:02.000Z</time>
      </trkpt>
      <trkpt lat="45.57955" lon="6.64739">
        <ele>1538</ele>
        <time>2019-02-08T08:17:03.000Z</time>
      </trkpt>
      <trkpt lat="45.57959" lon="6.6474">
        <ele>1539</ele>
        <time>2019-02-08T08:17:08.000Z</time>
      </trkpt>
      <trkpt lat="45.5796" lon="6.6474">
        <ele>1539.1999511719</ele>
        <time>2019-02-08T08:17:09.000Z</time>
      </trkpt>
      <trkpt lat="45.57962" lon="6.64741">
        <ele>1539.5999755859</ele>
        <time>2019-02-08T08:17:13.000Z</time>
      </trkpt>
      <trkpt lat="45.57964" lon="6.64742">
        <ele>1539.8000488281</ele>
        <time>2019-02-08T08:17:16.000Z</time>
      </trkpt>
      <trkpt lat="45.57964" lon="6.64742">
        <ele>1539.8000488281</ele>
        <time>2019-02-08T08:17:18.000Z</time>
      </trkpt>
      <trkpt lat="45.57967" lon="6.64743">
        <ele>1540.4000244141</ele>
        <time>2019-02-08T08:17:24.000Z</time>
      </trkpt>
      <trkpt lat="45.5797" lon="6.64743">
        <ele>1541.1999511719</ele>
        <time>2019-02-08T08:17:28.000Z</time>
      </trkpt>
      <trkpt lat="45.57973" lon="6.64742">
        <ele>1542.1999511719</ele>
        <time>2019-02-08T08:17:30.000Z</time>
      </trkpt>
      <trkpt lat="45.57974" lon="6.64742">
        <ele>1542.4000244141</ele>
        <time>2019-02-08T08:17:32.000Z</time>
      </trkpt>
      <trkpt lat="45.57979" lon="6.64742">
        <ele>1544.5999755859</ele>
        <time>2019-02-08T08:17:38.000Z</time>
      </trkpt>
      <trkpt lat="45.57982" lon="6.64742">
        <ele>1545.8000488281</ele>
        <time>2019-02-08T08:17:41.000Z</time>
      </trkpt>
      <trkpt lat="45.57986" lon="6.64744">
        <ele>1546.8000488281</ele>
        <time>2019-02-08T08:17:46.000Z</time>
      </trkpt>
      <trkpt lat="45.57991" lon="6.64745">
        <ele>1548.4000244141</ele>
        <time>2019-02-08T08:17:52.000Z</time>
      </trkpt>
      <trkpt lat="45.57993" lon="6.64746">
        <ele>1548.8000488281</ele>
        <time>2019-02-08T08:17:54.000Z</time>
      </trkpt>
      <trkpt lat="45.57994" lon="6.64746">
        <ele>1549.4000244141</ele>
        <time>2019-02-08T08:17:56.000Z</time>
      </trkpt>
      <trkpt lat="45.57997" lon="6.64746">
        <ele>1550.5999755859</ele>
        <time>2019-02-08T08:18:00.000Z</time>
      </trkpt>
      <trkpt lat="45.57998" lon="6.64747">
        <ele>1550.8000488281</ele>
        <time>2019-02-08T08:18:01.000Z</time>
      </trkpt>
      <trkpt lat="45.58001" lon="6.64748">
        <ele>1551.5999755859</ele>
        <time>2019-02-08T08:18:05.000Z</time>
      </trkpt>
      <trkpt lat="45.58002" lon="6.64749">
        <ele>1551.8000488281</ele>
        <time>2019-02-08T08:18:08.000Z</time>
      </trkpt>
      <trkpt lat="45.58004" lon="6.64751">
        <ele>1552</ele>
        <time>2019-02-08T08:18:11.000Z</time>
      </trkpt>
      <trkpt lat="45.58007" lon="6.64754">
        <ele>1552.1999511719</ele>
        <time>2019-02-08T08:18:16.000Z</time>
      </trkpt>
      <trkpt lat="45.58009" lon="6.64755">
        <ele>1552.8000488281</ele>
        <time>2019-02-08T08:18:19.000Z</time>
      </trkpt>
      <trkpt lat="45.58011" lon="6.64756">
        <ele>1553.1999511719</ele>
        <time>2019-02-08T08:18:22.000Z</time>
      </trkpt>
      <trkpt lat="45.58012" lon="6.64758">
        <ele>1553.1999511719</ele>
        <time>2019-02-08T08:18:25.000Z</time>
      </trkpt>
      <trkpt lat="45.58013" lon="6.64759">
        <ele>1553.1999511719</ele>
        <time>2019-02-08T08:18:27.000Z</time>
      </trkpt>
      <trkpt lat="45.58014" lon="6.64758">
        <ele>1553.8000488281</ele>
        <time>2019-02-08T08:18:29.000Z</time>
      </trkpt>
      <trkpt lat="45.58016" lon="6.64756">
        <ele>1555.4000244141</ele>
        <time>2019-02-08T08:18:32.000Z</time>
      </trkpt>
      <trkpt lat="45.58019" lon="6.6475">
        <ele>1558.4000244141</ele>
        <time>2019-02-08T08:18:36.000Z</time>
      </trkpt>
      <trkpt lat="45.58021" lon="6.64742">
        <ele>1561.4000244141</ele>
        <time>2019-02-08T08:18:42.000Z</time>
      </trkpt>
      <trkpt lat="45.58021" lon="6.6474">
        <ele>1562.1999511719</ele>
        <time>2019-02-08T08:18:46.000Z</time>
      </trkpt>
      <trkpt lat="45.58021" lon="6.64739">
        <ele>1562.4000244141</ele>
        <time>2019-02-08T08:18:48.000Z</time>
      </trkpt>
      <trkpt lat="45.58021" lon="6.64738">
        <ele>1562.8000488281</ele>
        <time>2019-02-08T08:18:50.000Z</time>
      </trkpt>
      <trkpt lat="45.58021" lon="6.64735">
        <ele>1564.1999511719</ele>
        <time>2019-02-08T08:18:53.000Z</time>
      </trkpt>
      <trkpt lat="45.58022" lon="6.64733">
        <ele>1564.8000488281</ele>
        <time>2019-02-08T08:18:54.000Z</time>
      </trkpt>
      <trkpt lat="45.58022" lon="6.64729">
        <ele>1566</ele>
        <time>2019-02-08T08:18:58.000Z</time>
      </trkpt>
      <trkpt lat="45.58023" lon="6.64725">
        <ele>1567.5999755859</ele>
        <time>2019-02-08T08:19:01.000Z</time>
      </trkpt>
      <trkpt lat="45.58024" lon="6.64723">
        <ele>1568.4000244141</ele>
        <time>2019-02-08T08:19:03.000Z</time>
      </trkpt>
      <trkpt lat="45.58025" lon="6.6472">
        <ele>1569.5999755859</ele>
        <time>2019-02-08T08:19:07.000Z</time>
      </trkpt>
      <trkpt lat="45.58026" lon="6.64718">
        <ele>1570.4000244141</ele>
        <time>2019-02-08T08:19:09.000Z</time>
      </trkpt>
      <trkpt lat="45.58027" lon="6.64716">
        <ele>1571.1999511719</ele>
        <time>2019-02-08T08:19:12.000Z</time>
      </trkpt>
      <trkpt lat="45.58029" lon="6.64714">
        <ele>1573</ele>
        <time>2019-02-08T08:19:17.000Z</time>
      </trkpt>
      <trkpt lat="45.58031" lon="6.64713">
        <ele>1573.5999755859</ele>
        <time>2019-02-08T08:19:19.000Z</time>
      </trkpt>
      <trkpt lat="45.58032" lon="6.64714">
        <ele>1574</ele>
        <time>2019-02-08T08:19:22.000Z</time>
      </trkpt>
      <trkpt lat="45.58033" lon="6.64714">
        <ele>1574.1999511719</ele>
        <time>2019-02-08T08:19:23.000Z</time>
      </trkpt>
      <trkpt lat="45.58035" lon="6.64714">
        <ele>1575</ele>
        <time>2019-02-08T08:19:27.000Z</time>
      </trkpt>
      <trkpt lat="45.58038" lon="6.64714">
        <ele>1576</ele>
        <time>2019-02-08T08:19:29.000Z</time>
      </trkpt>
      <trkpt lat="45.58041" lon="6.64715">
        <ele>1576.5999755859</ele>
        <time>2019-02-08T08:19:34.000Z</time>
      </trkpt>
      <trkpt lat="45.58041" lon="6.64715">
        <ele>1576.8000488281</ele>
        <time>2019-02-08T08:19:35.000Z</time>
      </trkpt>
      <trkpt lat="45.58043" lon="6.64718">
        <ele>1576.8000488281</ele>
        <time>2019-02-08T08:19:39.000Z</time>
      </trkpt>
      <trkpt lat="45.58046" lon="6.64719">
        <ele>1577.5999755859</ele>
        <time>2019-02-08T08:19:44.000Z</time>
      </trkpt>
      <trkpt lat="45.58047" lon="6.6472">
        <ele>1577.5999755859</ele>
        <time>2019-02-08T08:19:45.000Z</time>
      </trkpt>
      <trkpt lat="45.5805" lon="6.64721">
        <ele>1578.4000244141</ele>
        <time>2019-02-08T08:19:50.000Z</time>
      </trkpt>
      <trkpt lat="45.58051" lon="6.64722">
        <ele>1578.8000488281</ele>
        <time>2019-02-08T08:19:52.000Z</time>
      </trkpt>
      <trkpt lat="45.58053" lon="6.64723">
        <ele>1579.4000244141</ele>
        <time>2019-02-08T08:19:55.000Z</time>
      </trkpt>
      <trkpt lat="45.58054" lon="6.64723">
        <ele>1579.4000244141</ele>
        <time>2019-02-08T08:19:56.000Z</time>
      </trkpt>
      <trkpt lat="45.58056" lon="6.64724">
        <ele>1580</ele>
        <time>2019-02-08T08:19:59.000Z</time>
      </trkpt>
      <trkpt lat="45.58059" lon="6.64726">
        <ele>1580.5999755859</ele>
        <time>2019-02-08T08:20:04.000Z</time>
      </trkpt>
      <trkpt lat="45.58066" lon="6.64729">
        <ele>1582</ele>
        <time>2019-02-08T08:20:13.000Z</time>
      </trkpt>
      <trkpt lat="45.58069" lon="6.64731">
        <ele>1582.8000488281</ele>
        <time>2019-02-08T08:20:18.000Z</time>
      </trkpt>
      <trkpt lat="45.58071" lon="6.64733">
        <ele>1583</ele>
        <time>2019-02-08T08:20:20.000Z</time>
      </trkpt>
      <trkpt lat="45.58073" lon="6.64734">
        <ele>1583.1999511719</ele>
        <time>2019-02-08T08:20:23.000Z</time>
      </trkpt>
      <trkpt lat="45.58075" lon="6.64734">
        <ele>1583.8000488281</ele>
        <time>2019-02-08T08:20:25.000Z</time>
      </trkpt>
      <trkpt lat="45.58077" lon="6.64736">
        <ele>1584.4000244141</ele>
        <time>2019-02-08T08:20:29.000Z</time>
      </trkpt>
      <trkpt lat="45.58078" lon="6.64736">
        <ele>1584.1999511719</ele>
        <time>2019-02-08T08:20:30.000Z</time>
      </trkpt>
      <trkpt lat="45.58081" lon="6.64738">
        <ele>1584.5999755859</ele>
        <time>2019-02-08T08:20:36.000Z</time>
      </trkpt>
      <trkpt lat="45.58082" lon="6.64739">
        <ele>1584.4000244141</ele>
        <time>2019-02-08T08:20:37.000Z</time>
      </trkpt>
      <trkpt lat="45.58086" lon="6.64742">
        <ele>1584.8000488281</ele>
        <time>2019-02-08T08:20:44.000Z</time>
      </trkpt>
      <trkpt lat="45.58091" lon="6.64744">
        <ele>1585.5999755859</ele>
        <time>2019-02-08T08:20:50.000Z</time>
      </trkpt>
      <trkpt lat="45.58093" lon="6.64744">
        <ele>1586</ele>
        <time>2019-02-08T08:20:52.000Z</time>
      </trkpt>
      <trkpt lat="45.58096" lon="6.64745">
        <ele>1586.5999755859</ele>
        <time>2019-02-08T08:20:58.000Z</time>
      </trkpt>
      <trkpt lat="45.58097" lon="6.64745">
        <ele>1586.8000488281</ele>
        <time>2019-02-08T08:20:59.000Z</time>
      </trkpt>
      <trkpt lat="45.58099" lon="6.64746">
        <ele>1587</ele>
        <time>2019-02-08T08:21:02.000Z</time>
      </trkpt>
      <trkpt lat="45.581" lon="6.64747">
        <ele>1587</ele>
        <time>2019-02-08T08:21:08.000Z</time>
      </trkpt>
      <trkpt lat="45.581" lon="6.64748">
        <ele>1586.5999755859</ele>
        <time>2019-02-08T08:21:12.000Z</time>
      </trkpt>
      <trkpt lat="45.581" lon="6.64748">
        <ele>1586.5999755859</ele>
        <time>2019-02-08T08:21:15.000Z</time>
      </trkpt>
      <trkpt lat="45.58101" lon="6.64743">
        <ele>1589</ele>
        <time>2019-02-08T08:21:19.000Z</time>
      </trkpt>
      <trkpt lat="45.58102" lon="6.64739">
        <ele>1591</ele>
        <time>2019-02-08T08:21:21.000Z</time>
      </trkpt>
      <trkpt lat="45.58102" lon="6.64736">
        <ele>1592.1999511719</ele>
        <time>2019-02-08T08:21:24.000Z</time>
      </trkpt>
      <trkpt lat="45.58102" lon="6.64735">
        <ele>1592.5999755859</ele>
        <time>2019-02-08T08:21:26.000Z</time>
      </trkpt>
      <trkpt lat="45.58102" lon="6.64733">
        <ele>1593</ele>
        <time>2019-02-08T08:21:30.000Z</time>
      </trkpt>
      <trkpt lat="45.58102" lon="6.64733">
        <ele>1593</ele>
        <time>2019-02-08T08:21:33.000Z</time>
      </trkpt>
      <trkpt lat="45.58102" lon="6.64733">
        <ele>1593</ele>
        <time>2019-02-08T08:21:35.000Z</time>
      </trkpt>
      <trkpt lat="45.58102" lon="6.64733">
        <ele>1593</ele>
        <time>2019-02-08T08:21:38.000Z</time>
      </trkpt>
      <trkpt lat="45.58102" lon="6.64733">
        <ele>1593</ele>
        <time>2019-02-08T08:21:39.000Z</time>
      </trkpt>
      <trkpt lat="45.58102" lon="6.64733">
        <ele>1593</ele>
        <time>2019-02-08T08:21:41.000Z</time>
      </trkpt>
      <trkpt lat="45.58102" lon="6.64733">
        <ele>1593</ele>
        <time>2019-02-08T08:21:43.000Z</time>
      </trkpt>
      <trkpt lat="45.58102" lon="6.64733">
        <ele>1593</ele>
        <time>2019-02-08T08:21:45.000Z</time>
      </trkpt>
      <trkpt lat="45.58101" lon="6.64729">
        <ele>1593.4000244141</ele>
        <time>2019-02-08T08:21:52.000Z</time>
      </trkpt>
      <trkpt lat="45.581" lon="6.64727">
        <ele>1593.5999755859</ele>
        <time>2019-02-08T08:21:54.000Z</time>
      </trkpt>
      <trkpt lat="45.581" lon="6.64726">
        <ele>1593.8000488281</ele>
        <time>2019-02-08T08:21:56.000Z</time>
      </trkpt>
      <trkpt lat="45.581" lon="6.64719">
        <ele>1595.1999511719</ele>
        <time>2019-02-08T08:22:01.000Z</time>
      </trkpt>
      <trkpt lat="45.581" lon="6.64715">
        <ele>1596</ele>
        <time>2019-02-08T08:22:03.000Z</time>
      </trkpt>
      <trkpt lat="45.581" lon="6.64711">
        <ele>1596.8000488281</ele>
        <time>2019-02-08T08:22:06.000Z</time>
      </trkpt>
      <trkpt lat="45.581" lon="6.64708">
        <ele>1597.4000244141</ele>
        <time>2019-02-08T08:22:08.000Z</time>
      </trkpt>
      <trkpt lat="45.581" lon="6.64705">
        <ele>1598</ele>
        <time>2019-02-08T08:22:11.000Z</time>
      </trkpt>
      <trkpt lat="45.581" lon="6.64702">
        <ele>1598.5999755859</ele>
        <time>2019-02-08T08:22:14.000Z</time>
      </trkpt>
      <trkpt lat="45.581" lon="6.647">
        <ele>1598.8000488281</ele>
        <time>2019-02-08T08:22:17.000Z</time>
      </trkpt>
      <trkpt lat="45.58101" lon="6.64702">
        <ele>1599</ele>
        <time>2019-02-08T08:22:21.000Z</time>
      </trkpt>
      <trkpt lat="45.58103" lon="6.64704">
        <ele>1599.1999511719</ele>
        <time>2019-02-08T08:22:23.000Z</time>
      </trkpt>
      <trkpt lat="45.58107" lon="6.64706">
        <ele>1600.1999511719</ele>
        <time>2019-02-08T08:22:28.000Z</time>
      </trkpt>
      <trkpt lat="45.5811" lon="6.64707">
        <ele>1601</ele>
        <time>2019-02-08T08:22:32.000Z</time>
      </trkpt>
      <trkpt lat="45.58112" lon="6.64707">
        <ele>1601.4000244141</ele>
        <time>2019-02-08T08:22:33.000Z</time>
      </trkpt>
      <trkpt lat="45.58116" lon="6.64709">
        <ele>1602.4000244141</ele>
        <time>2019-02-08T08:22:39.000Z</time>
      </trkpt>
      <trkpt lat="45.58118" lon="6.6471">
        <ele>1603</ele>
        <time>2019-02-08T08:22:42.000Z</time>
      </trkpt>
      <trkpt lat="45.58119" lon="6.64712">
        <ele>1603</ele>
        <time>2019-02-08T08:22:46.000Z</time>
      </trkpt>
      <trkpt lat="45.58122" lon="6.64714">
        <ele>1603.4000244141</ele>
        <time>2019-02-08T08:22:50.000Z</time>
      </trkpt>
      <trkpt lat="45.58125" lon="6.64717">
        <ele>1603.8000488281</ele>
        <time>2019-02-08T08:22:53.000Z</time>
      </trkpt>
      <trkpt lat="45.58127" lon="6.64719">
        <ele>1604</ele>
        <time>2019-02-08T08:22:58.000Z</time>
      </trkpt>
      <trkpt lat="45.58128" lon="6.6472">
        <ele>1604.1999511719</ele>
        <time>2019-02-08T08:23:00.000Z</time>
      </trkpt>
      <trkpt lat="45.5813" lon="6.64721">
        <ele>1604.5999755859</ele>
        <time>2019-02-08T08:23:04.000Z</time>
      </trkpt>
      <trkpt lat="45.58134" lon="6.64722">
        <ele>1605.5999755859</ele>
        <time>2019-02-08T08:23:10.000Z</time>
      </trkpt>
      <trkpt lat="45.58136" lon="6.64723">
        <ele>1606.1999511719</ele>
        <time>2019-02-08T08:23:14.000Z</time>
      </trkpt>
      <trkpt lat="45.58138" lon="6.64719">
        <ele>1607.5999755859</ele>
        <time>2019-02-08T08:23:17.000Z</time>
      </trkpt>
      <trkpt lat="45.58139" lon="6.64716">
        <ele>1608.4000244141</ele>
        <time>2019-02-08T08:23:20.000Z</time>
      </trkpt>
      <trkpt lat="45.5814" lon="6.64713">
        <ele>1609.4000244141</ele>
        <time>2019-02-08T08:23:22.000Z</time>
      </trkpt>
      <trkpt lat="45.5814" lon="6.64709">
        <ele>1610.1999511719</ele>
        <time>2019-02-08T08:23:27.000Z</time>
      </trkpt>
      <trkpt lat="45.5814" lon="6.64709">
        <ele>1610.4000244141</ele>
        <time>2019-02-08T08:23:28.000Z</time>
      </trkpt>
      <trkpt lat="45.5814" lon="6.64707">
        <ele>1610.8000488281</ele>
        <time>2019-02-08T08:23:32.000Z</time>
      </trkpt>
      <trkpt lat="45.5814" lon="6.64704">
        <ele>1611.5999755859</ele>
        <time>2019-02-08T08:23:35.000Z</time>
      </trkpt>
      <trkpt lat="45.5814" lon="6.64702">
        <ele>1611.8000488281</ele>
        <time>2019-02-08T08:23:37.000Z</time>
      </trkpt>
      <trkpt lat="45.5814" lon="6.64699">
        <ele>1612.4000244141</ele>
        <time>2019-02-08T08:23:40.000Z</time>
      </trkpt>
      <trkpt lat="45.5814" lon="6.64699">
        <ele>1612.5999755859</ele>
        <time>2019-02-08T08:23:41.000Z</time>
      </trkpt>
      <trkpt lat="45.58138" lon="6.64692">
        <ele>1613.4000244141</ele>
        <time>2019-02-08T08:23:46.000Z</time>
      </trkpt>
      <trkpt lat="45.58138" lon="6.64692">
        <ele>1613.4000244141</ele>
        <time>2019-02-08T08:23:47.000Z</time>
      </trkpt>
      <trkpt lat="45.58137" lon="6.64687">
        <ele>1614.4000244141</ele>
        <time>2019-02-08T08:23:51.000Z</time>
      </trkpt>
      <trkpt lat="45.58137" lon="6.64686">
        <ele>1614.4000244141</ele>
        <time>2019-02-08T08:23:52.000Z</time>
      </trkpt>
      <trkpt lat="45.58136" lon="6.64682">
        <ele>1615</ele>
        <time>2019-02-08T08:23:57.000Z</time>
      </trkpt>
      <trkpt lat="45.58136" lon="6.64678">
        <ele>1615.5999755859</ele>
        <time>2019-02-08T08:24:01.000Z</time>
      </trkpt>
      <trkpt lat="45.58136" lon="6.64678">
        <ele>1615.8000488281</ele>
        <time>2019-02-08T08:24:02.000Z</time>
      </trkpt>
      <trkpt lat="45.58135" lon="6.64676">
        <ele>1616</ele>
        <time>2019-02-08T08:24:04.000Z</time>
      </trkpt>
      <trkpt lat="45.58134" lon="6.64672">
        <ele>1616.5999755859</ele>
        <time>2019-02-08T08:24:08.000Z</time>
      </trkpt>
      <trkpt lat="45.58133" lon="6.6467">
        <ele>1616.5999755859</ele>
        <time>2019-02-08T08:24:11.000Z</time>
      </trkpt>
      <trkpt lat="45.58133" lon="6.6467">
        <ele>1616.5999755859</ele>
        <time>2019-02-08T08:24:12.000Z</time>
      </trkpt>
      <trkpt lat="45.58134" lon="6.64669">
        <ele>1617</ele>
        <time>2019-02-08T08:24:19.000Z</time>
      </trkpt>
      <trkpt lat="45.58135" lon="6.64669">
        <ele>1617.4000244141</ele>
        <time>2019-02-08T08:24:21.000Z</time>
      </trkpt>
      <trkpt lat="45.58139" lon="6.64671">
        <ele>1618.1999511719</ele>
        <time>2019-02-08T08:24:26.000Z</time>
      </trkpt>
      <trkpt lat="45.58142" lon="6.64673">
        <ele>1618.8000488281</ele>
        <time>2019-02-08T08:24:31.000Z</time>
      </trkpt>
      <trkpt lat="45.58145" lon="6.64675">
        <ele>1619.1999511719</ele>
        <time>2019-02-08T08:24:34.000Z</time>
      </trkpt>
      <trkpt lat="45.58148" lon="6.64676">
        <ele>1619.8000488281</ele>
        <time>2019-02-08T08:24:38.000Z</time>
      </trkpt>
      <trkpt lat="45.58152" lon="6.64678">
        <ele>1620.5999755859</ele>
        <time>2019-02-08T08:24:43.000Z</time>
      </trkpt>
      <trkpt lat="45.58153" lon="6.64679">
        <ele>1620.8000488281</ele>
        <time>2019-02-08T08:24:46.000Z</time>
      </trkpt>
      <trkpt lat="45.58157" lon="6.6468">
        <ele>1621.5999755859</ele>
        <time>2019-02-08T08:24:51.000Z</time>
      </trkpt>
      <trkpt lat="45.58157" lon="6.64675">
        <ele>1622.8000488281</ele>
        <time>2019-02-08T08:24:56.000Z</time>
      </trkpt>
      <trkpt lat="45.58156" lon="6.64668">
        <ele>1624.4000244141</ele>
        <time>2019-02-08T08:25:01.000Z</time>
      </trkpt>
      <trkpt lat="45.58156" lon="6.64667">
        <ele>1624.5999755859</ele>
        <time>2019-02-08T08:25:02.000Z</time>
      </trkpt>
      <trkpt lat="45.58155" lon="6.64664">
        <ele>1625.1999511719</ele>
        <time>2019-02-08T08:25:05.000Z</time>
      </trkpt>
      <trkpt lat="45.58155" lon="6.64662">
        <ele>1625.4000244141</ele>
        <time>2019-02-08T08:25:07.000Z</time>
      </trkpt>
      <trkpt lat="45.58154" lon="6.64656">
        <ele>1626.8000488281</ele>
        <time>2019-02-08T08:25:12.000Z</time>
      </trkpt>
      <trkpt lat="45.58153" lon="6.64652">
        <ele>1627.5999755859</ele>
        <time>2019-02-08T08:25:15.000Z</time>
      </trkpt>
      <trkpt lat="45.58153" lon="6.64652">
        <ele>1627.8000488281</ele>
        <time>2019-02-08T08:25:16.000Z</time>
      </trkpt>
      <trkpt lat="45.58153" lon="6.6465">
        <ele>1628.1999511719</ele>
        <time>2019-02-08T08:25:17.000Z</time>
      </trkpt>
      <trkpt lat="45.58153" lon="6.64645">
        <ele>1630.5999755859</ele>
        <time>2019-02-08T08:25:22.000Z</time>
      </trkpt>
      <trkpt lat="45.58151" lon="6.64641">
        <ele>1631.4000244141</ele>
        <time>2019-02-08T08:25:27.000Z</time>
      </trkpt>
      <trkpt lat="45.58151" lon="6.64641">
        <ele>1631.4000244141</ele>
        <time>2019-02-08T08:25:28.000Z</time>
      </trkpt>
      <trkpt lat="45.58149" lon="6.64638">
        <ele>1631.8000488281</ele>
        <time>2019-02-08T08:25:29.000Z</time>
      </trkpt>
      <trkpt lat="45.5815" lon="6.64639">
        <ele>1631.8000488281</ele>
        <time>2019-02-08T08:25:31.000Z</time>
      </trkpt>
      <trkpt lat="45.58149" lon="6.64637">
        <ele>1632.4000244141</ele>
        <time>2019-02-08T08:25:33.000Z</time>
      </trkpt>
      <trkpt lat="45.58147" lon="6.64632">
        <ele>1633.4000244141</ele>
        <time>2019-02-08T08:25:37.000Z</time>
      </trkpt>
      <trkpt lat="45.58145" lon="6.64627">
        <ele>1634.8000488281</ele>
        <time>2019-02-08T08:25:41.000Z</time>
      </trkpt>
      <trkpt lat="45.58145" lon="6.64627">
        <ele>1634.8000488281</ele>
        <time>2019-02-08T08:25:42.000Z</time>
      </trkpt>
      <trkpt lat="45.58145" lon="6.64622">
        <ele>1636.5999755859</ele>
        <time>2019-02-08T08:25:46.000Z</time>
      </trkpt>
      <trkpt lat="45.58145" lon="6.64621">
        <ele>1637</ele>
        <time>2019-02-08T08:25:47.000Z</time>
      </trkpt>
      <trkpt lat="45.58144" lon="6.64618">
        <ele>1638</ele>
        <time>2019-02-08T08:25:51.000Z</time>
      </trkpt>
      <trkpt lat="45.58143" lon="6.64614">
        <ele>1639.4000244141</ele>
        <time>2019-02-08T08:25:55.000Z</time>
      </trkpt>
      <trkpt lat="45.58143" lon="6.64611">
        <ele>1640.1999511719</ele>
        <time>2019-02-08T08:25:59.000Z</time>
      </trkpt>
      <trkpt lat="45.58143" lon="6.6461">
        <ele>1640.4000244141</ele>
        <time>2019-02-08T08:26:01.000Z</time>
      </trkpt>
      <trkpt lat="45.58145" lon="6.6461">
        <ele>1641.5999755859</ele>
        <time>2019-02-08T08:26:05.000Z</time>
      </trkpt>
      <trkpt lat="45.58146" lon="6.64609">
        <ele>1642.1999511719</ele>
        <time>2019-02-08T08:26:06.000Z</time>
      </trkpt>
      <trkpt lat="45.58149" lon="6.64611">
        <ele>1642.5999755859</ele>
        <time>2019-02-08T08:26:11.000Z</time>
      </trkpt>
      <trkpt lat="45.58154" lon="6.64612">
        <ele>1644</ele>
        <time>2019-02-08T08:26:16.000Z</time>
      </trkpt>
      <trkpt lat="45.58157" lon="6.64613">
        <ele>1644.5999755859</ele>
        <time>2019-02-08T08:26:21.000Z</time>
      </trkpt>
      <trkpt lat="45.58162" lon="6.64612">
        <ele>1647</ele>
        <time>2019-02-08T08:26:26.000Z</time>
      </trkpt>
      <trkpt lat="45.58163" lon="6.64611">
        <ele>1647.5999755859</ele>
        <time>2019-02-08T08:26:27.000Z</time>
      </trkpt>
      <trkpt lat="45.58166" lon="6.64612">
        <ele>1648.4000244141</ele>
        <time>2019-02-08T08:26:29.000Z</time>
      </trkpt>
      <trkpt lat="45.58168" lon="6.64612">
        <ele>1649</ele>
        <time>2019-02-08T08:26:31.000Z</time>
      </trkpt>
      <trkpt lat="45.58169" lon="6.64613">
        <ele>1649</ele>
        <time>2019-02-08T08:26:32.000Z</time>
      </trkpt>
      <trkpt lat="45.58176" lon="6.64613">
        <ele>1651.1999511719</ele>
        <time>2019-02-08T08:26:38.000Z</time>
      </trkpt>
      <trkpt lat="45.58182" lon="6.64614">
        <ele>1653</ele>
        <time>2019-02-08T08:26:44.000Z</time>
      </trkpt>
      <trkpt lat="45.58184" lon="6.64614">
        <ele>1653.4000244141</ele>
        <time>2019-02-08T08:26:46.000Z</time>
      </trkpt>
      <trkpt lat="45.58188" lon="6.64616">
        <ele>1653.5999755859</ele>
        <time>2019-02-08T08:26:50.000Z</time>
      </trkpt>
      <trkpt lat="45.58189" lon="6.64616">
        <ele>1654</ele>
        <time>2019-02-08T08:26:51.000Z</time>
      </trkpt>
      <trkpt lat="45.58194" lon="6.64618">
        <ele>1654.8000488281</ele>
        <time>2019-02-08T08:26:56.000Z</time>
      </trkpt>
      <trkpt lat="45.58198" lon="6.64618">
        <ele>1655.4000244141</ele>
        <time>2019-02-08T08:26:59.000Z</time>
      </trkpt>
      <trkpt lat="45.582" lon="6.6462">
        <ele>1655.4000244141</ele>
        <time>2019-02-08T08:27:01.000Z</time>
      </trkpt>
      <trkpt lat="45.58203" lon="6.64624">
        <ele>1655.1999511719</ele>
        <time>2019-02-08T08:27:07.000Z</time>
      </trkpt>
      <trkpt lat="45.58203" lon="6.64625">
        <ele>1654.5999755859</ele>
        <time>2019-02-08T08:27:08.000Z</time>
      </trkpt>
      <trkpt lat="45.58205" lon="6.64631">
        <ele>1653.5999755859</ele>
        <time>2019-02-08T08:27:14.000Z</time>
      </trkpt>
      <trkpt lat="45.58209" lon="6.64634">
        <ele>1653.8000488281</ele>
        <time>2019-02-08T08:27:19.000Z</time>
      </trkpt>
      <trkpt lat="45.5821" lon="6.64634">
        <ele>1654</ele>
        <time>2019-02-08T08:27:20.000Z</time>
      </trkpt>
      <trkpt lat="45.58213" lon="6.64639">
        <ele>1653.5999755859</ele>
        <time>2019-02-08T08:27:26.000Z</time>
      </trkpt>
      <trkpt lat="45.58215" lon="6.64639">
        <ele>1653.5999755859</ele>
        <time>2019-02-08T08:27:28.000Z</time>
      </trkpt>
      <trkpt lat="45.58218" lon="6.64642">
        <ele>1653.8000488281</ele>
        <time>2019-02-08T08:27:31.000Z</time>
      </trkpt>
      <trkpt lat="45.5822" lon="6.64644">
        <ele>1653.8000488281</ele>
        <time>2019-02-08T08:27:34.000Z</time>
      </trkpt>
      <trkpt lat="45.58222" lon="6.64646">
        <ele>1653.5999755859</ele>
        <time>2019-02-08T08:27:37.000Z</time>
      </trkpt>
      <trkpt lat="45.58224" lon="6.64648">
        <ele>1653.8000488281</ele>
        <time>2019-02-08T08:27:39.000Z</time>
      </trkpt>
      <trkpt lat="45.58228" lon="6.6465">
        <ele>1653.8000488281</ele>
        <time>2019-02-08T08:27:43.000Z</time>
      </trkpt>
      <trkpt lat="45.58231" lon="6.64655">
        <ele>1653.4000244141</ele>
        <time>2019-02-08T08:27:48.000Z</time>
      </trkpt>
      <trkpt lat="45.58231" lon="6.64655">
        <ele>1653.1999511719</ele>
        <time>2019-02-08T08:27:49.000Z</time>
      </trkpt>
      <trkpt lat="45.58235" lon="6.64659">
        <ele>1653</ele>
        <time>2019-02-08T08:27:55.000Z</time>
      </trkpt>
      <trkpt lat="45.58237" lon="6.64661">
        <ele>1653</ele>
        <time>2019-02-08T08:27:57.000Z</time>
      </trkpt>
      <trkpt lat="45.5824" lon="6.64663">
        <ele>1653</ele>
        <time>2019-02-08T08:28:02.000Z</time>
      </trkpt>
      <trkpt lat="45.58242" lon="6.64665">
        <ele>1652.8000488281</ele>
        <time>2019-02-08T08:28:04.000Z</time>
      </trkpt>
      <trkpt lat="45.58245" lon="6.64668">
        <ele>1652.5999755859</ele>
        <time>2019-02-08T08:28:08.000Z</time>
      </trkpt>
      <trkpt lat="45.58246" lon="6.6467">
        <ele>1652.4000244141</ele>
        <time>2019-02-08T08:28:10.000Z</time>
      </trkpt>
      <trkpt lat="45.58249" lon="6.64673">
        <ele>1652.1999511719</ele>
        <time>2019-02-08T08:28:15.000Z</time>
      </trkpt>
      <trkpt lat="45.58252" lon="6.64676">
        <ele>1652</ele>
        <time>2019-02-08T08:28:19.000Z</time>
      </trkpt>
      <trkpt lat="45.58253" lon="6.64677">
        <ele>1652.1999511719</ele>
        <time>2019-02-08T08:28:20.000Z</time>
      </trkpt>
      <trkpt lat="45.58258" lon="6.64679">
        <ele>1652.4000244141</ele>
        <time>2019-02-08T08:28:26.000Z</time>
      </trkpt>
      <trkpt lat="45.58259" lon="6.6468">
        <ele>1652.4000244141</ele>
        <time>2019-02-08T08:28:27.000Z</time>
      </trkpt>
      <trkpt lat="45.58263" lon="6.64683">
        <ele>1652.4000244141</ele>
        <time>2019-02-08T08:28:33.000Z</time>
      </trkpt>
      <trkpt lat="45.58264" lon="6.64684">
        <ele>1652.5999755859</ele>
        <time>2019-02-08T08:28:35.000Z</time>
      </trkpt>
      <trkpt lat="45.58267" lon="6.64686">
        <ele>1652.4000244141</ele>
        <time>2019-02-08T08:28:39.000Z</time>
      </trkpt>
      <trkpt lat="45.58272" lon="6.64688">
        <ele>1652.8000488281</ele>
        <time>2019-02-08T08:28:44.000Z</time>
      </trkpt>
      <trkpt lat="45.58276" lon="6.64692">
        <ele>1653</ele>
        <time>2019-02-08T08:28:51.000Z</time>
      </trkpt>
      <trkpt lat="45.58278" lon="6.64693">
        <ele>1653.1999511719</ele>
        <time>2019-02-08T08:28:53.000Z</time>
      </trkpt>
      <trkpt lat="45.58281" lon="6.64693">
        <ele>1653.5999755859</ele>
        <time>2019-02-08T08:28:57.000Z</time>
      </trkpt>
      <trkpt lat="45.58283" lon="6.64694">
        <ele>1653.8000488281</ele>
        <time>2019-02-08T08:29:00.000Z</time>
      </trkpt>
      <trkpt lat="45.58284" lon="6.64695">
        <ele>1653.8000488281</ele>
        <time>2019-02-08T08:29:02.000Z</time>
      </trkpt>
      <trkpt lat="45.58289" lon="6.64696">
        <ele>1654.5999755859</ele>
        <time>2019-02-08T08:29:07.000Z</time>
      </trkpt>
      <trkpt lat="45.58291" lon="6.64696">
        <ele>1655</ele>
        <time>2019-02-08T08:29:10.000Z</time>
      </trkpt>
      <trkpt lat="45.58295" lon="6.64696">
        <ele>1656</ele>
        <time>2019-02-08T08:29:15.000Z</time>
      </trkpt>
      <trkpt lat="45.58296" lon="6.64697">
        <ele>1656.1999511719</ele>
        <time>2019-02-08T08:29:17.000Z</time>
      </trkpt>
      <trkpt lat="45.583" lon="6.64696">
        <ele>1657</ele>
        <time>2019-02-08T08:29:21.000Z</time>
      </trkpt>
      <trkpt lat="45.58303" lon="6.64696">
        <ele>1657.5999755859</ele>
        <time>2019-02-08T08:29:25.000Z</time>
      </trkpt>
      <trkpt lat="45.58304" lon="6.64696">
        <ele>1657.8000488281</ele>
        <time>2019-02-08T08:29:27.000Z</time>
      </trkpt>
      <trkpt lat="45.58305" lon="6.64695">
        <ele>1658</ele>
        <time>2019-02-08T08:29:28.000Z</time>
      </trkpt>
      <trkpt lat="45.58307" lon="6.64691">
        <ele>1659.5999755859</ele>
        <time>2019-02-08T08:29:32.000Z</time>
      </trkpt>
      <trkpt lat="45.58305" lon="6.64686">
        <ele>1660.8000488281</ele>
        <time>2019-02-08T08:29:36.000Z</time>
      </trkpt>
      <trkpt lat="45.58305" lon="6.64685">
        <ele>1660.8000488281</ele>
        <time>2019-02-08T08:29:37.000Z</time>
      </trkpt>
      <trkpt lat="45.58303" lon="6.64682">
        <ele>1661.5999755859</ele>
        <time>2019-02-08T08:29:41.000Z</time>
      </trkpt>
      <trkpt lat="45.58302" lon="6.64681">
        <ele>1661.8000488281</ele>
        <time>2019-02-08T08:29:43.000Z</time>
      </trkpt>
      <trkpt lat="45.58301" lon="6.64676">
        <ele>1663</ele>
        <time>2019-02-08T08:29:46.000Z</time>
      </trkpt>
      <trkpt lat="45.58299" lon="6.64671">
        <ele>1664</ele>
        <time>2019-02-08T08:29:51.000Z</time>
      </trkpt>
      <trkpt lat="45.58299" lon="6.64667">
        <ele>1665.1999511719</ele>
        <time>2019-02-08T08:29:56.000Z</time>
      </trkpt>
      <trkpt lat="45.58298" lon="6.64665">
        <ele>1665.8000488281</ele>
        <time>2019-02-08T08:29:57.000Z</time>
      </trkpt>
      <trkpt lat="45.58298" lon="6.6466">
        <ele>1667</ele>
        <time>2019-02-08T08:30:02.000Z</time>
      </trkpt>
      <trkpt lat="45.58298" lon="6.64657">
        <ele>1667.8000488281</ele>
        <time>2019-02-08T08:30:03.000Z</time>
      </trkpt>
      <trkpt lat="45.58297" lon="6.64656">
        <ele>1668.1999511719</ele>
        <time>2019-02-08T08:30:05.000Z</time>
      </trkpt>
      <trkpt lat="45.58297" lon="6.64654">
        <ele>1668.4000244141</ele>
        <time>2019-02-08T08:30:08.000Z</time>
      </trkpt>
      <trkpt lat="45.58297" lon="6.64651">
        <ele>1669.5999755859</ele>
        <time>2019-02-08T08:30:10.000Z</time>
      </trkpt>
      <trkpt lat="45.58299" lon="6.6465">
        <ele>1670.1999511719</ele>
        <time>2019-02-08T08:30:13.000Z</time>
      </trkpt>
      <trkpt lat="45.583" lon="6.6465">
        <ele>1670.1999511719</ele>
        <time>2019-02-08T08:30:15.000Z</time>
      </trkpt>
      <trkpt lat="45.58302" lon="6.64651">
        <ele>1670.1999511719</ele>
        <time>2019-02-08T08:30:18.000Z</time>
      </trkpt>
      <trkpt lat="45.58303" lon="6.64652">
        <ele>1670.1999511719</ele>
        <time>2019-02-08T08:30:19.000Z</time>
      </trkpt>
      <trkpt lat="45.58307" lon="6.64653">
        <ele>1670.4000244141</ele>
        <time>2019-02-08T08:30:24.000Z</time>
      </trkpt>
      <trkpt lat="45.58311" lon="6.64654">
        <ele>1670.4000244141</ele>
        <time>2019-02-08T08:30:30.000Z</time>
      </trkpt>
      <trkpt lat="45.58315" lon="6.64655">
        <ele>1670.4000244141</ele>
        <time>2019-02-08T08:30:36.000Z</time>
      </trkpt>
      <trkpt lat="45.58319" lon="6.64656">
        <ele>1670.4000244141</ele>
        <time>2019-02-08T08:30:42.000Z</time>
      </trkpt>
      <trkpt lat="45.5832" lon="6.64657">
        <ele>1670.4000244141</ele>
        <time>2019-02-08T08:30:44.000Z</time>
      </trkpt>
      <trkpt lat="45.58323" lon="6.64656">
        <ele>1670.8000488281</ele>
        <time>2019-02-08T08:30:48.000Z</time>
      </trkpt>
      <trkpt lat="45.58326" lon="6.64655">
        <ele>1671.4000244141</ele>
        <time>2019-02-08T08:30:51.000Z</time>
      </trkpt>
      <trkpt lat="45.58327" lon="6.64654">
        <ele>1671.8000488281</ele>
        <time>2019-02-08T08:30:53.000Z</time>
      </trkpt>
      <trkpt lat="45.58329" lon="6.64653">
        <ele>1672</ele>
        <time>2019-02-08T08:30:56.000Z</time>
      </trkpt>
      <trkpt lat="45.5833" lon="6.64652">
        <ele>1672.5999755859</ele>
        <time>2019-02-08T08:30:59.000Z</time>
      </trkpt>
      <trkpt lat="45.58332" lon="6.64651">
        <ele>1673</ele>
        <time>2019-02-08T08:31:01.000Z</time>
      </trkpt>
      <trkpt lat="45.58333" lon="6.64649">
        <ele>1673.1999511719</ele>
        <time>2019-02-08T08:31:03.000Z</time>
      </trkpt>
      <trkpt lat="45.58337" lon="6.64645">
        <ele>1674.4000244141</ele>
        <time>2019-02-08T08:31:07.000Z</time>
      </trkpt>
      <trkpt lat="45.58337" lon="6.64645">
        <ele>1674.4000244141</ele>
        <time>2019-02-08T08:31:08.000Z</time>
      </trkpt>
      <trkpt lat="45.5834" lon="6.64642">
        <ele>1675.1999511719</ele>
        <time>2019-02-08T08:31:13.000Z</time>
      </trkpt>
      <trkpt lat="45.58341" lon="6.64641">
        <ele>1675.4000244141</ele>
        <time>2019-02-08T08:31:14.000Z</time>
      </trkpt>
      <trkpt lat="45.58345" lon="6.64638">
        <ele>1676.1999511719</ele>
        <time>2019-02-08T08:31:19.000Z</time>
      </trkpt>
      <trkpt lat="45.58349" lon="6.64635">
        <ele>1677.1999511719</ele>
        <time>2019-02-08T08:31:25.000Z</time>
      </trkpt>
      <trkpt lat="45.5835" lon="6.64633">
        <ele>1677.5999755859</ele>
        <time>2019-02-08T08:31:28.000Z</time>
      </trkpt>
      <trkpt lat="45.58352" lon="6.64632">
        <ele>1678</ele>
        <time>2019-02-08T08:31:30.000Z</time>
      </trkpt>
      <trkpt lat="45.58353" lon="6.6463">
        <ele>1678.4000244141</ele>
        <time>2019-02-08T08:31:33.000Z</time>
      </trkpt>
      <trkpt lat="45.58355" lon="6.64628">
        <ele>1678.8000488281</ele>
        <time>2019-02-08T08:31:36.000Z</time>
      </trkpt>
      <trkpt lat="45.58357" lon="6.64626">
        <ele>1679.4000244141</ele>
        <time>2019-02-08T08:31:39.000Z</time>
      </trkpt>
      <trkpt lat="45.5836" lon="6.64625">
        <ele>1680</ele>
        <time>2019-02-08T08:31:42.000Z</time>
      </trkpt>
      <trkpt lat="45.58362" lon="6.64624">
        <ele>1680.8000488281</ele>
        <time>2019-02-08T08:31:48.000Z</time>
      </trkpt>
      <trkpt lat="45.58363" lon="6.64623">
        <ele>1681</ele>
        <time>2019-02-08T08:31:49.000Z</time>
      </trkpt>
      <trkpt lat="45.58366" lon="6.64621">
        <ele>1682.1999511719</ele>
        <time>2019-02-08T08:31:53.000Z</time>
      </trkpt>
      <trkpt lat="45.58367" lon="6.64621">
        <ele>1682.4000244141</ele>
        <time>2019-02-08T08:31:55.000Z</time>
      </trkpt>
      <trkpt lat="45.5837" lon="6.64619">
        <ele>1683.1999511719</ele>
        <time>2019-02-08T08:31:58.000Z</time>
      </trkpt>
      <trkpt lat="45.58373" lon="6.64618">
        <ele>1684.1999511719</ele>
        <time>2019-02-08T08:32:01.000Z</time>
      </trkpt>
      <trkpt lat="45.58375" lon="6.64617">
        <ele>1684.5999755859</ele>
        <time>2019-02-08T08:32:04.000Z</time>
      </trkpt>
      <trkpt lat="45.58375" lon="6.64617">
        <ele>1684.5999755859</ele>
        <time>2019-02-08T08:32:05.000Z</time>
      </trkpt>
      <trkpt lat="45.5838" lon="6.64615">
        <ele>1686.1999511719</ele>
        <time>2019-02-08T08:32:11.000Z</time>
      </trkpt>
      <trkpt lat="45.58381" lon="6.64614">
        <ele>1686.4000244141</ele>
        <time>2019-02-08T08:32:13.000Z</time>
      </trkpt>
      <trkpt lat="45.58385" lon="6.64612">
        <ele>1687.5999755859</ele>
        <time>2019-02-08T08:32:17.000Z</time>
      </trkpt>
      <trkpt lat="45.58389" lon="6.6461">
        <ele>1688.5999755859</ele>
        <time>2019-02-08T08:32:23.000Z</time>
      </trkpt>
      <trkpt lat="45.58394" lon="6.64609">
        <ele>1689.4000244141</ele>
        <time>2019-02-08T08:32:29.000Z</time>
      </trkpt>
      <trkpt lat="45.58396" lon="6.64608">
        <ele>1689.5999755859</ele>
        <time>2019-02-08T08:32:31.000Z</time>
      </trkpt>
      <trkpt lat="45.58398" lon="6.64606">
        <ele>1690.5999755859</ele>
        <time>2019-02-08T08:32:35.000Z</time>
      </trkpt>
      <trkpt lat="45.58398" lon="6.64606">
        <ele>1690.5999755859</ele>
        <time>2019-02-08T08:32:36.000Z</time>
      </trkpt>
      <trkpt lat="45.58403" lon="6.64604">
        <ele>1691.4000244141</ele>
        <time>2019-02-08T08:32:41.000Z</time>
      </trkpt>
      <trkpt lat="45.58404" lon="6.64603">
        <ele>1691.8000488281</ele>
        <time>2019-02-08T08:32:42.000Z</time>
      </trkpt>
      <trkpt lat="45.58406" lon="6.64602">
        <ele>1692.1999511719</ele>
        <time>2019-02-08T08:32:47.000Z</time>
      </trkpt>
      <trkpt lat="45.58409" lon="6.646">
        <ele>1693</ele>
        <time>2019-02-08T08:32:52.000Z</time>
      </trkpt>
      <trkpt lat="45.58411" lon="6.64599">
        <ele>1693.8000488281</ele>
        <time>2019-02-08T08:32:56.000Z</time>
      </trkpt>
      <trkpt lat="45.58412" lon="6.64598">
        <ele>1693.8000488281</ele>
        <time>2019-02-08T08:32:57.000Z</time>
      </trkpt>
      <trkpt lat="45.58413" lon="6.64596">
        <ele>1694.5999755859</ele>
        <time>2019-02-08T08:33:01.000Z</time>
      </trkpt>
      <trkpt lat="45.58414" lon="6.64595">
        <ele>1695</ele>
        <time>2019-02-08T08:33:03.000Z</time>
      </trkpt>
      <trkpt lat="45.58414" lon="6.64595">
        <ele>1695</ele>
        <time>2019-02-08T08:33:06.000Z</time>
      </trkpt>
      <trkpt lat="45.58416" lon="6.64591">
        <ele>1696</ele>
        <time>2019-02-08T08:33:10.000Z</time>
      </trkpt>
      <trkpt lat="45.58417" lon="6.64591">
        <ele>1696.1999511719</ele>
        <time>2019-02-08T08:33:11.000Z</time>
      </trkpt>
      <trkpt lat="45.58418" lon="6.64589">
        <ele>1696.5999755859</ele>
        <time>2019-02-08T08:33:15.000Z</time>
      </trkpt>
      <trkpt lat="45.58419" lon="6.64586">
        <ele>1697.4000244141</ele>
        <time>2019-02-08T08:33:19.000Z</time>
      </trkpt>
      <trkpt lat="45.5842" lon="6.64586">
        <ele>1697.4000244141</ele>
        <time>2019-02-08T08:33:20.000Z</time>
      </trkpt>
      <trkpt lat="45.58424" lon="6.64582">
        <ele>1698.5999755859</ele>
        <time>2019-02-08T08:33:27.000Z</time>
      </trkpt>
      <trkpt lat="45.58428" lon="6.64579">
        <ele>1699.8000488281</ele>
        <time>2019-02-08T08:33:33.000Z</time>
      </trkpt>
      <trkpt lat="45.58428" lon="6.64579">
        <ele>1699.8000488281</ele>
        <time>2019-02-08T08:33:34.000Z</time>
      </trkpt>
      <trkpt lat="45.58431" lon="6.64579">
        <ele>1700</ele>
        <time>2019-02-08T08:33:37.000Z</time>
      </trkpt>
      <trkpt lat="45.58431" lon="6.64578">
        <ele>1700.1999511719</ele>
        <time>2019-02-08T08:33:38.000Z</time>
      </trkpt>
      <trkpt lat="45.58434" lon="6.64577">
        <ele>1700.5999755859</ele>
        <time>2019-02-08T08:33:41.000Z</time>
      </trkpt>
      <trkpt lat="45.58435" lon="6.64576">
        <ele>1700.8000488281</ele>
        <time>2019-02-08T08:33:44.000Z</time>
      </trkpt>
      <trkpt lat="45.58436" lon="6.64576">
        <ele>1701</ele>
        <time>2019-02-08T08:33:46.000Z</time>
      </trkpt>
      <trkpt lat="45.58436" lon="6.64575">
        <ele>1701.4000244141</ele>
        <time>2019-02-08T08:33:48.000Z</time>
      </trkpt>
      <trkpt lat="45.58437" lon="6.64574">
        <ele>1701.5999755859</ele>
        <time>2019-02-08T08:33:50.000Z</time>
      </trkpt>
      <trkpt lat="45.58439" lon="6.64573">
        <ele>1701.8000488281</ele>
        <time>2019-02-08T08:33:54.000Z</time>
      </trkpt>
      <trkpt lat="45.58439" lon="6.64573">
        <ele>1701.8000488281</ele>
        <time>2019-02-08T08:33:55.000Z</time>
      </trkpt>
      <trkpt lat="45.5844" lon="6.64573">
        <ele>1702</ele>
        <time>2019-02-08T08:33:57.000Z</time>
      </trkpt>
      <trkpt lat="45.58442" lon="6.64572">
        <ele>1702.4000244141</ele>
        <time>2019-02-08T08:34:00.000Z</time>
      </trkpt>
      <trkpt lat="45.58447" lon="6.6457">
        <ele>1703.4000244141</ele>
        <time>2019-02-08T08:34:06.000Z</time>
      </trkpt>
      <trkpt lat="45.58449" lon="6.64569">
        <ele>1703.5999755859</ele>
        <time>2019-02-08T08:34:08.000Z</time>
      </trkpt>
      <trkpt lat="45.58452" lon="6.64566">
        <ele>1705</ele>
        <time>2019-02-08T08:34:14.000Z</time>
      </trkpt>
      <trkpt lat="45.58453" lon="6.64564">
        <ele>1705.5999755859</ele>
        <time>2019-02-08T08:34:19.000Z</time>
      </trkpt>
      <trkpt lat="45.58453" lon="6.64564">
        <ele>1705.5999755859</ele>
        <time>2019-02-08T08:34:20.000Z</time>
      </trkpt>
      <trkpt lat="45.58455" lon="6.6456">
        <ele>1707.1999511719</ele>
        <time>2019-02-08T08:34:24.000Z</time>
      </trkpt>
      <trkpt lat="45.58456" lon="6.64558">
        <ele>1708</ele>
        <time>2019-02-08T08:34:27.000Z</time>
      </trkpt>
      <trkpt lat="45.58456" lon="6.64558">
        <ele>1708</ele>
        <time>2019-02-08T08:34:28.000Z</time>
      </trkpt>
      <trkpt lat="45.58459" lon="6.64555">
        <ele>1709.4000244141</ele>
        <time>2019-02-08T08:34:32.000Z</time>
      </trkpt>
      <trkpt lat="45.58461" lon="6.64554">
        <ele>1710</ele>
        <time>2019-02-08T08:34:36.000Z</time>
      </trkpt>
      <trkpt lat="45.58462" lon="6.64553">
        <ele>1710.5999755859</ele>
        <time>2019-02-08T08:34:39.000Z</time>
      </trkpt>
      <trkpt lat="45.58465" lon="6.6455">
        <ele>1712.1999511719</ele>
        <time>2019-02-08T08:34:44.000Z</time>
      </trkpt>
      <trkpt lat="45.58466" lon="6.64548">
        <ele>1713</ele>
        <time>2019-02-08T08:34:45.000Z</time>
      </trkpt>
      <trkpt lat="45.58469" lon="6.64546">
        <ele>1714</ele>
        <time>2019-02-08T08:34:48.000Z</time>
      </trkpt>
      <trkpt lat="45.5847" lon="6.64545">
        <ele>1714.4000244141</ele>
        <time>2019-02-08T08:34:50.000Z</time>
      </trkpt>
      <trkpt lat="45.5847" lon="6.64545">
        <ele>1714.4000244141</ele>
        <time>2019-02-08T08:34:51.000Z</time>
      </trkpt>
      <trkpt lat="45.58472" lon="6.64543">
        <ele>1715</ele>
        <time>2019-02-08T08:34:56.000Z</time>
      </trkpt>
      <trkpt lat="45.58472" lon="6.64543">
        <ele>1715.1999511719</ele>
        <time>2019-02-08T08:34:57.000Z</time>
      </trkpt>
      <trkpt lat="45.58475" lon="6.6454">
        <ele>1716.1999511719</ele>
        <time>2019-02-08T08:35:02.000Z</time>
      </trkpt>
      <trkpt lat="45.58475" lon="6.64539">
        <ele>1716.5999755859</ele>
        <time>2019-02-08T08:35:04.000Z</time>
      </trkpt>
      <trkpt lat="45.58476" lon="6.64537">
        <ele>1717.1999511719</ele>
        <time>2019-02-08T08:35:08.000Z</time>
      </trkpt>
      <trkpt lat="45.5848" lon="6.64532">
        <ele>1719</ele>
        <time>2019-02-08T08:35:14.000Z</time>
      </trkpt>
      <trkpt lat="45.5848" lon="6.64532">
        <ele>1718.8000488281</ele>
        <time>2019-02-08T08:35:15.000Z</time>
      </trkpt>
      <trkpt lat="45.58481" lon="6.64529">
        <ele>1720.1999511719</ele>
        <time>2019-02-08T08:35:20.000Z</time>
      </trkpt>
      <trkpt lat="45.58482" lon="6.64528">
        <ele>1720.5999755859</ele>
        <time>2019-02-08T08:35:21.000Z</time>
      </trkpt>
      <trkpt lat="45.58484" lon="6.64525">
        <ele>1721.5999755859</ele>
        <time>2019-02-08T08:35:26.000Z</time>
      </trkpt>
      <trkpt lat="45.58485" lon="6.64524">
        <ele>1721.8000488281</ele>
        <time>2019-02-08T08:35:28.000Z</time>
      </trkpt>
      <trkpt lat="45.58487" lon="6.64522">
        <ele>1722.8000488281</ele>
        <time>2019-02-08T08:35:31.000Z</time>
      </trkpt>
      <trkpt lat="45.58487" lon="6.64522">
        <ele>1722.5999755859</ele>
        <time>2019-02-08T08:35:32.000Z</time>
      </trkpt>
      <trkpt lat="45.58491" lon="6.64517">
        <ele>1724.4000244141</ele>
        <time>2019-02-08T08:35:37.000Z</time>
      </trkpt>
      <trkpt lat="45.58493" lon="6.64515">
        <ele>1725.1999511719</ele>
        <time>2019-02-08T08:35:42.000Z</time>
      </trkpt>
      <trkpt lat="45.58495" lon="6.64513">
        <ele>1726</ele>
        <time>2019-02-08T08:35:44.000Z</time>
      </trkpt>
      <trkpt lat="45.58497" lon="6.64511">
        <ele>1726.5999755859</ele>
        <time>2019-02-08T08:35:48.000Z</time>
      </trkpt>
      <trkpt lat="45.58498" lon="6.6451">
        <ele>1727</ele>
        <time>2019-02-08T08:35:49.000Z</time>
      </trkpt>
      <trkpt lat="45.58499" lon="6.64509">
        <ele>1727.4000244141</ele>
        <time>2019-02-08T08:35:53.000Z</time>
      </trkpt>
      <trkpt lat="45.585" lon="6.64507">
        <ele>1727.8000488281</ele>
        <time>2019-02-08T08:35:54.000Z</time>
      </trkpt>
      <trkpt lat="45.58502" lon="6.64505">
        <ele>1728.5999755859</ele>
        <time>2019-02-08T08:35:58.000Z</time>
      </trkpt>
      <trkpt lat="45.58503" lon="6.64504">
        <ele>1729</ele>
        <time>2019-02-08T08:36:02.000Z</time>
      </trkpt>
      <trkpt lat="45.58503" lon="6.64503">
        <ele>1729.4000244141</ele>
        <time>2019-02-08T08:36:03.000Z</time>
      </trkpt>
      <trkpt lat="45.58505" lon="6.64502">
        <ele>1729.5999755859</ele>
        <time>2019-02-08T08:36:05.000Z</time>
      </trkpt>
      <trkpt lat="45.58508" lon="6.64499">
        <ele>1730.5999755859</ele>
        <time>2019-02-08T08:36:09.000Z</time>
      </trkpt>
      <trkpt lat="45.5851" lon="6.64497">
        <ele>1731.4000244141</ele>
        <time>2019-02-08T08:36:12.000Z</time>
      </trkpt>
      <trkpt lat="45.58511" lon="6.64496">
        <ele>1731.5999755859</ele>
        <time>2019-02-08T08:36:15.000Z</time>
      </trkpt>
      <trkpt lat="45.58513" lon="6.64494">
        <ele>1732.1999511719</ele>
        <time>2019-02-08T08:36:22.000Z</time>
      </trkpt>
      <trkpt lat="45.58513" lon="6.64494">
        <ele>1732.1999511719</ele>
        <time>2019-02-08T08:36:23.000Z</time>
      </trkpt>
      <trkpt lat="45.58511" lon="6.64491">
        <ele>1733.5999755859</ele>
        <time>2019-02-08T08:36:27.000Z</time>
      </trkpt>
      <trkpt lat="45.5851" lon="6.64491">
        <ele>1733.5999755859</ele>
        <time>2019-02-08T08:36:29.000Z</time>
      </trkpt>
      <trkpt lat="45.58506" lon="6.64488">
        <ele>1734.5999755859</ele>
        <time>2019-02-08T08:36:33.000Z</time>
      </trkpt>
      <trkpt lat="45.58505" lon="6.64487">
        <ele>1735</ele>
        <time>2019-02-08T08:36:35.000Z</time>
      </trkpt>
      <trkpt lat="45.58504" lon="6.64487">
        <ele>1735.4000244141</ele>
        <time>2019-02-08T08:36:38.000Z</time>
      </trkpt>
      <trkpt lat="45.58504" lon="6.64486">
        <ele>1735.5999755859</ele>
        <time>2019-02-08T08:36:39.000Z</time>
      </trkpt>
      <trkpt lat="45.585" lon="6.64483">
        <ele>1736.8000488281</ele>
        <time>2019-02-08T08:36:44.000Z</time>
      </trkpt>
      <trkpt lat="45.58495" lon="6.64481">
        <ele>1738</ele>
        <time>2019-02-08T08:36:50.000Z</time>
      </trkpt>
      <trkpt lat="45.58492" lon="6.64479">
        <ele>1739</ele>
        <time>2019-02-08T08:36:55.000Z</time>
      </trkpt>
      <trkpt lat="45.58488" lon="6.64476">
        <ele>1740.4000244141</ele>
        <time>2019-02-08T08:37:00.000Z</time>
      </trkpt>
      <trkpt lat="45.58488" lon="6.64475">
        <ele>1740.8000488281</ele>
        <time>2019-02-08T08:37:01.000Z</time>
      </trkpt>
      <trkpt lat="45.58485" lon="6.64472">
        <ele>1742</ele>
        <time>2019-02-08T08:37:06.000Z</time>
      </trkpt>
      <trkpt lat="45.58483" lon="6.64471">
        <ele>1742.5999755859</ele>
        <time>2019-02-08T08:37:09.000Z</time>
      </trkpt>
      <trkpt lat="45.58482" lon="6.64469">
        <ele>1743.1999511719</ele>
        <time>2019-02-08T08:37:11.000Z</time>
      </trkpt>
      <trkpt lat="45.5848" lon="6.64469">
        <ele>1743.5999755859</ele>
        <time>2019-02-08T08:37:15.000Z</time>
      </trkpt>
      <trkpt lat="45.58479" lon="6.64468">
        <ele>1744</ele>
        <time>2019-02-08T08:37:16.000Z</time>
      </trkpt>
      <trkpt lat="45.58477" lon="6.64466">
        <ele>1745</ele>
        <time>2019-02-08T08:37:20.000Z</time>
      </trkpt>
      <trkpt lat="45.58476" lon="6.64464">
        <ele>1745.5999755859</ele>
        <time>2019-02-08T08:37:23.000Z</time>
      </trkpt>
      <trkpt lat="45.58475" lon="6.64461">
        <ele>1746.8000488281</ele>
        <time>2019-02-08T08:37:26.000Z</time>
      </trkpt>
      <trkpt lat="45.58474" lon="6.6446">
        <ele>1747.4000244141</ele>
        <time>2019-02-08T08:37:28.000Z</time>
      </trkpt>
      <trkpt lat="45.58472" lon="6.64456">
        <ele>1749</ele>
        <time>2019-02-08T08:37:33.000Z</time>
      </trkpt>
      <trkpt lat="45.5847" lon="6.64452">
        <ele>1750.8000488281</ele>
        <time>2019-02-08T08:37:39.000Z</time>
      </trkpt>
      <trkpt lat="45.5847" lon="6.64452">
        <ele>1750.5999755859</ele>
        <time>2019-02-08T08:37:40.000Z</time>
      </trkpt>
      <trkpt lat="45.58468" lon="6.64448">
        <ele>1752.4000244141</ele>
        <time>2019-02-08T08:37:44.000Z</time>
      </trkpt>
      <trkpt lat="45.58467" lon="6.64447">
        <ele>1752.5999755859</ele>
        <time>2019-02-08T08:37:45.000Z</time>
      </trkpt>
      <trkpt lat="45.58465" lon="6.64443">
        <ele>1753.8000488281</ele>
        <time>2019-02-08T08:37:50.000Z</time>
      </trkpt>
      <trkpt lat="45.58465" lon="6.64441">
        <ele>1754.4000244141</ele>
        <time>2019-02-08T08:37:54.000Z</time>
      </trkpt>
      <trkpt lat="45.58463" lon="6.64437">
        <ele>1756</ele>
        <time>2019-02-08T08:37:59.000Z</time>
      </trkpt>
      <trkpt lat="45.5846" lon="6.64433">
        <ele>1756.8000488281</ele>
        <time>2019-02-08T08:38:03.000Z</time>
      </trkpt>
      <trkpt lat="45.5846" lon="6.64433">
        <ele>1757</ele>
        <time>2019-02-08T08:38:04.000Z</time>
      </trkpt>
      <trkpt lat="45.58458" lon="6.64429">
        <ele>1758</ele>
        <time>2019-02-08T08:38:08.000Z</time>
      </trkpt>
      <trkpt lat="45.58458" lon="6.64428">
        <ele>1758.1999511719</ele>
        <time>2019-02-08T08:38:10.000Z</time>
      </trkpt>
      <trkpt lat="45.58457" lon="6.64425">
        <ele>1759.5999755859</ele>
        <time>2019-02-08T08:38:14.000Z</time>
      </trkpt>
      <trkpt lat="45.58456" lon="6.64423">
        <ele>1760</ele>
        <time>2019-02-08T08:38:16.000Z</time>
      </trkpt>
      <trkpt lat="45.58454" lon="6.6442">
        <ele>1760.8000488281</ele>
        <time>2019-02-08T08:38:20.000Z</time>
      </trkpt>
      <trkpt lat="45.58454" lon="6.64419">
        <ele>1761</ele>
        <time>2019-02-08T08:38:21.000Z</time>
      </trkpt>
      <trkpt lat="45.58452" lon="6.64416">
        <ele>1762</ele>
        <time>2019-02-08T08:38:26.000Z</time>
      </trkpt>
      <trkpt lat="45.58452" lon="6.64416">
        <ele>1762.1999511719</ele>
        <time>2019-02-08T08:38:27.000Z</time>
      </trkpt>
      <trkpt lat="45.58451" lon="6.64413">
        <ele>1762.8000488281</ele>
        <time>2019-02-08T08:38:31.000Z</time>
      </trkpt>
      <trkpt lat="45.5845" lon="6.64413">
        <ele>1763</ele>
        <time>2019-02-08T08:38:32.000Z</time>
      </trkpt>
      <trkpt lat="45.58448" lon="6.64409">
        <ele>1764.1999511719</ele>
        <time>2019-02-08T08:38:36.000Z</time>
      </trkpt>
      <trkpt lat="45.58447" lon="6.64407">
        <ele>1764.5999755859</ele>
        <time>2019-02-08T08:38:38.000Z</time>
      </trkpt>
      <trkpt lat="45.58446" lon="6.64405">
        <ele>1765.1999511719</ele>
        <time>2019-02-08T08:38:41.000Z</time>
      </trkpt>
      <trkpt lat="45.58445" lon="6.64401">
        <ele>1766.4000244141</ele>
        <time>2019-02-08T08:38:45.000Z</time>
      </trkpt>
      <trkpt lat="45.58444" lon="6.64401">
        <ele>1766.5999755859</ele>
        <time>2019-02-08T08:38:46.000Z</time>
      </trkpt>
      <trkpt lat="45.58443" lon="6.64398">
        <ele>1767.1999511719</ele>
        <time>2019-02-08T08:38:49.000Z</time>
      </trkpt>
      <trkpt lat="45.58442" lon="6.64397">
        <ele>1767.5999755859</ele>
        <time>2019-02-08T08:38:51.000Z</time>
      </trkpt>
      <trkpt lat="45.58441" lon="6.64395">
        <ele>1768</ele>
        <time>2019-02-08T08:38:54.000Z</time>
      </trkpt>
      <trkpt lat="45.58439" lon="6.64392">
        <ele>1768.8000488281</ele>
        <time>2019-02-08T08:38:57.000Z</time>
      </trkpt>
      <trkpt lat="45.58437" lon="6.64388">
        <ele>1769.5999755859</ele>
        <time>2019-02-08T08:39:01.000Z</time>
      </trkpt>
      <trkpt lat="45.58437" lon="6.64388">
        <ele>1769.8000488281</ele>
        <time>2019-02-08T08:39:02.000Z</time>
      </trkpt>
      <trkpt lat="45.58433" lon="6.64384">
        <ele>1770.5999755859</ele>
        <time>2019-02-08T08:39:08.000Z</time>
      </trkpt>
      <trkpt lat="45.58432" lon="6.64382">
        <ele>1771</ele>
        <time>2019-02-08T08:39:10.000Z</time>
      </trkpt>
      <trkpt lat="45.58431" lon="6.6438">
        <ele>1771.5999755859</ele>
        <time>2019-02-08T08:39:13.000Z</time>
      </trkpt>
      <trkpt lat="45.5843" lon="6.64379">
        <ele>1771.8000488281</ele>
        <time>2019-02-08T08:39:14.000Z</time>
      </trkpt>
      <trkpt lat="45.58428" lon="6.64375">
        <ele>1773</ele>
        <time>2019-02-08T08:39:19.000Z</time>
      </trkpt>
      <trkpt lat="45.58428" lon="6.64374">
        <ele>1773.1999511719</ele>
        <time>2019-02-08T08:39:20.000Z</time>
      </trkpt>
      <trkpt lat="45.58427" lon="6.64372">
        <ele>1773.5999755859</ele>
        <time>2019-02-08T08:39:24.000Z</time>
      </trkpt>
      <trkpt lat="45.58426" lon="6.64369">
        <ele>1774.5999755859</ele>
        <time>2019-02-08T08:39:28.000Z</time>
      </trkpt>
      <trkpt lat="45.58425" lon="6.64369">
        <ele>1774.8000488281</ele>
        <time>2019-02-08T08:39:30.000Z</time>
      </trkpt>
      <trkpt lat="45.58424" lon="6.64366">
        <ele>1775.4000244141</ele>
        <time>2019-02-08T08:39:33.000Z</time>
      </trkpt>
      <trkpt lat="45.58423" lon="6.64365">
        <ele>1775.8000488281</ele>
        <time>2019-02-08T08:39:34.000Z</time>
      </trkpt>
      <trkpt lat="45.58421" lon="6.64362">
        <ele>1776.4000244141</ele>
        <time>2019-02-08T08:39:38.000Z</time>
      </trkpt>
      <trkpt lat="45.58419" lon="6.6436">
        <ele>1776.8000488281</ele>
        <time>2019-02-08T08:39:42.000Z</time>
      </trkpt>
      <trkpt lat="45.58419" lon="6.64359">
        <ele>1777</ele>
        <time>2019-02-08T08:39:43.000Z</time>
      </trkpt>
      <trkpt lat="45.58418" lon="6.64357">
        <ele>1777.5999755859</ele>
        <time>2019-02-08T08:39:48.000Z</time>
      </trkpt>
      <trkpt lat="45.58417" lon="6.64355">
        <ele>1778</ele>
        <time>2019-02-08T08:39:50.000Z</time>
      </trkpt>
      <trkpt lat="45.58415" lon="6.64353">
        <ele>1778.4000244141</ele>
        <time>2019-02-08T08:39:53.000Z</time>
      </trkpt>
      <trkpt lat="45.58413" lon="6.64349">
        <ele>1779.4000244141</ele>
        <time>2019-02-08T08:39:57.000Z</time>
      </trkpt>
      <trkpt lat="45.58413" lon="6.64349">
        <ele>1779.4000244141</ele>
        <time>2019-02-08T08:39:58.000Z</time>
      </trkpt>
      <trkpt lat="45.58411" lon="6.64345">
        <ele>1780.5999755859</ele>
        <time>2019-02-08T08:40:04.000Z</time>
      </trkpt>
      <trkpt lat="45.5841" lon="6.64341">
        <ele>1782</ele>
        <time>2019-02-08T08:40:09.000Z</time>
      </trkpt>
      <trkpt lat="45.5841" lon="6.6434">
        <ele>1782.1999511719</ele>
        <time>2019-02-08T08:40:10.000Z</time>
      </trkpt>
      <trkpt lat="45.58409" lon="6.64339">
        <ele>1782.1999511719</ele>
        <time>2019-02-08T08:40:12.000Z</time>
      </trkpt>
      <trkpt lat="45.58408" lon="6.64339">
        <ele>1782.1999511719</ele>
        <time>2019-02-08T08:40:13.000Z</time>
      </trkpt>
      <trkpt lat="45.58407" lon="6.64339">
        <ele>1782</ele>
        <time>2019-02-08T08:40:14.000Z</time>
      </trkpt>
      <trkpt lat="45.58405" lon="6.64339">
        <ele>1781.4000244141</ele>
        <time>2019-02-08T08:40:18.000Z</time>
      </trkpt>
      <trkpt lat="45.58404" lon="6.64339">
        <ele>1781.5999755859</ele>
        <time>2019-02-08T08:40:20.000Z</time>
      </trkpt>
      <trkpt lat="45.58404" lon="6.64338">
        <ele>1781.8000488281</ele>
        <time>2019-02-08T08:40:22.000Z</time>
      </trkpt>
      <trkpt lat="45.58404" lon="6.64336">
        <ele>1782.4000244141</ele>
        <time>2019-02-08T08:40:24.000Z</time>
      </trkpt>
      <trkpt lat="45.58405" lon="6.64335">
        <ele>1782.8000488281</ele>
        <time>2019-02-08T08:40:27.000Z</time>
      </trkpt>
      <trkpt lat="45.58405" lon="6.64335">
        <ele>1782.8000488281</ele>
        <time>2019-02-08T08:40:33.000Z</time>
      </trkpt>
      <trkpt lat="45.58405" lon="6.64335">
        <ele>1782.8000488281</ele>
        <time>2019-02-08T08:40:51.000Z</time>
      </trkpt>
      <trkpt lat="45.58407" lon="6.64331">
        <ele>1784.1999511719</ele>
        <time>2019-02-08T08:40:59.000Z</time>
      </trkpt>
      <trkpt lat="45.58412" lon="6.64328">
        <ele>1785.8000488281</ele>
        <time>2019-02-08T08:41:04.000Z</time>
      </trkpt>
      <trkpt lat="45.58415" lon="6.64326">
        <ele>1787</ele>
        <time>2019-02-08T08:41:08.000Z</time>
      </trkpt>
      <trkpt lat="45.58416" lon="6.64325">
        <ele>1787.4000244141</ele>
        <time>2019-02-08T08:41:09.000Z</time>
      </trkpt>
      <trkpt lat="45.58417" lon="6.64324">
        <ele>1787.8000488281</ele>
        <time>2019-02-08T08:41:12.000Z</time>
      </trkpt>
      <trkpt lat="45.58419" lon="6.64323">
        <ele>1788.1999511719</ele>
        <time>2019-02-08T08:41:14.000Z</time>
      </trkpt>
      <trkpt lat="45.58423" lon="6.64322">
        <ele>1789.1999511719</ele>
        <time>2019-02-08T08:41:18.000Z</time>
      </trkpt>
      <trkpt lat="45.58424" lon="6.64321">
        <ele>1789.5999755859</ele>
        <time>2019-02-08T08:41:20.000Z</time>
      </trkpt>
      <trkpt lat="45.58426" lon="6.6432">
        <ele>1790</ele>
        <time>2019-02-08T08:41:22.000Z</time>
      </trkpt>
      <trkpt lat="45.5843" lon="6.6432">
        <ele>1790.8000488281</ele>
        <time>2019-02-08T08:41:26.000Z</time>
      </trkpt>
      <trkpt lat="45.5843" lon="6.64319">
        <ele>1791</ele>
        <time>2019-02-08T08:41:27.000Z</time>
      </trkpt>
      <trkpt lat="45.58433" lon="6.64317">
        <ele>1792</ele>
        <time>2019-02-08T08:41:32.000Z</time>
      </trkpt>
      <trkpt lat="45.58434" lon="6.64316">
        <ele>1792.4000244141</ele>
        <time>2019-02-08T08:41:33.000Z</time>
      </trkpt>
      <trkpt lat="45.58436" lon="6.64316">
        <ele>1792.8000488281</ele>
        <time>2019-02-08T08:41:37.000Z</time>
      </trkpt>
      <trkpt lat="45.58439" lon="6.64314">
        <ele>1793.5999755859</ele>
        <time>2019-02-08T08:41:41.000Z</time>
      </trkpt>
      <trkpt lat="45.5844" lon="6.64314">
        <ele>1793.8000488281</ele>
        <time>2019-02-08T08:41:42.000Z</time>
      </trkpt>
      <trkpt lat="45.58443" lon="6.64313">
        <ele>1794.5999755859</ele>
        <time>2019-02-08T08:41:46.000Z</time>
      </trkpt>
      <trkpt lat="45.58444" lon="6.64313">
        <ele>1794.8000488281</ele>
        <time>2019-02-08T08:41:48.000Z</time>
      </trkpt>
      <trkpt lat="45.58446" lon="6.64312">
        <ele>1795.4000244141</ele>
        <time>2019-02-08T08:41:50.000Z</time>
      </trkpt>
      <trkpt lat="45.58447" lon="6.64311">
        <ele>1795.8000488281</ele>
        <time>2019-02-08T08:41:53.000Z</time>
      </trkpt>
      <trkpt lat="45.5845" lon="6.64311">
        <ele>1796.4000244141</ele>
        <time>2019-02-08T08:41:58.000Z</time>
      </trkpt>
      <trkpt lat="45.58451" lon="6.64311">
        <ele>1796.4000244141</ele>
        <time>2019-02-08T08:41:59.000Z</time>
      </trkpt>
      <trkpt lat="45.58453" lon="6.6431">
        <ele>1797</ele>
        <time>2019-02-08T08:42:03.000Z</time>
      </trkpt>
      <trkpt lat="45.58455" lon="6.6431">
        <ele>1797.4000244141</ele>
        <time>2019-02-08T08:42:05.000Z</time>
      </trkpt>
      <trkpt lat="45.58456" lon="6.64309">
        <ele>1797.4000244141</ele>
        <time>2019-02-08T08:42:06.000Z</time>
      </trkpt>
      <trkpt lat="45.5846" lon="6.64309">
        <ele>1798.1999511719</ele>
        <time>2019-02-08T08:42:11.000Z</time>
      </trkpt>
      <trkpt lat="45.58461" lon="6.64308">
        <ele>1798.5999755859</ele>
        <time>2019-02-08T08:42:12.000Z</time>
      </trkpt>
      <trkpt lat="45.58463" lon="6.64308">
        <ele>1799</ele>
        <time>2019-02-08T08:42:16.000Z</time>
      </trkpt>
      <trkpt lat="45.58463" lon="6.64308">
        <ele>1799</ele>
        <time>2019-02-08T08:42:18.000Z</time>
      </trkpt>
      <trkpt lat="45.58463" lon="6.64308">
        <ele>1799</ele>
        <time>2019-02-08T08:42:30.000Z</time>
      </trkpt>
      <trkpt lat="45.58463" lon="6.64308">
        <ele>1799</ele>
        <time>2019-02-08T08:42:47.000Z</time>
      </trkpt>
      <trkpt lat="45.58464" lon="6.64306">
        <ele>1799.8000488281</ele>
        <time>2019-02-08T08:42:54.000Z</time>
      </trkpt>
      <trkpt lat="45.58463" lon="6.64304">
        <ele>1800.1999511719</ele>
        <time>2019-02-08T08:42:58.000Z</time>
      </trkpt>
      <trkpt lat="45.58462" lon="6.64303">
        <ele>1800.5999755859</ele>
        <time>2019-02-08T08:42:59.000Z</time>
      </trkpt>
      <trkpt lat="45.58461" lon="6.64301">
        <ele>1801</ele>
        <time>2019-02-08T08:43:01.000Z</time>
      </trkpt>
      <trkpt lat="45.58461" lon="6.64301">
        <ele>1801.1999511719</ele>
        <time>2019-02-08T08:43:03.000Z</time>
      </trkpt>
      <trkpt lat="45.5846" lon="6.64299">
        <ele>1801.5999755859</ele>
        <time>2019-02-08T08:43:04.000Z</time>
      </trkpt>
      <trkpt lat="45.5846" lon="6.64298">
        <ele>1802</ele>
        <time>2019-02-08T08:43:06.000Z</time>
      </trkpt>
      <trkpt lat="45.58459" lon="6.64297">
        <ele>1802.4000244141</ele>
        <time>2019-02-08T08:43:07.000Z</time>
      </trkpt>
      <trkpt lat="45.58459" lon="6.64296">
        <ele>1802.4000244141</ele>
        <time>2019-02-08T08:43:08.000Z</time>
      </trkpt>
      <trkpt lat="45.58456" lon="6.64292">
        <ele>1803.5999755859</ele>
        <time>2019-02-08T08:43:12.000Z</time>
      </trkpt>
      <trkpt lat="45.58456" lon="6.64291">
        <ele>1803.8000488281</ele>
        <time>2019-02-08T08:43:13.000Z</time>
      </trkpt>
      <trkpt lat="45.58454" lon="6.64288">
        <ele>1804.8000488281</ele>
        <time>2019-02-08T08:43:17.000Z</time>
      </trkpt>
      <trkpt lat="45.58453" lon="6.64286">
        <ele>1805.1999511719</ele>
        <time>2019-02-08T08:43:18.000Z</time>
      </trkpt>
      <trkpt lat="45.58452" lon="6.64284">
        <ele>1805.8000488281</ele>
        <time>2019-02-08T08:43:21.000Z</time>
      </trkpt>
      <trkpt lat="45.58451" lon="6.64282">
        <ele>1806.1999511719</ele>
        <time>2019-02-08T08:43:23.000Z</time>
      </trkpt>
      <trkpt lat="45.58449" lon="6.64281">
        <ele>1806.4000244141</ele>
        <time>2019-02-08T08:43:25.000Z</time>
      </trkpt>
      <trkpt lat="45.58446" lon="6.64277">
        <ele>1807.4000244141</ele>
        <time>2019-02-08T08:43:30.000Z</time>
      </trkpt>
      <trkpt lat="45.58446" lon="6.64276">
        <ele>1807.4000244141</ele>
        <time>2019-02-08T08:43:31.000Z</time>
      </trkpt>
      <trkpt lat="45.58442" lon="6.64273">
        <ele>1807.8000488281</ele>
        <time>2019-02-08T08:43:36.000Z</time>
      </trkpt>
      <trkpt lat="45.58441" lon="6.64273">
        <ele>1808</ele>
        <time>2019-02-08T08:43:40.000Z</time>
      </trkpt>
      <trkpt lat="45.58441" lon="6.64273">
        <ele>1808</ele>
        <time>2019-02-08T08:43:44.000Z</time>
      </trkpt>
      <trkpt lat="45.58441" lon="6.64273">
        <ele>1808</ele>
        <time>2019-02-08T08:43:55.000Z</time>
      </trkpt>
      <trkpt lat="45.58441" lon="6.64271">
        <ele>1808.4000244141</ele>
        <time>2019-02-08T08:44:01.000Z</time>
      </trkpt>
      <trkpt lat="45.58441" lon="6.64271">
        <ele>1808.4000244141</ele>
        <time>2019-02-08T08:44:08.000Z</time>
      </trkpt>
      <trkpt lat="45.58441" lon="6.64271">
        <ele>1808.4000244141</ele>
        <time>2019-02-08T08:44:16.000Z</time>
      </trkpt>
      <trkpt lat="45.58441" lon="6.64271">
        <ele>1808.4000244141</ele>
        <time>2019-02-08T08:44:32.000Z</time>
      </trkpt>
      <trkpt lat="45.58441" lon="6.64271">
        <ele>1808.5999755859</ele>
        <time>2019-02-08T08:44:47.000Z</time>
      </trkpt>
      <trkpt lat="45.58441" lon="6.64271">
        <ele>1808.5999755859</ele>
        <time>2019-02-08T08:45:02.000Z</time>
      </trkpt>
      <trkpt lat="45.58441" lon="6.64271">
        <ele>1808.5999755859</ele>
        <time>2019-02-08T08:45:12.000Z</time>
      </trkpt>
      <trkpt lat="45.5844" lon="6.64269">
        <ele>1809</ele>
        <time>2019-02-08T08:45:19.000Z</time>
      </trkpt>
      <trkpt lat="45.58437" lon="6.64268">
        <ele>1809</ele>
        <time>2019-02-08T08:45:30.000Z</time>
      </trkpt>
      <trkpt lat="45.58432" lon="6.64266">
        <ele>1809</ele>
        <time>2019-02-08T08:45:35.000Z</time>
      </trkpt>
      <trkpt lat="45.58426" lon="6.64262">
        <ele>1809.4000244141</ele>
        <time>2019-02-08T08:45:41.000Z</time>
      </trkpt>
      <trkpt lat="45.58421" lon="6.64258">
        <ele>1809.8000488281</ele>
        <time>2019-02-08T08:45:47.000Z</time>
      </trkpt>
      <trkpt lat="45.58415" lon="6.64255">
        <ele>1810</ele>
        <time>2019-02-08T08:45:53.000Z</time>
      </trkpt>
      <trkpt lat="45.58414" lon="6.64254">
        <ele>1810</ele>
        <time>2019-02-08T08:45:55.000Z</time>
      </trkpt>
      <trkpt lat="45.58411" lon="6.64252">
        <ele>1810.4000244141</ele>
        <time>2019-02-08T08:45:59.000Z</time>
      </trkpt>
      <trkpt lat="45.58407" lon="6.6425">
        <ele>1810.5999755859</ele>
        <time>2019-02-08T08:46:03.000Z</time>
      </trkpt>
      <trkpt lat="45.58405" lon="6.64249">
        <ele>1810.5999755859</ele>
        <time>2019-02-08T08:46:05.000Z</time>
      </trkpt>
      <trkpt lat="45.58399" lon="6.6425">
        <ele>1809.4000244141</ele>
        <time>2019-02-08T08:46:10.000Z</time>
      </trkpt>
      <trkpt lat="45.58396" lon="6.64249">
        <ele>1809.1999511719</ele>
        <time>2019-02-08T08:46:12.000Z</time>
      </trkpt>
      <trkpt lat="45.58393" lon="6.64248">
        <ele>1809.1999511719</ele>
        <time>2019-02-08T08:46:15.000Z</time>
      </trkpt>
      <trkpt lat="45.5839" lon="6.64244">
        <ele>1810</ele>
        <time>2019-02-08T08:46:19.000Z</time>
      </trkpt>
      <trkpt lat="45.58385" lon="6.64242">
        <ele>1810</ele>
        <time>2019-02-08T08:46:24.000Z</time>
      </trkpt>
      <trkpt lat="45.58384" lon="6.64241">
        <ele>1810.1999511719</ele>
        <time>2019-02-08T08:46:25.000Z</time>
      </trkpt>
      <trkpt lat="45.58381" lon="6.64239">
        <ele>1811</ele>
        <time>2019-02-08T08:46:29.000Z</time>
      </trkpt>
      <trkpt lat="45.58377" lon="6.64235">
        <ele>1812.1999511719</ele>
        <time>2019-02-08T08:46:33.000Z</time>
      </trkpt>
      <trkpt lat="45.58376" lon="6.64234">
        <ele>1812.4000244141</ele>
        <time>2019-02-08T08:46:34.000Z</time>
      </trkpt>
      <trkpt lat="45.58372" lon="6.64232">
        <ele>1813.1999511719</ele>
        <time>2019-02-08T08:46:38.000Z</time>
      </trkpt>
      <trkpt lat="45.58366" lon="6.64228">
        <ele>1814.1999511719</ele>
        <time>2019-02-08T08:46:44.000Z</time>
      </trkpt>
      <trkpt lat="45.58363" lon="6.64224">
        <ele>1815.5999755859</ele>
        <time>2019-02-08T08:46:49.000Z</time>
      </trkpt>
      <trkpt lat="45.58359" lon="6.6422">
        <ele>1817</ele>
        <time>2019-02-08T08:46:54.000Z</time>
      </trkpt>
      <trkpt lat="45.58355" lon="6.64219">
        <ele>1817.1999511719</ele>
        <time>2019-02-08T08:46:57.000Z</time>
      </trkpt>
      <trkpt lat="45.58353" lon="6.64219">
        <ele>1817.1999511719</ele>
        <time>2019-02-08T08:46:59.000Z</time>
      </trkpt>
      <trkpt lat="45.5835" lon="6.64218">
        <ele>1817.5999755859</ele>
        <time>2019-02-08T08:47:04.000Z</time>
      </trkpt>
      <trkpt lat="45.58348" lon="6.64216">
        <ele>1818.1999511719</ele>
        <time>2019-02-08T08:47:08.000Z</time>
      </trkpt>
      <trkpt lat="45.58346" lon="6.64214">
        <ele>1818.8000488281</ele>
        <time>2019-02-08T08:47:11.000Z</time>
      </trkpt>
      <trkpt lat="45.58344" lon="6.64211">
        <ele>1820</ele>
        <time>2019-02-08T08:47:16.000Z</time>
      </trkpt>
      <trkpt lat="45.58344" lon="6.6421">
        <ele>1820.4000244141</ele>
        <time>2019-02-08T08:47:17.000Z</time>
      </trkpt>
      <trkpt lat="45.58343" lon="6.64207">
        <ele>1821</ele>
        <time>2019-02-08T08:47:21.000Z</time>
      </trkpt>
      <trkpt lat="45.58343" lon="6.64206">
        <ele>1821.4000244141</ele>
        <time>2019-02-08T08:47:22.000Z</time>
      </trkpt>
      <trkpt lat="45.5834" lon="6.64202">
        <ele>1822.8000488281</ele>
        <time>2019-02-08T08:47:27.000Z</time>
      </trkpt>
      <trkpt lat="45.58339" lon="6.64199">
        <ele>1824</ele>
        <time>2019-02-08T08:47:31.000Z</time>
      </trkpt>
      <trkpt lat="45.58338" lon="6.64197">
        <ele>1824.4000244141</ele>
        <time>2019-02-08T08:47:34.000Z</time>
      </trkpt>
      <trkpt lat="45.58337" lon="6.64196">
        <ele>1824.8000488281</ele>
        <time>2019-02-08T08:47:37.000Z</time>
      </trkpt>
      <trkpt lat="45.58337" lon="6.64195">
        <ele>1825</ele>
        <time>2019-02-08T08:47:41.000Z</time>
      </trkpt>
      <trkpt lat="45.58338" lon="6.64195">
        <ele>1825.1999511719</ele>
        <time>2019-02-08T08:47:42.000Z</time>
      </trkpt>
      <trkpt lat="45.5834" lon="6.64193">
        <ele>1826</ele>
        <time>2019-02-08T08:47:46.000Z</time>
      </trkpt>
      <trkpt lat="45.5834" lon="6.64192">
        <ele>1826.1999511719</ele>
        <time>2019-02-08T08:47:47.000Z</time>
      </trkpt>
      <trkpt lat="45.58343" lon="6.6419">
        <ele>1827.8000488281</ele>
        <time>2019-02-08T08:47:53.000Z</time>
      </trkpt>
      <trkpt lat="45.58345" lon="6.64188">
        <ele>1829</ele>
        <time>2019-02-08T08:47:56.000Z</time>
      </trkpt>
      <trkpt lat="45.58348" lon="6.64186">
        <ele>1830.8000488281</ele>
        <time>2019-02-08T08:48:00.000Z</time>
      </trkpt>
      <trkpt lat="45.58348" lon="6.64185">
        <ele>1831.1999511719</ele>
        <time>2019-02-08T08:48:02.000Z</time>
      </trkpt>
      <trkpt lat="45.58351" lon="6.64184">
        <ele>1832.4000244141</ele>
        <time>2019-02-08T08:48:07.000Z</time>
      </trkpt>
      <trkpt lat="45.58351" lon="6.64183">
        <ele>1832.5999755859</ele>
        <time>2019-02-08T08:48:08.000Z</time>
      </trkpt>
      <trkpt lat="45.58353" lon="6.64182">
        <ele>1833.5999755859</ele>
        <time>2019-02-08T08:48:11.000Z</time>
      </trkpt>
      <trkpt lat="45.58351" lon="6.64178">
        <ele>1835.1999511719</ele>
        <time>2019-02-08T08:48:15.000Z</time>
      </trkpt>
      <trkpt lat="45.58349" lon="6.64176">
        <ele>1836.1999511719</ele>
        <time>2019-02-08T08:48:18.000Z</time>
      </trkpt>
      <trkpt lat="45.58348" lon="6.64175">
        <ele>1836.1999511719</ele>
        <time>2019-02-08T08:48:19.000Z</time>
      </trkpt>
      <trkpt lat="45.58345" lon="6.64174">
        <ele>1836.4000244141</ele>
        <time>2019-02-08T08:48:23.000Z</time>
      </trkpt>
      <trkpt lat="45.58345" lon="6.64173">
        <ele>1836.5999755859</ele>
        <time>2019-02-08T08:48:24.000Z</time>
      </trkpt>
      <trkpt lat="45.58342" lon="6.64172">
        <ele>1836.8000488281</ele>
        <time>2019-02-08T08:48:28.000Z</time>
      </trkpt>
      <trkpt lat="45.58342" lon="6.64171">
        <ele>1837.1999511719</ele>
        <time>2019-02-08T08:48:29.000Z</time>
      </trkpt>
      <trkpt lat="45.58339" lon="6.6417">
        <ele>1837.4000244141</ele>
        <time>2019-02-08T08:48:33.000Z</time>
      </trkpt>
      <trkpt lat="45.58339" lon="6.64169">
        <ele>1837.5999755859</ele>
        <time>2019-02-08T08:48:34.000Z</time>
      </trkpt>
      <trkpt lat="45.58336" lon="6.64167">
        <ele>1838.1999511719</ele>
        <time>2019-02-08T08:48:39.000Z</time>
      </trkpt>
      <trkpt lat="45.58336" lon="6.64167">
        <ele>1838.1999511719</ele>
        <time>2019-02-08T08:48:42.000Z</time>
      </trkpt>
      <trkpt lat="45.58336" lon="6.64167">
        <ele>1838.1999511719</ele>
        <time>2019-02-08T08:48:46.000Z</time>
      </trkpt>
      <trkpt lat="45.58335" lon="6.64165">
        <ele>1839</ele>
        <time>2019-02-08T08:48:52.000Z</time>
      </trkpt>
      <trkpt lat="45.58335" lon="6.64165">
        <ele>1839</ele>
        <time>2019-02-08T08:48:53.000Z</time>
      </trkpt>
      <trkpt lat="45.58337" lon="6.64165">
        <ele>1839.5999755859</ele>
        <time>2019-02-08T08:48:57.000Z</time>
      </trkpt>
      <trkpt lat="45.5834" lon="6.64162">
        <ele>1841.4000244141</ele>
        <time>2019-02-08T08:49:02.000Z</time>
      </trkpt>
      <trkpt lat="45.58341" lon="6.64162">
        <ele>1841.8000488281</ele>
        <time>2019-02-08T08:49:03.000Z</time>
      </trkpt>
      <trkpt lat="45.58344" lon="6.64159">
        <ele>1843.5999755859</ele>
        <time>2019-02-08T08:49:08.000Z</time>
      </trkpt>
      <trkpt lat="45.58349" lon="6.64156">
        <ele>1846</ele>
        <time>2019-02-08T08:49:14.000Z</time>
      </trkpt>
      <trkpt lat="45.5835" lon="6.64155">
        <ele>1847.1999511719</ele>
        <time>2019-02-08T08:49:18.000Z</time>
      </trkpt>
      <trkpt lat="45.58352" lon="6.64152">
        <ele>1848.8000488281</ele>
        <time>2019-02-08T08:49:22.000Z</time>
      </trkpt>
      <trkpt lat="45.58354" lon="6.64151">
        <ele>1849.5999755859</ele>
        <time>2019-02-08T08:49:26.000Z</time>
      </trkpt>
      <trkpt lat="45.58354" lon="6.64151">
        <ele>1849.5999755859</ele>
        <time>2019-02-08T08:49:31.000Z</time>
      </trkpt>
      <trkpt lat="45.58356" lon="6.6415">
        <ele>1850.4000244141</ele>
        <time>2019-02-08T08:49:40.000Z</time>
      </trkpt>
      <trkpt lat="45.58353" lon="6.64143">
        <ele>1852.1999511719</ele>
        <time>2019-02-08T08:49:48.000Z</time>
      </trkpt>
      <trkpt lat="45.58351" lon="6.64142">
        <ele>1852.4000244141</ele>
        <time>2019-02-08T08:49:50.000Z</time>
      </trkpt>
      <trkpt lat="45.58349" lon="6.64139">
        <ele>1852.5999755859</ele>
        <time>2019-02-08T08:49:54.000Z</time>
      </trkpt>
      <trkpt lat="45.58347" lon="6.64139">
        <ele>1852.4000244141</ele>
        <time>2019-02-08T08:49:56.000Z</time>
      </trkpt>
      <trkpt lat="45.58345" lon="6.64138">
        <ele>1852.5999755859</ele>
        <time>2019-02-08T08:49:59.000Z</time>
      </trkpt>
      <trkpt lat="45.58343" lon="6.64137">
        <ele>1852.5999755859</ele>
        <time>2019-02-08T08:50:01.000Z</time>
      </trkpt>
      <trkpt lat="45.58341" lon="6.64136">
        <ele>1852.5999755859</ele>
        <time>2019-02-08T08:50:04.000Z</time>
      </trkpt>
      <trkpt lat="45.58339" lon="6.64135">
        <ele>1852.5999755859</ele>
        <time>2019-02-08T08:50:07.000Z</time>
      </trkpt>
      <trkpt lat="45.58336" lon="6.64133">
        <ele>1852.5999755859</ele>
        <time>2019-02-08T08:50:11.000Z</time>
      </trkpt>
      <trkpt lat="45.58333" lon="6.64131">
        <ele>1852.8000488281</ele>
        <time>2019-02-08T08:50:15.000Z</time>
      </trkpt>
      <trkpt lat="45.58333" lon="6.64131">
        <ele>1852.8000488281</ele>
        <time>2019-02-08T08:50:17.000Z</time>
      </trkpt>
      <trkpt lat="45.58332" lon="6.6413">
        <ele>1853</ele>
        <time>2019-02-08T08:50:19.000Z</time>
      </trkpt>
      <trkpt lat="45.58329" lon="6.64126">
        <ele>1853.5999755859</ele>
        <time>2019-02-08T08:50:24.000Z</time>
      </trkpt>
      <trkpt lat="45.58327" lon="6.64125">
        <ele>1853.8000488281</ele>
        <time>2019-02-08T08:50:26.000Z</time>
      </trkpt>
      <trkpt lat="45.58326" lon="6.64123">
        <ele>1854.1999511719</ele>
        <time>2019-02-08T08:50:30.000Z</time>
      </trkpt>
      <trkpt lat="45.58324" lon="6.64122">
        <ele>1854.4000244141</ele>
        <time>2019-02-08T08:50:34.000Z</time>
      </trkpt>
      <trkpt lat="45.58324" lon="6.64121">
        <ele>1854.5999755859</ele>
        <time>2019-02-08T08:50:35.000Z</time>
      </trkpt>
      <trkpt lat="45.58323" lon="6.6412">
        <ele>1854.5999755859</ele>
        <time>2019-02-08T08:50:37.000Z</time>
      </trkpt>
      <trkpt lat="45.5832" lon="6.64119">
        <ele>1854.5999755859</ele>
        <time>2019-02-08T08:50:41.000Z</time>
      </trkpt>
      <trkpt lat="45.5832" lon="6.64119">
        <ele>1854.8000488281</ele>
        <time>2019-02-08T08:50:42.000Z</time>
      </trkpt>
      <trkpt lat="45.58318" lon="6.64117">
        <ele>1855</ele>
        <time>2019-02-08T08:50:45.000Z</time>
      </trkpt>
      <trkpt lat="45.58317" lon="6.64116">
        <ele>1855.1999511719</ele>
        <time>2019-02-08T08:50:46.000Z</time>
      </trkpt>
      <trkpt lat="45.58316" lon="6.64114">
        <ele>1855.5999755859</ele>
        <time>2019-02-08T08:50:50.000Z</time>
      </trkpt>
      <trkpt lat="45.58315" lon="6.64114">
        <ele>1855.5999755859</ele>
        <time>2019-02-08T08:50:51.000Z</time>
      </trkpt>
      <trkpt lat="45.58312" lon="6.64111">
        <ele>1856</ele>
        <time>2019-02-08T08:50:56.000Z</time>
      </trkpt>
      <trkpt lat="45.58311" lon="6.6411">
        <ele>1856.1999511719</ele>
        <time>2019-02-08T08:50:58.000Z</time>
      </trkpt>
      <trkpt lat="45.5831" lon="6.64108">
        <ele>1856.4000244141</ele>
        <time>2019-02-08T08:51:00.000Z</time>
      </trkpt>
      <trkpt lat="45.58308" lon="6.64107">
        <ele>1856.8000488281</ele>
        <time>2019-02-08T08:51:03.000Z</time>
      </trkpt>
      <trkpt lat="45.58307" lon="6.64106">
        <ele>1857</ele>
        <time>2019-02-08T08:51:05.000Z</time>
      </trkpt>
      <trkpt lat="45.58307" lon="6.64104">
        <ele>1857.4000244141</ele>
        <time>2019-02-08T08:51:07.000Z</time>
      </trkpt>
      <trkpt lat="45.58306" lon="6.64103">
        <ele>1857.8000488281</ele>
        <time>2019-02-08T08:51:09.000Z</time>
      </trkpt>
      <trkpt lat="45.58306" lon="6.64102">
        <ele>1858</ele>
        <time>2019-02-08T08:51:10.000Z</time>
      </trkpt>
      <trkpt lat="45.58303" lon="6.64099">
        <ele>1858.4000244141</ele>
        <time>2019-02-08T08:51:15.000Z</time>
      </trkpt>
      <trkpt lat="45.583" lon="6.64096">
        <ele>1859.4000244141</ele>
        <time>2019-02-08T08:51:21.000Z</time>
      </trkpt>
      <trkpt lat="45.58298" lon="6.64093">
        <ele>1860.1999511719</ele>
        <time>2019-02-08T08:51:25.000Z</time>
      </trkpt>
      <trkpt lat="45.58298" lon="6.64092">
        <ele>1860.4000244141</ele>
        <time>2019-02-08T08:51:26.000Z</time>
      </trkpt>
      <trkpt lat="45.58297" lon="6.64091">
        <ele>1861</ele>
        <time>2019-02-08T08:51:31.000Z</time>
      </trkpt>
      <trkpt lat="45.58297" lon="6.64091">
        <ele>1861</ele>
        <time>2019-02-08T08:51:32.000Z</time>
      </trkpt>
      <trkpt lat="45.58296" lon="6.64088">
        <ele>1862</ele>
        <time>2019-02-08T08:51:36.000Z</time>
      </trkpt>
      <trkpt lat="45.58295" lon="6.64086">
        <ele>1862.5999755859</ele>
        <time>2019-02-08T08:51:40.000Z</time>
      </trkpt>
      <trkpt lat="45.58293" lon="6.64083">
        <ele>1863.5999755859</ele>
        <time>2019-02-08T08:51:44.000Z</time>
      </trkpt>
      <trkpt lat="45.58292" lon="6.64081">
        <ele>1864.1999511719</ele>
        <time>2019-02-08T08:51:46.000Z</time>
      </trkpt>
      <trkpt lat="45.58291" lon="6.64078">
        <ele>1865</ele>
        <time>2019-02-08T08:51:49.000Z</time>
      </trkpt>
      <trkpt lat="45.58291" lon="6.64077">
        <ele>1865.5999755859</ele>
        <time>2019-02-08T08:51:50.000Z</time>
      </trkpt>
      <trkpt lat="45.5829" lon="6.64075">
        <ele>1866</ele>
        <time>2019-02-08T08:51:53.000Z</time>
      </trkpt>
      <trkpt lat="45.58289" lon="6.64075">
        <ele>1866.1999511719</ele>
        <time>2019-02-08T08:51:55.000Z</time>
      </trkpt>
      <trkpt lat="45.58289" lon="6.64071">
        <ele>1867.4000244141</ele>
        <time>2019-02-08T08:51:59.000Z</time>
      </trkpt>
      <trkpt lat="45.58289" lon="6.6407">
        <ele>1867.8000488281</ele>
        <time>2019-02-08T08:52:01.000Z</time>
      </trkpt>
      <trkpt lat="45.58289" lon="6.64069">
        <ele>1868.1999511719</ele>
        <time>2019-02-08T08:52:04.000Z</time>
      </trkpt>
      <trkpt lat="45.58289" lon="6.64068">
        <ele>1868.4000244141</ele>
        <time>2019-02-08T08:52:06.000Z</time>
      </trkpt>
      <trkpt lat="45.5829" lon="6.64066">
        <ele>1869</ele>
        <time>2019-02-08T08:52:08.000Z</time>
      </trkpt>
      <trkpt lat="45.58291" lon="6.64061">
        <ele>1870.1999511719</ele>
        <time>2019-02-08T08:52:12.000Z</time>
      </trkpt>
      <trkpt lat="45.58293" lon="6.64057">
        <ele>1871.1999511719</ele>
        <time>2019-02-08T08:52:17.000Z</time>
      </trkpt>
      <trkpt lat="45.58294" lon="6.64052">
        <ele>1873</ele>
        <time>2019-02-08T08:52:22.000Z</time>
      </trkpt>
      <trkpt lat="45.58294" lon="6.64051">
        <ele>1873.1999511719</ele>
        <time>2019-02-08T08:52:23.000Z</time>
      </trkpt>
      <trkpt lat="45.58296" lon="6.64047">
        <ele>1874.5999755859</ele>
        <time>2019-02-08T08:52:28.000Z</time>
      </trkpt>
      <trkpt lat="45.58299" lon="6.64043">
        <ele>1876.1999511719</ele>
        <time>2019-02-08T08:52:34.000Z</time>
      </trkpt>
      <trkpt lat="45.58302" lon="6.6404">
        <ele>1877.4000244141</ele>
        <time>2019-02-08T08:52:40.000Z</time>
      </trkpt>
      <trkpt lat="45.58302" lon="6.64039">
        <ele>1877.8000488281</ele>
        <time>2019-02-08T08:52:42.000Z</time>
      </trkpt>
      <trkpt lat="45.58304" lon="6.64038">
        <ele>1878.5999755859</ele>
        <time>2019-02-08T08:52:45.000Z</time>
      </trkpt>
      <trkpt lat="45.58304" lon="6.64037">
        <ele>1879</ele>
        <time>2019-02-08T08:52:47.000Z</time>
      </trkpt>
      <trkpt lat="45.58306" lon="6.64033">
        <ele>1880.4000244141</ele>
        <time>2019-02-08T08:52:51.000Z</time>
      </trkpt>
      <trkpt lat="45.58306" lon="6.64032">
        <ele>1880.5999755859</ele>
        <time>2019-02-08T08:52:52.000Z</time>
      </trkpt>
      <trkpt lat="45.58308" lon="6.6403">
        <ele>1881.5999755859</ele>
        <time>2019-02-08T08:52:55.000Z</time>
      </trkpt>
      <trkpt lat="45.58309" lon="6.64029">
        <ele>1882.4000244141</ele>
        <time>2019-02-08T08:52:57.000Z</time>
      </trkpt>
      <trkpt lat="45.5831" lon="6.64028">
        <ele>1882.8000488281</ele>
        <time>2019-02-08T08:53:00.000Z</time>
      </trkpt>
      <trkpt lat="45.5831" lon="6.64026">
        <ele>1883.4000244141</ele>
        <time>2019-02-08T08:53:02.000Z</time>
      </trkpt>
      <trkpt lat="45.58311" lon="6.64022">
        <ele>1884.8000488281</ele>
        <time>2019-02-08T08:53:06.000Z</time>
      </trkpt>
      <trkpt lat="45.58311" lon="6.64019">
        <ele>1885.5999755859</ele>
        <time>2019-02-08T08:53:11.000Z</time>
      </trkpt>
      <trkpt lat="45.5831" lon="6.64016">
        <ele>1886</ele>
        <time>2019-02-08T08:53:14.000Z</time>
      </trkpt>
      <trkpt lat="45.58308" lon="6.64014">
        <ele>1886.4000244141</ele>
        <time>2019-02-08T08:53:17.000Z</time>
      </trkpt>
      <trkpt lat="45.58308" lon="6.64013">
        <ele>1886.4000244141</ele>
        <time>2019-02-08T08:53:18.000Z</time>
      </trkpt>
      <trkpt lat="45.58307" lon="6.64012">
        <ele>1886.8000488281</ele>
        <time>2019-02-08T08:53:19.000Z</time>
      </trkpt>
      <trkpt lat="45.58305" lon="6.64008">
        <ele>1887.5999755859</ele>
        <time>2019-02-08T08:53:24.000Z</time>
      </trkpt>
      <trkpt lat="45.58304" lon="6.64007">
        <ele>1887.5999755859</ele>
        <time>2019-02-08T08:53:26.000Z</time>
      </trkpt>
      <trkpt lat="45.58302" lon="6.64004">
        <ele>1887.8000488281</ele>
        <time>2019-02-08T08:53:29.000Z</time>
      </trkpt>
      <trkpt lat="45.58299" lon="6.64">
        <ele>1888.5999755859</ele>
        <time>2019-02-08T08:53:34.000Z</time>
      </trkpt>
      <trkpt lat="45.58296" lon="6.63996">
        <ele>1889.4000244141</ele>
        <time>2019-02-08T08:53:40.000Z</time>
      </trkpt>
      <trkpt lat="45.58296" lon="6.63995">
        <ele>1889.8000488281</ele>
        <time>2019-02-08T08:53:41.000Z</time>
      </trkpt>
      <trkpt lat="45.58295" lon="6.63991">
        <ele>1890.5999755859</ele>
        <time>2019-02-08T08:53:45.000Z</time>
      </trkpt>
      <trkpt lat="45.58295" lon="6.6399">
        <ele>1890.8000488281</ele>
        <time>2019-02-08T08:53:46.000Z</time>
      </trkpt>
      <trkpt lat="45.58292" lon="6.63985">
        <ele>1892</ele>
        <time>2019-02-08T08:53:52.000Z</time>
      </trkpt>
      <trkpt lat="45.58291" lon="6.63981">
        <ele>1892.8000488281</ele>
        <time>2019-02-08T08:53:57.000Z</time>
      </trkpt>
      <trkpt lat="45.5829" lon="6.63977">
        <ele>1893.4000244141</ele>
        <time>2019-02-08T08:54:02.000Z</time>
      </trkpt>
      <trkpt lat="45.58289" lon="6.63976">
        <ele>1893.5999755859</ele>
        <time>2019-02-08T08:54:04.000Z</time>
      </trkpt>
      <trkpt lat="45.58288" lon="6.63972">
        <ele>1894.4000244141</ele>
        <time>2019-02-08T08:54:08.000Z</time>
      </trkpt>
      <trkpt lat="45.58287" lon="6.6397">
        <ele>1894.8000488281</ele>
        <time>2019-02-08T08:54:10.000Z</time>
      </trkpt>
      <trkpt lat="45.58287" lon="6.63968">
        <ele>1895.1999511719</ele>
        <time>2019-02-08T08:54:14.000Z</time>
      </trkpt>
      <trkpt lat="45.58287" lon="6.63968">
        <ele>1895.1999511719</ele>
        <time>2019-02-08T08:54:15.000Z</time>
      </trkpt>
      <trkpt lat="45.58286" lon="6.63966">
        <ele>1895.5999755859</ele>
        <time>2019-02-08T08:54:16.000Z</time>
      </trkpt>
      <trkpt lat="45.58286" lon="6.63964">
        <ele>1896.1999511719</ele>
        <time>2019-02-08T08:54:19.000Z</time>
      </trkpt>
      <trkpt lat="45.58285" lon="6.63962">
        <ele>1896.5999755859</ele>
        <time>2019-02-08T08:54:21.000Z</time>
      </trkpt>
      <trkpt lat="45.58283" lon="6.63958">
        <ele>1897.1999511719</ele>
        <time>2019-02-08T08:54:25.000Z</time>
      </trkpt>
      <trkpt lat="45.58283" lon="6.63957">
        <ele>1897.5999755859</ele>
        <time>2019-02-08T08:54:27.000Z</time>
      </trkpt>
      <trkpt lat="45.58283" lon="6.63955">
        <ele>1898.1999511719</ele>
        <time>2019-02-08T08:54:30.000Z</time>
      </trkpt>
      <trkpt lat="45.58282" lon="6.63953">
        <ele>1898.5999755859</ele>
        <time>2019-02-08T08:54:32.000Z</time>
      </trkpt>
      <trkpt lat="45.58282" lon="6.63952">
        <ele>1899</ele>
        <time>2019-02-08T08:54:34.000Z</time>
      </trkpt>
      <trkpt lat="45.58282" lon="6.63947">
        <ele>1900</ele>
        <time>2019-02-08T08:54:39.000Z</time>
      </trkpt>
      <trkpt lat="45.58281" lon="6.63943">
        <ele>1901</ele>
        <time>2019-02-08T08:54:44.000Z</time>
      </trkpt>
      <trkpt lat="45.58281" lon="6.6394">
        <ele>1902</ele>
        <time>2019-02-08T08:54:48.000Z</time>
      </trkpt>
      <trkpt lat="45.58281" lon="6.63938">
        <ele>1902.4000244141</ele>
        <time>2019-02-08T08:54:49.000Z</time>
      </trkpt>
      <trkpt lat="45.5828" lon="6.63935">
        <ele>1903.1999511719</ele>
        <time>2019-02-08T08:54:52.000Z</time>
      </trkpt>
      <trkpt lat="45.5828" lon="6.63935">
        <ele>1903.1999511719</ele>
        <time>2019-02-08T08:54:53.000Z</time>
      </trkpt>
      <trkpt lat="45.5828" lon="6.63931">
        <ele>1904.4000244141</ele>
        <time>2019-02-08T08:54:58.000Z</time>
      </trkpt>
      <trkpt lat="45.5828" lon="6.6393">
        <ele>1904.8000488281</ele>
        <time>2019-02-08T08:55:00.000Z</time>
      </trkpt>
      <trkpt lat="45.5828" lon="6.63927">
        <ele>1905.1999511719</ele>
        <time>2019-02-08T08:55:02.000Z</time>
      </trkpt>
      <trkpt lat="45.5828" lon="6.63922">
        <ele>1906.8000488281</ele>
        <time>2019-02-08T08:55:07.000Z</time>
      </trkpt>
      <trkpt lat="45.5828" lon="6.63921">
        <ele>1907</ele>
        <time>2019-02-08T08:55:09.000Z</time>
      </trkpt>
      <trkpt lat="45.58279" lon="6.63919">
        <ele>1907.4000244141</ele>
        <time>2019-02-08T08:55:11.000Z</time>
      </trkpt>
      <trkpt lat="45.58279" lon="6.63915">
        <ele>1908.4000244141</ele>
        <time>2019-02-08T08:55:14.000Z</time>
      </trkpt>
      <trkpt lat="45.58279" lon="6.63915">
        <ele>1908.4000244141</ele>
        <time>2019-02-08T08:55:15.000Z</time>
      </trkpt>
      <trkpt lat="45.58279" lon="6.63911">
        <ele>1909.4000244141</ele>
        <time>2019-02-08T08:55:20.000Z</time>
      </trkpt>
      <trkpt lat="45.58278" lon="6.63907">
        <ele>1910.4000244141</ele>
        <time>2019-02-08T08:55:25.000Z</time>
      </trkpt>
      <trkpt lat="45.58279" lon="6.63904">
        <ele>1911.4000244141</ele>
        <time>2019-02-08T08:55:29.000Z</time>
      </trkpt>
      <trkpt lat="45.58279" lon="6.63901">
        <ele>1912.1999511719</ele>
        <time>2019-02-08T08:55:33.000Z</time>
      </trkpt>
      <trkpt lat="45.58278" lon="6.639">
        <ele>1912.4000244141</ele>
        <time>2019-02-08T08:55:34.000Z</time>
      </trkpt>
      <trkpt lat="45.58279" lon="6.63897">
        <ele>1913</ele>
        <time>2019-02-08T08:55:39.000Z</time>
      </trkpt>
      <trkpt lat="45.58279" lon="6.63896">
        <ele>1913.1999511719</ele>
        <time>2019-02-08T08:55:41.000Z</time>
      </trkpt>
      <trkpt lat="45.58279" lon="6.63895">
        <ele>1913.5999755859</ele>
        <time>2019-02-08T08:55:44.000Z</time>
      </trkpt>
      <trkpt lat="45.5828" lon="6.63892">
        <ele>1914.1999511719</ele>
        <time>2019-02-08T08:55:48.000Z</time>
      </trkpt>
      <trkpt lat="45.5828" lon="6.63891">
        <ele>1914.5999755859</ele>
        <time>2019-02-08T08:55:49.000Z</time>
      </trkpt>
      <trkpt lat="45.58281" lon="6.63885">
        <ele>1916</ele>
        <time>2019-02-08T08:55:55.000Z</time>
      </trkpt>
      <trkpt lat="45.58281" lon="6.63883">
        <ele>1916.5999755859</ele>
        <time>2019-02-08T08:55:58.000Z</time>
      </trkpt>
      <trkpt lat="45.58282" lon="6.63881">
        <ele>1917.1999511719</ele>
        <time>2019-02-08T08:56:00.000Z</time>
      </trkpt>
      <trkpt lat="45.58283" lon="6.63877">
        <ele>1918.1999511719</ele>
        <time>2019-02-08T08:56:03.000Z</time>
      </trkpt>
      <trkpt lat="45.58283" lon="6.63875">
        <ele>1918.8000488281</ele>
        <time>2019-02-08T08:56:05.000Z</time>
      </trkpt>
      <trkpt lat="45.58283" lon="6.63874">
        <ele>1919</ele>
        <time>2019-02-08T08:56:08.000Z</time>
      </trkpt>
      <trkpt lat="45.58283" lon="6.63871">
        <ele>1919.8000488281</ele>
        <time>2019-02-08T08:56:10.000Z</time>
      </trkpt>
      <trkpt lat="45.58284" lon="6.63867">
        <ele>1921</ele>
        <time>2019-02-08T08:56:15.000Z</time>
      </trkpt>
      <trkpt lat="45.58286" lon="6.63862">
        <ele>1922.5999755859</ele>
        <time>2019-02-08T08:56:20.000Z</time>
      </trkpt>
      <trkpt lat="45.58287" lon="6.6386">
        <ele>1923.1999511719</ele>
        <time>2019-02-08T08:56:22.000Z</time>
      </trkpt>
      <trkpt lat="45.58288" lon="6.63858">
        <ele>1924</ele>
        <time>2019-02-08T08:56:25.000Z</time>
      </trkpt>
      <trkpt lat="45.58289" lon="6.63856">
        <ele>1924.5999755859</ele>
        <time>2019-02-08T08:56:28.000Z</time>
      </trkpt>
      <trkpt lat="45.5829" lon="6.63854">
        <ele>1925.1999511719</ele>
        <time>2019-02-08T08:56:30.000Z</time>
      </trkpt>
      <trkpt lat="45.58292" lon="6.63851">
        <ele>1926.5999755859</ele>
        <time>2019-02-08T08:56:35.000Z</time>
      </trkpt>
      <trkpt lat="45.58293" lon="6.6385">
        <ele>1927</ele>
        <time>2019-02-08T08:56:36.000Z</time>
      </trkpt>
      <trkpt lat="45.58295" lon="6.63849">
        <ele>1927.4000244141</ele>
        <time>2019-02-08T08:56:40.000Z</time>
      </trkpt>
      <trkpt lat="45.58295" lon="6.63848">
        <ele>1927.5999755859</ele>
        <time>2019-02-08T08:56:41.000Z</time>
      </trkpt>
      <trkpt lat="45.58298" lon="6.63846">
        <ele>1928.5999755859</ele>
        <time>2019-02-08T08:56:46.000Z</time>
      </trkpt>
      <trkpt lat="45.58298" lon="6.63846">
        <ele>1928.8000488281</ele>
        <time>2019-02-08T08:56:47.000Z</time>
      </trkpt>
      <trkpt lat="45.58301" lon="6.63845">
        <ele>1929.5999755859</ele>
        <time>2019-02-08T08:56:52.000Z</time>
      </trkpt>
      <trkpt lat="45.58302" lon="6.63844">
        <ele>1930</ele>
        <time>2019-02-08T08:56:53.000Z</time>
      </trkpt>
      <trkpt lat="45.58304" lon="6.63844">
        <ele>1930.5999755859</ele>
        <time>2019-02-08T08:56:58.000Z</time>
      </trkpt>
      <trkpt lat="45.58306" lon="6.63844">
        <ele>1931.4000244141</ele>
        <time>2019-02-08T08:57:01.000Z</time>
      </trkpt>
      <trkpt lat="45.58308" lon="6.63842">
        <ele>1932.1999511719</ele>
        <time>2019-02-08T08:57:04.000Z</time>
      </trkpt>
      <trkpt lat="45.58311" lon="6.63842">
        <ele>1933</ele>
        <time>2019-02-08T08:57:08.000Z</time>
      </trkpt>
      <trkpt lat="45.58311" lon="6.63842">
        <ele>1933</ele>
        <time>2019-02-08T08:57:10.000Z</time>
      </trkpt>
      <trkpt lat="45.58312" lon="6.63842">
        <ele>1933.4000244141</ele>
        <time>2019-02-08T08:57:13.000Z</time>
      </trkpt>
      <trkpt lat="45.58315" lon="6.63842">
        <ele>1934.4000244141</ele>
        <time>2019-02-08T08:57:17.000Z</time>
      </trkpt>
      <trkpt lat="45.58316" lon="6.63841">
        <ele>1935</ele>
        <time>2019-02-08T08:57:20.000Z</time>
      </trkpt>
      <trkpt lat="45.58317" lon="6.63838">
        <ele>1935.5999755859</ele>
        <time>2019-02-08T08:57:23.000Z</time>
      </trkpt>
      <trkpt lat="45.58317" lon="6.63837">
        <ele>1936</ele>
        <time>2019-02-08T08:57:26.000Z</time>
      </trkpt>
      <trkpt lat="45.58317" lon="6.63835">
        <ele>1936.4000244141</ele>
        <time>2019-02-08T08:57:27.000Z</time>
      </trkpt>
      <trkpt lat="45.58316" lon="6.6383">
        <ele>1937.4000244141</ele>
        <time>2019-02-08T08:57:31.000Z</time>
      </trkpt>
      <trkpt lat="45.58316" lon="6.63828">
        <ele>1937.8000488281</ele>
        <time>2019-02-08T08:57:32.000Z</time>
      </trkpt>
      <trkpt lat="45.58316" lon="6.63826">
        <ele>1938.1999511719</ele>
        <time>2019-02-08T08:57:35.000Z</time>
      </trkpt>
      <trkpt lat="45.58315" lon="6.63824">
        <ele>1938.5999755859</ele>
        <time>2019-02-08T08:57:37.000Z</time>
      </trkpt>
      <trkpt lat="45.58315" lon="6.63822">
        <ele>1939</ele>
        <time>2019-02-08T08:57:40.000Z</time>
      </trkpt>
      <trkpt lat="45.58315" lon="6.63821">
        <ele>1939.1999511719</ele>
        <time>2019-02-08T08:57:42.000Z</time>
      </trkpt>
      <trkpt lat="45.58314" lon="6.63817">
        <ele>1939.8000488281</ele>
        <time>2019-02-08T08:57:45.000Z</time>
      </trkpt>
      <trkpt lat="45.58314" lon="6.63815">
        <ele>1940.1999511719</ele>
        <time>2019-02-08T08:57:49.000Z</time>
      </trkpt>
      <trkpt lat="45.58314" lon="6.63813">
        <ele>1940.5999755859</ele>
        <time>2019-02-08T08:57:50.000Z</time>
      </trkpt>
      <trkpt lat="45.58314" lon="6.63809">
        <ele>1941.1999511719</ele>
        <time>2019-02-08T08:57:54.000Z</time>
      </trkpt>
      <trkpt lat="45.58314" lon="6.63808">
        <ele>1941.5999755859</ele>
        <time>2019-02-08T08:57:56.000Z</time>
      </trkpt>
      <trkpt lat="45.58313" lon="6.63804">
        <ele>1942</ele>
        <time>2019-02-08T08:57:59.000Z</time>
      </trkpt>
      <trkpt lat="45.58312" lon="6.63801">
        <ele>1942.4000244141</ele>
        <time>2019-02-08T08:58:03.000Z</time>
      </trkpt>
      <trkpt lat="45.58312" lon="6.63799">
        <ele>1942.8000488281</ele>
        <time>2019-02-08T08:58:05.000Z</time>
      </trkpt>
      <trkpt lat="45.58311" lon="6.63794">
        <ele>1943.4000244141</ele>
        <time>2019-02-08T08:58:09.000Z</time>
      </trkpt>
      <trkpt lat="45.58311" lon="6.63794">
        <ele>1943.4000244141</ele>
        <time>2019-02-08T08:58:10.000Z</time>
      </trkpt>
      <trkpt lat="45.5831" lon="6.63789">
        <ele>1944.1999511719</ele>
        <time>2019-02-08T08:58:15.000Z</time>
      </trkpt>
      <trkpt lat="45.5831" lon="6.63787">
        <ele>1944.4000244141</ele>
        <time>2019-02-08T08:58:16.000Z</time>
      </trkpt>
      <trkpt lat="45.5831" lon="6.63782">
        <ele>1945.5999755859</ele>
        <time>2019-02-08T08:58:20.000Z</time>
      </trkpt>
      <trkpt lat="45.5831" lon="6.6378">
        <ele>1946</ele>
        <time>2019-02-08T08:58:24.000Z</time>
      </trkpt>
      <trkpt lat="45.58311" lon="6.63778">
        <ele>1946.5999755859</ele>
        <time>2019-02-08T08:58:26.000Z</time>
      </trkpt>
      <trkpt lat="45.58312" lon="6.63774">
        <ele>1947.5999755859</ele>
        <time>2019-02-08T08:58:30.000Z</time>
      </trkpt>
      <trkpt lat="45.58312" lon="6.63772">
        <ele>1948</ele>
        <time>2019-02-08T08:58:31.000Z</time>
      </trkpt>
      <trkpt lat="45.58314" lon="6.63769">
        <ele>1949</ele>
        <time>2019-02-08T08:58:35.000Z</time>
      </trkpt>
      <trkpt lat="45.58315" lon="6.63766">
        <ele>1949.8000488281</ele>
        <time>2019-02-08T08:58:37.000Z</time>
      </trkpt>
      <trkpt lat="45.58317" lon="6.63762">
        <ele>1951</ele>
        <time>2019-02-08T08:58:41.000Z</time>
      </trkpt>
      <trkpt lat="45.58317" lon="6.63759">
        <ele>1952</ele>
        <time>2019-02-08T08:58:44.000Z</time>
      </trkpt>
      <trkpt lat="45.58319" lon="6.63756">
        <ele>1952.8000488281</ele>
        <time>2019-02-08T08:58:46.000Z</time>
      </trkpt>
      <trkpt lat="45.5832" lon="6.63751">
        <ele>1954.1999511719</ele>
        <time>2019-02-08T08:58:51.000Z</time>
      </trkpt>
      <trkpt lat="45.58321" lon="6.63745">
        <ele>1955.1999511719</ele>
        <time>2019-02-08T08:58:55.000Z</time>
      </trkpt>
      <trkpt lat="45.58321" lon="6.63744">
        <ele>1955.4000244141</ele>
        <time>2019-02-08T08:58:56.000Z</time>
      </trkpt>
      <trkpt lat="45.58323" lon="6.63739">
        <ele>1956.5999755859</ele>
        <time>2019-02-08T08:59:01.000Z</time>
      </trkpt>
      <trkpt lat="45.58325" lon="6.63736">
        <ele>1957.5999755859</ele>
        <time>2019-02-08T08:59:05.000Z</time>
      </trkpt>
      <trkpt lat="45.58326" lon="6.63736">
        <ele>1957.8000488281</ele>
        <time>2019-02-08T08:59:06.000Z</time>
      </trkpt>
      <trkpt lat="45.58326" lon="6.63736">
        <ele>1958</ele>
        <time>2019-02-08T08:59:07.000Z</time>
      </trkpt>
      <trkpt lat="45.58328" lon="6.63736">
        <ele>1958.4000244141</ele>
        <time>2019-02-08T08:59:10.000Z</time>
      </trkpt>
      <trkpt lat="45.58329" lon="6.63736">
        <ele>1958.4000244141</ele>
        <time>2019-02-08T08:59:11.000Z</time>
      </trkpt>
      <trkpt lat="45.5833" lon="6.63736">
        <ele>1958.8000488281</ele>
        <time>2019-02-08T08:59:13.000Z</time>
      </trkpt>
      <trkpt lat="45.58332" lon="6.63736">
        <ele>1959.1999511719</ele>
        <time>2019-02-08T08:59:17.000Z</time>
      </trkpt>
      <trkpt lat="45.58333" lon="6.63736">
        <ele>1959.5999755859</ele>
        <time>2019-02-08T08:59:19.000Z</time>
      </trkpt>
      <trkpt lat="45.58334" lon="6.63736">
        <ele>1959.5999755859</ele>
        <time>2019-02-08T08:59:20.000Z</time>
      </trkpt>
      <trkpt lat="45.58337" lon="6.63736">
        <ele>1960.5999755859</ele>
        <time>2019-02-08T08:59:25.000Z</time>
      </trkpt>
      <trkpt lat="45.5834" lon="6.63736">
        <ele>1961.1999511719</ele>
        <time>2019-02-08T08:59:31.000Z</time>
      </trkpt>
      <trkpt lat="45.58344" lon="6.63737">
        <ele>1962</ele>
        <time>2019-02-08T08:59:37.000Z</time>
      </trkpt>
      <trkpt lat="45.58345" lon="6.63737">
        <ele>1962.1999511719</ele>
        <time>2019-02-08T08:59:38.000Z</time>
      </trkpt>
      <trkpt lat="45.58348" lon="6.63737">
        <ele>1963</ele>
        <time>2019-02-08T08:59:44.000Z</time>
      </trkpt>
      <trkpt lat="45.58348" lon="6.63737">
        <ele>1963</ele>
        <time>2019-02-08T08:59:45.000Z</time>
      </trkpt>
      <trkpt lat="45.5835" lon="6.63737">
        <ele>1963.4000244141</ele>
        <time>2019-02-08T08:59:49.000Z</time>
      </trkpt>
      <trkpt lat="45.58351" lon="6.63737">
        <ele>1963.5999755859</ele>
        <time>2019-02-08T08:59:50.000Z</time>
      </trkpt>
      <trkpt lat="45.58353" lon="6.63738">
        <ele>1964</ele>
        <time>2019-02-08T08:59:55.000Z</time>
      </trkpt>
      <trkpt lat="45.58354" lon="6.63738">
        <ele>1964.1999511719</ele>
        <time>2019-02-08T08:59:56.000Z</time>
      </trkpt>
      <trkpt lat="45.58356" lon="6.63737">
        <ele>1965</ele>
        <time>2019-02-08T09:00:00.000Z</time>
      </trkpt>
      <trkpt lat="45.58356" lon="6.63737">
        <ele>1965</ele>
        <time>2019-02-08T09:00:01.000Z</time>
      </trkpt>
      <trkpt lat="45.58358" lon="6.63737">
        <ele>1965.4000244141</ele>
        <time>2019-02-08T09:00:06.000Z</time>
      </trkpt>
      <trkpt lat="45.58359" lon="6.63737">
        <ele>1965.5999755859</ele>
        <time>2019-02-08T09:00:07.000Z</time>
      </trkpt>
      <trkpt lat="45.58361" lon="6.63738">
        <ele>1966</ele>
        <time>2019-02-08T09:00:10.000Z</time>
      </trkpt>
      <trkpt lat="45.58362" lon="6.63738">
        <ele>1966.1999511719</ele>
        <time>2019-02-08T09:00:14.000Z</time>
      </trkpt>
      <trkpt lat="45.58362" lon="6.63738">
        <ele>1966.1999511719</ele>
        <time>2019-02-08T09:00:17.000Z</time>
      </trkpt>
      <trkpt lat="45.58362" lon="6.63738">
        <ele>1966.1999511719</ele>
        <time>2019-02-08T09:00:23.000Z</time>
      </trkpt>
      <trkpt lat="45.58366" lon="6.63736">
        <ele>1967.1999511719</ele>
        <time>2019-02-08T09:00:32.000Z</time>
      </trkpt>
      <trkpt lat="45.58367" lon="6.63737">
        <ele>1967.5999755859</ele>
        <time>2019-02-08T09:00:34.000Z</time>
      </trkpt>
      <trkpt lat="45.5837" lon="6.63736">
        <ele>1968.1999511719</ele>
        <time>2019-02-08T09:00:38.000Z</time>
      </trkpt>
      <trkpt lat="45.5837" lon="6.63736">
        <ele>1968.4000244141</ele>
        <time>2019-02-08T09:00:40.000Z</time>
      </trkpt>
      <trkpt lat="45.58373" lon="6.63737">
        <ele>1968.8000488281</ele>
        <time>2019-02-08T09:00:43.000Z</time>
      </trkpt>
      <trkpt lat="45.58377" lon="6.63737">
        <ele>1969.8000488281</ele>
        <time>2019-02-08T09:00:47.000Z</time>
      </trkpt>
      <trkpt lat="45.58378" lon="6.63737">
        <ele>1970.1999511719</ele>
        <time>2019-02-08T09:00:49.000Z</time>
      </trkpt>
      <trkpt lat="45.5838" lon="6.63736">
        <ele>1970.8000488281</ele>
        <time>2019-02-08T09:00:53.000Z</time>
      </trkpt>
      <trkpt lat="45.58381" lon="6.63737">
        <ele>1971</ele>
        <time>2019-02-08T09:00:55.000Z</time>
      </trkpt>
      <trkpt lat="45.58382" lon="6.63737">
        <ele>1971.1999511719</ele>
        <time>2019-02-08T09:00:57.000Z</time>
      </trkpt>
      <trkpt lat="45.58387" lon="6.63737">
        <ele>1972</ele>
        <time>2019-02-08T09:01:02.000Z</time>
      </trkpt>
      <trkpt lat="45.58388" lon="6.63736">
        <ele>1972</ele>
        <time>2019-02-08T09:01:03.000Z</time>
      </trkpt>
      <trkpt lat="45.58391" lon="6.63737">
        <ele>1972.4000244141</ele>
        <time>2019-02-08T09:01:08.000Z</time>
      </trkpt>
      <trkpt lat="45.58392" lon="6.63737">
        <ele>1972.4000244141</ele>
        <time>2019-02-08T09:01:09.000Z</time>
      </trkpt>
      <trkpt lat="45.58395" lon="6.63737">
        <ele>1972.5999755859</ele>
        <time>2019-02-08T09:01:14.000Z</time>
      </trkpt>
      <trkpt lat="45.58395" lon="6.63737">
        <ele>1972.5999755859</ele>
        <time>2019-02-08T09:01:15.000Z</time>
      </trkpt>
      <trkpt lat="45.58395" lon="6.63737">
        <ele>1972.5999755859</ele>
        <time>2019-02-08T09:01:19.000Z</time>
      </trkpt>
      <trkpt lat="45.58396" lon="6.63738">
        <ele>1972.5999755859</ele>
        <time>2019-02-08T09:01:21.000Z</time>
      </trkpt>
      <trkpt lat="45.584" lon="6.63738">
        <ele>1973</ele>
        <time>2019-02-08T09:01:27.000Z</time>
      </trkpt>
      <trkpt lat="45.58401" lon="6.63738">
        <ele>1973</ele>
        <time>2019-02-08T09:01:28.000Z</time>
      </trkpt>
      <trkpt lat="45.58405" lon="6.63739">
        <ele>1973.4000244141</ele>
        <time>2019-02-08T09:01:34.000Z</time>
      </trkpt>
      <trkpt lat="45.5841" lon="6.63738">
        <ele>1973.8000488281</ele>
        <time>2019-02-08T09:01:40.000Z</time>
      </trkpt>
      <trkpt lat="45.58411" lon="6.63738">
        <ele>1974.1999511719</ele>
        <time>2019-02-08T09:01:46.000Z</time>
      </trkpt>
      <trkpt lat="45.58411" lon="6.63738">
        <ele>1974.1999511719</ele>
        <time>2019-02-08T09:01:49.000Z</time>
      </trkpt>
      <trkpt lat="45.58411" lon="6.63738">
        <ele>1974.1999511719</ele>
        <time>2019-02-08T09:02:00.000Z</time>
      </trkpt>
      <trkpt lat="45.58413" lon="6.63738">
        <ele>1974.1999511719</ele>
        <time>2019-02-08T09:02:10.000Z</time>
      </trkpt>
      <trkpt lat="45.58414" lon="6.63738">
        <ele>1974.1999511719</ele>
        <time>2019-02-08T09:02:18.000Z</time>
      </trkpt>
      <trkpt lat="45.58414" lon="6.63738">
        <ele>1974.1999511719</ele>
        <time>2019-02-08T09:02:39.000Z</time>
      </trkpt>
      <trkpt lat="45.58414" lon="6.63737">
        <ele>1974.4000244141</ele>
        <time>2019-02-08T09:02:53.000Z</time>
      </trkpt>
      <trkpt lat="45.58416" lon="6.63737">
        <ele>1974.8000488281</ele>
        <time>2019-02-08T09:03:00.000Z</time>
      </trkpt>
      <trkpt lat="45.58416" lon="6.63736">
        <ele>1974.8000488281</ele>
        <time>2019-02-08T09:03:03.000Z</time>
      </trkpt>
      <trkpt lat="45.58416" lon="6.63736">
        <ele>1974.8000488281</ele>
        <time>2019-02-08T09:03:10.000Z</time>
      </trkpt>
      <trkpt lat="45.5842" lon="6.63733">
        <ele>1976</ele>
        <time>2019-02-08T09:03:17.000Z</time>
      </trkpt>
      <trkpt lat="45.58424" lon="6.6373">
        <ele>1976.8000488281</ele>
        <time>2019-02-08T09:03:21.000Z</time>
      </trkpt>
      <trkpt lat="45.58424" lon="6.63729">
        <ele>1977</ele>
        <time>2019-02-08T09:03:22.000Z</time>
      </trkpt>
      <trkpt lat="45.58426" lon="6.63727">
        <ele>1977.5999755859</ele>
        <time>2019-02-08T09:03:24.000Z</time>
      </trkpt>
      <trkpt lat="45.58427" lon="6.63725">
        <ele>1978</ele>
        <time>2019-02-08T09:03:28.000Z</time>
      </trkpt>
      <trkpt lat="45.58429" lon="6.63724">
        <ele>1978.5999755859</ele>
        <time>2019-02-08T09:03:32.000Z</time>
      </trkpt>
      <trkpt lat="45.58429" lon="6.63724">
        <ele>1978.5999755859</ele>
        <time>2019-02-08T09:03:35.000Z</time>
      </trkpt>
      <trkpt lat="45.58429" lon="6.63724">
        <ele>1978.5999755859</ele>
        <time>2019-02-08T09:03:43.000Z</time>
      </trkpt>
      <trkpt lat="45.58429" lon="6.63724">
        <ele>1978.5999755859</ele>
        <time>2019-02-08T09:03:51.000Z</time>
      </trkpt>
      <trkpt lat="45.58429" lon="6.63724">
        <ele>1978.5999755859</ele>
        <time>2019-02-08T09:04:02.000Z</time>
      </trkpt>
      <trkpt lat="45.58431" lon="6.63721">
        <ele>1979.4000244141</ele>
        <time>2019-02-08T09:04:16.000Z</time>
      </trkpt>
      <trkpt lat="45.58435" lon="6.63718">
        <ele>1980.1999511719</ele>
        <time>2019-02-08T09:04:21.000Z</time>
      </trkpt>
      <trkpt lat="45.58439" lon="6.63716">
        <ele>1981</ele>
        <time>2019-02-08T09:04:25.000Z</time>
      </trkpt>
      <trkpt lat="45.58439" lon="6.63716">
        <ele>1981</ele>
        <time>2019-02-08T09:04:26.000Z</time>
      </trkpt>
      <trkpt lat="45.58443" lon="6.63714">
        <ele>1981.8000488281</ele>
        <time>2019-02-08T09:04:31.000Z</time>
      </trkpt>
      <trkpt lat="45.58445" lon="6.63713">
        <ele>1982</ele>
        <time>2019-02-08T09:04:34.000Z</time>
      </trkpt>
      <trkpt lat="45.58446" lon="6.63713">
        <ele>1982.4000244141</ele>
        <time>2019-02-08T09:04:36.000Z</time>
      </trkpt>
      <trkpt lat="45.58449" lon="6.63712">
        <ele>1982.5999755859</ele>
        <time>2019-02-08T09:04:40.000Z</time>
      </trkpt>
      <trkpt lat="45.5845" lon="6.63712">
        <ele>1982.5999755859</ele>
        <time>2019-02-08T09:04:41.000Z</time>
      </trkpt>
      <trkpt lat="45.58452" lon="6.63711">
        <ele>1983.1999511719</ele>
        <time>2019-02-08T09:04:46.000Z</time>
      </trkpt>
      <trkpt lat="45.58454" lon="6.6371">
        <ele>1983.4000244141</ele>
        <time>2019-02-08T09:04:47.000Z</time>
      </trkpt>
      <trkpt lat="45.58456" lon="6.63709">
        <ele>1983.8000488281</ele>
        <time>2019-02-08T09:04:51.000Z</time>
      </trkpt>
      <trkpt lat="45.58457" lon="6.63708">
        <ele>1984</ele>
        <time>2019-02-08T09:04:53.000Z</time>
      </trkpt>
      <trkpt lat="45.58459" lon="6.63706">
        <ele>1984.4000244141</ele>
        <time>2019-02-08T09:04:55.000Z</time>
      </trkpt>
      <trkpt lat="45.58461" lon="6.63704">
        <ele>1985.1999511719</ele>
        <time>2019-02-08T09:04:59.000Z</time>
      </trkpt>
      <trkpt lat="45.58462" lon="6.63702">
        <ele>1985.4000244141</ele>
        <time>2019-02-08T09:05:01.000Z</time>
      </trkpt>
      <trkpt lat="45.58463" lon="6.63701">
        <ele>1985.8000488281</ele>
        <time>2019-02-08T09:05:03.000Z</time>
      </trkpt>
      <trkpt lat="45.58464" lon="6.637">
        <ele>1986</ele>
        <time>2019-02-08T09:05:06.000Z</time>
      </trkpt>
      <trkpt lat="45.58465" lon="6.63699">
        <ele>1986.4000244141</ele>
        <time>2019-02-08T09:05:07.000Z</time>
      </trkpt>
      <trkpt lat="45.58466" lon="6.63696">
        <ele>1987</ele>
        <time>2019-02-08T09:05:12.000Z</time>
      </trkpt>
      <trkpt lat="45.58465" lon="6.63694">
        <ele>1987.1999511719</ele>
        <time>2019-02-08T09:05:13.000Z</time>
      </trkpt>
      <trkpt lat="45.58465" lon="6.63693">
        <ele>1987.4000244141</ele>
        <time>2019-02-08T09:05:16.000Z</time>
      </trkpt>
      <trkpt lat="45.58465" lon="6.63693">
        <ele>1987.4000244141</ele>
        <time>2019-02-08T09:05:19.000Z</time>
      </trkpt>
      <trkpt lat="45.58465" lon="6.63691">
        <ele>1987.8000488281</ele>
        <time>2019-02-08T09:05:21.000Z</time>
      </trkpt>
      <trkpt lat="45.58465" lon="6.63691">
        <ele>1987.8000488281</ele>
        <time>2019-02-08T09:05:24.000Z</time>
      </trkpt>
      <trkpt lat="45.58465" lon="6.63688">
        <ele>1988.4000244141</ele>
        <time>2019-02-08T09:05:27.000Z</time>
      </trkpt>
      <trkpt lat="45.58464" lon="6.63687">
        <ele>1988.4000244141</ele>
        <time>2019-02-08T09:05:28.000Z</time>
      </trkpt>
      <trkpt lat="45.58464" lon="6.63687">
        <ele>1988.4000244141</ele>
        <time>2019-02-08T09:05:32.000Z</time>
      </trkpt>
      <trkpt lat="45.58464" lon="6.63687">
        <ele>1988.4000244141</ele>
        <time>2019-02-08T09:05:34.000Z</time>
      </trkpt>
      <trkpt lat="45.58462" lon="6.63682">
        <ele>1989.1999511719</ele>
        <time>2019-02-08T09:05:38.000Z</time>
      </trkpt>
      <trkpt lat="45.5846" lon="6.63676">
        <ele>1990</ele>
        <time>2019-02-08T09:05:42.000Z</time>
      </trkpt>
      <trkpt lat="45.58459" lon="6.63675">
        <ele>1990.1999511719</ele>
        <time>2019-02-08T09:05:43.000Z</time>
      </trkpt>
      <trkpt lat="45.58459" lon="6.63673">
        <ele>1990.4000244141</ele>
        <time>2019-02-08T09:05:44.000Z</time>
      </trkpt>
      <trkpt lat="45.58458" lon="6.63669">
        <ele>1991.1999511719</ele>
        <time>2019-02-08T09:05:48.000Z</time>
      </trkpt>
      <trkpt lat="45.58457" lon="6.63662">
        <ele>1992.4000244141</ele>
        <time>2019-02-08T09:05:53.000Z</time>
      </trkpt>
      <trkpt lat="45.58457" lon="6.6366">
        <ele>1992.5999755859</ele>
        <time>2019-02-08T09:05:54.000Z</time>
      </trkpt>
      <trkpt lat="45.58455" lon="6.63656">
        <ele>1993.1999511719</ele>
        <time>2019-02-08T09:05:58.000Z</time>
      </trkpt>
      <trkpt lat="45.58454" lon="6.63653">
        <ele>1993.5999755859</ele>
        <time>2019-02-08T09:06:00.000Z</time>
      </trkpt>
      <trkpt lat="45.58453" lon="6.63651">
        <ele>1994</ele>
        <time>2019-02-08T09:06:02.000Z</time>
      </trkpt>
      <trkpt lat="45.58453" lon="6.63651">
        <ele>1994</ele>
        <time>2019-02-08T09:06:03.000Z</time>
      </trkpt>
      <trkpt lat="45.58451" lon="6.63646">
        <ele>1995</ele>
        <time>2019-02-08T09:06:07.000Z</time>
      </trkpt>
      <trkpt lat="45.58451" lon="6.63644">
        <ele>1995.4000244141</ele>
        <time>2019-02-08T09:06:09.000Z</time>
      </trkpt>
      <trkpt lat="45.5845" lon="6.63639">
        <ele>1996.4000244141</ele>
        <time>2019-02-08T09:06:13.000Z</time>
      </trkpt>
      <trkpt lat="45.5845" lon="6.63638">
        <ele>1996.5999755859</ele>
        <time>2019-02-08T09:06:15.000Z</time>
      </trkpt>
      <trkpt lat="45.58449" lon="6.63634">
        <ele>1997.4000244141</ele>
        <time>2019-02-08T09:06:18.000Z</time>
      </trkpt>
      <trkpt lat="45.58449" lon="6.63632">
        <ele>1997.8000488281</ele>
        <time>2019-02-08T09:06:19.000Z</time>
      </trkpt>
      <trkpt lat="45.58448" lon="6.63628">
        <ele>1998.5999755859</ele>
        <time>2019-02-08T09:06:22.000Z</time>
      </trkpt>
      <trkpt lat="45.58447" lon="6.63625">
        <ele>1999</ele>
        <time>2019-02-08T09:06:25.000Z</time>
      </trkpt>
      <trkpt lat="45.58447" lon="6.63625">
        <ele>1999</ele>
        <time>2019-02-08T09:06:26.000Z</time>
      </trkpt>
      <trkpt lat="45.58446" lon="6.63623">
        <ele>1999.4000244141</ele>
        <time>2019-02-08T09:06:27.000Z</time>
      </trkpt>
      <trkpt lat="45.58444" lon="6.6362">
        <ele>1999.8000488281</ele>
        <time>2019-02-08T09:06:30.000Z</time>
      </trkpt>
      <trkpt lat="45.58441" lon="6.63614">
        <ele>2000.8000488281</ele>
        <time>2019-02-08T09:06:35.000Z</time>
      </trkpt>
      <trkpt lat="45.58438" lon="6.63607">
        <ele>2002</ele>
        <time>2019-02-08T09:06:41.000Z</time>
      </trkpt>
      <trkpt lat="45.58436" lon="6.63601">
        <ele>2003.1999511719</ele>
        <time>2019-02-08T09:06:46.000Z</time>
      </trkpt>
      <trkpt lat="45.58432" lon="6.63595">
        <ele>2004</ele>
        <time>2019-02-08T09:06:52.000Z</time>
      </trkpt>
      <trkpt lat="45.58431" lon="6.63593">
        <ele>2004.4000244141</ele>
        <time>2019-02-08T09:06:54.000Z</time>
      </trkpt>
      <trkpt lat="45.58431" lon="6.63591">
        <ele>2004.8000488281</ele>
        <time>2019-02-08T09:06:56.000Z</time>
      </trkpt>
      <trkpt lat="45.5843" lon="6.6359">
        <ele>2005</ele>
        <time>2019-02-08T09:06:58.000Z</time>
      </trkpt>
      <trkpt lat="45.58428" lon="6.63585">
        <ele>2005.8000488281</ele>
        <time>2019-02-08T09:07:03.000Z</time>
      </trkpt>
      <trkpt lat="45.58428" lon="6.63584">
        <ele>2006</ele>
        <time>2019-02-08T09:07:05.000Z</time>
      </trkpt>
      <trkpt lat="45.58428" lon="6.63584">
        <ele>2006</ele>
        <time>2019-02-08T09:07:08.000Z</time>
      </trkpt>
      <trkpt lat="45.58428" lon="6.63584">
        <ele>2006</ele>
        <time>2019-02-08T09:07:18.000Z</time>
      </trkpt>
      <trkpt lat="45.58426" lon="6.63579">
        <ele>2007</ele>
        <time>2019-02-08T09:07:22.000Z</time>
      </trkpt>
      <trkpt lat="45.58425" lon="6.63574">
        <ele>2007.8000488281</ele>
        <time>2019-02-08T09:07:27.000Z</time>
      </trkpt>
      <trkpt lat="45.58425" lon="6.63572">
        <ele>2008.1999511719</ele>
        <time>2019-02-08T09:07:28.000Z</time>
      </trkpt>
      <trkpt lat="45.58423" lon="6.63569">
        <ele>2008.8000488281</ele>
        <time>2019-02-08T09:07:31.000Z</time>
      </trkpt>
      <trkpt lat="45.58423" lon="6.63568">
        <ele>2008.8000488281</ele>
        <time>2019-02-08T09:07:32.000Z</time>
      </trkpt>
      <trkpt lat="45.58423" lon="6.63563">
        <ele>2009.8000488281</ele>
        <time>2019-02-08T09:07:36.000Z</time>
      </trkpt>
      <trkpt lat="45.58423" lon="6.63559">
        <ele>2010.4000244141</ele>
        <time>2019-02-08T09:07:39.000Z</time>
      </trkpt>
      <trkpt lat="45.58422" lon="6.63557">
        <ele>2010.5999755859</ele>
        <time>2019-02-08T09:07:41.000Z</time>
      </trkpt>
      <trkpt lat="45.58422" lon="6.63556">
        <ele>2011</ele>
        <time>2019-02-08T09:07:43.000Z</time>
      </trkpt>
      <trkpt lat="45.58421" lon="6.6355">
        <ele>2011.8000488281</ele>
        <time>2019-02-08T09:07:47.000Z</time>
      </trkpt>
      <trkpt lat="45.58421" lon="6.6355">
        <ele>2011.8000488281</ele>
        <time>2019-02-08T09:07:48.000Z</time>
      </trkpt>
      <trkpt lat="45.5842" lon="6.63544">
        <ele>2012.5999755859</ele>
        <time>2019-02-08T09:07:52.000Z</time>
      </trkpt>
      <trkpt lat="45.58419" lon="6.63541">
        <ele>2013</ele>
        <time>2019-02-08T09:07:56.000Z</time>
      </trkpt>
      <trkpt lat="45.58419" lon="6.63541">
        <ele>2013.1999511719</ele>
        <time>2019-02-08T09:07:57.000Z</time>
      </trkpt>
      <trkpt lat="45.58418" lon="6.63536">
        <ele>2013.8000488281</ele>
        <time>2019-02-08T09:08:02.000Z</time>
      </trkpt>
      <trkpt lat="45.58416" lon="6.6353">
        <ele>2014.8000488281</ele>
        <time>2019-02-08T09:08:07.000Z</time>
      </trkpt>
      <trkpt lat="45.58415" lon="6.63529">
        <ele>2014.8000488281</ele>
        <time>2019-02-08T09:08:08.000Z</time>
      </trkpt>
      <trkpt lat="45.58413" lon="6.63525">
        <ele>2015.4000244141</ele>
        <time>2019-02-08T09:08:12.000Z</time>
      </trkpt>
      <trkpt lat="45.58413" lon="6.63525">
        <ele>2015.4000244141</ele>
        <time>2019-02-08T09:08:13.000Z</time>
      </trkpt>
      <trkpt lat="45.5841" lon="6.6352">
        <ele>2016</ele>
        <time>2019-02-08T09:08:18.000Z</time>
      </trkpt>
      <trkpt lat="45.5841" lon="6.63518">
        <ele>2016.4000244141</ele>
        <time>2019-02-08T09:08:20.000Z</time>
      </trkpt>
      <trkpt lat="45.5841" lon="6.63516">
        <ele>2016.8000488281</ele>
        <time>2019-02-08T09:08:23.000Z</time>
      </trkpt>
      <trkpt lat="45.5841" lon="6.63516">
        <ele>2016.8000488281</ele>
        <time>2019-02-08T09:08:27.000Z</time>
      </trkpt>
      <trkpt lat="45.5841" lon="6.63514">
        <ele>2017.1999511719</ele>
        <time>2019-02-08T09:08:28.000Z</time>
      </trkpt>
      <trkpt lat="45.58411" lon="6.63512">
        <ele>2017.5999755859</ele>
        <time>2019-02-08T09:08:30.000Z</time>
      </trkpt>
      <trkpt lat="45.58413" lon="6.63509">
        <ele>2018.1999511719</ele>
        <time>2019-02-08T09:08:33.000Z</time>
      </trkpt>
      <trkpt lat="45.58414" lon="6.63508">
        <ele>2018.5999755859</ele>
        <time>2019-02-08T09:08:35.000Z</time>
      </trkpt>
      <trkpt lat="45.58414" lon="6.63506">
        <ele>2019</ele>
        <time>2019-02-08T09:08:37.000Z</time>
      </trkpt>
      <trkpt lat="45.58417" lon="6.63503">
        <ele>2019.8000488281</ele>
        <time>2019-02-08T09:08:40.000Z</time>
      </trkpt>
      <trkpt lat="45.58417" lon="6.63501">
        <ele>2020.1999511719</ele>
        <time>2019-02-08T09:08:42.000Z</time>
      </trkpt>
      <trkpt lat="45.58419" lon="6.63497">
        <ele>2021.1999511719</ele>
        <time>2019-02-08T09:08:47.000Z</time>
      </trkpt>
      <trkpt lat="45.58419" lon="6.63496">
        <ele>2021.1999511719</ele>
        <time>2019-02-08T09:08:48.000Z</time>
      </trkpt>
      <trkpt lat="45.58419" lon="6.63493">
        <ele>2021.8000488281</ele>
        <time>2019-02-08T09:08:50.000Z</time>
      </trkpt>
      <trkpt lat="45.58419" lon="6.63491">
        <ele>2022.4000244141</ele>
        <time>2019-02-08T09:08:53.000Z</time>
      </trkpt>
      <trkpt lat="45.58418" lon="6.63489">
        <ele>2022.5999755859</ele>
        <time>2019-02-08T09:08:54.000Z</time>
      </trkpt>
      <trkpt lat="45.58417" lon="6.63486">
        <ele>2023</ele>
        <time>2019-02-08T09:08:57.000Z</time>
      </trkpt>
      <trkpt lat="45.58415" lon="6.63483">
        <ele>2023.1999511719</ele>
        <time>2019-02-08T09:09:00.000Z</time>
      </trkpt>
      <trkpt lat="45.58415" lon="6.63482">
        <ele>2023.1999511719</ele>
        <time>2019-02-08T09:09:01.000Z</time>
      </trkpt>
      <trkpt lat="45.58411" lon="6.63478">
        <ele>2023.4000244141</ele>
        <time>2019-02-08T09:09:06.000Z</time>
      </trkpt>
      <trkpt lat="45.5841" lon="6.63477">
        <ele>2023.5999755859</ele>
        <time>2019-02-08T09:09:07.000Z</time>
      </trkpt>
      <trkpt lat="45.58408" lon="6.63471">
        <ele>2024</ele>
        <time>2019-02-08T09:09:12.000Z</time>
      </trkpt>
      <trkpt lat="45.58407" lon="6.63469">
        <ele>2024.1999511719</ele>
        <time>2019-02-08T09:09:13.000Z</time>
      </trkpt>
      <trkpt lat="45.58406" lon="6.63457">
        <ele>2025.4000244141</ele>
        <time>2019-02-08T09:09:19.000Z</time>
      </trkpt>
      <trkpt lat="45.58406" lon="6.6345">
        <ele>2026.4000244141</ele>
        <time>2019-02-08T09:09:24.000Z</time>
      </trkpt>
      <trkpt lat="45.58405" lon="6.63441">
        <ele>2027.1999511719</ele>
        <time>2019-02-08T09:09:31.000Z</time>
      </trkpt>
      <trkpt lat="45.58404" lon="6.63434">
        <ele>2028</ele>
        <time>2019-02-08T09:09:36.000Z</time>
      </trkpt>
      <trkpt lat="45.58403" lon="6.63426">
        <ele>2028.8000488281</ele>
        <time>2019-02-08T09:09:41.000Z</time>
      </trkpt>
      <trkpt lat="45.58401" lon="6.63414">
        <ele>2030</ele>
        <time>2019-02-08T09:09:47.000Z</time>
      </trkpt>
      <trkpt lat="45.584" lon="6.63412">
        <ele>2030</ele>
        <time>2019-02-08T09:09:48.000Z</time>
      </trkpt>
      <trkpt lat="45.584" lon="6.63409">
        <ele>2030.4000244141</ele>
        <time>2019-02-08T09:09:50.000Z</time>
      </trkpt>
      <trkpt lat="45.58399" lon="6.63405">
        <ele>2030.5999755859</ele>
        <time>2019-02-08T09:09:52.000Z</time>
      </trkpt>
      <trkpt lat="45.58399" lon="6.63397">
        <ele>2031.5999755859</ele>
        <time>2019-02-08T09:09:57.000Z</time>
      </trkpt>
      <trkpt lat="45.58398" lon="6.63391">
        <ele>2032.4000244141</ele>
        <time>2019-02-08T09:10:01.000Z</time>
      </trkpt>
      <trkpt lat="45.58397" lon="6.63388">
        <ele>2032.8000488281</ele>
        <time>2019-02-08T09:10:03.000Z</time>
      </trkpt>
      <trkpt lat="45.58395" lon="6.63379">
        <ele>2033.8000488281</ele>
        <time>2019-02-08T09:10:09.000Z</time>
      </trkpt>
      <trkpt lat="45.58394" lon="6.63377">
        <ele>2034.1999511719</ele>
        <time>2019-02-08T09:10:10.000Z</time>
      </trkpt>
      <trkpt lat="45.58393" lon="6.63371">
        <ele>2035</ele>
        <time>2019-02-08T09:10:14.000Z</time>
      </trkpt>
      <trkpt lat="45.58391" lon="6.63367">
        <ele>2035.5999755859</ele>
        <time>2019-02-08T09:10:18.000Z</time>
      </trkpt>
      <trkpt lat="45.58391" lon="6.63366">
        <ele>2035.5999755859</ele>
        <time>2019-02-08T09:10:19.000Z</time>
      </trkpt>
      <trkpt lat="45.58389" lon="6.6336">
        <ele>2036.4000244141</ele>
        <time>2019-02-08T09:10:25.000Z</time>
      </trkpt>
      <trkpt lat="45.58388" lon="6.63358">
        <ele>2036.5999755859</ele>
        <time>2019-02-08T09:10:27.000Z</time>
      </trkpt>
      <trkpt lat="45.58386" lon="6.63355">
        <ele>2037</ele>
        <time>2019-02-08T09:10:31.000Z</time>
      </trkpt>
      <trkpt lat="45.58385" lon="6.63354">
        <ele>2037</ele>
        <time>2019-02-08T09:10:32.000Z</time>
      </trkpt>
      <trkpt lat="45.58383" lon="6.6335">
        <ele>2037.5999755859</ele>
        <time>2019-02-08T09:10:37.000Z</time>
      </trkpt>
      <trkpt lat="45.58378" lon="6.63344">
        <ele>2038.5999755859</ele>
        <time>2019-02-08T09:10:43.000Z</time>
      </trkpt>
      <trkpt lat="45.58377" lon="6.63343">
        <ele>2038.8000488281</ele>
        <time>2019-02-08T09:10:44.000Z</time>
      </trkpt>
      <trkpt lat="45.58374" lon="6.63339">
        <ele>2039.5999755859</ele>
        <time>2019-02-08T09:10:49.000Z</time>
      </trkpt>
      <trkpt lat="45.58371" lon="6.63335">
        <ele>2040.4000244141</ele>
        <time>2019-02-08T09:10:55.000Z</time>
      </trkpt>
      <trkpt lat="45.5837" lon="6.63333">
        <ele>2040.5999755859</ele>
        <time>2019-02-08T09:10:56.000Z</time>
      </trkpt>
      <trkpt lat="45.58367" lon="6.63329">
        <ele>2041.4000244141</ele>
        <time>2019-02-08T09:11:02.000Z</time>
      </trkpt>
      <trkpt lat="45.58366" lon="6.63329">
        <ele>2041.5999755859</ele>
        <time>2019-02-08T09:11:03.000Z</time>
      </trkpt>
      <trkpt lat="45.58363" lon="6.63325">
        <ele>2042.1999511719</ele>
        <time>2019-02-08T09:11:08.000Z</time>
      </trkpt>
      <trkpt lat="45.58362" lon="6.63324">
        <ele>2042.4000244141</ele>
        <time>2019-02-08T09:11:09.000Z</time>
      </trkpt>
      <trkpt lat="45.5836" lon="6.63321">
        <ele>2042.8000488281</ele>
        <time>2019-02-08T09:11:13.000Z</time>
      </trkpt>
      <trkpt lat="45.58359" lon="6.6332">
        <ele>2043</ele>
        <time>2019-02-08T09:11:14.000Z</time>
      </trkpt>
      <trkpt lat="45.58356" lon="6.63317">
        <ele>2043.8000488281</ele>
        <time>2019-02-08T09:11:19.000Z</time>
      </trkpt>
      <trkpt lat="45.58354" lon="6.63314">
        <ele>2044.8000488281</ele>
        <time>2019-02-08T09:11:24.000Z</time>
      </trkpt>
      <trkpt lat="45.58353" lon="6.63312">
        <ele>2045.1999511719</ele>
        <time>2019-02-08T09:11:26.000Z</time>
      </trkpt>
      <trkpt lat="45.58351" lon="6.63311">
        <ele>2045.5999755859</ele>
        <time>2019-02-08T09:11:29.000Z</time>
      </trkpt>
      <trkpt lat="45.5835" lon="6.63309">
        <ele>2046</ele>
        <time>2019-02-08T09:11:32.000Z</time>
      </trkpt>
      <trkpt lat="45.58348" lon="6.63307">
        <ele>2046.5999755859</ele>
        <time>2019-02-08T09:11:36.000Z</time>
      </trkpt>
      <trkpt lat="45.58347" lon="6.63306">
        <ele>2047</ele>
        <time>2019-02-08T09:11:38.000Z</time>
      </trkpt>
      <trkpt lat="45.58346" lon="6.63306">
        <ele>2047</ele>
        <time>2019-02-08T09:11:40.000Z</time>
      </trkpt>
      <trkpt lat="45.58344" lon="6.63304">
        <ele>2047.5999755859</ele>
        <time>2019-02-08T09:11:44.000Z</time>
      </trkpt>
      <trkpt lat="45.58343" lon="6.63302">
        <ele>2048</ele>
        <time>2019-02-08T09:11:46.000Z</time>
      </trkpt>
      <trkpt lat="45.58341" lon="6.633">
        <ele>2048.6000976562</ele>
        <time>2019-02-08T09:11:49.000Z</time>
      </trkpt>
      <trkpt lat="45.58339" lon="6.63298">
        <ele>2049.1999511719</ele>
        <time>2019-02-08T09:11:52.000Z</time>
      </trkpt>
      <trkpt lat="45.58338" lon="6.63297">
        <ele>2049.6000976562</ele>
        <time>2019-02-08T09:11:55.000Z</time>
      </trkpt>
      <trkpt lat="45.58335" lon="6.63293">
        <ele>2050.6000976562</ele>
        <time>2019-02-08T09:11:59.000Z</time>
      </trkpt>
      <trkpt lat="45.58334" lon="6.63291">
        <ele>2051.1999511719</ele>
        <time>2019-02-08T09:12:01.000Z</time>
      </trkpt>
      <trkpt lat="45.58333" lon="6.63289">
        <ele>2051.6000976562</ele>
        <time>2019-02-08T09:12:04.000Z</time>
      </trkpt>
      <trkpt lat="45.58332" lon="6.63287">
        <ele>2052.3999023438</ele>
        <time>2019-02-08T09:12:07.000Z</time>
      </trkpt>
      <trkpt lat="45.5833" lon="6.63284">
        <ele>2053</ele>
        <time>2019-02-08T09:12:10.000Z</time>
      </trkpt>
      <trkpt lat="45.58329" lon="6.63283">
        <ele>2053.3999023438</ele>
        <time>2019-02-08T09:12:13.000Z</time>
      </trkpt>
      <trkpt lat="45.58327" lon="6.63282">
        <ele>2053.6000976562</ele>
        <time>2019-02-08T09:12:16.000Z</time>
      </trkpt>
      <trkpt lat="45.58325" lon="6.6328">
        <ele>2054.1999511719</ele>
        <time>2019-02-08T09:12:19.000Z</time>
      </trkpt>
      <trkpt lat="45.58324" lon="6.63278">
        <ele>2054.8000488281</ele>
        <time>2019-02-08T09:12:22.000Z</time>
      </trkpt>
      <trkpt lat="45.58322" lon="6.63277">
        <ele>2055.1999511719</ele>
        <time>2019-02-08T09:12:25.000Z</time>
      </trkpt>
      <trkpt lat="45.58321" lon="6.63276">
        <ele>2055.3999023438</ele>
        <time>2019-02-08T09:12:29.000Z</time>
      </trkpt>
      <trkpt lat="45.5832" lon="6.63274">
        <ele>2056</ele>
        <time>2019-02-08T09:12:31.000Z</time>
      </trkpt>
      <trkpt lat="45.58318" lon="6.63271">
        <ele>2056.8000488281</ele>
        <time>2019-02-08T09:12:35.000Z</time>
      </trkpt>
      <trkpt lat="45.58316" lon="6.6327">
        <ele>2057.1999511719</ele>
        <time>2019-02-08T09:12:38.000Z</time>
      </trkpt>
      <trkpt lat="45.58315" lon="6.63268">
        <ele>2057.6000976562</ele>
        <time>2019-02-08T09:12:41.000Z</time>
      </trkpt>
      <trkpt lat="45.58313" lon="6.63266">
        <ele>2058.1999511719</ele>
        <time>2019-02-08T09:12:45.000Z</time>
      </trkpt>
      <trkpt lat="45.58312" lon="6.63264">
        <ele>2058.6000976562</ele>
        <time>2019-02-08T09:12:47.000Z</time>
      </trkpt>
      <trkpt lat="45.5831" lon="6.63261">
        <ele>2059.6000976562</ele>
        <time>2019-02-08T09:12:52.000Z</time>
      </trkpt>
      <trkpt lat="45.58309" lon="6.63259">
        <ele>2060</ele>
        <time>2019-02-08T09:12:53.000Z</time>
      </trkpt>
      <trkpt lat="45.58307" lon="6.63257">
        <ele>2060.6000976562</ele>
        <time>2019-02-08T09:12:56.000Z</time>
      </trkpt>
      <trkpt lat="45.58307" lon="6.63257">
        <ele>2060.6000976562</ele>
        <time>2019-02-08T09:12:57.000Z</time>
      </trkpt>
      <trkpt lat="45.58304" lon="6.63253">
        <ele>2061.8000488281</ele>
        <time>2019-02-08T09:13:02.000Z</time>
      </trkpt>
      <trkpt lat="45.58303" lon="6.63251">
        <ele>2062.1999511719</ele>
        <time>2019-02-08T09:13:03.000Z</time>
      </trkpt>
      <trkpt lat="45.58302" lon="6.63249">
        <ele>2062.8000488281</ele>
        <time>2019-02-08T09:13:07.000Z</time>
      </trkpt>
      <trkpt lat="45.58301" lon="6.63245">
        <ele>2063.6000976562</ele>
        <time>2019-02-08T09:13:10.000Z</time>
      </trkpt>
      <trkpt lat="45.58301" lon="6.63244">
        <ele>2064</ele>
        <time>2019-02-08T09:13:12.000Z</time>
      </trkpt>
      <trkpt lat="45.583" lon="6.63241">
        <ele>2064.6000976562</ele>
        <time>2019-02-08T09:13:16.000Z</time>
      </trkpt>
      <trkpt lat="45.583" lon="6.63241">
        <ele>2064.8000488281</ele>
        <time>2019-02-08T09:13:18.000Z</time>
      </trkpt>
      <trkpt lat="45.583" lon="6.63241">
        <ele>2064.8000488281</ele>
        <time>2019-02-08T09:13:20.000Z</time>
      </trkpt>
      <trkpt lat="45.58299" lon="6.63238">
        <ele>2065.6000976562</ele>
        <time>2019-02-08T09:13:25.000Z</time>
      </trkpt>
      <trkpt lat="45.58299" lon="6.63232">
        <ele>2067</ele>
        <time>2019-02-08T09:13:30.000Z</time>
      </trkpt>
      <trkpt lat="45.58298" lon="6.6323">
        <ele>2067.3999023438</ele>
        <time>2019-02-08T09:13:32.000Z</time>
      </trkpt>
      <trkpt lat="45.58297" lon="6.63227">
        <ele>2068.3999023438</ele>
        <time>2019-02-08T09:13:35.000Z</time>
      </trkpt>
      <trkpt lat="45.58296" lon="6.63223">
        <ele>2069.3999023438</ele>
        <time>2019-02-08T09:13:38.000Z</time>
      </trkpt>
      <trkpt lat="45.58295" lon="6.63221">
        <ele>2070</ele>
        <time>2019-02-08T09:13:40.000Z</time>
      </trkpt>
      <trkpt lat="45.58294" lon="6.63218">
        <ele>2070.8000488281</ele>
        <time>2019-02-08T09:13:44.000Z</time>
      </trkpt>
      <trkpt lat="45.58292" lon="6.63214">
        <ele>2071.8000488281</ele>
        <time>2019-02-08T09:13:46.000Z</time>
      </trkpt>
      <trkpt lat="45.5829" lon="6.6321">
        <ele>2073</ele>
        <time>2019-02-08T09:13:51.000Z</time>
      </trkpt>
      <trkpt lat="45.58289" lon="6.63208">
        <ele>2073.3999023438</ele>
        <time>2019-02-08T09:13:53.000Z</time>
      </trkpt>
      <trkpt lat="45.58287" lon="6.63204">
        <ele>2074.3999023438</ele>
        <time>2019-02-08T09:13:56.000Z</time>
      </trkpt>
      <trkpt lat="45.58285" lon="6.63202">
        <ele>2075</ele>
        <time>2019-02-08T09:13:59.000Z</time>
      </trkpt>
      <trkpt lat="45.58284" lon="6.63201">
        <ele>2075.3999023438</ele>
        <time>2019-02-08T09:14:01.000Z</time>
      </trkpt>
      <trkpt lat="45.58281" lon="6.63197">
        <ele>2076.6000976562</ele>
        <time>2019-02-08T09:14:06.000Z</time>
      </trkpt>
      <trkpt lat="45.58281" lon="6.63196">
        <ele>2076.6000976562</ele>
        <time>2019-02-08T09:14:07.000Z</time>
      </trkpt>
      <trkpt lat="45.5828" lon="6.63193">
        <ele>2077.6000976562</ele>
        <time>2019-02-08T09:14:09.000Z</time>
      </trkpt>
      <trkpt lat="45.5828" lon="6.63192">
        <ele>2077.8000488281</ele>
        <time>2019-02-08T09:14:11.000Z</time>
      </trkpt>
      <trkpt lat="45.58279" lon="6.63193">
        <ele>2077.6000976562</ele>
        <time>2019-02-08T09:14:14.000Z</time>
      </trkpt>
      <trkpt lat="45.58279" lon="6.63193">
        <ele>2077.6000976562</ele>
        <time>2019-02-08T09:14:17.000Z</time>
      </trkpt>
      <trkpt lat="45.58279" lon="6.63192">
        <ele>2077.8000488281</ele>
        <time>2019-02-08T09:14:25.000Z</time>
      </trkpt>
      <trkpt lat="45.58278" lon="6.6319">
        <ele>2078.3999023438</ele>
        <time>2019-02-08T09:14:27.000Z</time>
      </trkpt>
      <trkpt lat="45.58277" lon="6.63187">
        <ele>2079.1999511719</ele>
        <time>2019-02-08T09:14:31.000Z</time>
      </trkpt>
      <trkpt lat="45.58276" lon="6.63186">
        <ele>2079.6000976562</ele>
        <time>2019-02-08T09:14:32.000Z</time>
      </trkpt>
      <trkpt lat="45.58274" lon="6.63183">
        <ele>2080.1999511719</ele>
        <time>2019-02-08T09:14:36.000Z</time>
      </trkpt>
      <trkpt lat="45.58274" lon="6.63182">
        <ele>2080.3999023438</ele>
        <time>2019-02-08T09:14:37.000Z</time>
      </trkpt>
      <trkpt lat="45.58273" lon="6.63176">
        <ele>2082</ele>
        <time>2019-02-08T09:14:42.000Z</time>
      </trkpt>
      <trkpt lat="45.58273" lon="6.63176">
        <ele>2082</ele>
        <time>2019-02-08T09:14:43.000Z</time>
      </trkpt>
      <trkpt lat="45.5827" lon="6.63172">
        <ele>2083.1999511719</ele>
        <time>2019-02-08T09:14:48.000Z</time>
      </trkpt>
      <trkpt lat="45.5827" lon="6.6317">
        <ele>2083.6000976562</ele>
        <time>2019-02-08T09:14:49.000Z</time>
      </trkpt>
      <trkpt lat="45.58272" lon="6.63167">
        <ele>2084.3999023438</ele>
        <time>2019-02-08T09:14:54.000Z</time>
      </trkpt>
      <trkpt lat="45.58273" lon="6.63167">
        <ele>2084.3999023438</ele>
        <time>2019-02-08T09:14:56.000Z</time>
      </trkpt>
      <trkpt lat="45.58276" lon="6.63167">
        <ele>2084.3999023438</ele>
        <time>2019-02-08T09:15:00.000Z</time>
      </trkpt>
      <trkpt lat="45.58278" lon="6.63164">
        <ele>2085.3999023438</ele>
        <time>2019-02-08T09:15:03.000Z</time>
      </trkpt>
      <trkpt lat="45.58279" lon="6.63162">
        <ele>2085.6000976562</ele>
        <time>2019-02-08T09:15:05.000Z</time>
      </trkpt>
      <trkpt lat="45.58278" lon="6.63159">
        <ele>2086.3999023438</ele>
        <time>2019-02-08T09:15:08.000Z</time>
      </trkpt>
      <trkpt lat="45.58278" lon="6.63159">
        <ele>2086.3999023438</ele>
        <time>2019-02-08T09:15:09.000Z</time>
      </trkpt>
      <trkpt lat="45.58278" lon="6.63158">
        <ele>2086.8000488281</ele>
        <time>2019-02-08T09:15:10.000Z</time>
      </trkpt>
      <trkpt lat="45.58278" lon="6.63156">
        <ele>2087.1999511719</ele>
        <time>2019-02-08T09:15:11.000Z</time>
      </trkpt>
      <trkpt lat="45.58278" lon="6.63153">
        <ele>2088</ele>
        <time>2019-02-08T09:15:15.000Z</time>
      </trkpt>
      <trkpt lat="45.58277" lon="6.63148">
        <ele>2089</ele>
        <time>2019-02-08T09:15:20.000Z</time>
      </trkpt>
      <trkpt lat="45.58276" lon="6.63145">
        <ele>2089.6000976562</ele>
        <time>2019-02-08T09:15:24.000Z</time>
      </trkpt>
      <trkpt lat="45.58277" lon="6.63145">
        <ele>2089.6000976562</ele>
        <time>2019-02-08T09:15:25.000Z</time>
      </trkpt>
      <trkpt lat="45.58277" lon="6.6314">
        <ele>2090.3999023438</ele>
        <time>2019-02-08T09:15:29.000Z</time>
      </trkpt>
      <trkpt lat="45.58276" lon="6.63136">
        <ele>2091</ele>
        <time>2019-02-08T09:15:32.000Z</time>
      </trkpt>
      <trkpt lat="45.58275" lon="6.63133">
        <ele>2091.6000976562</ele>
        <time>2019-02-08T09:15:34.000Z</time>
      </trkpt>
      <trkpt lat="45.58275" lon="6.6313">
        <ele>2092.1999511719</ele>
        <time>2019-02-08T09:15:38.000Z</time>
      </trkpt>
      <trkpt lat="45.58274" lon="6.63126">
        <ele>2092.8000488281</ele>
        <time>2019-02-08T09:15:42.000Z</time>
      </trkpt>
      <trkpt lat="45.58273" lon="6.63124">
        <ele>2093</ele>
        <time>2019-02-08T09:15:43.000Z</time>
      </trkpt>
      <trkpt lat="45.58272" lon="6.63121">
        <ele>2094.1999511719</ele>
        <time>2019-02-08T09:15:46.000Z</time>
      </trkpt>
      <trkpt lat="45.58272" lon="6.6312">
        <ele>2094.3999023438</ele>
        <time>2019-02-08T09:15:48.000Z</time>
      </trkpt>
      <trkpt lat="45.58272" lon="6.63118">
        <ele>2095.3999023438</ele>
        <time>2019-02-08T09:15:52.000Z</time>
      </trkpt>
      <trkpt lat="45.58272" lon="6.63117">
        <ele>2095.6000976562</ele>
        <time>2019-02-08T09:15:53.000Z</time>
      </trkpt>
      <trkpt lat="45.58272" lon="6.63118">
        <ele>2095.3999023438</ele>
        <time>2019-02-08T09:15:57.000Z</time>
      </trkpt>
      <trkpt lat="45.58272" lon="6.63118">
        <ele>2095.3999023438</ele>
        <time>2019-02-08T09:16:01.000Z</time>
      </trkpt>
      <trkpt lat="45.58274" lon="6.63117">
        <ele>2096</ele>
        <time>2019-02-08T09:16:04.000Z</time>
      </trkpt>
      <trkpt lat="45.58275" lon="6.63118">
        <ele>2096.1999511719</ele>
        <time>2019-02-08T09:16:05.000Z</time>
      </trkpt>
      <trkpt lat="45.58275" lon="6.63118">
        <ele>2096.3999023438</ele>
        <time>2019-02-08T09:16:11.000Z</time>
      </trkpt>
      <trkpt lat="45.58275" lon="6.63118">
        <ele>2096.3999023438</ele>
        <time>2019-02-08T09:16:12.000Z</time>
      </trkpt>
      <trkpt lat="45.58275" lon="6.63118">
        <ele>2096.3999023438</ele>
        <time>2019-02-08T09:16:28.000Z</time>
      </trkpt>
      <trkpt lat="45.5828" lon="6.63118">
        <ele>2097.1999511719</ele>
        <time>2019-02-08T09:16:33.000Z</time>
      </trkpt>
      <trkpt lat="45.58286" lon="6.63117">
        <ele>2099</ele>
        <time>2019-02-08T09:16:38.000Z</time>
      </trkpt>
      <trkpt lat="45.58289" lon="6.63117">
        <ele>2099.8000488281</ele>
        <time>2019-02-08T09:16:41.000Z</time>
      </trkpt>
      <trkpt lat="45.58291" lon="6.63116">
        <ele>2100.6000976562</ele>
        <time>2019-02-08T09:16:43.000Z</time>
      </trkpt>
      <trkpt lat="45.58293" lon="6.63116">
        <ele>2101</ele>
        <time>2019-02-08T09:16:45.000Z</time>
      </trkpt>
      <trkpt lat="45.58296" lon="6.63115">
        <ele>2102</ele>
        <time>2019-02-08T09:16:48.000Z</time>
      </trkpt>
      <trkpt lat="45.583" lon="6.63115">
        <ele>2103.1999511719</ele>
        <time>2019-02-08T09:16:51.000Z</time>
      </trkpt>
      <trkpt lat="45.58301" lon="6.63115">
        <ele>2103.8000488281</ele>
        <time>2019-02-08T09:16:53.000Z</time>
      </trkpt>
      <trkpt lat="45.58304" lon="6.63114">
        <ele>2104</ele>
        <time>2019-02-08T09:16:56.000Z</time>
      </trkpt>
      <trkpt lat="45.58308" lon="6.63114">
        <ele>2104</ele>
        <time>2019-02-08T09:16:59.000Z</time>
      </trkpt>
      <trkpt lat="45.58308" lon="6.63115">
        <ele>2104</ele>
        <time>2019-02-08T09:17:00.000Z</time>
      </trkpt>
      <trkpt lat="45.58312" lon="6.63114">
        <ele>2104.3999023438</ele>
        <time>2019-02-08T09:17:03.000Z</time>
      </trkpt>
      <trkpt lat="45.58314" lon="6.63114">
        <ele>2104.6000976562</ele>
        <time>2019-02-08T09:17:06.000Z</time>
      </trkpt>
      <trkpt lat="45.58317" lon="6.63113">
        <ele>2105.1999511719</ele>
        <time>2019-02-08T09:17:09.000Z</time>
      </trkpt>
      <trkpt lat="45.58317" lon="6.63112">
        <ele>2105.6000976562</ele>
        <time>2019-02-08T09:17:10.000Z</time>
      </trkpt>
      <trkpt lat="45.58317" lon="6.63112">
        <ele>2105.6000976562</ele>
        <time>2019-02-08T09:17:11.000Z</time>
      </trkpt>
      <trkpt lat="45.58317" lon="6.63109">
        <ele>2106.8000488281</ele>
        <time>2019-02-08T09:17:13.000Z</time>
      </trkpt>
      <trkpt lat="45.58315" lon="6.63106">
        <ele>2108</ele>
        <time>2019-02-08T09:17:16.000Z</time>
      </trkpt>
      <trkpt lat="45.58314" lon="6.63103">
        <ele>2109</ele>
        <time>2019-02-08T09:17:19.000Z</time>
      </trkpt>
      <trkpt lat="45.58312" lon="6.63099">
        <ele>2110.6000976562</ele>
        <time>2019-02-08T09:17:22.000Z</time>
      </trkpt>
      <trkpt lat="45.58309" lon="6.63095">
        <ele>2112.3999023438</ele>
        <time>2019-02-08T09:17:27.000Z</time>
      </trkpt>
      <trkpt lat="45.58308" lon="6.63091">
        <ele>2114</ele>
        <time>2019-02-08T09:17:30.000Z</time>
      </trkpt>
      <trkpt lat="45.58307" lon="6.63088">
        <ele>2115</ele>
        <time>2019-02-08T09:17:32.000Z</time>
      </trkpt>
      <trkpt lat="45.58304" lon="6.63082">
        <ele>2117.8000488281</ele>
        <time>2019-02-08T09:17:37.000Z</time>
      </trkpt>
      <trkpt lat="45.58303" lon="6.63081">
        <ele>2118</ele>
        <time>2019-02-08T09:17:39.000Z</time>
      </trkpt>
      <trkpt lat="45.58302" lon="6.63079">
        <ele>2118.8000488281</ele>
        <time>2019-02-08T09:17:41.000Z</time>
      </trkpt>
      <trkpt lat="45.58301" lon="6.63077">
        <ele>2119.3999023438</ele>
        <time>2019-02-08T09:17:44.000Z</time>
      </trkpt>
      <trkpt lat="45.583" lon="6.63076">
        <ele>2119.6000976562</ele>
        <time>2019-02-08T09:17:45.000Z</time>
      </trkpt>
      <trkpt lat="45.58299" lon="6.63074">
        <ele>2120.3999023438</ele>
        <time>2019-02-08T09:17:49.000Z</time>
      </trkpt>
      <trkpt lat="45.58299" lon="6.63072">
        <ele>2121</ele>
        <time>2019-02-08T09:17:50.000Z</time>
      </trkpt>
      <trkpt lat="45.58296" lon="6.63068">
        <ele>2122</ele>
        <time>2019-02-08T09:17:54.000Z</time>
      </trkpt>
      <trkpt lat="45.58294" lon="6.63065">
        <ele>2122.6000976562</ele>
        <time>2019-02-08T09:17:57.000Z</time>
      </trkpt>
      <trkpt lat="45.58293" lon="6.63063">
        <ele>2123</ele>
        <time>2019-02-08T09:18:00.000Z</time>
      </trkpt>
      <trkpt lat="45.5829" lon="6.63059">
        <ele>2124.1999511719</ele>
        <time>2019-02-08T09:18:05.000Z</time>
      </trkpt>
      <trkpt lat="45.58287" lon="6.63055">
        <ele>2124.6000976562</ele>
        <time>2019-02-08T09:18:10.000Z</time>
      </trkpt>
      <trkpt lat="45.58287" lon="6.63055">
        <ele>2124.8000488281</ele>
        <time>2019-02-08T09:18:11.000Z</time>
      </trkpt>
      <trkpt lat="45.58286" lon="6.63052">
        <ele>2125.6000976562</ele>
        <time>2019-02-08T09:18:15.000Z</time>
      </trkpt>
      <trkpt lat="45.58284" lon="6.63049">
        <ele>2126.3999023438</ele>
        <time>2019-02-08T09:18:17.000Z</time>
      </trkpt>
      <trkpt lat="45.58284" lon="6.63048">
        <ele>2126.6000976562</ele>
        <time>2019-02-08T09:18:20.000Z</time>
      </trkpt>
      <trkpt lat="45.58283" lon="6.63045">
        <ele>2127.3999023438</ele>
        <time>2019-02-08T09:18:23.000Z</time>
      </trkpt>
      <trkpt lat="45.58282" lon="6.63043">
        <ele>2128</ele>
        <time>2019-02-08T09:18:25.000Z</time>
      </trkpt>
      <trkpt lat="45.5828" lon="6.63039">
        <ele>2129</ele>
        <time>2019-02-08T09:18:30.000Z</time>
      </trkpt>
      <trkpt lat="45.58279" lon="6.63037">
        <ele>2129.6000976562</ele>
        <time>2019-02-08T09:18:33.000Z</time>
      </trkpt>
      <trkpt lat="45.58279" lon="6.63036">
        <ele>2130</ele>
        <time>2019-02-08T09:18:35.000Z</time>
      </trkpt>
      <trkpt lat="45.58277" lon="6.63031">
        <ele>2131.3999023438</ele>
        <time>2019-02-08T09:18:40.000Z</time>
      </trkpt>
      <trkpt lat="45.58276" lon="6.63029">
        <ele>2131.8000488281</ele>
        <time>2019-02-08T09:18:41.000Z</time>
      </trkpt>
      <trkpt lat="45.58273" lon="6.63026">
        <ele>2132.3999023438</ele>
        <time>2019-02-08T09:18:46.000Z</time>
      </trkpt>
      <trkpt lat="45.58272" lon="6.63024">
        <ele>2132.8000488281</ele>
        <time>2019-02-08T09:18:48.000Z</time>
      </trkpt>
      <trkpt lat="45.58271" lon="6.63022">
        <ele>2133.3999023438</ele>
        <time>2019-02-08T09:18:51.000Z</time>
      </trkpt>
      <trkpt lat="45.5827" lon="6.63021">
        <ele>2133.6000976562</ele>
        <time>2019-02-08T09:18:54.000Z</time>
      </trkpt>
      <trkpt lat="45.58269" lon="6.63018">
        <ele>2134.3999023438</ele>
        <time>2019-02-08T09:18:57.000Z</time>
      </trkpt>
      <trkpt lat="45.58269" lon="6.63018">
        <ele>2134.3999023438</ele>
        <time>2019-02-08T09:19:01.000Z</time>
      </trkpt>
      <trkpt lat="45.5827" lon="6.63018">
        <ele>2134.6000976562</ele>
        <time>2019-02-08T09:19:03.000Z</time>
      </trkpt>
      <trkpt lat="45.58272" lon="6.63016">
        <ele>2135.8000488281</ele>
        <time>2019-02-08T09:19:06.000Z</time>
      </trkpt>
      <trkpt lat="45.58275" lon="6.63014">
        <ele>2137.3999023438</ele>
        <time>2019-02-08T09:19:13.000Z</time>
      </trkpt>
      <trkpt lat="45.58277" lon="6.63013">
        <ele>2138.1999511719</ele>
        <time>2019-02-08T09:19:20.000Z</time>
      </trkpt>
      <trkpt lat="45.58279" lon="6.63013">
        <ele>2138.6000976562</ele>
        <time>2019-02-08T09:19:29.000Z</time>
      </trkpt>
      <trkpt lat="45.58279" lon="6.63013">
        <ele>2138.8000488281</ele>
        <time>2019-02-08T09:19:31.000Z</time>
      </trkpt>
      <trkpt lat="45.58279" lon="6.63013">
        <ele>2138.8000488281</ele>
        <time>2019-02-08T09:19:37.000Z</time>
      </trkpt>
      <trkpt lat="45.58279" lon="6.63013">
        <ele>2138.8000488281</ele>
        <time>2019-02-08T09:19:39.000Z</time>
      </trkpt>
      <trkpt lat="45.58279" lon="6.63013">
        <ele>2138.8000488281</ele>
        <time>2019-02-08T09:19:43.000Z</time>
      </trkpt>
      <trkpt lat="45.58279" lon="6.63013">
        <ele>2138.8000488281</ele>
        <time>2019-02-08T09:19:44.000Z</time>
      </trkpt>
      <trkpt lat="45.58279" lon="6.63013">
        <ele>2138.8000488281</ele>
        <time>2019-02-08T09:19:48.000Z</time>
      </trkpt>
      <trkpt lat="45.5828" lon="6.63013">
        <ele>2139</ele>
        <time>2019-02-08T09:19:51.000Z</time>
      </trkpt>
      <trkpt lat="45.58282" lon="6.63014">
        <ele>2139.3999023438</ele>
        <time>2019-02-08T09:19:53.000Z</time>
      </trkpt>
      <trkpt lat="45.58286" lon="6.63014">
        <ele>2140.1999511719</ele>
        <time>2019-02-08T09:19:57.000Z</time>
      </trkpt>
      <trkpt lat="45.58288" lon="6.63014">
        <ele>2140.6000976562</ele>
        <time>2019-02-08T09:19:58.000Z</time>
      </trkpt>
      <trkpt lat="45.58294" lon="6.63014">
        <ele>2142</ele>
        <time>2019-02-08T09:20:04.000Z</time>
      </trkpt>
      <trkpt lat="45.58297" lon="6.63015">
        <ele>2142.8000488281</ele>
        <time>2019-02-08T09:20:07.000Z</time>
      </trkpt>
      <trkpt lat="45.58299" lon="6.63014">
        <ele>2143.1999511719</ele>
        <time>2019-02-08T09:20:10.000Z</time>
      </trkpt>
      <trkpt lat="45.58298" lon="6.63014">
        <ele>2143.3999023438</ele>
        <time>2019-02-08T09:20:13.000Z</time>
      </trkpt>
      <trkpt lat="45.58298" lon="6.63012">
        <ele>2143.8000488281</ele>
        <time>2019-02-08T09:20:16.000Z</time>
      </trkpt>
      <trkpt lat="45.58296" lon="6.63008">
        <ele>2145.1999511719</ele>
        <time>2019-02-08T09:20:20.000Z</time>
      </trkpt>
      <trkpt lat="45.58296" lon="6.63006">
        <ele>2145.8000488281</ele>
        <time>2019-02-08T09:20:21.000Z</time>
      </trkpt>
      <trkpt lat="45.58294" lon="6.63001">
        <ele>2147.1999511719</ele>
        <time>2019-02-08T09:20:26.000Z</time>
      </trkpt>
      <trkpt lat="45.58294" lon="6.63">
        <ele>2147.3999023438</ele>
        <time>2019-02-08T09:20:28.000Z</time>
      </trkpt>
      <trkpt lat="45.58291" lon="6.62995">
        <ele>2148.8000488281</ele>
        <time>2019-02-08T09:20:32.000Z</time>
      </trkpt>
      <trkpt lat="45.5829" lon="6.62993">
        <ele>2149.3999023438</ele>
        <time>2019-02-08T09:20:34.000Z</time>
      </trkpt>
      <trkpt lat="45.58289" lon="6.6299">
        <ele>2150.3999023438</ele>
        <time>2019-02-08T09:20:37.000Z</time>
      </trkpt>
      <trkpt lat="45.58287" lon="6.62987">
        <ele>2151</ele>
        <time>2019-02-08T09:20:39.000Z</time>
      </trkpt>
      <trkpt lat="45.58285" lon="6.62983">
        <ele>2151.6000976562</ele>
        <time>2019-02-08T09:20:43.000Z</time>
      </trkpt>
      <trkpt lat="45.58283" lon="6.6298">
        <ele>2152.1999511719</ele>
        <time>2019-02-08T09:20:47.000Z</time>
      </trkpt>
      <trkpt lat="45.58281" lon="6.62978">
        <ele>2152.3999023438</ele>
        <time>2019-02-08T09:20:49.000Z</time>
      </trkpt>
      <trkpt lat="45.58279" lon="6.62976">
        <ele>2152.3999023438</ele>
        <time>2019-02-08T09:20:53.000Z</time>
      </trkpt>
      <trkpt lat="45.58278" lon="6.62975">
        <ele>2152.3999023438</ele>
        <time>2019-02-08T09:20:54.000Z</time>
      </trkpt>
      <trkpt lat="45.58277" lon="6.62974">
        <ele>2152.6000976562</ele>
        <time>2019-02-08T09:20:55.000Z</time>
      </trkpt>
      <trkpt lat="45.58275" lon="6.62972">
        <ele>2152.6000976562</ele>
        <time>2019-02-08T09:21:01.000Z</time>
      </trkpt>
      <trkpt lat="45.58275" lon="6.62972">
        <ele>2152.6000976562</ele>
        <time>2019-02-08T09:21:04.000Z</time>
      </trkpt>
      <trkpt lat="45.58274" lon="6.62971">
        <ele>2152.8000488281</ele>
        <time>2019-02-08T09:21:07.000Z</time>
      </trkpt>
      <trkpt lat="45.58273" lon="6.6297">
        <ele>2153</ele>
        <time>2019-02-08T09:21:09.000Z</time>
      </trkpt>
      <trkpt lat="45.58271" lon="6.62967">
        <ele>2153.1999511719</ele>
        <time>2019-02-08T09:21:13.000Z</time>
      </trkpt>
      <trkpt lat="45.5827" lon="6.62966">
        <ele>2153.3999023438</ele>
        <time>2019-02-08T09:21:15.000Z</time>
      </trkpt>
      <trkpt lat="45.58267" lon="6.62962">
        <ele>2154</ele>
        <time>2019-02-08T09:21:19.000Z</time>
      </trkpt>
      <trkpt lat="45.58266" lon="6.6296">
        <ele>2154.3999023438</ele>
        <time>2019-02-08T09:21:22.000Z</time>
      </trkpt>
      <trkpt lat="45.58265" lon="6.62957">
        <ele>2155</ele>
        <time>2019-02-08T09:21:24.000Z</time>
      </trkpt>
      <trkpt lat="45.58263" lon="6.62954">
        <ele>2155.6000976562</ele>
        <time>2019-02-08T09:21:28.000Z</time>
      </trkpt>
      <trkpt lat="45.58263" lon="6.62952">
        <ele>2156</ele>
        <time>2019-02-08T09:21:29.000Z</time>
      </trkpt>
      <trkpt lat="45.58263" lon="6.62951">
        <ele>2156.3999023438</ele>
        <time>2019-02-08T09:21:33.000Z</time>
      </trkpt>
      <trkpt lat="45.5826" lon="6.62946">
        <ele>2157.1999511719</ele>
        <time>2019-02-08T09:21:38.000Z</time>
      </trkpt>
      <trkpt lat="45.58258" lon="6.62943">
        <ele>2158</ele>
        <time>2019-02-08T09:21:43.000Z</time>
      </trkpt>
      <trkpt lat="45.58258" lon="6.62942">
        <ele>2158.1999511719</ele>
        <time>2019-02-08T09:21:44.000Z</time>
      </trkpt>
      <trkpt lat="45.58257" lon="6.62941">
        <ele>2158</ele>
        <time>2019-02-08T09:21:48.000Z</time>
      </trkpt>
      <trkpt lat="45.58257" lon="6.62941">
        <ele>2158</ele>
        <time>2019-02-08T09:21:49.000Z</time>
      </trkpt>
      <trkpt lat="45.58256" lon="6.6294">
        <ele>2158.1999511719</ele>
        <time>2019-02-08T09:21:53.000Z</time>
      </trkpt>
      <trkpt lat="45.58255" lon="6.62939">
        <ele>2158.3999023438</ele>
        <time>2019-02-08T09:21:54.000Z</time>
      </trkpt>
      <trkpt lat="45.58253" lon="6.62935">
        <ele>2159.1999511719</ele>
        <time>2019-02-08T09:21:58.000Z</time>
      </trkpt>
      <trkpt lat="45.5825" lon="6.62932">
        <ele>2159.3999023438</ele>
        <time>2019-02-08T09:22:02.000Z</time>
      </trkpt>
      <trkpt lat="45.58251" lon="6.62932">
        <ele>2159.6000976562</ele>
        <time>2019-02-08T09:22:03.000Z</time>
      </trkpt>
      <trkpt lat="45.58249" lon="6.6293">
        <ele>2159.8000488281</ele>
        <time>2019-02-08T09:22:07.000Z</time>
      </trkpt>
      <trkpt lat="45.58247" lon="6.62927">
        <ele>2160.3999023438</ele>
        <time>2019-02-08T09:22:09.000Z</time>
      </trkpt>
      <trkpt lat="45.58245" lon="6.62922">
        <ele>2161.1999511719</ele>
        <time>2019-02-08T09:22:11.000Z</time>
      </trkpt>
      <trkpt lat="45.58244" lon="6.62919">
        <ele>2161.8000488281</ele>
        <time>2019-02-08T09:22:15.000Z</time>
      </trkpt>
      <trkpt lat="45.58243" lon="6.62917">
        <ele>2162.3999023438</ele>
        <time>2019-02-08T09:22:17.000Z</time>
      </trkpt>
      <trkpt lat="45.58242" lon="6.62911">
        <ele>2164</ele>
        <time>2019-02-08T09:22:21.000Z</time>
      </trkpt>
      <trkpt lat="45.58242" lon="6.6291">
        <ele>2164.1999511719</ele>
        <time>2019-02-08T09:22:23.000Z</time>
      </trkpt>
      <trkpt lat="45.5824" lon="6.62906">
        <ele>2165</ele>
        <time>2019-02-08T09:22:27.000Z</time>
      </trkpt>
      <trkpt lat="45.58239" lon="6.62905">
        <ele>2165.1999511719</ele>
        <time>2019-02-08T09:22:29.000Z</time>
      </trkpt>
      <trkpt lat="45.58237" lon="6.62902">
        <ele>2165.8000488281</ele>
        <time>2019-02-08T09:22:32.000Z</time>
      </trkpt>
      <trkpt lat="45.58236" lon="6.629">
        <ele>2165.8000488281</ele>
        <time>2019-02-08T09:22:34.000Z</time>
      </trkpt>
      <trkpt lat="45.58236" lon="6.62897">
        <ele>2166.6000976562</ele>
        <time>2019-02-08T09:22:38.000Z</time>
      </trkpt>
      <trkpt lat="45.58235" lon="6.62896">
        <ele>2166.8000488281</ele>
        <time>2019-02-08T09:22:39.000Z</time>
      </trkpt>
      <trkpt lat="45.58234" lon="6.62892">
        <ele>2167.6000976562</ele>
        <time>2019-02-08T09:22:42.000Z</time>
      </trkpt>
      <trkpt lat="45.58234" lon="6.62891">
        <ele>2167.6000976562</ele>
        <time>2019-02-08T09:22:44.000Z</time>
      </trkpt>
      <trkpt lat="45.58232" lon="6.62888">
        <ele>2168</ele>
        <time>2019-02-08T09:22:47.000Z</time>
      </trkpt>
      <trkpt lat="45.58231" lon="6.62885">
        <ele>2168.3999023438</ele>
        <time>2019-02-08T09:22:50.000Z</time>
      </trkpt>
      <trkpt lat="45.58229" lon="6.62882">
        <ele>2168.8000488281</ele>
        <time>2019-02-08T09:22:55.000Z</time>
      </trkpt>
      <trkpt lat="45.58227" lon="6.6288">
        <ele>2168.8000488281</ele>
        <time>2019-02-08T09:23:00.000Z</time>
      </trkpt>
      <trkpt lat="45.58227" lon="6.6288">
        <ele>2168.8000488281</ele>
        <time>2019-02-08T09:23:01.000Z</time>
      </trkpt>
      <trkpt lat="45.58227" lon="6.62877">
        <ele>2169.3999023438</ele>
        <time>2019-02-08T09:23:10.000Z</time>
      </trkpt>
      <trkpt lat="45.58225" lon="6.62871">
        <ele>2170.3999023438</ele>
        <time>2019-02-08T09:23:15.000Z</time>
      </trkpt>
      <trkpt lat="45.58224" lon="6.62868">
        <ele>2171</ele>
        <time>2019-02-08T09:23:18.000Z</time>
      </trkpt>
      <trkpt lat="45.58224" lon="6.62868">
        <ele>2171</ele>
        <time>2019-02-08T09:23:19.000Z</time>
      </trkpt>
      <trkpt lat="45.58222" lon="6.62864">
        <ele>2171.6000976562</ele>
        <time>2019-02-08T09:23:24.000Z</time>
      </trkpt>
      <trkpt lat="45.58221" lon="6.62859">
        <ele>2172.6000976562</ele>
        <time>2019-02-08T09:23:29.000Z</time>
      </trkpt>
      <trkpt lat="45.5822" lon="6.62854">
        <ele>2173.6000976562</ele>
        <time>2019-02-08T09:23:33.000Z</time>
      </trkpt>
      <trkpt lat="45.5822" lon="6.62852">
        <ele>2174</ele>
        <time>2019-02-08T09:23:34.000Z</time>
      </trkpt>
      <trkpt lat="45.5822" lon="6.62852">
        <ele>2174.1999511719</ele>
        <time>2019-02-08T09:23:36.000Z</time>
      </trkpt>
      <trkpt lat="45.5822" lon="6.62851">
        <ele>2174.3999023438</ele>
        <time>2019-02-08T09:23:38.000Z</time>
      </trkpt>
      <trkpt lat="45.58219" lon="6.62848">
        <ele>2174.8000488281</ele>
        <time>2019-02-08T09:23:40.000Z</time>
      </trkpt>
      <trkpt lat="45.5822" lon="6.62845">
        <ele>2175.8000488281</ele>
        <time>2019-02-08T09:23:42.000Z</time>
      </trkpt>
      <trkpt lat="45.58219" lon="6.62845">
        <ele>2175.6000976562</ele>
        <time>2019-02-08T09:23:43.000Z</time>
      </trkpt>
      <trkpt lat="45.5822" lon="6.6284">
        <ele>2177</ele>
        <time>2019-02-08T09:23:48.000Z</time>
      </trkpt>
      <trkpt lat="45.5822" lon="6.6284">
        <ele>2177.1999511719</ele>
        <time>2019-02-08T09:23:49.000Z</time>
      </trkpt>
      <trkpt lat="45.5822" lon="6.62834">
        <ele>2178.6000976562</ele>
        <time>2019-02-08T09:23:54.000Z</time>
      </trkpt>
      <trkpt lat="45.5822" lon="6.62834">
        <ele>2178.6000976562</ele>
        <time>2019-02-08T09:23:55.000Z</time>
      </trkpt>
      <trkpt lat="45.58219" lon="6.62829">
        <ele>2179.6000976562</ele>
        <time>2019-02-08T09:24:00.000Z</time>
      </trkpt>
      <trkpt lat="45.58219" lon="6.62822">
        <ele>2181.3999023438</ele>
        <time>2019-02-08T09:24:06.000Z</time>
      </trkpt>
      <trkpt lat="45.5822" lon="6.62821">
        <ele>2181.8000488281</ele>
        <time>2019-02-08T09:24:08.000Z</time>
      </trkpt>
      <trkpt lat="45.5822" lon="6.62817">
        <ele>2183.1999511719</ele>
        <time>2019-02-08T09:24:12.000Z</time>
      </trkpt>
      <trkpt lat="45.5822" lon="6.62813">
        <ele>2184.1999511719</ele>
        <time>2019-02-08T09:24:15.000Z</time>
      </trkpt>
      <trkpt lat="45.5822" lon="6.6281">
        <ele>2185</ele>
        <time>2019-02-08T09:24:17.000Z</time>
      </trkpt>
      <trkpt lat="45.5822" lon="6.62803">
        <ele>2186.6000976562</ele>
        <time>2019-02-08T09:24:22.000Z</time>
      </trkpt>
      <trkpt lat="45.58221" lon="6.62801">
        <ele>2187.3999023438</ele>
        <time>2019-02-08T09:24:26.000Z</time>
      </trkpt>
      <trkpt lat="45.5822" lon="6.62799">
        <ele>2187.8000488281</ele>
        <time>2019-02-08T09:24:28.000Z</time>
      </trkpt>
      <trkpt lat="45.5822" lon="6.62796">
        <ele>2188.8000488281</ele>
        <time>2019-02-08T09:24:32.000Z</time>
      </trkpt>
      <trkpt lat="45.58221" lon="6.62794">
        <ele>2189.3999023438</ele>
        <time>2019-02-08T09:24:34.000Z</time>
      </trkpt>
      <trkpt lat="45.58221" lon="6.62794">
        <ele>2189.6000976562</ele>
        <time>2019-02-08T09:24:41.000Z</time>
      </trkpt>
      <trkpt lat="45.58221" lon="6.62794">
        <ele>2189.6000976562</ele>
        <time>2019-02-08T09:24:44.000Z</time>
      </trkpt>
      <trkpt lat="45.58221" lon="6.62794">
        <ele>2189.6000976562</ele>
        <time>2019-02-08T09:24:54.000Z</time>
      </trkpt>
      <trkpt lat="45.58221" lon="6.62794">
        <ele>2189.6000976562</ele>
        <time>2019-02-08T09:25:07.000Z</time>
      </trkpt>
      <trkpt lat="45.58221" lon="6.62794">
        <ele>2189.6000976562</ele>
        <time>2019-02-08T09:25:25.000Z</time>
      </trkpt>
      <trkpt lat="45.58221" lon="6.62794">
        <ele>2189.6000976562</ele>
        <time>2019-02-08T09:25:44.000Z</time>
      </trkpt>
      <trkpt lat="45.58223" lon="6.62792">
        <ele>2190.8000488281</ele>
        <time>2019-02-08T09:25:53.000Z</time>
      </trkpt>
      <trkpt lat="45.58225" lon="6.62794">
        <ele>2191</ele>
        <time>2019-02-08T09:25:56.000Z</time>
      </trkpt>
      <trkpt lat="45.58226" lon="6.62795">
        <ele>2191</ele>
        <time>2019-02-08T09:25:57.000Z</time>
      </trkpt>
      <trkpt lat="45.58226" lon="6.62795">
        <ele>2191</ele>
        <time>2019-02-08T09:25:59.000Z</time>
      </trkpt>
      <trkpt lat="45.58229" lon="6.628">
        <ele>2190.8000488281</ele>
        <time>2019-02-08T09:26:04.000Z</time>
      </trkpt>
      <trkpt lat="45.58234" lon="6.62804">
        <ele>2191.1999511719</ele>
        <time>2019-02-08T09:26:09.000Z</time>
      </trkpt>
      <trkpt lat="45.58234" lon="6.62805">
        <ele>2191.1999511719</ele>
        <time>2019-02-08T09:26:10.000Z</time>
      </trkpt>
      <trkpt lat="45.58236" lon="6.62809">
        <ele>2191</ele>
        <time>2019-02-08T09:26:14.000Z</time>
      </trkpt>
      <trkpt lat="45.58237" lon="6.62809">
        <ele>2191</ele>
        <time>2019-02-08T09:26:15.000Z</time>
      </trkpt>
      <trkpt lat="45.5824" lon="6.62814">
        <ele>2190.8000488281</ele>
        <time>2019-02-08T09:26:20.000Z</time>
      </trkpt>
      <trkpt lat="45.5824" lon="6.62815">
        <ele>2190.8000488281</ele>
        <time>2019-02-08T09:26:21.000Z</time>
      </trkpt>
      <trkpt lat="45.58241" lon="6.62817">
        <ele>2190.8000488281</ele>
        <time>2019-02-08T09:26:23.000Z</time>
      </trkpt>
      <trkpt lat="45.58243" lon="6.62819">
        <ele>2190.6000976562</ele>
        <time>2019-02-08T09:26:26.000Z</time>
      </trkpt>
      <trkpt lat="45.58245" lon="6.6282">
        <ele>2190.8000488281</ele>
        <time>2019-02-08T09:26:29.000Z</time>
      </trkpt>
      <trkpt lat="45.58247" lon="6.62822">
        <ele>2191</ele>
        <time>2019-02-08T09:26:32.000Z</time>
      </trkpt>
      <trkpt lat="45.58248" lon="6.62822">
        <ele>2191</ele>
        <time>2019-02-08T09:26:33.000Z</time>
      </trkpt>
      <trkpt lat="45.58251" lon="6.62824">
        <ele>2191.3999023438</ele>
        <time>2019-02-08T09:26:38.000Z</time>
      </trkpt>
      <trkpt lat="45.58257" lon="6.62828">
        <ele>2192.1999511719</ele>
        <time>2019-02-08T09:26:45.000Z</time>
      </trkpt>
      <trkpt lat="45.58257" lon="6.62828">
        <ele>2192.3999023438</ele>
        <time>2019-02-08T09:26:46.000Z</time>
      </trkpt>
      <trkpt lat="45.58261" lon="6.6283">
        <ele>2193.1999511719</ele>
        <time>2019-02-08T09:26:51.000Z</time>
      </trkpt>
      <trkpt lat="45.58262" lon="6.6283">
        <ele>2193.3999023438</ele>
        <time>2019-02-08T09:26:52.000Z</time>
      </trkpt>
      <trkpt lat="45.58264" lon="6.6283">
        <ele>2194.1999511719</ele>
        <time>2019-02-08T09:26:55.000Z</time>
      </trkpt>
      <trkpt lat="45.58266" lon="6.62829">
        <ele>2195</ele>
        <time>2019-02-08T09:26:57.000Z</time>
      </trkpt>
      <trkpt lat="45.58269" lon="6.62828">
        <ele>2196.3999023438</ele>
        <time>2019-02-08T09:27:02.000Z</time>
      </trkpt>
      <trkpt lat="45.58269" lon="6.62827">
        <ele>2196.8000488281</ele>
        <time>2019-02-08T09:27:03.000Z</time>
      </trkpt>
      <trkpt lat="45.5827" lon="6.62827">
        <ele>2197</ele>
        <time>2019-02-08T09:27:06.000Z</time>
      </trkpt>
      <trkpt lat="45.58269" lon="6.62824">
        <ele>2197.8000488281</ele>
        <time>2019-02-08T09:27:08.000Z</time>
      </trkpt>
      <trkpt lat="45.58269" lon="6.62823">
        <ele>2198.1999511719</ele>
        <time>2019-02-08T09:27:09.000Z</time>
      </trkpt>
      <trkpt lat="45.58269" lon="6.62819">
        <ele>2199.3999023438</ele>
        <time>2019-02-08T09:27:13.000Z</time>
      </trkpt>
      <trkpt lat="45.58269" lon="6.62817">
        <ele>2200</ele>
        <time>2019-02-08T09:27:15.000Z</time>
      </trkpt>
      <trkpt lat="45.58269" lon="6.62815">
        <ele>2200.8000488281</ele>
        <time>2019-02-08T09:27:18.000Z</time>
      </trkpt>
      <trkpt lat="45.58268" lon="6.62811">
        <ele>2201.3999023438</ele>
        <time>2019-02-08T09:27:21.000Z</time>
      </trkpt>
      <trkpt lat="45.58268" lon="6.62809">
        <ele>2202</ele>
        <time>2019-02-08T09:27:23.000Z</time>
      </trkpt>
      <trkpt lat="45.58269" lon="6.62805">
        <ele>2203.3999023438</ele>
        <time>2019-02-08T09:27:28.000Z</time>
      </trkpt>
      <trkpt lat="45.5827" lon="6.62805">
        <ele>2203.6000976562</ele>
        <time>2019-02-08T09:27:29.000Z</time>
      </trkpt>
      <trkpt lat="45.58272" lon="6.62802">
        <ele>2205.3999023438</ele>
        <time>2019-02-08T09:27:34.000Z</time>
      </trkpt>
      <trkpt lat="45.58273" lon="6.62801">
        <ele>2205.8000488281</ele>
        <time>2019-02-08T09:27:35.000Z</time>
      </trkpt>
      <trkpt lat="45.58275" lon="6.62799">
        <ele>2207</ele>
        <time>2019-02-08T09:27:39.000Z</time>
      </trkpt>
      <trkpt lat="45.58276" lon="6.62797">
        <ele>2207.8000488281</ele>
        <time>2019-02-08T09:27:41.000Z</time>
      </trkpt>
      <trkpt lat="45.58278" lon="6.62794">
        <ele>2209.3999023438</ele>
        <time>2019-02-08T09:27:45.000Z</time>
      </trkpt>
      <trkpt lat="45.58279" lon="6.62794">
        <ele>2209.8000488281</ele>
        <time>2019-02-08T09:27:46.000Z</time>
      </trkpt>
      <trkpt lat="45.58281" lon="6.6279">
        <ele>2212</ele>
        <time>2019-02-08T09:27:52.000Z</time>
      </trkpt>
      <trkpt lat="45.58282" lon="6.62789">
        <ele>2212.6000976562</ele>
        <time>2019-02-08T09:27:53.000Z</time>
      </trkpt>
      <trkpt lat="45.58286" lon="6.62788">
        <ele>2214.1999511719</ele>
        <time>2019-02-08T09:27:58.000Z</time>
      </trkpt>
      <trkpt lat="45.58287" lon="6.62787">
        <ele>2215</ele>
        <time>2019-02-08T09:28:00.000Z</time>
      </trkpt>
      <trkpt lat="45.58289" lon="6.62785">
        <ele>2216.3999023438</ele>
        <time>2019-02-08T09:28:03.000Z</time>
      </trkpt>
      <trkpt lat="45.5829" lon="6.62782">
        <ele>2217.8000488281</ele>
        <time>2019-02-08T09:28:06.000Z</time>
      </trkpt>
      <trkpt lat="45.58291" lon="6.6278">
        <ele>2218.6000976562</ele>
        <time>2019-02-08T09:28:08.000Z</time>
      </trkpt>
      <trkpt lat="45.58292" lon="6.62773">
        <ele>2221</ele>
        <time>2019-02-08T09:28:14.000Z</time>
      </trkpt>
      <trkpt lat="45.58292" lon="6.62771">
        <ele>2222</ele>
        <time>2019-02-08T09:28:16.000Z</time>
      </trkpt>
      <trkpt lat="45.58294" lon="6.62767">
        <ele>2223.8000488281</ele>
        <time>2019-02-08T09:28:20.000Z</time>
      </trkpt>
      <trkpt lat="45.58296" lon="6.62763">
        <ele>2225.8000488281</ele>
        <time>2019-02-08T09:28:24.000Z</time>
      </trkpt>
      <trkpt lat="45.58297" lon="6.62762">
        <ele>2226.1999511719</ele>
        <time>2019-02-08T09:28:25.000Z</time>
      </trkpt>
      <trkpt lat="45.58299" lon="6.6276">
        <ele>2227.6000976562</ele>
        <time>2019-02-08T09:28:30.000Z</time>
      </trkpt>
      <trkpt lat="45.58301" lon="6.62759">
        <ele>2228.6000976562</ele>
        <time>2019-02-08T09:28:32.000Z</time>
      </trkpt>
      <trkpt lat="45.58304" lon="6.62758">
        <ele>2230.6000976562</ele>
        <time>2019-02-08T09:28:36.000Z</time>
      </trkpt>
      <trkpt lat="45.58306" lon="6.62757">
        <ele>2231.1999511719</ele>
        <time>2019-02-08T09:28:38.000Z</time>
      </trkpt>
      <trkpt lat="45.58309" lon="6.62757">
        <ele>2232.6000976562</ele>
        <time>2019-02-08T09:28:41.000Z</time>
      </trkpt>
      <trkpt lat="45.58313" lon="6.62757">
        <ele>2234.1999511719</ele>
        <time>2019-02-08T09:28:47.000Z</time>
      </trkpt>
      <trkpt lat="45.58313" lon="6.62757">
        <ele>2234.3999023438</ele>
        <time>2019-02-08T09:28:48.000Z</time>
      </trkpt>
      <trkpt lat="45.58319" lon="6.62759">
        <ele>2236.1999511719</ele>
        <time>2019-02-08T09:28:55.000Z</time>
      </trkpt>
      <trkpt lat="45.5832" lon="6.62759">
        <ele>2236.6000976562</ele>
        <time>2019-02-08T09:28:56.000Z</time>
      </trkpt>
      <trkpt lat="45.58322" lon="6.62762">
        <ele>2236.8000488281</ele>
        <time>2019-02-08T09:29:02.000Z</time>
      </trkpt>
      <trkpt lat="45.58323" lon="6.62763">
        <ele>2236.8000488281</ele>
        <time>2019-02-08T09:29:06.000Z</time>
      </trkpt>
      <trkpt lat="45.58322" lon="6.62761">
        <ele>2237.1999511719</ele>
        <time>2019-02-08T09:29:10.000Z</time>
      </trkpt>
      <trkpt lat="45.58321" lon="6.62759">
        <ele>2237.1999511719</ele>
        <time>2019-02-08T09:29:12.000Z</time>
      </trkpt>
      <trkpt lat="45.58321" lon="6.62757">
        <ele>2237.6000976562</ele>
        <time>2019-02-08T09:29:14.000Z</time>
      </trkpt>
      <trkpt lat="45.58321" lon="6.62756">
        <ele>2237.8000488281</ele>
        <time>2019-02-08T09:29:15.000Z</time>
      </trkpt>
      <trkpt lat="45.5832" lon="6.62755">
        <ele>2238</ele>
        <time>2019-02-08T09:29:16.000Z</time>
      </trkpt>
      <trkpt lat="45.58317" lon="6.62751">
        <ele>2237.8000488281</ele>
        <time>2019-02-08T09:29:20.000Z</time>
      </trkpt>
      <trkpt lat="45.58315" lon="6.62747">
        <ele>2238.3999023438</ele>
        <time>2019-02-08T09:29:25.000Z</time>
      </trkpt>
      <trkpt lat="45.58313" lon="6.62742">
        <ele>2239</ele>
        <time>2019-02-08T09:29:30.000Z</time>
      </trkpt>
      <trkpt lat="45.58312" lon="6.62739">
        <ele>2239</ele>
        <time>2019-02-08T09:29:33.000Z</time>
      </trkpt>
      <trkpt lat="45.58311" lon="6.62739">
        <ele>2238.8000488281</ele>
        <time>2019-02-08T09:29:34.000Z</time>
      </trkpt>
      <trkpt lat="45.58306" lon="6.62736">
        <ele>2237.3999023438</ele>
        <time>2019-02-08T09:29:41.000Z</time>
      </trkpt>
      <trkpt lat="45.58305" lon="6.62736">
        <ele>2237</ele>
        <time>2019-02-08T09:29:43.000Z</time>
      </trkpt>
      <trkpt lat="45.58302" lon="6.62736">
        <ele>2236.1999511719</ele>
        <time>2019-02-08T09:29:47.000Z</time>
      </trkpt>
      <trkpt lat="45.58301" lon="6.62736">
        <ele>2235.6000976562</ele>
        <time>2019-02-08T09:29:49.000Z</time>
      </trkpt>
      <trkpt lat="45.58299" lon="6.62736">
        <ele>2234.8000488281</ele>
        <time>2019-02-08T09:29:52.000Z</time>
      </trkpt>
      <trkpt lat="45.58294" lon="6.62734">
        <ele>2233.3999023438</ele>
        <time>2019-02-08T09:29:57.000Z</time>
      </trkpt>
      <trkpt lat="45.58292" lon="6.62732">
        <ele>2232.8000488281</ele>
        <time>2019-02-08T09:30:02.000Z</time>
      </trkpt>
      <trkpt lat="45.58291" lon="6.62731">
        <ele>2232.8000488281</ele>
        <time>2019-02-08T09:30:04.000Z</time>
      </trkpt>
      <trkpt lat="45.58291" lon="6.62729">
        <ele>2232.8000488281</ele>
        <time>2019-02-08T09:30:07.000Z</time>
      </trkpt>
      <trkpt lat="45.58291" lon="6.62727">
        <ele>2233.1999511719</ele>
        <time>2019-02-08T09:30:09.000Z</time>
      </trkpt>
      <trkpt lat="45.58291" lon="6.62724">
        <ele>2234.1999511719</ele>
        <time>2019-02-08T09:30:12.000Z</time>
      </trkpt>
      <trkpt lat="45.58292" lon="6.62724">
        <ele>2234.3999023438</ele>
        <time>2019-02-08T09:30:13.000Z</time>
      </trkpt>
      <trkpt lat="45.58292" lon="6.62722">
        <ele>2235.1999511719</ele>
        <time>2019-02-08T09:30:16.000Z</time>
      </trkpt>
      <trkpt lat="45.58293" lon="6.62721">
        <ele>2236</ele>
        <time>2019-02-08T09:30:18.000Z</time>
      </trkpt>
      <trkpt lat="45.58293" lon="6.6272">
        <ele>2236.1999511719</ele>
        <time>2019-02-08T09:30:21.000Z</time>
      </trkpt>
      <trkpt lat="45.58294" lon="6.62721">
        <ele>2236.6000976562</ele>
        <time>2019-02-08T09:30:24.000Z</time>
      </trkpt>
      <trkpt lat="45.58296" lon="6.62721">
        <ele>2237.1999511719</ele>
        <time>2019-02-08T09:30:26.000Z</time>
      </trkpt>
      <trkpt lat="45.58299" lon="6.6272">
        <ele>2239.1999511719</ele>
        <time>2019-02-08T09:30:30.000Z</time>
      </trkpt>
      <trkpt lat="45.58302" lon="6.62717">
        <ele>2241.8000488281</ele>
        <time>2019-02-08T09:30:35.000Z</time>
      </trkpt>
      <trkpt lat="45.58303" lon="6.62715">
        <ele>2242.6000976562</ele>
        <time>2019-02-08T09:30:37.000Z</time>
      </trkpt>
      <trkpt lat="45.58303" lon="6.62712">
        <ele>2243.3999023438</ele>
        <time>2019-02-08T09:30:40.000Z</time>
      </trkpt>
      <trkpt lat="45.58303" lon="6.62712">
        <ele>2243.3999023438</ele>
        <time>2019-02-08T09:30:43.000Z</time>
      </trkpt>
      <trkpt lat="45.58302" lon="6.62708">
        <ele>2244</ele>
        <time>2019-02-08T09:30:48.000Z</time>
      </trkpt>
      <trkpt lat="45.58299" lon="6.627">
        <ele>2244.8000488281</ele>
        <time>2019-02-08T09:30:54.000Z</time>
      </trkpt>
      <trkpt lat="45.58297" lon="6.62693">
        <ele>2246</ele>
        <time>2019-02-08T09:31:00.000Z</time>
      </trkpt>
      <trkpt lat="45.58296" lon="6.62688">
        <ele>2246.8000488281</ele>
        <time>2019-02-08T09:31:06.000Z</time>
      </trkpt>
      <trkpt lat="45.58297" lon="6.62688">
        <ele>2247.3999023438</ele>
        <time>2019-02-08T09:31:07.000Z</time>
      </trkpt>
      <trkpt lat="45.58299" lon="6.62687">
        <ele>2248.8000488281</ele>
        <time>2019-02-08T09:31:11.000Z</time>
      </trkpt>
      <trkpt lat="45.583" lon="6.62687">
        <ele>2249.3999023438</ele>
        <time>2019-02-08T09:31:13.000Z</time>
      </trkpt>
      <trkpt lat="45.58303" lon="6.62688">
        <ele>2250.1999511719</ele>
        <time>2019-02-08T09:31:17.000Z</time>
      </trkpt>
      <trkpt lat="45.58306" lon="6.62689">
        <ele>2251.1999511719</ele>
        <time>2019-02-08T09:31:21.000Z</time>
      </trkpt>
      <trkpt lat="45.58307" lon="6.62689">
        <ele>2251.6000976562</ele>
        <time>2019-02-08T09:31:23.000Z</time>
      </trkpt>
      <trkpt lat="45.5831" lon="6.6269">
        <ele>2252.6000976562</ele>
        <time>2019-02-08T09:31:27.000Z</time>
      </trkpt>
      <trkpt lat="45.5831" lon="6.6269">
        <ele>2252.6000976562</ele>
        <time>2019-02-08T09:31:28.000Z</time>
      </trkpt>
      <trkpt lat="45.58312" lon="6.6269">
        <ele>2253.6000976562</ele>
        <time>2019-02-08T09:31:34.000Z</time>
      </trkpt>
      <trkpt lat="45.58312" lon="6.6269">
        <ele>2253.6000976562</ele>
        <time>2019-02-08T09:31:37.000Z</time>
      </trkpt>
      <trkpt lat="45.58312" lon="6.6269">
        <ele>2253.6000976562</ele>
        <time>2019-02-08T09:31:49.000Z</time>
      </trkpt>
      <trkpt lat="45.58314" lon="6.62689">
        <ele>2254.3999023438</ele>
        <time>2019-02-08T09:31:51.000Z</time>
      </trkpt>
      <trkpt lat="45.58316" lon="6.62688">
        <ele>2255.8000488281</ele>
        <time>2019-02-08T09:31:54.000Z</time>
      </trkpt>
      <trkpt lat="45.58317" lon="6.62687">
        <ele>2256.1999511719</ele>
        <time>2019-02-08T09:31:55.000Z</time>
      </trkpt>
      <trkpt lat="45.58318" lon="6.62687">
        <ele>2256.8000488281</ele>
        <time>2019-02-08T09:31:56.000Z</time>
      </trkpt>
      <trkpt lat="45.5832" lon="6.62687">
        <ele>2257.6000976562</ele>
        <time>2019-02-08T09:31:59.000Z</time>
      </trkpt>
      <trkpt lat="45.58325" lon="6.62686">
        <ele>2259.6000976562</ele>
        <time>2019-02-08T09:32:05.000Z</time>
      </trkpt>
      <trkpt lat="45.58327" lon="6.62686">
        <ele>2260.3999023438</ele>
        <time>2019-02-08T09:32:08.000Z</time>
      </trkpt>
      <trkpt lat="45.5833" lon="6.62687">
        <ele>2261.6000976562</ele>
        <time>2019-02-08T09:32:12.000Z</time>
      </trkpt>
      <trkpt lat="45.58332" lon="6.62686">
        <ele>2262.3999023438</ele>
        <time>2019-02-08T09:32:15.000Z</time>
      </trkpt>
      <trkpt lat="45.58334" lon="6.62687">
        <ele>2263.3999023438</ele>
        <time>2019-02-08T09:32:18.000Z</time>
      </trkpt>
      <trkpt lat="45.58339" lon="6.62686">
        <ele>2265.8000488281</ele>
        <time>2019-02-08T09:32:24.000Z</time>
      </trkpt>
      <trkpt lat="45.5834" lon="6.62686">
        <ele>2266.1999511719</ele>
        <time>2019-02-08T09:32:25.000Z</time>
      </trkpt>
      <trkpt lat="45.58344" lon="6.62687">
        <ele>2267.6000976562</ele>
        <time>2019-02-08T09:32:31.000Z</time>
      </trkpt>
      <trkpt lat="45.58345" lon="6.62688">
        <ele>2267.8000488281</ele>
        <time>2019-02-08T09:32:33.000Z</time>
      </trkpt>
      <trkpt lat="45.58348" lon="6.62689">
        <ele>2268.8000488281</ele>
        <time>2019-02-08T09:32:38.000Z</time>
      </trkpt>
      <trkpt lat="45.58349" lon="6.62689">
        <ele>2269.3999023438</ele>
        <time>2019-02-08T09:32:40.000Z</time>
      </trkpt>
      <trkpt lat="45.58352" lon="6.6269">
        <ele>2270.1999511719</ele>
        <time>2019-02-08T09:32:44.000Z</time>
      </trkpt>
      <trkpt lat="45.58353" lon="6.62692">
        <ele>2270.3999023438</ele>
        <time>2019-02-08T09:32:47.000Z</time>
      </trkpt>
      <trkpt lat="45.58355" lon="6.62693">
        <ele>2270.6000976562</ele>
        <time>2019-02-08T09:32:50.000Z</time>
      </trkpt>
      <trkpt lat="45.58356" lon="6.62694">
        <ele>2271</ele>
        <time>2019-02-08T09:32:51.000Z</time>
      </trkpt>
      <trkpt lat="45.58358" lon="6.62694">
        <ele>2271.8000488281</ele>
        <time>2019-02-08T09:32:56.000Z</time>
      </trkpt>
      <trkpt lat="45.58358" lon="6.62694">
        <ele>2271.8000488281</ele>
        <time>2019-02-08T09:32:57.000Z</time>
      </trkpt>
      <trkpt lat="45.58358" lon="6.62694">
        <ele>2271.8000488281</ele>
        <time>2019-02-08T09:33:08.000Z</time>
      </trkpt>
      <trkpt lat="45.58362" lon="6.62696">
        <ele>2272.8000488281</ele>
        <time>2019-02-08T09:33:13.000Z</time>
      </trkpt>
      <trkpt lat="45.58367" lon="6.62697">
        <ele>2274.6000976562</ele>
        <time>2019-02-08T09:33:19.000Z</time>
      </trkpt>
      <trkpt lat="45.58368" lon="6.62697">
        <ele>2275</ele>
        <time>2019-02-08T09:33:20.000Z</time>
      </trkpt>
      <trkpt lat="45.58369" lon="6.62698">
        <ele>2275.3999023438</ele>
        <time>2019-02-08T09:33:24.000Z</time>
      </trkpt>
      <trkpt lat="45.58369" lon="6.62698">
        <ele>2275.3999023438</ele>
        <time>2019-02-08T09:33:25.000Z</time>
      </trkpt>
      <trkpt lat="45.58369" lon="6.62698">
        <ele>2275.3999023438</ele>
        <time>2019-02-08T09:33:39.000Z</time>
      </trkpt>
      <trkpt lat="45.58369" lon="6.62698">
        <ele>2275.3999023438</ele>
        <time>2019-02-08T09:33:58.000Z</time>
      </trkpt>
      <trkpt lat="45.58373" lon="6.62701">
        <ele>2276.3999023438</ele>
        <time>2019-02-08T09:34:07.000Z</time>
      </trkpt>
      <trkpt lat="45.58377" lon="6.62703">
        <ele>2277.1999511719</ele>
        <time>2019-02-08T09:34:11.000Z</time>
      </trkpt>
      <trkpt lat="45.58378" lon="6.62704">
        <ele>2277.3999023438</ele>
        <time>2019-02-08T09:34:12.000Z</time>
      </trkpt>
      <trkpt lat="45.58383" lon="6.62707">
        <ele>2278.8000488281</ele>
        <time>2019-02-08T09:34:18.000Z</time>
      </trkpt>
      <trkpt lat="45.58385" lon="6.62708">
        <ele>2279.3999023438</ele>
        <time>2019-02-08T09:34:21.000Z</time>
      </trkpt>
      <trkpt lat="45.58387" lon="6.62709">
        <ele>2279.3999023438</ele>
        <time>2019-02-08T09:34:23.000Z</time>
      </trkpt>
      <trkpt lat="45.58389" lon="6.62712">
        <ele>2279</ele>
        <time>2019-02-08T09:34:27.000Z</time>
      </trkpt>
      <trkpt lat="45.5839" lon="6.62713">
        <ele>2279</ele>
        <time>2019-02-08T09:34:28.000Z</time>
      </trkpt>
      <trkpt lat="45.58393" lon="6.62717">
        <ele>2278.1999511719</ele>
        <time>2019-02-08T09:34:33.000Z</time>
      </trkpt>
      <trkpt lat="45.58393" lon="6.62718">
        <ele>2278</ele>
        <time>2019-02-08T09:34:34.000Z</time>
      </trkpt>
      <trkpt lat="45.58395" lon="6.62722">
        <ele>2277.1999511719</ele>
        <time>2019-02-08T09:34:39.000Z</time>
      </trkpt>
      <trkpt lat="45.58395" lon="6.62723">
        <ele>2277</ele>
        <time>2019-02-08T09:34:41.000Z</time>
      </trkpt>
      <trkpt lat="45.58397" lon="6.62724">
        <ele>2277</ele>
        <time>2019-02-08T09:34:44.000Z</time>
      </trkpt>
      <trkpt lat="45.584" lon="6.62725">
        <ele>2277.1999511719</ele>
        <time>2019-02-08T09:34:48.000Z</time>
      </trkpt>
      <trkpt lat="45.58402" lon="6.62726">
        <ele>2277.3999023438</ele>
        <time>2019-02-08T09:34:50.000Z</time>
      </trkpt>
      <trkpt lat="45.58404" lon="6.62728">
        <ele>2277.3999023438</ele>
        <time>2019-02-08T09:34:55.000Z</time>
      </trkpt>
      <trkpt lat="45.58404" lon="6.62729">
        <ele>2277.1999511719</ele>
        <time>2019-02-08T09:34:56.000Z</time>
      </trkpt>
      <trkpt lat="45.58407" lon="6.62731">
        <ele>2277.1999511719</ele>
        <time>2019-02-08T09:35:01.000Z</time>
      </trkpt>
      <trkpt lat="45.58408" lon="6.62731">
        <ele>2277.1999511719</ele>
        <time>2019-02-08T09:35:02.000Z</time>
      </trkpt>
      <trkpt lat="45.5841" lon="6.62733">
        <ele>2277</ele>
        <time>2019-02-08T09:35:06.000Z</time>
      </trkpt>
      <trkpt lat="45.58411" lon="6.62734">
        <ele>2277</ele>
        <time>2019-02-08T09:35:08.000Z</time>
      </trkpt>
      <trkpt lat="45.58413" lon="6.62735">
        <ele>2277.3999023438</ele>
        <time>2019-02-08T09:35:11.000Z</time>
      </trkpt>
      <trkpt lat="45.58415" lon="6.62736">
        <ele>2277.3999023438</ele>
        <time>2019-02-08T09:35:17.000Z</time>
      </trkpt>
      <trkpt lat="45.58417" lon="6.62738">
        <ele>2277.3999023438</ele>
        <time>2019-02-08T09:35:21.000Z</time>
      </trkpt>
      <trkpt lat="45.5842" lon="6.62739">
        <ele>2277.8000488281</ele>
        <time>2019-02-08T09:35:26.000Z</time>
      </trkpt>
      <trkpt lat="45.58423" lon="6.62741">
        <ele>2278</ele>
        <time>2019-02-08T09:35:31.000Z</time>
      </trkpt>
      <trkpt lat="45.58424" lon="6.62741">
        <ele>2278.1999511719</ele>
        <time>2019-02-08T09:35:33.000Z</time>
      </trkpt>
      <trkpt lat="45.58426" lon="6.62741">
        <ele>2278.6000976562</ele>
        <time>2019-02-08T09:35:36.000Z</time>
      </trkpt>
      <trkpt lat="45.58427" lon="6.62742">
        <ele>2278.8000488281</ele>
        <time>2019-02-08T09:35:39.000Z</time>
      </trkpt>
      <trkpt lat="45.58428" lon="6.62743">
        <ele>2278.6000976562</ele>
        <time>2019-02-08T09:35:41.000Z</time>
      </trkpt>
      <trkpt lat="45.58429" lon="6.62744">
        <ele>2278.6000976562</ele>
        <time>2019-02-08T09:35:42.000Z</time>
      </trkpt>
      <trkpt lat="45.58432" lon="6.62745">
        <ele>2279</ele>
        <time>2019-02-08T09:35:47.000Z</time>
      </trkpt>
      <trkpt lat="45.58434" lon="6.62747">
        <ele>2279</ele>
        <time>2019-02-08T09:35:52.000Z</time>
      </trkpt>
      <trkpt lat="45.58434" lon="6.62747">
        <ele>2279</ele>
        <time>2019-02-08T09:35:53.000Z</time>
      </trkpt>
      <trkpt lat="45.58437" lon="6.62748">
        <ele>2279.1999511719</ele>
        <time>2019-02-08T09:35:58.000Z</time>
      </trkpt>
      <trkpt lat="45.58437" lon="6.6275">
        <ele>2279</ele>
        <time>2019-02-08T09:36:00.000Z</time>
      </trkpt>
      <trkpt lat="45.58438" lon="6.6275">
        <ele>2279</ele>
        <time>2019-02-08T09:36:01.000Z</time>
      </trkpt>
      <trkpt lat="45.5844" lon="6.62753">
        <ele>2278.6000976562</ele>
        <time>2019-02-08T09:36:07.000Z</time>
      </trkpt>
      <trkpt lat="45.5844" lon="6.62753">
        <ele>2278.6000976562</ele>
        <time>2019-02-08T09:36:10.000Z</time>
      </trkpt>
      <trkpt lat="45.58441" lon="6.62755">
        <ele>2278.3999023438</ele>
        <time>2019-02-08T09:36:19.000Z</time>
      </trkpt>
      <trkpt lat="45.58441" lon="6.62755">
        <ele>2278.1999511719</ele>
        <time>2019-02-08T09:36:25.000Z</time>
      </trkpt>
      <trkpt lat="45.58443" lon="6.62751">
        <ele>2280</ele>
        <time>2019-02-08T09:36:31.000Z</time>
      </trkpt>
      <trkpt lat="45.58444" lon="6.62746">
        <ele>2281.8000488281</ele>
        <time>2019-02-08T09:36:37.000Z</time>
      </trkpt>
      <trkpt lat="45.58444" lon="6.62744">
        <ele>2282.1999511719</ele>
        <time>2019-02-08T09:36:38.000Z</time>
      </trkpt>
      <trkpt lat="45.58444" lon="6.62742">
        <ele>2283</ele>
        <time>2019-02-08T09:36:41.000Z</time>
      </trkpt>
      <trkpt lat="45.58443" lon="6.6274">
        <ele>2283.3999023438</ele>
        <time>2019-02-08T09:36:43.000Z</time>
      </trkpt>
      <trkpt lat="45.58441" lon="6.62735">
        <ele>2284.6000976562</ele>
        <time>2019-02-08T09:36:49.000Z</time>
      </trkpt>
      <trkpt lat="45.58441" lon="6.62731">
        <ele>2285.6000976562</ele>
        <time>2019-02-08T09:36:54.000Z</time>
      </trkpt>
      <trkpt lat="45.58441" lon="6.6273">
        <ele>2285.8000488281</ele>
        <time>2019-02-08T09:36:55.000Z</time>
      </trkpt>
      <trkpt lat="45.5844" lon="6.62727">
        <ele>2286.8000488281</ele>
        <time>2019-02-08T09:36:59.000Z</time>
      </trkpt>
      <trkpt lat="45.5844" lon="6.62726">
        <ele>2287.1999511719</ele>
        <time>2019-02-08T09:37:00.000Z</time>
      </trkpt>
      <trkpt lat="45.5844" lon="6.62724">
        <ele>2287.8000488281</ele>
        <time>2019-02-08T09:37:04.000Z</time>
      </trkpt>
      <trkpt lat="45.5844" lon="6.62724">
        <ele>2287.8000488281</ele>
        <time>2019-02-08T09:37:05.000Z</time>
      </trkpt>
      <trkpt lat="45.5844" lon="6.62722">
        <ele>2288.3999023438</ele>
        <time>2019-02-08T09:37:09.000Z</time>
      </trkpt>
      <trkpt lat="45.58439" lon="6.62719">
        <ele>2289.1999511719</ele>
        <time>2019-02-08T09:37:13.000Z</time>
      </trkpt>
      <trkpt lat="45.58438" lon="6.62717">
        <ele>2289.8000488281</ele>
        <time>2019-02-08T09:37:19.000Z</time>
      </trkpt>
      <trkpt lat="45.58438" lon="6.62717">
        <ele>2289.8000488281</ele>
        <time>2019-02-08T09:37:20.000Z</time>
      </trkpt>
      <trkpt lat="45.58438" lon="6.62714">
        <ele>2290.6000976562</ele>
        <time>2019-02-08T09:37:26.000Z</time>
      </trkpt>
      <trkpt lat="45.58438" lon="6.62713">
        <ele>2291</ele>
        <time>2019-02-08T09:37:45.000Z</time>
      </trkpt>
      <trkpt lat="45.58437" lon="6.62711">
        <ele>2291.6000976562</ele>
        <time>2019-02-08T09:37:47.000Z</time>
      </trkpt>
      <trkpt lat="45.58437" lon="6.62705">
        <ele>2293.6000976562</ele>
        <time>2019-02-08T09:37:51.000Z</time>
      </trkpt>
      <trkpt lat="45.58438" lon="6.62701">
        <ele>2294.6000976562</ele>
        <time>2019-02-08T09:37:55.000Z</time>
      </trkpt>
      <trkpt lat="45.58436" lon="6.62697">
        <ele>2295.3999023438</ele>
        <time>2019-02-08T09:38:00.000Z</time>
      </trkpt>
      <trkpt lat="45.58436" lon="6.62694">
        <ele>2296.1999511719</ele>
        <time>2019-02-08T09:38:03.000Z</time>
      </trkpt>
      <trkpt lat="45.58436" lon="6.62693">
        <ele>2296.6000976562</ele>
        <time>2019-02-08T09:38:05.000Z</time>
      </trkpt>
      <trkpt lat="45.58436" lon="6.62691">
        <ele>2297</ele>
        <time>2019-02-08T09:38:07.000Z</time>
      </trkpt>
      <trkpt lat="45.58436" lon="6.62687">
        <ele>2298</ele>
        <time>2019-02-08T09:38:11.000Z</time>
      </trkpt>
      <trkpt lat="45.58436" lon="6.62683">
        <ele>2299</ele>
        <time>2019-02-08T09:38:15.000Z</time>
      </trkpt>
      <trkpt lat="45.58436" lon="6.62681">
        <ele>2299.3999023438</ele>
        <time>2019-02-08T09:38:17.000Z</time>
      </trkpt>
      <trkpt lat="45.58436" lon="6.62677">
        <ele>2300.6000976562</ele>
        <time>2019-02-08T09:38:21.000Z</time>
      </trkpt>
      <trkpt lat="45.58435" lon="6.62676">
        <ele>2300.8000488281</ele>
        <time>2019-02-08T09:38:22.000Z</time>
      </trkpt>
      <trkpt lat="45.58435" lon="6.62675">
        <ele>2301</ele>
        <time>2019-02-08T09:38:23.000Z</time>
      </trkpt>
      <trkpt lat="45.58433" lon="6.62671">
        <ele>2301.8000488281</ele>
        <time>2019-02-08T09:38:28.000Z</time>
      </trkpt>
      <trkpt lat="45.58433" lon="6.62669">
        <ele>2302.1999511719</ele>
        <time>2019-02-08T09:38:30.000Z</time>
      </trkpt>
      <trkpt lat="45.58432" lon="6.62665">
        <ele>2303.1999511719</ele>
        <time>2019-02-08T09:38:33.000Z</time>
      </trkpt>
      <trkpt lat="45.58433" lon="6.62661">
        <ele>2304.3999023438</ele>
        <time>2019-02-08T09:38:36.000Z</time>
      </trkpt>
      <trkpt lat="45.58432" lon="6.6266">
        <ele>2304.6000976562</ele>
        <time>2019-02-08T09:38:38.000Z</time>
      </trkpt>
      <trkpt lat="45.58433" lon="6.62658">
        <ele>2305</ele>
        <time>2019-02-08T09:38:41.000Z</time>
      </trkpt>
      <trkpt lat="45.58432" lon="6.62658">
        <ele>2305</ele>
        <time>2019-02-08T09:38:43.000Z</time>
      </trkpt>
      <trkpt lat="45.5843" lon="6.62654">
        <ele>2305.6000976562</ele>
        <time>2019-02-08T09:38:47.000Z</time>
      </trkpt>
      <trkpt lat="45.5843" lon="6.62652">
        <ele>2306</ele>
        <time>2019-02-08T09:38:49.000Z</time>
      </trkpt>
      <trkpt lat="45.58429" lon="6.62651">
        <ele>2306.3999023438</ele>
        <time>2019-02-08T09:38:53.000Z</time>
      </trkpt>
      <trkpt lat="45.58429" lon="6.62649">
        <ele>2306.3999023438</ele>
        <time>2019-02-08T09:39:03.000Z</time>
      </trkpt>
      <trkpt lat="45.58429" lon="6.62649">
        <ele>2306.6000976562</ele>
        <time>2019-02-08T09:39:15.000Z</time>
      </trkpt>
      <trkpt lat="45.58429" lon="6.62649">
        <ele>2306.6000976562</ele>
        <time>2019-02-08T09:39:30.000Z</time>
      </trkpt>
      <trkpt lat="45.58429" lon="6.62648">
        <ele>2306.6000976562</ele>
        <time>2019-02-08T09:39:36.000Z</time>
      </trkpt>
      <trkpt lat="45.58429" lon="6.62648">
        <ele>2306.6000976562</ele>
        <time>2019-02-08T09:39:41.000Z</time>
      </trkpt>
      <trkpt lat="45.58429" lon="6.62648">
        <ele>2306.6000976562</ele>
        <time>2019-02-08T09:39:42.000Z</time>
      </trkpt>
      <trkpt lat="45.58429" lon="6.62648">
        <ele>2306.6000976562</ele>
        <time>2019-02-08T09:39:43.000Z</time>
      </trkpt>
      <trkpt lat="45.58429" lon="6.62648">
        <ele>2306.6000976562</ele>
        <time>2019-02-08T09:39:48.000Z</time>
      </trkpt>
      <trkpt lat="45.58429" lon="6.62648">
        <ele>2306.6000976562</ele>
        <time>2019-02-08T09:40:01.000Z</time>
      </trkpt>
      <trkpt lat="45.58429" lon="6.62648">
        <ele>2306.6000976562</ele>
        <time>2019-02-08T09:40:16.000Z</time>
      </trkpt>
      <trkpt lat="45.58429" lon="6.62648">
        <ele>2306.6000976562</ele>
        <time>2019-02-08T09:40:22.000Z</time>
      </trkpt>
      <trkpt lat="45.58429" lon="6.62648">
        <ele>2306.6000976562</ele>
        <time>2019-02-08T09:40:28.000Z</time>
      </trkpt>
      <trkpt lat="45.58429" lon="6.62648">
        <ele>2306.6000976562</ele>
        <time>2019-02-08T09:40:41.000Z</time>
      </trkpt>
      <trkpt lat="45.58429" lon="6.62648">
        <ele>2306.6000976562</ele>
        <time>2019-02-08T09:40:53.000Z</time>
      </trkpt>
      <trkpt lat="45.58431" lon="6.6265">
        <ele>2306.6000976562</ele>
        <time>2019-02-08T09:40:59.000Z</time>
      </trkpt>
      <trkpt lat="45.58431" lon="6.6265">
        <ele>2306.6000976562</ele>
        <time>2019-02-08T09:41:09.000Z</time>
      </trkpt>
      <trkpt lat="45.58431" lon="6.6265">
        <ele>2306.6000976562</ele>
        <time>2019-02-08T09:41:13.000Z</time>
      </trkpt>
      <trkpt lat="45.58431" lon="6.6265">
        <ele>2306.6000976562</ele>
        <time>2019-02-08T09:41:15.000Z</time>
      </trkpt>
      <trkpt lat="45.58431" lon="6.6265">
        <ele>2306.6000976562</ele>
        <time>2019-02-08T09:41:24.000Z</time>
      </trkpt>
      <trkpt lat="45.58431" lon="6.6265">
        <ele>2306.6000976562</ele>
        <time>2019-02-08T09:41:26.000Z</time>
      </trkpt>
      <trkpt lat="45.58431" lon="6.6265">
        <ele>2306.6000976562</ele>
        <time>2019-02-08T09:41:27.000Z</time>
      </trkpt>
      <trkpt lat="45.58431" lon="6.6265">
        <ele>2306.6000976562</ele>
        <time>2019-02-08T09:41:30.000Z</time>
      </trkpt>
      <trkpt lat="45.58431" lon="6.6265">
        <ele>2306.6000976562</ele>
        <time>2019-02-08T09:41:33.000Z</time>
      </trkpt>
      <trkpt lat="45.58431" lon="6.6265">
        <ele>2306.6000976562</ele>
        <time>2019-02-08T09:41:38.000Z</time>
      </trkpt>
      <trkpt lat="45.58431" lon="6.6265">
        <ele>2306.6000976562</ele>
        <time>2019-02-08T09:41:49.000Z</time>
      </trkpt>
      <trkpt lat="45.58431" lon="6.6265">
        <ele>2306.6000976562</ele>
        <time>2019-02-08T09:41:51.000Z</time>
      </trkpt>
      <trkpt lat="45.58431" lon="6.6265">
        <ele>2306.6000976562</ele>
        <time>2019-02-08T09:42:01.000Z</time>
      </trkpt>
      <trkpt lat="45.58431" lon="6.6265">
        <ele>2306.6000976562</ele>
        <time>2019-02-08T09:42:10.000Z</time>
      </trkpt>
      <trkpt lat="45.58431" lon="6.6265">
        <ele>2306.6000976562</ele>
        <time>2019-02-08T09:42:11.000Z</time>
      </trkpt>
      <trkpt lat="45.58432" lon="6.62651">
        <ele>2306.6000976562</ele>
        <time>2019-02-08T09:42:17.000Z</time>
      </trkpt>
      <trkpt lat="45.58432" lon="6.62651">
        <ele>2306.6000976562</ele>
        <time>2019-02-08T09:42:20.000Z</time>
      </trkpt>
      <trkpt lat="45.58432" lon="6.62651">
        <ele>2306.6000976562</ele>
        <time>2019-02-08T09:42:25.000Z</time>
      </trkpt>
      <trkpt lat="45.58432" lon="6.62651">
        <ele>2306.6000976562</ele>
        <time>2019-02-08T09:42:30.000Z</time>
      </trkpt>
      <trkpt lat="45.58432" lon="6.62651">
        <ele>2306.6000976562</ele>
        <time>2019-02-08T09:42:32.000Z</time>
      </trkpt>
      <trkpt lat="45.58432" lon="6.62651">
        <ele>2306.6000976562</ele>
        <time>2019-02-08T09:42:34.000Z</time>
      </trkpt>
      <trkpt lat="45.58432" lon="6.62651">
        <ele>2306.6000976562</ele>
        <time>2019-02-08T09:42:36.000Z</time>
      </trkpt>
      <trkpt lat="45.58432" lon="6.62651">
        <ele>2306.6000976562</ele>
        <time>2019-02-08T09:42:47.000Z</time>
      </trkpt>
      <trkpt lat="45.58432" lon="6.62651">
        <ele>2306.6000976562</ele>
        <time>2019-02-08T09:42:48.000Z</time>
      </trkpt>
      <trkpt lat="45.58432" lon="6.62651">
        <ele>2306.6000976562</ele>
        <time>2019-02-08T09:42:51.000Z</time>
      </trkpt>
      <trkpt lat="45.58432" lon="6.62651">
        <ele>2306.6000976562</ele>
        <time>2019-02-08T09:42:53.000Z</time>
      </trkpt>
      <trkpt lat="45.58432" lon="6.62651">
        <ele>2306.6000976562</ele>
        <time>2019-02-08T09:42:55.000Z</time>
      </trkpt>
      <trkpt lat="45.58432" lon="6.62652">
        <ele>2306.6000976562</ele>
        <time>2019-02-08T09:42:58.000Z</time>
      </trkpt>
      <trkpt lat="45.58432" lon="6.62652">
        <ele>2306.6000976562</ele>
        <time>2019-02-08T09:42:59.000Z</time>
      </trkpt>
      <trkpt lat="45.58432" lon="6.62652">
        <ele>2306.6000976562</ele>
        <time>2019-02-08T09:43:00.000Z</time>
      </trkpt>
      <trkpt lat="45.58432" lon="6.62652">
        <ele>2306.6000976562</ele>
        <time>2019-02-08T09:43:12.000Z</time>
      </trkpt>
      <trkpt lat="45.58432" lon="6.62652">
        <ele>2306.6000976562</ele>
        <time>2019-02-08T09:43:25.000Z</time>
      </trkpt>
      <trkpt lat="45.58432" lon="6.62652">
        <ele>2306.6000976562</ele>
        <time>2019-02-08T09:43:31.000Z</time>
      </trkpt>
      <trkpt lat="45.58432" lon="6.62652">
        <ele>2306.6000976562</ele>
        <time>2019-02-08T09:43:32.000Z</time>
      </trkpt>
      <trkpt lat="45.58432" lon="6.62652">
        <ele>2306.6000976562</ele>
        <time>2019-02-08T09:43:34.000Z</time>
      </trkpt>
      <trkpt lat="45.58432" lon="6.62651">
        <ele>2306.6000976562</ele>
        <time>2019-02-08T09:43:37.000Z</time>
      </trkpt>
      <trkpt lat="45.58432" lon="6.62651">
        <ele>2306.6000976562</ele>
        <time>2019-02-08T09:43:38.000Z</time>
      </trkpt>
      <trkpt lat="45.58432" lon="6.62651">
        <ele>2306.6000976562</ele>
        <time>2019-02-08T09:43:39.000Z</time>
      </trkpt>
      <trkpt lat="45.58432" lon="6.62651">
        <ele>2306.6000976562</ele>
        <time>2019-02-08T09:43:40.000Z</time>
      </trkpt>
      <trkpt lat="45.58432" lon="6.62651">
        <ele>2306.6000976562</ele>
        <time>2019-02-08T09:43:42.000Z</time>
      </trkpt>
      <trkpt lat="45.58432" lon="6.62651">
        <ele>2306.6000976562</ele>
        <time>2019-02-08T09:43:47.000Z</time>
      </trkpt>
      <trkpt lat="45.58432" lon="6.62651">
        <ele>2306.6000976562</ele>
        <time>2019-02-08T09:43:53.000Z</time>
      </trkpt>
      <trkpt lat="45.58432" lon="6.62651">
        <ele>2306.6000976562</ele>
        <time>2019-02-08T09:44:05.000Z</time>
      </trkpt>
      <trkpt lat="45.58432" lon="6.62652">
        <ele>2306.6000976562</ele>
        <time>2019-02-08T09:44:21.000Z</time>
      </trkpt>
      <trkpt lat="45.58432" lon="6.62652">
        <ele>2306.6000976562</ele>
        <time>2019-02-08T09:44:26.000Z</time>
      </trkpt>
      <trkpt lat="45.58432" lon="6.62652">
        <ele>2306.6000976562</ele>
        <time>2019-02-08T09:44:30.000Z</time>
      </trkpt>
      <trkpt lat="45.58433" lon="6.62652">
        <ele>2306.8000488281</ele>
        <time>2019-02-08T09:44:31.000Z</time>
      </trkpt>
      <trkpt lat="45.58433" lon="6.62652">
        <ele>2306.8000488281</ele>
        <time>2019-02-08T09:44:34.000Z</time>
      </trkpt>
      <trkpt lat="45.58433" lon="6.62652">
        <ele>2306.8000488281</ele>
        <time>2019-02-08T09:44:37.000Z</time>
      </trkpt>
      <trkpt lat="45.58436" lon="6.62653">
        <ele>2307</ele>
        <time>2019-02-08T09:44:42.000Z</time>
      </trkpt>
      <trkpt lat="45.58438" lon="6.62653">
        <ele>2307.1999511719</ele>
        <time>2019-02-08T09:44:46.000Z</time>
      </trkpt>
      <trkpt lat="45.58438" lon="6.62653">
        <ele>2307.3999023438</ele>
        <time>2019-02-08T09:44:51.000Z</time>
      </trkpt>
      <trkpt lat="45.58438" lon="6.62653">
        <ele>2307.3999023438</ele>
        <time>2019-02-08T09:44:53.000Z</time>
      </trkpt>
      <trkpt lat="45.58438" lon="6.62653">
        <ele>2307.3999023438</ele>
        <time>2019-02-08T09:45:02.000Z</time>
      </trkpt>
      <trkpt lat="45.58438" lon="6.62653">
        <ele>2307.3999023438</ele>
        <time>2019-02-08T09:45:06.000Z</time>
      </trkpt>
      <trkpt lat="45.58439" lon="6.62653">
        <ele>2307.6000976562</ele>
        <time>2019-02-08T09:45:11.000Z</time>
      </trkpt>
      <trkpt lat="45.58439" lon="6.62653">
        <ele>2307.6000976562</ele>
        <time>2019-02-08T09:45:12.000Z</time>
      </trkpt>
      <trkpt lat="45.58441" lon="6.62654">
        <ele>2307.6000976562</ele>
        <time>2019-02-08T09:45:20.000Z</time>
      </trkpt>
      <trkpt lat="45.58441" lon="6.62654">
        <ele>2307.6000976562</ele>
        <time>2019-02-08T09:45:27.000Z</time>
      </trkpt>
      <trkpt lat="45.58441" lon="6.62654">
        <ele>2307.6000976562</ele>
        <time>2019-02-08T09:45:29.000Z</time>
      </trkpt>
      <trkpt lat="45.58442" lon="6.62654">
        <ele>2307.6000976562</ele>
        <time>2019-02-08T09:45:35.000Z</time>
      </trkpt>
      <trkpt lat="45.58442" lon="6.62654">
        <ele>2307.6000976562</ele>
        <time>2019-02-08T09:45:37.000Z</time>
      </trkpt>
      <trkpt lat="45.58442" lon="6.62654">
        <ele>2307.6000976562</ele>
        <time>2019-02-08T09:45:39.000Z</time>
      </trkpt>
      <trkpt lat="45.58442" lon="6.62654">
        <ele>2307.6000976562</ele>
        <time>2019-02-08T09:45:42.000Z</time>
      </trkpt>
      <trkpt lat="45.58442" lon="6.62654">
        <ele>2308</ele>
        <time>2019-02-08T09:45:46.000Z</time>
      </trkpt>
      <trkpt lat="45.58442" lon="6.62654">
        <ele>2308</ele>
        <time>2019-02-08T09:45:54.000Z</time>
      </trkpt>
      <trkpt lat="45.58442" lon="6.62654">
        <ele>2308</ele>
        <time>2019-02-08T09:46:02.000Z</time>
      </trkpt>
      <trkpt lat="45.58442" lon="6.62654">
        <ele>2308</ele>
        <time>2019-02-08T09:46:08.000Z</time>
      </trkpt>
      <trkpt lat="45.58442" lon="6.62654">
        <ele>2308</ele>
        <time>2019-02-08T09:46:10.000Z</time>
      </trkpt>
      <trkpt lat="45.58442" lon="6.62654">
        <ele>2308</ele>
        <time>2019-02-08T09:46:14.000Z</time>
      </trkpt>
      <trkpt lat="45.58442" lon="6.62654">
        <ele>2308</ele>
        <time>2019-02-08T09:46:16.000Z</time>
      </trkpt>
      <trkpt lat="45.58443" lon="6.62655">
        <ele>2307.8000488281</ele>
        <time>2019-02-08T09:46:22.000Z</time>
      </trkpt>
      <trkpt lat="45.58444" lon="6.62657">
        <ele>2307.3999023438</ele>
        <time>2019-02-08T09:46:30.000Z</time>
      </trkpt>
      <trkpt lat="45.58445" lon="6.62657">
        <ele>2307.6000976562</ele>
        <time>2019-02-08T09:46:36.000Z</time>
      </trkpt>
      <trkpt lat="45.58445" lon="6.62657">
        <ele>2307.6000976562</ele>
        <time>2019-02-08T09:46:41.000Z</time>
      </trkpt>
      <trkpt lat="45.58445" lon="6.62657">
        <ele>2307.6000976562</ele>
        <time>2019-02-08T09:46:46.000Z</time>
      </trkpt>
      <trkpt lat="45.58445" lon="6.62657">
        <ele>2307.6000976562</ele>
        <time>2019-02-08T09:46:50.000Z</time>
      </trkpt>
      <trkpt lat="45.58446" lon="6.62658">
        <ele>2307.3999023438</ele>
        <time>2019-02-08T09:46:53.000Z</time>
      </trkpt>
      <trkpt lat="45.58447" lon="6.62658">
        <ele>2307.6000976562</ele>
        <time>2019-02-08T09:46:57.000Z</time>
      </trkpt>
      <trkpt lat="45.58447" lon="6.62658">
        <ele>2307.8000488281</ele>
        <time>2019-02-08T09:47:00.000Z</time>
      </trkpt>
      <trkpt lat="45.58447" lon="6.62658">
        <ele>2307.8000488281</ele>
        <time>2019-02-08T09:47:03.000Z</time>
      </trkpt>
      <trkpt lat="45.58448" lon="6.62658">
        <ele>2307.8000488281</ele>
        <time>2019-02-08T09:47:11.000Z</time>
      </trkpt>
      <trkpt lat="45.58448" lon="6.62658">
        <ele>2307.8000488281</ele>
        <time>2019-02-08T09:47:12.000Z</time>
      </trkpt>
      <trkpt lat="45.58448" lon="6.62658">
        <ele>2307.8000488281</ele>
        <time>2019-02-08T09:47:14.000Z</time>
      </trkpt>
      <trkpt lat="45.58449" lon="6.62658">
        <ele>2308</ele>
        <time>2019-02-08T09:47:18.000Z</time>
      </trkpt>
      <trkpt lat="45.5845" lon="6.62658">
        <ele>2308.1999511719</ele>
        <time>2019-02-08T09:47:23.000Z</time>
      </trkpt>
      <trkpt lat="45.58451" lon="6.62658">
        <ele>2308.1999511719</ele>
        <time>2019-02-08T09:47:29.000Z</time>
      </trkpt>
      <trkpt lat="45.58451" lon="6.62658">
        <ele>2308.1999511719</ele>
        <time>2019-02-08T09:47:33.000Z</time>
      </trkpt>
      <trkpt lat="45.58451" lon="6.62658">
        <ele>2308.1999511719</ele>
        <time>2019-02-08T09:47:51.000Z</time>
      </trkpt>
      <trkpt lat="45.58452" lon="6.62658">
        <ele>2308.3999023438</ele>
        <time>2019-02-08T09:48:03.000Z</time>
      </trkpt>
      <trkpt lat="45.58453" lon="6.62659">
        <ele>2308.3999023438</ele>
        <time>2019-02-08T09:48:07.000Z</time>
      </trkpt>
      <trkpt lat="45.58454" lon="6.62659">
        <ele>2308.6000976562</ele>
        <time>2019-02-08T09:48:12.000Z</time>
      </trkpt>
      <trkpt lat="45.58454" lon="6.62659">
        <ele>2308.6000976562</ele>
        <time>2019-02-08T09:48:13.000Z</time>
      </trkpt>
      <trkpt lat="45.58455" lon="6.6266">
        <ele>2308.8000488281</ele>
        <time>2019-02-08T09:48:17.000Z</time>
      </trkpt>
      <trkpt lat="45.58456" lon="6.6266">
        <ele>2308.8000488281</ele>
        <time>2019-02-08T09:48:19.000Z</time>
      </trkpt>
      <trkpt lat="45.58456" lon="6.6266">
        <ele>2308.8000488281</ele>
        <time>2019-02-08T09:48:23.000Z</time>
      </trkpt>
      <trkpt lat="45.58456" lon="6.6266">
        <ele>2308.8000488281</ele>
        <time>2019-02-08T09:48:24.000Z</time>
      </trkpt>
      <trkpt lat="45.58457" lon="6.6266">
        <ele>2309</ele>
        <time>2019-02-08T09:48:27.000Z</time>
      </trkpt>
      <trkpt lat="45.58457" lon="6.6266">
        <ele>2308.8000488281</ele>
        <time>2019-02-08T09:48:28.000Z</time>
      </trkpt>
      <trkpt lat="45.58458" lon="6.6266">
        <ele>2309</ele>
        <time>2019-02-08T09:48:36.000Z</time>
      </trkpt>
      <trkpt lat="45.58458" lon="6.6266">
        <ele>2309</ele>
        <time>2019-02-08T09:48:37.000Z</time>
      </trkpt>
      <trkpt lat="45.58458" lon="6.62661">
        <ele>2309</ele>
        <time>2019-02-08T09:48:43.000Z</time>
      </trkpt>
      <trkpt lat="45.58458" lon="6.62661">
        <ele>2309</ele>
        <time>2019-02-08T09:48:47.000Z</time>
      </trkpt>
      <trkpt lat="45.58459" lon="6.62661">
        <ele>2308.8000488281</ele>
        <time>2019-02-08T09:48:52.000Z</time>
      </trkpt>
      <trkpt lat="45.5846" lon="6.62662">
        <ele>2309</ele>
        <time>2019-02-08T09:49:00.000Z</time>
      </trkpt>
      <trkpt lat="45.5846" lon="6.62663">
        <ele>2308.8000488281</ele>
        <time>2019-02-08T09:49:01.000Z</time>
      </trkpt>
      <trkpt lat="45.58461" lon="6.62663">
        <ele>2308.8000488281</ele>
        <time>2019-02-08T09:49:07.000Z</time>
      </trkpt>
      <trkpt lat="45.58461" lon="6.62663">
        <ele>2308.8000488281</ele>
        <time>2019-02-08T09:49:09.000Z</time>
      </trkpt>
      <trkpt lat="45.58461" lon="6.62663">
        <ele>2308.8000488281</ele>
        <time>2019-02-08T09:49:15.000Z</time>
      </trkpt>
      <trkpt lat="45.58461" lon="6.62663">
        <ele>2308.8000488281</ele>
        <time>2019-02-08T09:49:24.000Z</time>
      </trkpt>
      <trkpt lat="45.58462" lon="6.62663">
        <ele>2309</ele>
        <time>2019-02-08T09:49:25.000Z</time>
      </trkpt>
      <trkpt lat="45.58464" lon="6.62662">
        <ele>2309.6000976562</ele>
        <time>2019-02-08T09:49:34.000Z</time>
      </trkpt>
      <trkpt lat="45.58464" lon="6.62662">
        <ele>2309.6000976562</ele>
        <time>2019-02-08T09:49:42.000Z</time>
      </trkpt>
      <trkpt lat="45.58465" lon="6.62661">
        <ele>2310</ele>
        <time>2019-02-08T09:49:44.000Z</time>
      </trkpt>
      <trkpt lat="45.58465" lon="6.62661">
        <ele>2310</ele>
        <time>2019-02-08T09:49:49.000Z</time>
      </trkpt>
      <trkpt lat="45.58466" lon="6.62661">
        <ele>2310.1999511719</ele>
        <time>2019-02-08T09:49:55.000Z</time>
      </trkpt>
      <trkpt lat="45.58466" lon="6.62661">
        <ele>2310.1999511719</ele>
        <time>2019-02-08T09:49:58.000Z</time>
      </trkpt>
      <trkpt lat="45.58466" lon="6.62661">
        <ele>2310.1999511719</ele>
        <time>2019-02-08T09:50:00.000Z</time>
      </trkpt>
      <trkpt lat="45.58467" lon="6.62661">
        <ele>2310.3999023438</ele>
        <time>2019-02-08T09:50:01.000Z</time>
      </trkpt>
      <trkpt lat="45.58467" lon="6.62661">
        <ele>2310.3999023438</ele>
        <time>2019-02-08T09:50:04.000Z</time>
      </trkpt>
      <trkpt lat="45.58467" lon="6.62661">
        <ele>2310.6000976562</ele>
        <time>2019-02-08T09:50:09.000Z</time>
      </trkpt>
      <trkpt lat="45.58467" lon="6.62661">
        <ele>2310.6000976562</ele>
        <time>2019-02-08T09:50:20.000Z</time>
      </trkpt>
      <trkpt lat="45.58467" lon="6.62661">
        <ele>2310.6000976562</ele>
        <time>2019-02-08T09:50:25.000Z</time>
      </trkpt>
      <trkpt lat="45.58467" lon="6.62661">
        <ele>2310.6000976562</ele>
        <time>2019-02-08T09:50:29.000Z</time>
      </trkpt>
      <trkpt lat="45.58467" lon="6.62661">
        <ele>2310.6000976562</ele>
        <time>2019-02-08T09:50:30.000Z</time>
      </trkpt>
      <trkpt lat="45.58467" lon="6.62661">
        <ele>2310.6000976562</ele>
        <time>2019-02-08T09:50:31.000Z</time>
      </trkpt>
      <trkpt lat="45.58467" lon="6.62661">
        <ele>2310.6000976562</ele>
        <time>2019-02-08T09:50:32.000Z</time>
      </trkpt>
      <trkpt lat="45.58467" lon="6.62661">
        <ele>2310.6000976562</ele>
        <time>2019-02-08T09:50:35.000Z</time>
      </trkpt>
      <trkpt lat="45.58467" lon="6.62661">
        <ele>2310.6000976562</ele>
        <time>2019-02-08T09:50:42.000Z</time>
      </trkpt>
      <trkpt lat="45.58467" lon="6.62661">
        <ele>2310.6000976562</ele>
        <time>2019-02-08T09:50:43.000Z</time>
      </trkpt>
      <trkpt lat="45.58467" lon="6.62661">
        <ele>2310.6000976562</ele>
        <time>2019-02-08T09:50:45.000Z</time>
      </trkpt>
      <trkpt lat="45.58467" lon="6.62661">
        <ele>2310.3999023438</ele>
        <time>2019-02-08T09:50:53.000Z</time>
      </trkpt>
      <trkpt lat="45.58467" lon="6.62661">
        <ele>2310.3999023438</ele>
        <time>2019-02-08T09:50:57.000Z</time>
      </trkpt>
      <trkpt lat="45.58467" lon="6.62661">
        <ele>2310.3999023438</ele>
        <time>2019-02-08T09:51:03.000Z</time>
      </trkpt>
      <trkpt lat="45.58467" lon="6.62661">
        <ele>2310.3999023438</ele>
        <time>2019-02-08T09:51:07.000Z</time>
      </trkpt>
      <trkpt lat="45.58468" lon="6.62661">
        <ele>2310.3999023438</ele>
        <time>2019-02-08T09:51:13.000Z</time>
      </trkpt>
      <trkpt lat="45.58468" lon="6.62661">
        <ele>2310.3999023438</ele>
        <time>2019-02-08T09:51:20.000Z</time>
      </trkpt>
      <trkpt lat="45.58468" lon="6.62661">
        <ele>2310.3999023438</ele>
        <time>2019-02-08T09:51:24.000Z</time>
      </trkpt>
      <trkpt lat="45.5847" lon="6.62661">
        <ele>2309.3999023438</ele>
        <time>2019-02-08T09:51:27.000Z</time>
      </trkpt>
      <trkpt lat="45.5847" lon="6.62661">
        <ele>2309.3999023438</ele>
        <time>2019-02-08T09:51:35.000Z</time>
      </trkpt>
      <trkpt lat="45.5847" lon="6.62661">
        <ele>2309.3999023438</ele>
        <time>2019-02-08T09:51:45.000Z</time>
      </trkpt>
      <trkpt lat="45.5847" lon="6.62661">
        <ele>2309.3999023438</ele>
        <time>2019-02-08T09:51:48.000Z</time>
      </trkpt>
      <trkpt lat="45.5847" lon="6.62661">
        <ele>2309.3999023438</ele>
        <time>2019-02-08T09:51:50.000Z</time>
      </trkpt>
      <trkpt lat="45.5847" lon="6.62661">
        <ele>2309.3999023438</ele>
        <time>2019-02-08T09:51:54.000Z</time>
      </trkpt>
      <trkpt lat="45.58471" lon="6.62661">
        <ele>2309.1999511719</ele>
        <time>2019-02-08T09:51:55.000Z</time>
      </trkpt>
      <trkpt lat="45.58472" lon="6.62661">
        <ele>2308.8000488281</ele>
        <time>2019-02-08T09:52:03.000Z</time>
      </trkpt>
      <trkpt lat="45.58472" lon="6.62661">
        <ele>2308.8000488281</ele>
        <time>2019-02-08T09:52:11.000Z</time>
      </trkpt>
      <trkpt lat="45.58472" lon="6.62661">
        <ele>2308.8000488281</ele>
        <time>2019-02-08T09:52:12.000Z</time>
      </trkpt>
      <trkpt lat="45.58472" lon="6.62661">
        <ele>2308.8000488281</ele>
        <time>2019-02-08T09:52:18.000Z</time>
      </trkpt>
      <trkpt lat="45.58472" lon="6.62661">
        <ele>2308.8000488281</ele>
        <time>2019-02-08T09:52:27.000Z</time>
      </trkpt>
      <trkpt lat="45.58472" lon="6.62661">
        <ele>2308.8000488281</ele>
        <time>2019-02-08T09:52:31.000Z</time>
      </trkpt>
      <trkpt lat="45.58472" lon="6.62661">
        <ele>2308.8000488281</ele>
        <time>2019-02-08T09:52:37.000Z</time>
      </trkpt>
      <trkpt lat="45.58472" lon="6.62661">
        <ele>2308.8000488281</ele>
        <time>2019-02-08T09:52:41.000Z</time>
      </trkpt>
      <trkpt lat="45.58473" lon="6.6266">
        <ele>2308.6000976562</ele>
        <time>2019-02-08T09:52:43.000Z</time>
      </trkpt>
      <trkpt lat="45.58473" lon="6.6266">
        <ele>2308.6000976562</ele>
        <time>2019-02-08T09:52:50.000Z</time>
      </trkpt>
      <trkpt lat="45.58473" lon="6.6266">
        <ele>2308.6000976562</ele>
        <time>2019-02-08T09:52:54.000Z</time>
      </trkpt>
      <trkpt lat="45.58473" lon="6.62658">
        <ele>2308.6000976562</ele>
        <time>2019-02-08T09:53:00.000Z</time>
      </trkpt>
      <trkpt lat="45.58473" lon="6.62658">
        <ele>2308.6000976562</ele>
        <time>2019-02-08T09:53:02.000Z</time>
      </trkpt>
      <trkpt lat="45.58473" lon="6.62658">
        <ele>2308.6000976562</ele>
        <time>2019-02-08T09:53:06.000Z</time>
      </trkpt>
      <trkpt lat="45.58473" lon="6.62658">
        <ele>2308.6000976562</ele>
        <time>2019-02-08T09:53:07.000Z</time>
      </trkpt>
      <trkpt lat="45.58473" lon="6.62658">
        <ele>2308.6000976562</ele>
        <time>2019-02-08T09:53:09.000Z</time>
      </trkpt>
      <trkpt lat="45.58473" lon="6.62658">
        <ele>2308.6000976562</ele>
        <time>2019-02-08T09:53:15.000Z</time>
      </trkpt>
      <trkpt lat="45.58473" lon="6.62658">
        <ele>2308.6000976562</ele>
        <time>2019-02-08T09:53:17.000Z</time>
      </trkpt>
      <trkpt lat="45.58474" lon="6.62657">
        <ele>2308.1999511719</ele>
        <time>2019-02-08T09:53:20.000Z</time>
      </trkpt>
      <trkpt lat="45.58474" lon="6.62657">
        <ele>2308.1999511719</ele>
        <time>2019-02-08T09:53:21.000Z</time>
      </trkpt>
      <trkpt lat="45.58474" lon="6.62657">
        <ele>2308.1999511719</ele>
        <time>2019-02-08T09:53:22.000Z</time>
      </trkpt>
      <trkpt lat="45.58475" lon="6.62657">
        <ele>2307.6000976562</ele>
        <time>2019-02-08T09:53:24.000Z</time>
      </trkpt>
      <trkpt lat="45.58475" lon="6.62657">
        <ele>2307.6000976562</ele>
        <time>2019-02-08T09:53:29.000Z</time>
      </trkpt>
      <trkpt lat="45.58475" lon="6.62657">
        <ele>2307.6000976562</ele>
        <time>2019-02-08T09:53:34.000Z</time>
      </trkpt>
      <trkpt lat="45.58476" lon="6.62656">
        <ele>2307.1999511719</ele>
        <time>2019-02-08T09:53:41.000Z</time>
      </trkpt>
      <trkpt lat="45.58476" lon="6.62656">
        <ele>2307.1999511719</ele>
        <time>2019-02-08T09:53:42.000Z</time>
      </trkpt>
      <trkpt lat="45.58477" lon="6.62654">
        <ele>2307</ele>
        <time>2019-02-08T09:53:45.000Z</time>
      </trkpt>
      <trkpt lat="45.58477" lon="6.62653">
        <ele>2306.8000488281</ele>
        <time>2019-02-08T09:53:47.000Z</time>
      </trkpt>
      <trkpt lat="45.58477" lon="6.6265">
        <ele>2306.8000488281</ele>
        <time>2019-02-08T09:53:56.000Z</time>
      </trkpt>
      <trkpt lat="45.58477" lon="6.6265">
        <ele>2306.8000488281</ele>
        <time>2019-02-08T09:54:02.000Z</time>
      </trkpt>
      <trkpt lat="45.58477" lon="6.62648">
        <ele>2307</ele>
        <time>2019-02-08T09:54:06.000Z</time>
      </trkpt>
      <trkpt lat="45.58477" lon="6.62648">
        <ele>2307</ele>
        <time>2019-02-08T09:54:09.000Z</time>
      </trkpt>
      <trkpt lat="45.58478" lon="6.62647">
        <ele>2306.8000488281</ele>
        <time>2019-02-08T09:54:13.000Z</time>
      </trkpt>
      <trkpt lat="45.58478" lon="6.62647">
        <ele>2306.8000488281</ele>
        <time>2019-02-08T09:54:14.000Z</time>
      </trkpt>
      <trkpt lat="45.58478" lon="6.62647">
        <ele>2306.8000488281</ele>
        <time>2019-02-08T09:54:15.000Z</time>
      </trkpt>
      <trkpt lat="45.58478" lon="6.62647">
        <ele>2306.8000488281</ele>
        <time>2019-02-08T09:54:17.000Z</time>
      </trkpt>
      <trkpt lat="45.58478" lon="6.62647">
        <ele>2306.8000488281</ele>
        <time>2019-02-08T09:54:19.000Z</time>
      </trkpt>
      <trkpt lat="45.58478" lon="6.62647">
        <ele>2306.8000488281</ele>
        <time>2019-02-08T09:54:20.000Z</time>
      </trkpt>
      <trkpt lat="45.58478" lon="6.62647">
        <ele>2306.8000488281</ele>
        <time>2019-02-08T09:54:21.000Z</time>
      </trkpt>
      <trkpt lat="45.58478" lon="6.62647">
        <ele>2306.8000488281</ele>
        <time>2019-02-08T09:54:22.000Z</time>
      </trkpt>
      <trkpt lat="45.58477" lon="6.62647">
        <ele>2307</ele>
        <time>2019-02-08T09:54:24.000Z</time>
      </trkpt>
      <trkpt lat="45.58477" lon="6.62647">
        <ele>2307</ele>
        <time>2019-02-08T09:54:25.000Z</time>
      </trkpt>
      <trkpt lat="45.58477" lon="6.62647">
        <ele>2307</ele>
        <time>2019-02-08T09:54:26.000Z</time>
      </trkpt>
      <trkpt lat="45.58477" lon="6.62646">
        <ele>2307</ele>
        <time>2019-02-08T09:54:28.000Z</time>
      </trkpt>
      <trkpt lat="45.58477" lon="6.62646">
        <ele>2307</ele>
        <time>2019-02-08T09:54:30.000Z</time>
      </trkpt>
      <trkpt lat="45.58477" lon="6.62646">
        <ele>2307</ele>
        <time>2019-02-08T09:54:31.000Z</time>
      </trkpt>
      <trkpt lat="45.58478" lon="6.62645">
        <ele>2307</ele>
        <time>2019-02-08T09:54:36.000Z</time>
      </trkpt>
      <trkpt lat="45.58478" lon="6.62645">
        <ele>2307</ele>
        <time>2019-02-08T09:54:38.000Z</time>
      </trkpt>
      <trkpt lat="45.58478" lon="6.62645">
        <ele>2307</ele>
        <time>2019-02-08T09:54:42.000Z</time>
      </trkpt>
      <trkpt lat="45.58478" lon="6.62645">
        <ele>2307</ele>
        <time>2019-02-08T09:54:43.000Z</time>
      </trkpt>
      <trkpt lat="45.58478" lon="6.62645">
        <ele>2307</ele>
        <time>2019-02-08T09:54:45.000Z</time>
      </trkpt>
      <trkpt lat="45.58478" lon="6.62645">
        <ele>2307</ele>
        <time>2019-02-08T09:54:48.000Z</time>
      </trkpt>
      <trkpt lat="45.58478" lon="6.62645">
        <ele>2307</ele>
        <time>2019-02-08T09:54:49.000Z</time>
      </trkpt>
      <trkpt lat="45.58478" lon="6.62645">
        <ele>2307</ele>
        <time>2019-02-08T09:54:50.000Z</time>
      </trkpt>
      <trkpt lat="45.58478" lon="6.62645">
        <ele>2307</ele>
        <time>2019-02-08T09:54:52.000Z</time>
      </trkpt>
      <trkpt lat="45.58478" lon="6.62645">
        <ele>2307</ele>
        <time>2019-02-08T09:54:58.000Z</time>
      </trkpt>
      <trkpt lat="45.58478" lon="6.62645">
        <ele>2307</ele>
        <time>2019-02-08T09:54:59.000Z</time>
      </trkpt>
      <trkpt lat="45.58478" lon="6.62645">
        <ele>2307</ele>
        <time>2019-02-08T09:55:00.000Z</time>
      </trkpt>
      <trkpt lat="45.58478" lon="6.62645">
        <ele>2307</ele>
        <time>2019-02-08T09:55:03.000Z</time>
      </trkpt>
      <trkpt lat="45.58478" lon="6.62645">
        <ele>2307</ele>
        <time>2019-02-08T09:55:07.000Z</time>
      </trkpt>
      <trkpt lat="45.58477" lon="6.62645">
        <ele>2307.1999511719</ele>
        <time>2019-02-08T09:55:20.000Z</time>
      </trkpt>
      <trkpt lat="45.58477" lon="6.62645">
        <ele>2307.1999511719</ele>
        <time>2019-02-08T09:55:21.000Z</time>
      </trkpt>
      <trkpt lat="45.58477" lon="6.62644">
        <ele>2307.1999511719</ele>
        <time>2019-02-08T09:55:27.000Z</time>
      </trkpt>
      <trkpt lat="45.58477" lon="6.62644">
        <ele>2307.1999511719</ele>
        <time>2019-02-08T09:55:29.000Z</time>
      </trkpt>
      <trkpt lat="45.58477" lon="6.62643">
        <ele>2307.1999511719</ele>
        <time>2019-02-08T09:55:33.000Z</time>
      </trkpt>
      <trkpt lat="45.58477" lon="6.62643">
        <ele>2307.3999023438</ele>
        <time>2019-02-08T09:55:38.000Z</time>
      </trkpt>
      <trkpt lat="45.58477" lon="6.62643">
        <ele>2307.6000976562</ele>
        <time>2019-02-08T09:55:44.000Z</time>
      </trkpt>
      <trkpt lat="45.58477" lon="6.62642">
        <ele>2307.8000488281</ele>
        <time>2019-02-08T09:55:50.000Z</time>
      </trkpt>
      <trkpt lat="45.58477" lon="6.62642">
        <ele>2307.8000488281</ele>
        <time>2019-02-08T09:55:56.000Z</time>
      </trkpt>
      <trkpt lat="45.58476" lon="6.62642">
        <ele>2308</ele>
        <time>2019-02-08T09:55:58.000Z</time>
      </trkpt>
      <trkpt lat="45.58476" lon="6.62642">
        <ele>2308</ele>
        <time>2019-02-08T09:56:01.000Z</time>
      </trkpt>
      <trkpt lat="45.58476" lon="6.62642">
        <ele>2308</ele>
        <time>2019-02-08T09:56:05.000Z</time>
      </trkpt>
      <trkpt lat="45.58477" lon="6.62642">
        <ele>2307.8000488281</ele>
        <time>2019-02-08T09:56:10.000Z</time>
      </trkpt>
      <trkpt lat="45.58477" lon="6.62641">
        <ele>2307.8000488281</ele>
        <time>2019-02-08T09:56:17.000Z</time>
      </trkpt>
      <trkpt lat="45.58477" lon="6.62641">
        <ele>2307.8000488281</ele>
        <time>2019-02-08T09:56:19.000Z</time>
      </trkpt>
      <trkpt lat="45.58477" lon="6.62641">
        <ele>2307.8000488281</ele>
        <time>2019-02-08T09:56:22.000Z</time>
      </trkpt>
      <trkpt lat="45.58477" lon="6.62641">
        <ele>2307.8000488281</ele>
        <time>2019-02-08T09:56:25.000Z</time>
      </trkpt>
      <trkpt lat="45.58477" lon="6.62641">
        <ele>2307.6000976562</ele>
        <time>2019-02-08T09:56:31.000Z</time>
      </trkpt>
      <trkpt lat="45.58477" lon="6.6264">
        <ele>2307.3999023438</ele>
        <time>2019-02-08T09:56:37.000Z</time>
      </trkpt>
      <trkpt lat="45.58477" lon="6.6264">
        <ele>2307.3999023438</ele>
        <time>2019-02-08T09:56:48.000Z</time>
      </trkpt>
      <trkpt lat="45.58477" lon="6.6264">
        <ele>2307.3999023438</ele>
        <time>2019-02-08T09:56:51.000Z</time>
      </trkpt>
      <trkpt lat="45.58477" lon="6.6264">
        <ele>2307.3999023438</ele>
        <time>2019-02-08T09:56:54.000Z</time>
      </trkpt>
      <trkpt lat="45.58477" lon="6.6264">
        <ele>2307.3999023438</ele>
        <time>2019-02-08T09:57:04.000Z</time>
      </trkpt>
      <trkpt lat="45.58477" lon="6.6264">
        <ele>2307.3999023438</ele>
        <time>2019-02-08T09:57:07.000Z</time>
      </trkpt>
      <trkpt lat="45.58477" lon="6.6264">
        <ele>2307.3999023438</ele>
        <time>2019-02-08T09:57:13.000Z</time>
      </trkpt>
      <trkpt lat="45.58478" lon="6.6264">
        <ele>2306.8000488281</ele>
        <time>2019-02-08T09:57:20.000Z</time>
      </trkpt>
      <trkpt lat="45.58478" lon="6.6264">
        <ele>2306.8000488281</ele>
        <time>2019-02-08T09:57:29.000Z</time>
      </trkpt>
      <trkpt lat="45.58478" lon="6.6264">
        <ele>2306.8000488281</ele>
        <time>2019-02-08T09:57:30.000Z</time>
      </trkpt>
      <trkpt lat="45.58478" lon="6.6264">
        <ele>2306.8000488281</ele>
        <time>2019-02-08T09:57:32.000Z</time>
      </trkpt>
      <trkpt lat="45.58478" lon="6.6264">
        <ele>2306.8000488281</ele>
        <time>2019-02-08T09:57:33.000Z</time>
      </trkpt>
      <trkpt lat="45.58478" lon="6.6264">
        <ele>2306.8000488281</ele>
        <time>2019-02-08T09:57:38.000Z</time>
      </trkpt>
      <trkpt lat="45.58478" lon="6.6264">
        <ele>2306.8000488281</ele>
        <time>2019-02-08T09:57:40.000Z</time>
      </trkpt>
      <trkpt lat="45.58479" lon="6.6264">
        <ele>2306.3999023438</ele>
        <time>2019-02-08T09:57:41.000Z</time>
      </trkpt>
      <trkpt lat="45.58479" lon="6.6264">
        <ele>2306.1999511719</ele>
        <time>2019-02-08T09:57:45.000Z</time>
      </trkpt>
      <trkpt lat="45.58479" lon="6.6264">
        <ele>2306.1999511719</ele>
        <time>2019-02-08T09:57:55.000Z</time>
      </trkpt>
      <trkpt lat="45.58479" lon="6.6264">
        <ele>2306.1999511719</ele>
        <time>2019-02-08T09:58:04.000Z</time>
      </trkpt>
      <trkpt lat="45.58479" lon="6.6264">
        <ele>2306.1999511719</ele>
        <time>2019-02-08T09:58:09.000Z</time>
      </trkpt>
      <trkpt lat="45.58479" lon="6.6264">
        <ele>2306.1999511719</ele>
        <time>2019-02-08T09:58:20.000Z</time>
      </trkpt>
      <trkpt lat="45.58479" lon="6.6264">
        <ele>2306</ele>
        <time>2019-02-08T09:58:36.000Z</time>
      </trkpt>
      <trkpt lat="45.5848" lon="6.62639">
        <ele>2306</ele>
        <time>2019-02-08T09:58:47.000Z</time>
      </trkpt>
      <trkpt lat="45.5848" lon="6.62639">
        <ele>2305.6000976562</ele>
        <time>2019-02-08T09:58:53.000Z</time>
      </trkpt>
      <trkpt lat="45.5848" lon="6.62639">
        <ele>2305.6000976562</ele>
        <time>2019-02-08T09:58:54.000Z</time>
      </trkpt>
      <trkpt lat="45.5848" lon="6.62639">
        <ele>2305.6000976562</ele>
        <time>2019-02-08T09:59:15.000Z</time>
      </trkpt>
      <trkpt lat="45.5848" lon="6.62639">
        <ele>2305.6000976562</ele>
        <time>2019-02-08T09:59:28.000Z</time>
      </trkpt>
      <trkpt lat="45.5848" lon="6.62639">
        <ele>2305.6000976562</ele>
        <time>2019-02-08T09:59:36.000Z</time>
      </trkpt>
      <trkpt lat="45.5848" lon="6.62638">
        <ele>2305.8000488281</ele>
        <time>2019-02-08T09:59:42.000Z</time>
      </trkpt>
      <trkpt lat="45.5848" lon="6.62638">
        <ele>2305.8000488281</ele>
        <time>2019-02-08T09:59:43.000Z</time>
      </trkpt>
      <trkpt lat="45.5848" lon="6.62637">
        <ele>2305.8000488281</ele>
        <time>2019-02-08T09:59:49.000Z</time>
      </trkpt>
      <trkpt lat="45.58479" lon="6.62635">
        <ele>2306.3999023438</ele>
        <time>2019-02-08T10:00:03.000Z</time>
      </trkpt>
      <trkpt lat="45.58479" lon="6.62635">
        <ele>2306.6000976562</ele>
        <time>2019-02-08T10:00:12.000Z</time>
      </trkpt>
      <trkpt lat="45.58479" lon="6.62634">
        <ele>2306.8000488281</ele>
        <time>2019-02-08T10:00:24.000Z</time>
      </trkpt>
      <trkpt lat="45.58479" lon="6.62633">
        <ele>2306.8000488281</ele>
        <time>2019-02-08T10:00:30.000Z</time>
      </trkpt>
      <trkpt lat="45.58479" lon="6.62633">
        <ele>2306.8000488281</ele>
        <time>2019-02-08T10:00:33.000Z</time>
      </trkpt>
      <trkpt lat="45.58479" lon="6.62633">
        <ele>2306.8000488281</ele>
        <time>2019-02-08T10:00:47.000Z</time>
      </trkpt>
      <trkpt lat="45.58479" lon="6.62631">
        <ele>2307</ele>
        <time>2019-02-08T10:00:55.000Z</time>
      </trkpt>
      <trkpt lat="45.58479" lon="6.62631">
        <ele>2307</ele>
        <time>2019-02-08T10:00:59.000Z</time>
      </trkpt>
      <trkpt lat="45.58479" lon="6.62631">
        <ele>2307</ele>
        <time>2019-02-08T10:01:03.000Z</time>
      </trkpt>
      <trkpt lat="45.58479" lon="6.62629">
        <ele>2307.3999023438</ele>
        <time>2019-02-08T10:01:14.000Z</time>
      </trkpt>
      <trkpt lat="45.58478" lon="6.62628">
        <ele>2307.6000976562</ele>
        <time>2019-02-08T10:01:22.000Z</time>
      </trkpt>
      <trkpt lat="45.58478" lon="6.62628">
        <ele>2307.6000976562</ele>
        <time>2019-02-08T10:01:35.000Z</time>
      </trkpt>
      <trkpt lat="45.58478" lon="6.62628">
        <ele>2307.6000976562</ele>
        <time>2019-02-08T10:01:50.000Z</time>
      </trkpt>
      <trkpt lat="45.58478" lon="6.62628">
        <ele>2307.6000976562</ele>
        <time>2019-02-08T10:01:52.000Z</time>
      </trkpt>
      <trkpt lat="45.58478" lon="6.62628">
        <ele>2307.6000976562</ele>
        <time>2019-02-08T10:01:53.000Z</time>
      </trkpt>
      <trkpt lat="45.58478" lon="6.62628">
        <ele>2307.6000976562</ele>
        <time>2019-02-08T10:01:55.000Z</time>
      </trkpt>
      <trkpt lat="45.58478" lon="6.62628">
        <ele>2307.6000976562</ele>
        <time>2019-02-08T10:01:57.000Z</time>
      </trkpt>
      <trkpt lat="45.58478" lon="6.62628">
        <ele>2307.6000976562</ele>
        <time>2019-02-08T10:01:58.000Z</time>
      </trkpt>
      <trkpt lat="45.58478" lon="6.62627">
        <ele>2308</ele>
        <time>2019-02-08T10:01:59.000Z</time>
      </trkpt>
      <trkpt lat="45.58478" lon="6.62627">
        <ele>2308</ele>
        <time>2019-02-08T10:02:00.000Z</time>
      </trkpt>
      <trkpt lat="45.58478" lon="6.62627">
        <ele>2308</ele>
        <time>2019-02-08T10:02:01.000Z</time>
      </trkpt>
      <trkpt lat="45.58478" lon="6.62627">
        <ele>2308</ele>
        <time>2019-02-08T10:02:03.000Z</time>
      </trkpt>
      <trkpt lat="45.58478" lon="6.62627">
        <ele>2308</ele>
        <time>2019-02-08T10:02:06.000Z</time>
      </trkpt>
      <trkpt lat="45.58478" lon="6.62627">
        <ele>2308</ele>
        <time>2019-02-08T10:02:07.000Z</time>
      </trkpt>
      <trkpt lat="45.58478" lon="6.62627">
        <ele>2308</ele>
        <time>2019-02-08T10:02:08.000Z</time>
      </trkpt>
      <trkpt lat="45.58478" lon="6.62627">
        <ele>2308</ele>
        <time>2019-02-08T10:02:09.000Z</time>
      </trkpt>
      <trkpt lat="45.58478" lon="6.62627">
        <ele>2308</ele>
        <time>2019-02-08T10:02:10.000Z</time>
      </trkpt>
      <trkpt lat="45.58478" lon="6.62627">
        <ele>2308</ele>
        <time>2019-02-08T10:02:13.000Z</time>
      </trkpt>
      <trkpt lat="45.58478" lon="6.62627">
        <ele>2308</ele>
        <time>2019-02-08T10:02:15.000Z</time>
      </trkpt>
      <trkpt lat="45.58478" lon="6.62627">
        <ele>2308</ele>
        <time>2019-02-08T10:02:19.000Z</time>
      </trkpt>
      <trkpt lat="45.58478" lon="6.62627">
        <ele>2308</ele>
        <time>2019-02-08T10:02:20.000Z</time>
      </trkpt>
      <trkpt lat="45.58478" lon="6.62627">
        <ele>2308</ele>
        <time>2019-02-08T10:02:21.000Z</time>
      </trkpt>
      <trkpt lat="45.58478" lon="6.62627">
        <ele>2308</ele>
        <time>2019-02-08T10:02:22.000Z</time>
      </trkpt>
      <trkpt lat="45.58478" lon="6.62627">
        <ele>2308</ele>
        <time>2019-02-08T10:02:23.000Z</time>
      </trkpt>
      <trkpt lat="45.58478" lon="6.62627">
        <ele>2308</ele>
        <time>2019-02-08T10:02:24.000Z</time>
      </trkpt>
      <trkpt lat="45.58478" lon="6.62627">
        <ele>2308</ele>
        <time>2019-02-08T10:02:25.000Z</time>
      </trkpt>
      <trkpt lat="45.58478" lon="6.62627">
        <ele>2308</ele>
        <time>2019-02-08T10:02:26.000Z</time>
      </trkpt>
      <trkpt lat="45.58478" lon="6.62627">
        <ele>2308</ele>
        <time>2019-02-08T10:02:28.000Z</time>
      </trkpt>
      <trkpt lat="45.58478" lon="6.62627">
        <ele>2308</ele>
        <time>2019-02-08T10:02:33.000Z</time>
      </trkpt>
      <trkpt lat="45.58478" lon="6.62627">
        <ele>2308</ele>
        <time>2019-02-08T10:02:36.000Z</time>
      </trkpt>
      <trkpt lat="45.58478" lon="6.62627">
        <ele>2308</ele>
        <time>2019-02-08T10:02:55.000Z</time>
      </trkpt>
      <trkpt lat="45.58478" lon="6.62627">
        <ele>2308</ele>
        <time>2019-02-08T10:03:11.000Z</time>
      </trkpt>
      <trkpt lat="45.58478" lon="6.62627">
        <ele>2308</ele>
        <time>2019-02-08T10:03:12.000Z</time>
      </trkpt>
      <trkpt lat="45.58477" lon="6.62627">
        <ele>2308.3999023438</ele>
        <time>2019-02-08T10:03:23.000Z</time>
      </trkpt>
      <trkpt lat="45.58477" lon="6.62627">
        <ele>2308.3999023438</ele>
        <time>2019-02-08T10:03:35.000Z</time>
      </trkpt>
      <trkpt lat="45.58477" lon="6.62627">
        <ele>2308.3999023438</ele>
        <time>2019-02-08T10:03:36.000Z</time>
      </trkpt>
      <trkpt lat="45.58477" lon="6.62627">
        <ele>2308.3999023438</ele>
        <time>2019-02-08T10:03:40.000Z</time>
      </trkpt>
      <trkpt lat="45.58477" lon="6.62627">
        <ele>2308.3999023438</ele>
        <time>2019-02-08T10:03:47.000Z</time>
      </trkpt>
      <trkpt lat="45.58477" lon="6.62626">
        <ele>2308.8000488281</ele>
        <time>2019-02-08T10:04:01.000Z</time>
      </trkpt>
      <trkpt lat="45.58477" lon="6.62626">
        <ele>2308.8000488281</ele>
        <time>2019-02-08T10:04:02.000Z</time>
      </trkpt>
      <trkpt lat="45.58477" lon="6.62626">
        <ele>2308.8000488281</ele>
        <time>2019-02-08T10:04:17.000Z</time>
      </trkpt>
      <trkpt lat="45.58477" lon="6.62626">
        <ele>2308.8000488281</ele>
        <time>2019-02-08T10:04:28.000Z</time>
      </trkpt>
      <trkpt lat="45.58477" lon="6.62626">
        <ele>2308.8000488281</ele>
        <time>2019-02-08T10:04:31.000Z</time>
      </trkpt>
      <trkpt lat="45.58477" lon="6.62625">
        <ele>2308.8000488281</ele>
        <time>2019-02-08T10:04:43.000Z</time>
      </trkpt>
      <trkpt lat="45.58477" lon="6.62625">
        <ele>2308.8000488281</ele>
        <time>2019-02-08T10:04:57.000Z</time>
      </trkpt>
      <trkpt lat="45.58477" lon="6.62625">
        <ele>2308.8000488281</ele>
        <time>2019-02-08T10:05:05.000Z</time>
      </trkpt>
      <trkpt lat="45.58477" lon="6.62625">
        <ele>2308.8000488281</ele>
        <time>2019-02-08T10:05:11.000Z</time>
      </trkpt>
      <trkpt lat="45.58477" lon="6.62625">
        <ele>2309</ele>
        <time>2019-02-08T10:05:21.000Z</time>
      </trkpt>
      <trkpt lat="45.58477" lon="6.62625">
        <ele>2309</ele>
        <time>2019-02-08T10:05:30.000Z</time>
      </trkpt>
      <trkpt lat="45.58477" lon="6.62625">
        <ele>2309</ele>
        <time>2019-02-08T10:05:44.000Z</time>
      </trkpt>
      <trkpt lat="45.58477" lon="6.62625">
        <ele>2309</ele>
        <time>2019-02-08T10:06:00.000Z</time>
      </trkpt>
      <trkpt lat="45.58477" lon="6.62625">
        <ele>2309</ele>
        <time>2019-02-08T10:06:14.000Z</time>
      </trkpt>
      <trkpt lat="45.58477" lon="6.62625">
        <ele>2309</ele>
        <time>2019-02-08T10:06:23.000Z</time>
      </trkpt>
      <trkpt lat="45.58477" lon="6.62625">
        <ele>2309</ele>
        <time>2019-02-08T10:06:35.000Z</time>
      </trkpt>
      <trkpt lat="45.58477" lon="6.62625">
        <ele>2309.1999511719</ele>
        <time>2019-02-08T10:06:44.000Z</time>
      </trkpt>
      <trkpt lat="45.58477" lon="6.62625">
        <ele>2309.1999511719</ele>
        <time>2019-02-08T10:06:46.000Z</time>
      </trkpt>
      <trkpt lat="45.58477" lon="6.62625">
        <ele>2309.1999511719</ele>
        <time>2019-02-08T10:06:57.000Z</time>
      </trkpt>
      <trkpt lat="45.58477" lon="6.62625">
        <ele>2309.1999511719</ele>
        <time>2019-02-08T10:07:14.000Z</time>
      </trkpt>
      <trkpt lat="45.58476" lon="6.62625">
        <ele>2309.8000488281</ele>
        <time>2019-02-08T10:07:27.000Z</time>
      </trkpt>
      <trkpt lat="45.58476" lon="6.62625">
        <ele>2309.8000488281</ele>
        <time>2019-02-08T10:07:39.000Z</time>
      </trkpt>
      <trkpt lat="45.58476" lon="6.62625">
        <ele>2309.8000488281</ele>
        <time>2019-02-08T10:07:55.000Z</time>
      </trkpt>
      <trkpt lat="45.58476" lon="6.62625">
        <ele>2309.8000488281</ele>
        <time>2019-02-08T10:07:57.000Z</time>
      </trkpt>
      <trkpt lat="45.58476" lon="6.62624">
        <ele>2309.8000488281</ele>
        <time>2019-02-08T10:08:02.000Z</time>
      </trkpt>
      <trkpt lat="45.58476" lon="6.62624">
        <ele>2309.8000488281</ele>
        <time>2019-02-08T10:08:07.000Z</time>
      </trkpt>
      <trkpt lat="45.58476" lon="6.62624">
        <ele>2309.8000488281</ele>
        <time>2019-02-08T10:08:21.000Z</time>
      </trkpt>
      <trkpt lat="45.58476" lon="6.62624">
        <ele>2309.8000488281</ele>
        <time>2019-02-08T10:08:34.000Z</time>
      </trkpt>
      <trkpt lat="45.58476" lon="6.62624">
        <ele>2309.8000488281</ele>
        <time>2019-02-08T10:08:50.000Z</time>
      </trkpt>
      <trkpt lat="45.58476" lon="6.62624">
        <ele>2309.8000488281</ele>
        <time>2019-02-08T10:09:04.000Z</time>
      </trkpt>
      <trkpt lat="45.58475" lon="6.62624">
        <ele>2310.1999511719</ele>
        <time>2019-02-08T10:09:19.000Z</time>
      </trkpt>
      <trkpt lat="45.58475" lon="6.62624">
        <ele>2310.1999511719</ele>
        <time>2019-02-08T10:09:34.000Z</time>
      </trkpt>
      <trkpt lat="45.58475" lon="6.62624">
        <ele>2310.1999511719</ele>
        <time>2019-02-08T10:09:49.000Z</time>
      </trkpt>
      <trkpt lat="45.58475" lon="6.62623">
        <ele>2310.1999511719</ele>
        <time>2019-02-08T10:10:08.000Z</time>
      </trkpt>
      <trkpt lat="45.58475" lon="6.62623">
        <ele>2310.1999511719</ele>
        <time>2019-02-08T10:10:25.000Z</time>
      </trkpt>
      <trkpt lat="45.58475" lon="6.62623">
        <ele>2310.1999511719</ele>
        <time>2019-02-08T10:10:44.000Z</time>
      </trkpt>
      <trkpt lat="45.58475" lon="6.62623">
        <ele>2310.1999511719</ele>
        <time>2019-02-08T10:10:59.000Z</time>
      </trkpt>
      <trkpt lat="45.58475" lon="6.62623">
        <ele>2310.1999511719</ele>
        <time>2019-02-08T10:11:11.000Z</time>
      </trkpt>
      <trkpt lat="45.58475" lon="6.62623">
        <ele>2310.1999511719</ele>
        <time>2019-02-08T10:11:24.000Z</time>
      </trkpt>
      <trkpt lat="45.58475" lon="6.62623">
        <ele>2310.1999511719</ele>
        <time>2019-02-08T10:11:38.000Z</time>
      </trkpt>
      <trkpt lat="45.58475" lon="6.62623">
        <ele>2310.1999511719</ele>
        <time>2019-02-08T10:11:55.000Z</time>
      </trkpt>
      <trkpt lat="45.58475" lon="6.62623">
        <ele>2310.1999511719</ele>
        <time>2019-02-08T10:12:12.000Z</time>
      </trkpt>
      <trkpt lat="45.58475" lon="6.62623">
        <ele>2310.1999511719</ele>
        <time>2019-02-08T10:12:18.000Z</time>
      </trkpt>
      <trkpt lat="45.58475" lon="6.62623">
        <ele>2310.1999511719</ele>
        <time>2019-02-08T10:12:33.000Z</time>
      </trkpt>
      <trkpt lat="45.58475" lon="6.62623">
        <ele>2310.1999511719</ele>
        <time>2019-02-08T10:12:49.000Z</time>
      </trkpt>
      <trkpt lat="45.58475" lon="6.62623">
        <ele>2310.1999511719</ele>
        <time>2019-02-08T10:13:06.000Z</time>
      </trkpt>
      <trkpt lat="45.58475" lon="6.62623">
        <ele>2310.1999511719</ele>
        <time>2019-02-08T10:13:07.000Z</time>
      </trkpt>
      <trkpt lat="45.58475" lon="6.62622">
        <ele>2310.1999511719</ele>
        <time>2019-02-08T10:13:22.000Z</time>
      </trkpt>
      <trkpt lat="45.58475" lon="6.62622">
        <ele>2310.1999511719</ele>
        <time>2019-02-08T10:13:24.000Z</time>
      </trkpt>
      <trkpt lat="45.58475" lon="6.62622">
        <ele>2310.1999511719</ele>
        <time>2019-02-08T10:13:25.000Z</time>
      </trkpt>
      <trkpt lat="45.58475" lon="6.62622">
        <ele>2310.1999511719</ele>
        <time>2019-02-08T10:13:27.000Z</time>
      </trkpt>
      <trkpt lat="45.58475" lon="6.62622">
        <ele>2310.1999511719</ele>
        <time>2019-02-08T10:13:29.000Z</time>
      </trkpt>
      <trkpt lat="45.58475" lon="6.62622">
        <ele>2310.1999511719</ele>
        <time>2019-02-08T10:13:38.000Z</time>
      </trkpt>
      <trkpt lat="45.58475" lon="6.62622">
        <ele>2310.1999511719</ele>
        <time>2019-02-08T10:13:52.000Z</time>
      </trkpt>
      <trkpt lat="45.58475" lon="6.62622">
        <ele>2310</ele>
        <time>2019-02-08T10:14:05.000Z</time>
      </trkpt>
      <trkpt lat="45.58475" lon="6.62622">
        <ele>2310</ele>
        <time>2019-02-08T10:14:18.000Z</time>
      </trkpt>
      <trkpt lat="45.58475" lon="6.62622">
        <ele>2310</ele>
        <time>2019-02-08T10:14:20.000Z</time>
      </trkpt>
      <trkpt lat="45.58475" lon="6.62622">
        <ele>2310</ele>
        <time>2019-02-08T10:14:27.000Z</time>
      </trkpt>
      <trkpt lat="45.58475" lon="6.62622">
        <ele>2310</ele>
        <time>2019-02-08T10:14:31.000Z</time>
      </trkpt>
      <trkpt lat="45.58475" lon="6.62622">
        <ele>2310</ele>
        <time>2019-02-08T10:14:34.000Z</time>
      </trkpt>
      <trkpt lat="45.58476" lon="6.62622">
        <ele>2309.8000488281</ele>
        <time>2019-02-08T10:14:40.000Z</time>
      </trkpt>
      <trkpt lat="45.58476" lon="6.62622">
        <ele>2309.8000488281</ele>
        <time>2019-02-08T10:14:45.000Z</time>
      </trkpt>
      <trkpt lat="45.58476" lon="6.62622">
        <ele>2309.8000488281</ele>
        <time>2019-02-08T10:14:54.000Z</time>
      </trkpt>
      <trkpt lat="45.58476" lon="6.62622">
        <ele>2309.8000488281</ele>
        <time>2019-02-08T10:15:03.000Z</time>
      </trkpt>
      <trkpt lat="45.58476" lon="6.62622">
        <ele>2309.8000488281</ele>
        <time>2019-02-08T10:15:20.000Z</time>
      </trkpt>
      <trkpt lat="45.58476" lon="6.62622">
        <ele>2309.8000488281</ele>
        <time>2019-02-08T10:15:34.000Z</time>
      </trkpt>
      <trkpt lat="45.58476" lon="6.62622">
        <ele>2309.8000488281</ele>
        <time>2019-02-08T10:15:52.000Z</time>
      </trkpt>
      <trkpt lat="45.58475" lon="6.62622">
        <ele>2310.1999511719</ele>
        <time>2019-02-08T10:16:01.000Z</time>
      </trkpt>
      <trkpt lat="45.58475" lon="6.62622">
        <ele>2310.1999511719</ele>
        <time>2019-02-08T10:16:06.000Z</time>
      </trkpt>
      <trkpt lat="45.58475" lon="6.62622">
        <ele>2310.1999511719</ele>
        <time>2019-02-08T10:16:08.000Z</time>
      </trkpt>
      <trkpt lat="45.58475" lon="6.62622">
        <ele>2310.1999511719</ele>
        <time>2019-02-08T10:16:12.000Z</time>
      </trkpt>
      <trkpt lat="45.58475" lon="6.62622">
        <ele>2310.1999511719</ele>
        <time>2019-02-08T10:16:14.000Z</time>
      </trkpt>
      <trkpt lat="45.58475" lon="6.62622">
        <ele>2310.1999511719</ele>
        <time>2019-02-08T10:16:31.000Z</time>
      </trkpt>
      <trkpt lat="45.58476" lon="6.62621">
        <ele>2310</ele>
        <time>2019-02-08T10:16:52.000Z</time>
      </trkpt>
      <trkpt lat="45.58476" lon="6.62621">
        <ele>2310</ele>
        <time>2019-02-08T10:17:11.000Z</time>
      </trkpt>
      <trkpt lat="45.58476" lon="6.62622">
        <ele>2310</ele>
        <time>2019-02-08T10:17:27.000Z</time>
      </trkpt>
      <trkpt lat="45.58476" lon="6.62622">
        <ele>2310</ele>
        <time>2019-02-08T10:17:37.000Z</time>
      </trkpt>
      <trkpt lat="45.58476" lon="6.62622">
        <ele>2309.8000488281</ele>
        <time>2019-02-08T10:17:43.000Z</time>
      </trkpt>
      <trkpt lat="45.58476" lon="6.62622">
        <ele>2309.8000488281</ele>
        <time>2019-02-08T10:17:52.000Z</time>
      </trkpt>
      <trkpt lat="45.58476" lon="6.62622">
        <ele>2309.8000488281</ele>
        <time>2019-02-08T10:18:02.000Z</time>
      </trkpt>
      <trkpt lat="45.58475" lon="6.62622">
        <ele>2310.1999511719</ele>
        <time>2019-02-08T10:18:10.000Z</time>
      </trkpt>
      <trkpt lat="45.58476" lon="6.62623">
        <ele>2310</ele>
        <time>2019-02-08T10:18:16.000Z</time>
      </trkpt>
      <trkpt lat="45.58476" lon="6.62623">
        <ele>2310</ele>
        <time>2019-02-08T10:18:21.000Z</time>
      </trkpt>
      <trkpt lat="45.58476" lon="6.62623">
        <ele>2310</ele>
        <time>2019-02-08T10:18:26.000Z</time>
      </trkpt>
      <trkpt lat="45.58476" lon="6.62623">
        <ele>2309.8000488281</ele>
        <time>2019-02-08T10:18:34.000Z</time>
      </trkpt>
      <trkpt lat="45.58476" lon="6.62623">
        <ele>2309.8000488281</ele>
        <time>2019-02-08T10:18:40.000Z</time>
      </trkpt>
      <trkpt lat="45.58476" lon="6.62623">
        <ele>2309.8000488281</ele>
        <time>2019-02-08T10:18:42.000Z</time>
      </trkpt>
      <trkpt lat="45.58478" lon="6.62621">
        <ele>2308.3999023438</ele>
        <time>2019-02-08T10:18:51.000Z</time>
      </trkpt>
      <trkpt lat="45.58478" lon="6.62621">
        <ele>2308.3999023438</ele>
        <time>2019-02-08T10:18:56.000Z</time>
      </trkpt>
      <trkpt lat="45.58478" lon="6.62621">
        <ele>2308.3999023438</ele>
        <time>2019-02-08T10:19:01.000Z</time>
      </trkpt>
      <trkpt lat="45.58478" lon="6.62621">
        <ele>2308.3999023438</ele>
        <time>2019-02-08T10:19:05.000Z</time>
      </trkpt>
      <trkpt lat="45.58478" lon="6.62621">
        <ele>2308.3999023438</ele>
        <time>2019-02-08T10:19:12.000Z</time>
      </trkpt>
      <trkpt lat="45.58478" lon="6.62621">
        <ele>2308.3999023438</ele>
        <time>2019-02-08T10:19:22.000Z</time>
      </trkpt>
      <trkpt lat="45.58478" lon="6.62622">
        <ele>2308</ele>
        <time>2019-02-08T10:19:23.000Z</time>
      </trkpt>
      <trkpt lat="45.58481" lon="6.6262">
        <ele>2306.1999511719</ele>
        <time>2019-02-08T10:19:29.000Z</time>
      </trkpt>
      <trkpt lat="45.58483" lon="6.62619">
        <ele>2305.3999023438</ele>
        <time>2019-02-08T10:19:34.000Z</time>
      </trkpt>
      <trkpt lat="45.58483" lon="6.62619">
        <ele>2305.1999511719</ele>
        <time>2019-02-08T10:19:40.000Z</time>
      </trkpt>
      <trkpt lat="45.58484" lon="6.6262">
        <ele>2304.3999023438</ele>
        <time>2019-02-08T10:19:41.000Z</time>
      </trkpt>
      <trkpt lat="45.58485" lon="6.62622">
        <ele>2303.8000488281</ele>
        <time>2019-02-08T10:19:44.000Z</time>
      </trkpt>
      <trkpt lat="45.58485" lon="6.62621">
        <ele>2303.6000976562</ele>
        <time>2019-02-08T10:19:46.000Z</time>
      </trkpt>
      <trkpt lat="45.58488" lon="6.62617">
        <ele>2301.8000488281</ele>
        <time>2019-02-08T10:19:48.000Z</time>
      </trkpt>
      <trkpt lat="45.58488" lon="6.62617">
        <ele>2301.3999023438</ele>
        <time>2019-02-08T10:19:49.000Z</time>
      </trkpt>
      <trkpt lat="45.58489" lon="6.62616">
        <ele>2301</ele>
        <time>2019-02-08T10:19:51.000Z</time>
      </trkpt>
      <trkpt lat="45.5849" lon="6.62614">
        <ele>2300.6000976562</ele>
        <time>2019-02-08T10:19:53.000Z</time>
      </trkpt>
      <trkpt lat="45.58491" lon="6.62614">
        <ele>2300</ele>
        <time>2019-02-08T10:19:54.000Z</time>
      </trkpt>
      <trkpt lat="45.58492" lon="6.62615">
        <ele>2299.1999511719</ele>
        <time>2019-02-08T10:19:55.000Z</time>
      </trkpt>
      <trkpt lat="45.58492" lon="6.62616">
        <ele>2298.8000488281</ele>
        <time>2019-02-08T10:19:56.000Z</time>
      </trkpt>
      <trkpt lat="45.58493" lon="6.62617">
        <ele>2298.1999511719</ele>
        <time>2019-02-08T10:19:57.000Z</time>
      </trkpt>
      <trkpt lat="45.58495" lon="6.62617">
        <ele>2297</ele>
        <time>2019-02-08T10:19:58.000Z</time>
      </trkpt>
      <trkpt lat="45.58497" lon="6.62614">
        <ele>2295.8000488281</ele>
        <time>2019-02-08T10:19:59.000Z</time>
      </trkpt>
      <trkpt lat="45.58499" lon="6.62611">
        <ele>2294.3999023438</ele>
        <time>2019-02-08T10:20:00.000Z</time>
      </trkpt>
      <trkpt lat="45.58504" lon="6.62609">
        <ele>2291</ele>
        <time>2019-02-08T10:20:02.000Z</time>
      </trkpt>
      <trkpt lat="45.58507" lon="6.62605">
        <ele>2289.6000976562</ele>
        <time>2019-02-08T10:20:03.000Z</time>
      </trkpt>
      <trkpt lat="45.58509" lon="6.62603">
        <ele>2287.8000488281</ele>
        <time>2019-02-08T10:20:04.000Z</time>
      </trkpt>
      <trkpt lat="45.58513" lon="6.62601">
        <ele>2285.1999511719</ele>
        <time>2019-02-08T10:20:05.000Z</time>
      </trkpt>
      <trkpt lat="45.58517" lon="6.62598">
        <ele>2282.3999023438</ele>
        <time>2019-02-08T10:20:06.000Z</time>
      </trkpt>
      <trkpt lat="45.5852" lon="6.62594">
        <ele>2280.3999023438</ele>
        <time>2019-02-08T10:20:07.000Z</time>
      </trkpt>
      <trkpt lat="45.58522" lon="6.62591">
        <ele>2279</ele>
        <time>2019-02-08T10:20:08.000Z</time>
      </trkpt>
      <trkpt lat="45.58524" lon="6.62591">
        <ele>2277.1999511719</ele>
        <time>2019-02-08T10:20:09.000Z</time>
      </trkpt>
      <trkpt lat="45.58528" lon="6.62588">
        <ele>2274.8000488281</ele>
        <time>2019-02-08T10:20:10.000Z</time>
      </trkpt>
      <trkpt lat="45.5853" lon="6.62584">
        <ele>2273.1999511719</ele>
        <time>2019-02-08T10:20:11.000Z</time>
      </trkpt>
      <trkpt lat="45.58531" lon="6.62579">
        <ele>2273</ele>
        <time>2019-02-08T10:20:12.000Z</time>
      </trkpt>
      <trkpt lat="45.58531" lon="6.62573">
        <ele>2273</ele>
        <time>2019-02-08T10:20:13.000Z</time>
      </trkpt>
      <trkpt lat="45.58531" lon="6.62568">
        <ele>2273.1999511719</ele>
        <time>2019-02-08T10:20:14.000Z</time>
      </trkpt>
      <trkpt lat="45.58531" lon="6.62562">
        <ele>2274.1999511719</ele>
        <time>2019-02-08T10:20:15.000Z</time>
      </trkpt>
      <trkpt lat="45.58531" lon="6.62557">
        <ele>2275.1999511719</ele>
        <time>2019-02-08T10:20:16.000Z</time>
      </trkpt>
      <trkpt lat="45.58531" lon="6.62552">
        <ele>2275.6000976562</ele>
        <time>2019-02-08T10:20:17.000Z</time>
      </trkpt>
      <trkpt lat="45.58532" lon="6.62548">
        <ele>2275.6000976562</ele>
        <time>2019-02-08T10:20:18.000Z</time>
      </trkpt>
      <trkpt lat="45.58534" lon="6.62544">
        <ele>2275.3999023438</ele>
        <time>2019-02-08T10:20:19.000Z</time>
      </trkpt>
      <trkpt lat="45.58536" lon="6.62542">
        <ele>2274.8000488281</ele>
        <time>2019-02-08T10:20:20.000Z</time>
      </trkpt>
      <trkpt lat="45.58537" lon="6.6254">
        <ele>2273.8000488281</ele>
        <time>2019-02-08T10:20:21.000Z</time>
      </trkpt>
      <trkpt lat="45.58539" lon="6.62539">
        <ele>2273.1999511719</ele>
        <time>2019-02-08T10:20:22.000Z</time>
      </trkpt>
      <trkpt lat="45.5854" lon="6.62537">
        <ele>2272.3999023438</ele>
        <time>2019-02-08T10:20:24.000Z</time>
      </trkpt>
      <trkpt lat="45.58543" lon="6.62535">
        <ele>2271.1999511719</ele>
        <time>2019-02-08T10:20:27.000Z</time>
      </trkpt>
      <trkpt lat="45.58547" lon="6.62533">
        <ele>2268.8000488281</ele>
        <time>2019-02-08T10:20:31.000Z</time>
      </trkpt>
      <trkpt lat="45.58552" lon="6.62531">
        <ele>2265.8000488281</ele>
        <time>2019-02-08T10:20:39.000Z</time>
      </trkpt>
      <trkpt lat="45.58552" lon="6.62531">
        <ele>2266</ele>
        <time>2019-02-08T10:20:40.000Z</time>
      </trkpt>
      <trkpt lat="45.58556" lon="6.6253">
        <ele>2261</ele>
        <time>2019-02-08T10:20:48.000Z</time>
      </trkpt>
      <trkpt lat="45.58558" lon="6.6253">
        <ele>2258.3999023438</ele>
        <time>2019-02-08T10:20:52.000Z</time>
      </trkpt>
      <trkpt lat="45.58563" lon="6.62523">
        <ele>2254.8000488281</ele>
        <time>2019-02-08T10:20:58.000Z</time>
      </trkpt>
      <trkpt lat="45.58571" lon="6.62518">
        <ele>2245.8000488281</ele>
        <time>2019-02-08T10:21:07.000Z</time>
      </trkpt>
      <trkpt lat="45.58571" lon="6.62519">
        <ele>2245.1999511719</ele>
        <time>2019-02-08T10:21:14.000Z</time>
      </trkpt>
      <trkpt lat="45.58567" lon="6.62524">
        <ele>2250</ele>
        <time>2019-02-08T10:21:26.000Z</time>
      </trkpt>
      <trkpt lat="45.58552" lon="6.62547">
        <ele>2261.8000488281</ele>
        <time>2019-02-08T10:21:40.000Z</time>
      </trkpt>
      <trkpt lat="45.58549" lon="6.62545">
        <ele>2264.8000488281</ele>
        <time>2019-02-08T10:21:52.000Z</time>
      </trkpt>
      <trkpt lat="45.58553" lon="6.62539">
        <ele>2263</ele>
        <time>2019-02-08T10:22:05.000Z</time>
      </trkpt>
      <trkpt lat="45.58556" lon="6.62536">
        <ele>2260.1999511719</ele>
        <time>2019-02-08T10:22:19.000Z</time>
      </trkpt>
      <trkpt lat="45.58556" lon="6.62536">
        <ele>2260.1999511719</ele>
        <time>2019-02-08T10:22:32.000Z</time>
      </trkpt>
      <trkpt lat="45.58556" lon="6.62536">
        <ele>2259.6000976562</ele>
        <time>2019-02-08T10:22:33.000Z</time>
      </trkpt>
      <trkpt lat="45.5856" lon="6.6254">
        <ele>2254.8000488281</ele>
        <time>2019-02-08T10:22:35.000Z</time>
      </trkpt>
      <trkpt lat="45.58565" lon="6.62542">
        <ele>2247.6000976562</ele>
        <time>2019-02-08T10:22:37.000Z</time>
      </trkpt>
      <trkpt lat="45.58569" lon="6.62543">
        <ele>2243</ele>
        <time>2019-02-08T10:22:38.000Z</time>
      </trkpt>
      <trkpt lat="45.58575" lon="6.62544">
        <ele>2235.6000976562</ele>
        <time>2019-02-08T10:22:39.000Z</time>
      </trkpt>
      <trkpt lat="45.58578" lon="6.62548">
        <ele>2232</ele>
        <time>2019-02-08T10:22:40.000Z</time>
      </trkpt>
      <trkpt lat="45.58585" lon="6.62545">
        <ele>2224</ele>
        <time>2019-02-08T10:22:41.000Z</time>
      </trkpt>
      <trkpt lat="45.58593" lon="6.62544">
        <ele>2214.3999023438</ele>
        <time>2019-02-08T10:22:42.000Z</time>
      </trkpt>
      <trkpt lat="45.58601" lon="6.62543">
        <ele>2205</ele>
        <time>2019-02-08T10:22:43.000Z</time>
      </trkpt>
      <trkpt lat="45.58606" lon="6.6254">
        <ele>2200</ele>
        <time>2019-02-08T10:22:44.000Z</time>
      </trkpt>
      <trkpt lat="45.58611" lon="6.62538">
        <ele>2195.3999023438</ele>
        <time>2019-02-08T10:22:45.000Z</time>
      </trkpt>
      <trkpt lat="45.58616" lon="6.62536">
        <ele>2189.1999511719</ele>
        <time>2019-02-08T10:22:46.000Z</time>
      </trkpt>
      <trkpt lat="45.58621" lon="6.62533">
        <ele>2184.3999023438</ele>
        <time>2019-02-08T10:22:47.000Z</time>
      </trkpt>
      <trkpt lat="45.58626" lon="6.6253">
        <ele>2179.6000976562</ele>
        <time>2019-02-08T10:22:48.000Z</time>
      </trkpt>
      <trkpt lat="45.58633" lon="6.6253">
        <ele>2171.6000976562</ele>
        <time>2019-02-08T10:22:49.000Z</time>
      </trkpt>
      <trkpt lat="45.58639" lon="6.62527">
        <ele>2167.8000488281</ele>
        <time>2019-02-08T10:22:50.000Z</time>
      </trkpt>
      <trkpt lat="45.58645" lon="6.62524">
        <ele>2165.6000976562</ele>
        <time>2019-02-08T10:22:51.000Z</time>
      </trkpt>
      <trkpt lat="45.58654" lon="6.62523">
        <ele>2161.3999023438</ele>
        <time>2019-02-08T10:22:52.000Z</time>
      </trkpt>
      <trkpt lat="45.58663" lon="6.62521">
        <ele>2157.3999023438</ele>
        <time>2019-02-08T10:22:53.000Z</time>
      </trkpt>
      <trkpt lat="45.58671" lon="6.62517">
        <ele>2154.6000976562</ele>
        <time>2019-02-08T10:22:54.000Z</time>
      </trkpt>
      <trkpt lat="45.58679" lon="6.62514">
        <ele>2152</ele>
        <time>2019-02-08T10:22:55.000Z</time>
      </trkpt>
      <trkpt lat="45.58687" lon="6.62511">
        <ele>2149.1999511719</ele>
        <time>2019-02-08T10:22:56.000Z</time>
      </trkpt>
      <trkpt lat="45.58693" lon="6.62508">
        <ele>2147.6000976562</ele>
        <time>2019-02-08T10:22:57.000Z</time>
      </trkpt>
      <trkpt lat="45.58697" lon="6.62505">
        <ele>2146.6000976562</ele>
        <time>2019-02-08T10:22:58.000Z</time>
      </trkpt>
      <trkpt lat="45.58703" lon="6.62502">
        <ele>2144.6000976562</ele>
        <time>2019-02-08T10:22:59.000Z</time>
      </trkpt>
      <trkpt lat="45.58711" lon="6.62502">
        <ele>2141.1999511719</ele>
        <time>2019-02-08T10:23:00.000Z</time>
      </trkpt>
      <trkpt lat="45.58718" lon="6.625">
        <ele>2138.8000488281</ele>
        <time>2019-02-08T10:23:01.000Z</time>
      </trkpt>
      <trkpt lat="45.5872" lon="6.625">
        <ele>2138.3999023438</ele>
        <time>2019-02-08T10:23:02.000Z</time>
      </trkpt>
      <trkpt lat="45.58719" lon="6.62502">
        <ele>2137.8000488281</ele>
        <time>2019-02-08T10:23:03.000Z</time>
      </trkpt>
      <trkpt lat="45.5872" lon="6.62502">
        <ele>2137.6000976562</ele>
        <time>2019-02-08T10:23:04.000Z</time>
      </trkpt>
      <trkpt lat="45.5872" lon="6.62502">
        <ele>2137.3999023438</ele>
        <time>2019-02-08T10:23:05.000Z</time>
      </trkpt>
      <trkpt lat="45.58722" lon="6.62503">
        <ele>2136.8000488281</ele>
        <time>2019-02-08T10:23:06.000Z</time>
      </trkpt>
      <trkpt lat="45.58726" lon="6.62505">
        <ele>2135.1999511719</ele>
        <time>2019-02-08T10:23:07.000Z</time>
      </trkpt>
      <trkpt lat="45.58732" lon="6.62509">
        <ele>2132.8000488281</ele>
        <time>2019-02-08T10:23:08.000Z</time>
      </trkpt>
      <trkpt lat="45.58735" lon="6.62508">
        <ele>2132.1999511719</ele>
        <time>2019-02-08T10:23:09.000Z</time>
      </trkpt>
      <trkpt lat="45.5874" lon="6.62509">
        <ele>2130.6000976562</ele>
        <time>2019-02-08T10:23:10.000Z</time>
      </trkpt>
      <trkpt lat="45.58746" lon="6.62513">
        <ele>2128.1999511719</ele>
        <time>2019-02-08T10:23:11.000Z</time>
      </trkpt>
      <trkpt lat="45.58753" lon="6.62514">
        <ele>2126.1999511719</ele>
        <time>2019-02-08T10:23:12.000Z</time>
      </trkpt>
      <trkpt lat="45.58758" lon="6.62515">
        <ele>2125</ele>
        <time>2019-02-08T10:23:13.000Z</time>
      </trkpt>
      <trkpt lat="45.58764" lon="6.62515">
        <ele>2123.8000488281</ele>
        <time>2019-02-08T10:23:14.000Z</time>
      </trkpt>
      <trkpt lat="45.58771" lon="6.62516">
        <ele>2121.6000976562</ele>
        <time>2019-02-08T10:23:15.000Z</time>
      </trkpt>
      <trkpt lat="45.58778" lon="6.62516">
        <ele>2120.1999511719</ele>
        <time>2019-02-08T10:23:16.000Z</time>
      </trkpt>
      <trkpt lat="45.58786" lon="6.62514">
        <ele>2119.1999511719</ele>
        <time>2019-02-08T10:23:17.000Z</time>
      </trkpt>
      <trkpt lat="45.58793" lon="6.62512">
        <ele>2118.3999023438</ele>
        <time>2019-02-08T10:23:18.000Z</time>
      </trkpt>
      <trkpt lat="45.58801" lon="6.62512">
        <ele>2116.8000488281</ele>
        <time>2019-02-08T10:23:19.000Z</time>
      </trkpt>
      <trkpt lat="45.58809" lon="6.62512">
        <ele>2114.1999511719</ele>
        <time>2019-02-08T10:23:20.000Z</time>
      </trkpt>
      <trkpt lat="45.58818" lon="6.6251">
        <ele>2112.1999511719</ele>
        <time>2019-02-08T10:23:21.000Z</time>
      </trkpt>
      <trkpt lat="45.58822" lon="6.62511">
        <ele>2110.6000976562</ele>
        <time>2019-02-08T10:23:22.000Z</time>
      </trkpt>
      <trkpt lat="45.58831" lon="6.62515">
        <ele>2107</ele>
        <time>2019-02-08T10:23:23.000Z</time>
      </trkpt>
      <trkpt lat="45.58839" lon="6.62515">
        <ele>2104.8000488281</ele>
        <time>2019-02-08T10:23:24.000Z</time>
      </trkpt>
      <trkpt lat="45.58846" lon="6.62516">
        <ele>2102.3999023438</ele>
        <time>2019-02-08T10:23:25.000Z</time>
      </trkpt>
      <trkpt lat="45.58852" lon="6.62518">
        <ele>2100</ele>
        <time>2019-02-08T10:23:26.000Z</time>
      </trkpt>
      <trkpt lat="45.58856" lon="6.62524">
        <ele>2097.1999511719</ele>
        <time>2019-02-08T10:23:27.000Z</time>
      </trkpt>
      <trkpt lat="45.58859" lon="6.62528">
        <ele>2094.8000488281</ele>
        <time>2019-02-08T10:23:28.000Z</time>
      </trkpt>
      <trkpt lat="45.58863" lon="6.62532">
        <ele>2092.3999023438</ele>
        <time>2019-02-08T10:23:29.000Z</time>
      </trkpt>
      <trkpt lat="45.58868" lon="6.62535">
        <ele>2089.8000488281</ele>
        <time>2019-02-08T10:23:30.000Z</time>
      </trkpt>
      <trkpt lat="45.58872" lon="6.62538">
        <ele>2087.6000976562</ele>
        <time>2019-02-08T10:23:31.000Z</time>
      </trkpt>
      <trkpt lat="45.58876" lon="6.62543">
        <ele>2085</ele>
        <time>2019-02-08T10:23:32.000Z</time>
      </trkpt>
      <trkpt lat="45.58883" lon="6.62547">
        <ele>2081.3999023438</ele>
        <time>2019-02-08T10:23:33.000Z</time>
      </trkpt>
      <trkpt lat="45.58886" lon="6.62557">
        <ele>2077.8000488281</ele>
        <time>2019-02-08T10:23:34.000Z</time>
      </trkpt>
      <trkpt lat="45.58888" lon="6.62567">
        <ele>2074.6000976562</ele>
        <time>2019-02-08T10:23:35.000Z</time>
      </trkpt>
      <trkpt lat="45.58889" lon="6.62575">
        <ele>2072.3999023438</ele>
        <time>2019-02-08T10:23:36.000Z</time>
      </trkpt>
      <trkpt lat="45.58891" lon="6.62583">
        <ele>2070.3999023438</ele>
        <time>2019-02-08T10:23:37.000Z</time>
      </trkpt>
      <trkpt lat="45.58886" lon="6.62592">
        <ele>2068.3999023438</ele>
        <time>2019-02-08T10:23:38.000Z</time>
      </trkpt>
      <trkpt lat="45.58888" lon="6.62597">
        <ele>2067.1999511719</ele>
        <time>2019-02-08T10:23:39.000Z</time>
      </trkpt>
      <trkpt lat="45.5889" lon="6.62598">
        <ele>2066.8000488281</ele>
        <time>2019-02-08T10:23:40.000Z</time>
      </trkpt>
      <trkpt lat="45.58893" lon="6.626">
        <ele>2066.1999511719</ele>
        <time>2019-02-08T10:23:41.000Z</time>
      </trkpt>
      <trkpt lat="45.58895" lon="6.62605">
        <ele>2064.8000488281</ele>
        <time>2019-02-08T10:23:42.000Z</time>
      </trkpt>
      <trkpt lat="45.58898" lon="6.62609">
        <ele>2063.6000976562</ele>
        <time>2019-02-08T10:23:43.000Z</time>
      </trkpt>
      <trkpt lat="45.58902" lon="6.62615">
        <ele>2062</ele>
        <time>2019-02-08T10:23:44.000Z</time>
      </trkpt>
      <trkpt lat="45.58906" lon="6.62622">
        <ele>2060</ele>
        <time>2019-02-08T10:23:45.000Z</time>
      </trkpt>
      <trkpt lat="45.58834" lon="6.6266">
        <ele>2062.1999511719</ele>
        <time>2019-02-08T10:23:46.000Z</time>
      </trkpt>
      <trkpt lat="45.58831" lon="6.62671">
        <ele>2061.6000976562</ele>
        <time>2019-02-08T10:23:47.000Z</time>
      </trkpt>
      <trkpt lat="45.58839" lon="6.62676">
        <ele>2059.3999023438</ele>
        <time>2019-02-08T10:23:48.000Z</time>
      </trkpt>
      <trkpt lat="45.5884" lon="6.62686">
        <ele>2058</ele>
        <time>2019-02-08T10:23:49.000Z</time>
      </trkpt>
      <trkpt lat="45.58843" lon="6.62694">
        <ele>2056.3999023438</ele>
        <time>2019-02-08T10:23:50.000Z</time>
      </trkpt>
      <trkpt lat="45.58851" lon="6.627">
        <ele>2054.3999023438</ele>
        <time>2019-02-08T10:23:51.000Z</time>
      </trkpt>
      <trkpt lat="45.58846" lon="6.62713">
        <ele>2052.3999023438</ele>
        <time>2019-02-08T10:23:52.000Z</time>
      </trkpt>
      <trkpt lat="45.58843" lon="6.62727">
        <ele>2049.8000488281</ele>
        <time>2019-02-08T10:23:53.000Z</time>
      </trkpt>
      <trkpt lat="45.58847" lon="6.62735">
        <ele>2047.5999755859</ele>
        <time>2019-02-08T10:23:54.000Z</time>
      </trkpt>
      <trkpt lat="45.58852" lon="6.62741">
        <ele>2046.4000244141</ele>
        <time>2019-02-08T10:23:55.000Z</time>
      </trkpt>
      <trkpt lat="45.58856" lon="6.62746">
        <ele>2045.4000244141</ele>
        <time>2019-02-08T10:23:56.000Z</time>
      </trkpt>
      <trkpt lat="45.5886" lon="6.62749">
        <ele>2044.5999755859</ele>
        <time>2019-02-08T10:23:57.000Z</time>
      </trkpt>
      <trkpt lat="45.58864" lon="6.62753">
        <ele>2043.8000488281</ele>
        <time>2019-02-08T10:23:58.000Z</time>
      </trkpt>
      <trkpt lat="45.58867" lon="6.62754">
        <ele>2043.4000244141</ele>
        <time>2019-02-08T10:23:59.000Z</time>
      </trkpt>
      <trkpt lat="45.58869" lon="6.62755">
        <ele>2043</ele>
        <time>2019-02-08T10:24:00.000Z</time>
      </trkpt>
      <trkpt lat="45.58871" lon="6.62756">
        <ele>2042.5999755859</ele>
        <time>2019-02-08T10:24:01.000Z</time>
      </trkpt>
      <trkpt lat="45.58875" lon="6.62756">
        <ele>2042.1999511719</ele>
        <time>2019-02-08T10:24:02.000Z</time>
      </trkpt>
      <trkpt lat="45.5888" lon="6.62758">
        <ele>2041.5999755859</ele>
        <time>2019-02-08T10:24:04.000Z</time>
      </trkpt>
      <trkpt lat="45.58883" lon="6.6276">
        <ele>2041</ele>
        <time>2019-02-08T10:24:05.000Z</time>
      </trkpt>
      <trkpt lat="45.58887" lon="6.62761">
        <ele>2040.1999511719</ele>
        <time>2019-02-08T10:24:07.000Z</time>
      </trkpt>
      <trkpt lat="45.58888" lon="6.62761">
        <ele>2040</ele>
        <time>2019-02-08T10:24:08.000Z</time>
      </trkpt>
      <trkpt lat="45.58893" lon="6.62762">
        <ele>2039</ele>
        <time>2019-02-08T10:24:10.000Z</time>
      </trkpt>
      <trkpt lat="45.589" lon="6.62769">
        <ele>2036.8000488281</ele>
        <time>2019-02-08T10:24:12.000Z</time>
      </trkpt>
      <trkpt lat="45.58904" lon="6.62769">
        <ele>2035.8000488281</ele>
        <time>2019-02-08T10:24:15.000Z</time>
      </trkpt>
      <trkpt lat="45.58905" lon="6.62768">
        <ele>2036</ele>
        <time>2019-02-08T10:24:17.000Z</time>
      </trkpt>
      <trkpt lat="45.58905" lon="6.62764">
        <ele>2036.4000244141</ele>
        <time>2019-02-08T10:24:21.000Z</time>
      </trkpt>
      <trkpt lat="45.58906" lon="6.62746">
        <ele>2039</ele>
        <time>2019-02-08T10:24:35.000Z</time>
      </trkpt>
      <trkpt lat="45.58909" lon="6.6274">
        <ele>2039.5999755859</ele>
        <time>2019-02-08T10:24:52.000Z</time>
      </trkpt>
      <trkpt lat="45.58909" lon="6.6274">
        <ele>2039.5999755859</ele>
        <time>2019-02-08T10:25:05.000Z</time>
      </trkpt>
      <trkpt lat="45.58909" lon="6.6274">
        <ele>2039.5999755859</ele>
        <time>2019-02-08T10:25:21.000Z</time>
      </trkpt>
      <trkpt lat="45.58909" lon="6.6274">
        <ele>2039.5999755859</ele>
        <time>2019-02-08T10:25:25.000Z</time>
      </trkpt>
      <trkpt lat="45.58909" lon="6.6274">
        <ele>2039.8000488281</ele>
        <time>2019-02-08T10:25:34.000Z</time>
      </trkpt>
      <trkpt lat="45.5891" lon="6.62739">
        <ele>2039.8000488281</ele>
        <time>2019-02-08T10:25:43.000Z</time>
      </trkpt>
      <trkpt lat="45.5891" lon="6.62739">
        <ele>2039.8000488281</ele>
        <time>2019-02-08T10:25:57.000Z</time>
      </trkpt>
      <trkpt lat="45.5891" lon="6.62739">
        <ele>2039.8000488281</ele>
        <time>2019-02-08T10:26:07.000Z</time>
      </trkpt>
      <trkpt lat="45.5891" lon="6.62739">
        <ele>2039.8000488281</ele>
        <time>2019-02-08T10:26:18.000Z</time>
      </trkpt>
      <trkpt lat="45.5891" lon="6.62737">
        <ele>2040.1999511719</ele>
        <time>2019-02-08T10:26:27.000Z</time>
      </trkpt>
      <trkpt lat="45.5891" lon="6.62737">
        <ele>2040.1999511719</ele>
        <time>2019-02-08T10:26:41.000Z</time>
      </trkpt>
      <trkpt lat="45.5891" lon="6.62737">
        <ele>2040.1999511719</ele>
        <time>2019-02-08T10:26:56.000Z</time>
      </trkpt>
      <trkpt lat="45.58909" lon="6.62737">
        <ele>2040.1999511719</ele>
        <time>2019-02-08T10:27:07.000Z</time>
      </trkpt>
      <trkpt lat="45.58909" lon="6.62737">
        <ele>2040.1999511719</ele>
        <time>2019-02-08T10:27:27.000Z</time>
      </trkpt>
      <trkpt lat="45.58909" lon="6.62737">
        <ele>2040.1999511719</ele>
        <time>2019-02-08T10:27:40.000Z</time>
      </trkpt>
      <trkpt lat="45.58908" lon="6.62737">
        <ele>2040.1999511719</ele>
        <time>2019-02-08T10:27:53.000Z</time>
      </trkpt>
      <trkpt lat="45.58908" lon="6.62737">
        <ele>2040.1999511719</ele>
        <time>2019-02-08T10:28:00.000Z</time>
      </trkpt>
      <trkpt lat="45.58908" lon="6.62737">
        <ele>2040.1999511719</ele>
        <time>2019-02-08T10:28:05.000Z</time>
      </trkpt>
      <trkpt lat="45.58908" lon="6.62737">
        <ele>2040.1999511719</ele>
        <time>2019-02-08T10:28:11.000Z</time>
      </trkpt>
      <trkpt lat="45.58908" lon="6.62737">
        <ele>2040.1999511719</ele>
        <time>2019-02-08T10:28:15.000Z</time>
      </trkpt>
      <trkpt lat="45.58908" lon="6.62737">
        <ele>2040.1999511719</ele>
        <time>2019-02-08T10:28:19.000Z</time>
      </trkpt>
      <trkpt lat="45.58909" lon="6.62737">
        <ele>2040.1999511719</ele>
        <time>2019-02-08T10:28:24.000Z</time>
      </trkpt>
      <trkpt lat="45.58909" lon="6.62737">
        <ele>2040.1999511719</ele>
        <time>2019-02-08T10:28:39.000Z</time>
      </trkpt>
      <trkpt lat="45.58909" lon="6.62737">
        <ele>2040.1999511719</ele>
        <time>2019-02-08T10:28:54.000Z</time>
      </trkpt>
      <trkpt lat="45.58909" lon="6.62737">
        <ele>2040.1999511719</ele>
        <time>2019-02-08T10:29:08.000Z</time>
      </trkpt>
      <trkpt lat="45.58909" lon="6.62737">
        <ele>2040.1999511719</ele>
        <time>2019-02-08T10:29:20.000Z</time>
      </trkpt>
      <trkpt lat="45.58909" lon="6.62737">
        <ele>2040.1999511719</ele>
        <time>2019-02-08T10:29:23.000Z</time>
      </trkpt>
      <trkpt lat="45.58909" lon="6.62737">
        <ele>2040.1999511719</ele>
        <time>2019-02-08T10:29:29.000Z</time>
      </trkpt>
      <trkpt lat="45.58909" lon="6.62737">
        <ele>2040.1999511719</ele>
        <time>2019-02-08T10:29:30.000Z</time>
      </trkpt>
      <trkpt lat="45.58909" lon="6.62736">
        <ele>2040.4000244141</ele>
        <time>2019-02-08T10:29:45.000Z</time>
      </trkpt>
      <trkpt lat="45.58909" lon="6.62736">
        <ele>2040.4000244141</ele>
        <time>2019-02-08T10:29:51.000Z</time>
      </trkpt>
      <trkpt lat="45.58909" lon="6.62736">
        <ele>2040.4000244141</ele>
        <time>2019-02-08T10:30:00.000Z</time>
      </trkpt>
      <trkpt lat="45.58909" lon="6.62736">
        <ele>2040.4000244141</ele>
        <time>2019-02-08T10:30:14.000Z</time>
      </trkpt>
      <trkpt lat="45.5891" lon="6.62735">
        <ele>2040.4000244141</ele>
        <time>2019-02-08T10:30:28.000Z</time>
      </trkpt>
      <trkpt lat="45.5891" lon="6.62735">
        <ele>2040.4000244141</ele>
        <time>2019-02-08T10:30:40.000Z</time>
      </trkpt>
      <trkpt lat="45.5891" lon="6.62735">
        <ele>2040.4000244141</ele>
        <time>2019-02-08T10:30:54.000Z</time>
      </trkpt>
      <trkpt lat="45.58909" lon="6.62735">
        <ele>2040.4000244141</ele>
        <time>2019-02-08T10:31:03.000Z</time>
      </trkpt>
      <trkpt lat="45.58909" lon="6.62735">
        <ele>2040.4000244141</ele>
        <time>2019-02-08T10:31:14.000Z</time>
      </trkpt>
      <trkpt lat="45.58909" lon="6.62735">
        <ele>2040.4000244141</ele>
        <time>2019-02-08T10:31:25.000Z</time>
      </trkpt>
      <trkpt lat="45.58909" lon="6.62735">
        <ele>2040.4000244141</ele>
        <time>2019-02-08T10:31:42.000Z</time>
      </trkpt>
      <trkpt lat="45.5891" lon="6.62735">
        <ele>2040.5999755859</ele>
        <time>2019-02-08T10:31:55.000Z</time>
      </trkpt>
      <trkpt lat="45.5891" lon="6.62735">
        <ele>2040.5999755859</ele>
        <time>2019-02-08T10:32:10.000Z</time>
      </trkpt>
      <trkpt lat="45.5891" lon="6.62735">
        <ele>2040.5999755859</ele>
        <time>2019-02-08T10:32:20.000Z</time>
      </trkpt>
      <trkpt lat="45.5891" lon="6.62734">
        <ele>2040.5999755859</ele>
        <time>2019-02-08T10:32:32.000Z</time>
      </trkpt>
      <trkpt lat="45.5891" lon="6.62734">
        <ele>2040.5999755859</ele>
        <time>2019-02-08T10:32:45.000Z</time>
      </trkpt>
      <trkpt lat="45.5891" lon="6.62734">
        <ele>2040.5999755859</ele>
        <time>2019-02-08T10:32:58.000Z</time>
      </trkpt>
      <trkpt lat="45.5891" lon="6.62734">
        <ele>2040.5999755859</ele>
        <time>2019-02-08T10:33:13.000Z</time>
      </trkpt>
      <trkpt lat="45.5891" lon="6.62734">
        <ele>2040.5999755859</ele>
        <time>2019-02-08T10:33:28.000Z</time>
      </trkpt>
      <trkpt lat="45.5891" lon="6.62734">
        <ele>2040.5999755859</ele>
        <time>2019-02-08T10:33:45.000Z</time>
      </trkpt>
      <trkpt lat="45.5891" lon="6.62734">
        <ele>2040.5999755859</ele>
        <time>2019-02-08T10:34:02.000Z</time>
      </trkpt>
      <trkpt lat="45.5891" lon="6.62734">
        <ele>2040.5999755859</ele>
        <time>2019-02-08T10:34:13.000Z</time>
      </trkpt>
      <trkpt lat="45.5891" lon="6.62734">
        <ele>2040.5999755859</ele>
        <time>2019-02-08T10:34:14.000Z</time>
      </trkpt>
      <trkpt lat="45.5891" lon="6.62734">
        <ele>2040.5999755859</ele>
        <time>2019-02-08T10:34:24.000Z</time>
      </trkpt>
      <trkpt lat="45.5891" lon="6.62734">
        <ele>2040.5999755859</ele>
        <time>2019-02-08T10:34:35.000Z</time>
      </trkpt>
      <trkpt lat="45.5891" lon="6.62734">
        <ele>2040.5999755859</ele>
        <time>2019-02-08T10:34:38.000Z</time>
      </trkpt>
      <trkpt lat="45.5891" lon="6.62734">
        <ele>2040.5999755859</ele>
        <time>2019-02-08T10:34:41.000Z</time>
      </trkpt>
      <trkpt lat="45.5891" lon="6.62734">
        <ele>2040.5999755859</ele>
        <time>2019-02-08T10:34:51.000Z</time>
      </trkpt>
      <trkpt lat="45.58909" lon="6.62734">
        <ele>2040.5999755859</ele>
        <time>2019-02-08T10:35:05.000Z</time>
      </trkpt>
      <trkpt lat="45.58909" lon="6.62734">
        <ele>2040.5999755859</ele>
        <time>2019-02-08T10:35:18.000Z</time>
      </trkpt>
      <trkpt lat="45.58909" lon="6.62734">
        <ele>2040.5999755859</ele>
        <time>2019-02-08T10:35:32.000Z</time>
      </trkpt>
      <trkpt lat="45.5891" lon="6.62734">
        <ele>2040.5999755859</ele>
        <time>2019-02-08T10:35:44.000Z</time>
      </trkpt>
      <trkpt lat="45.5891" lon="6.62734">
        <ele>2040.5999755859</ele>
        <time>2019-02-08T10:35:47.000Z</time>
      </trkpt>
      <trkpt lat="45.5891" lon="6.62734">
        <ele>2040.5999755859</ele>
        <time>2019-02-08T10:35:55.000Z</time>
      </trkpt>
      <trkpt lat="45.5891" lon="6.62734">
        <ele>2040.5999755859</ele>
        <time>2019-02-08T10:36:08.000Z</time>
      </trkpt>
      <trkpt lat="45.5891" lon="6.62734">
        <ele>2040.5999755859</ele>
        <time>2019-02-08T10:36:09.000Z</time>
      </trkpt>
      <trkpt lat="45.5891" lon="6.62734">
        <ele>2040.5999755859</ele>
        <time>2019-02-08T10:36:24.000Z</time>
      </trkpt>
      <trkpt lat="45.5891" lon="6.62734">
        <ele>2040.5999755859</ele>
        <time>2019-02-08T10:36:27.000Z</time>
      </trkpt>
      <trkpt lat="45.5891" lon="6.62734">
        <ele>2040.5999755859</ele>
        <time>2019-02-08T10:36:35.000Z</time>
      </trkpt>
      <trkpt lat="45.5891" lon="6.62734">
        <ele>2040.5999755859</ele>
        <time>2019-02-08T10:36:47.000Z</time>
      </trkpt>
      <trkpt lat="45.5891" lon="6.62734">
        <ele>2040.5999755859</ele>
        <time>2019-02-08T10:36:59.000Z</time>
      </trkpt>
      <trkpt lat="45.5891" lon="6.62734">
        <ele>2040.5999755859</ele>
        <time>2019-02-08T10:37:12.000Z</time>
      </trkpt>
      <trkpt lat="45.5891" lon="6.62734">
        <ele>2040.5999755859</ele>
        <time>2019-02-08T10:37:22.000Z</time>
      </trkpt>
      <trkpt lat="45.5891" lon="6.62734">
        <ele>2040.5999755859</ele>
        <time>2019-02-08T10:37:23.000Z</time>
      </trkpt>
      <trkpt lat="45.5891" lon="6.62734">
        <ele>2040.5999755859</ele>
        <time>2019-02-08T10:37:35.000Z</time>
      </trkpt>
      <trkpt lat="45.58908" lon="6.62734">
        <ele>2040.8000488281</ele>
        <time>2019-02-08T10:37:49.000Z</time>
      </trkpt>
      <trkpt lat="45.58908" lon="6.62734">
        <ele>2040.8000488281</ele>
        <time>2019-02-08T10:37:52.000Z</time>
      </trkpt>
      <trkpt lat="45.58908" lon="6.62734">
        <ele>2040.8000488281</ele>
        <time>2019-02-08T10:38:03.000Z</time>
      </trkpt>
      <trkpt lat="45.58908" lon="6.62734">
        <ele>2040.8000488281</ele>
        <time>2019-02-08T10:38:15.000Z</time>
      </trkpt>
      <trkpt lat="45.58909" lon="6.62734">
        <ele>2040.8000488281</ele>
        <time>2019-02-08T10:38:32.000Z</time>
      </trkpt>
      <trkpt lat="45.58909" lon="6.62734">
        <ele>2040.8000488281</ele>
        <time>2019-02-08T10:38:43.000Z</time>
      </trkpt>
      <trkpt lat="45.58909" lon="6.62734">
        <ele>2040.8000488281</ele>
        <time>2019-02-08T10:38:57.000Z</time>
      </trkpt>
      <trkpt lat="45.58909" lon="6.62734">
        <ele>2040.8000488281</ele>
        <time>2019-02-08T10:39:03.000Z</time>
      </trkpt>
      <trkpt lat="45.58909" lon="6.62734">
        <ele>2040.5999755859</ele>
        <time>2019-02-08T10:39:15.000Z</time>
      </trkpt>
      <trkpt lat="45.58909" lon="6.62734">
        <ele>2040.5999755859</ele>
        <time>2019-02-08T10:39:24.000Z</time>
      </trkpt>
      <trkpt lat="45.58909" lon="6.62735">
        <ele>2040.5999755859</ele>
        <time>2019-02-08T10:39:32.000Z</time>
      </trkpt>
      <trkpt lat="45.58908" lon="6.62728">
        <ele>2041.5999755859</ele>
        <time>2019-02-08T10:39:39.000Z</time>
      </trkpt>
      <trkpt lat="45.58908" lon="6.62728">
        <ele>2041.5999755859</ele>
        <time>2019-02-08T10:39:42.000Z</time>
      </trkpt>
      <trkpt lat="45.58906" lon="6.62723">
        <ele>2042.4000244141</ele>
        <time>2019-02-08T10:39:47.000Z</time>
      </trkpt>
      <trkpt lat="45.58906" lon="6.62722">
        <ele>2042.5999755859</ele>
        <time>2019-02-08T10:39:49.000Z</time>
      </trkpt>
      <trkpt lat="45.58906" lon="6.62722">
        <ele>2042.5999755859</ele>
        <time>2019-02-08T10:39:57.000Z</time>
      </trkpt>
      <trkpt lat="45.58905" lon="6.62716">
        <ele>2043.4000244141</ele>
        <time>2019-02-08T10:40:03.000Z</time>
      </trkpt>
      <trkpt lat="45.58905" lon="6.62709">
        <ele>2044.1999511719</ele>
        <time>2019-02-08T10:40:08.000Z</time>
      </trkpt>
      <trkpt lat="45.58905" lon="6.62706">
        <ele>2044.5999755859</ele>
        <time>2019-02-08T10:40:10.000Z</time>
      </trkpt>
      <trkpt lat="45.58904" lon="6.62701">
        <ele>2045.1999511719</ele>
        <time>2019-02-08T10:40:15.000Z</time>
      </trkpt>
      <trkpt lat="45.58905" lon="6.62701">
        <ele>2045.4000244141</ele>
        <time>2019-02-08T10:40:16.000Z</time>
      </trkpt>
      <trkpt lat="45.58905" lon="6.62701">
        <ele>2045.4000244141</ele>
        <time>2019-02-08T10:40:21.000Z</time>
      </trkpt>
      <trkpt lat="45.58905" lon="6.62701">
        <ele>2045.4000244141</ele>
        <time>2019-02-08T10:40:22.000Z</time>
      </trkpt>
      <trkpt lat="45.58903" lon="6.62698">
        <ele>2046</ele>
        <time>2019-02-08T10:40:38.000Z</time>
      </trkpt>
      <trkpt lat="45.58901" lon="6.62692">
        <ele>2047</ele>
        <time>2019-02-08T10:40:46.000Z</time>
      </trkpt>
      <trkpt lat="45.589" lon="6.62689">
        <ele>2047.4000244141</ele>
        <time>2019-02-08T10:40:47.000Z</time>
      </trkpt>
      <trkpt lat="45.58899" lon="6.62684">
        <ele>2048.1999511719</ele>
        <time>2019-02-08T10:40:52.000Z</time>
      </trkpt>
      <trkpt lat="45.58898" lon="6.62679">
        <ele>2048.8000488281</ele>
        <time>2019-02-08T10:40:57.000Z</time>
      </trkpt>
      <trkpt lat="45.58897" lon="6.62679">
        <ele>2049</ele>
        <time>2019-02-08T10:40:59.000Z</time>
      </trkpt>
      <trkpt lat="45.58896" lon="6.62677">
        <ele>2049.3999023438</ele>
        <time>2019-02-08T10:41:02.000Z</time>
      </trkpt>
      <trkpt lat="45.58894" lon="6.62679">
        <ele>2049.3999023438</ele>
        <time>2019-02-08T10:41:05.000Z</time>
      </trkpt>
      <trkpt lat="45.58893" lon="6.6268">
        <ele>2049.3999023438</ele>
        <time>2019-02-08T10:41:07.000Z</time>
      </trkpt>
      <trkpt lat="45.58892" lon="6.62681">
        <ele>2049.6000976562</ele>
        <time>2019-02-08T10:41:08.000Z</time>
      </trkpt>
      <trkpt lat="45.5889" lon="6.6268">
        <ele>2049.8000488281</ele>
        <time>2019-02-08T10:41:11.000Z</time>
      </trkpt>
      <trkpt lat="45.58888" lon="6.62678">
        <ele>2050.3999023438</ele>
        <time>2019-02-08T10:41:15.000Z</time>
      </trkpt>
      <trkpt lat="45.58887" lon="6.62678">
        <ele>2050.6000976562</ele>
        <time>2019-02-08T10:41:16.000Z</time>
      </trkpt>
      <trkpt lat="45.58887" lon="6.62674">
        <ele>2051.1999511719</ele>
        <time>2019-02-08T10:41:20.000Z</time>
      </trkpt>
      <trkpt lat="45.58887" lon="6.62672">
        <ele>2051.1999511719</ele>
        <time>2019-02-08T10:41:21.000Z</time>
      </trkpt>
      <trkpt lat="45.58886" lon="6.62668">
        <ele>2052</ele>
        <time>2019-02-08T10:41:26.000Z</time>
      </trkpt>
      <trkpt lat="45.58885" lon="6.62666">
        <ele>2052.1999511719</ele>
        <time>2019-02-08T10:41:28.000Z</time>
      </trkpt>
      <trkpt lat="45.58884" lon="6.62662">
        <ele>2053</ele>
        <time>2019-02-08T10:41:32.000Z</time>
      </trkpt>
      <trkpt lat="45.58884" lon="6.62655">
        <ele>2053.8000488281</ele>
        <time>2019-02-08T10:41:40.000Z</time>
      </trkpt>
      <trkpt lat="45.58885" lon="6.62652">
        <ele>2054.1999511719</ele>
        <time>2019-02-08T10:41:44.000Z</time>
      </trkpt>
      <trkpt lat="45.58886" lon="6.62648">
        <ele>2055</ele>
        <time>2019-02-08T10:41:48.000Z</time>
      </trkpt>
      <trkpt lat="45.58888" lon="6.62643">
        <ele>2056</ele>
        <time>2019-02-08T10:41:51.000Z</time>
      </trkpt>
      <trkpt lat="45.58887" lon="6.62643">
        <ele>2056.1999511719</ele>
        <time>2019-02-08T10:41:54.000Z</time>
      </trkpt>
      <trkpt lat="45.58887" lon="6.62643">
        <ele>2056.1999511719</ele>
        <time>2019-02-08T10:41:55.000Z</time>
      </trkpt>
      <trkpt lat="45.58887" lon="6.62641">
        <ele>2056.6000976562</ele>
        <time>2019-02-08T10:42:00.000Z</time>
      </trkpt>
      <trkpt lat="45.58885" lon="6.62638">
        <ele>2057.3999023438</ele>
        <time>2019-02-08T10:42:07.000Z</time>
      </trkpt>
      <trkpt lat="45.58884" lon="6.62635">
        <ele>2058.1999511719</ele>
        <time>2019-02-08T10:42:11.000Z</time>
      </trkpt>
      <trkpt lat="45.58883" lon="6.62633">
        <ele>2059</ele>
        <time>2019-02-08T10:42:13.000Z</time>
      </trkpt>
      <trkpt lat="45.58883" lon="6.62632">
        <ele>2059.1999511719</ele>
        <time>2019-02-08T10:42:14.000Z</time>
      </trkpt>
      <trkpt lat="45.58882" lon="6.62628">
        <ele>2060.6000976562</ele>
        <time>2019-02-08T10:42:18.000Z</time>
      </trkpt>
      <trkpt lat="45.58882" lon="6.62627">
        <ele>2060.8000488281</ele>
        <time>2019-02-08T10:42:19.000Z</time>
      </trkpt>
      <trkpt lat="45.58881" lon="6.62624">
        <ele>2061.8000488281</ele>
        <time>2019-02-08T10:42:23.000Z</time>
      </trkpt>
      <trkpt lat="45.58881" lon="6.62623">
        <ele>2062</ele>
        <time>2019-02-08T10:42:25.000Z</time>
      </trkpt>
      <trkpt lat="45.58878" lon="6.62616">
        <ele>2064.3999023438</ele>
        <time>2019-02-08T10:42:31.000Z</time>
      </trkpt>
      <trkpt lat="45.58878" lon="6.62615">
        <ele>2064.8000488281</ele>
        <time>2019-02-08T10:42:32.000Z</time>
      </trkpt>
      <trkpt lat="45.58878" lon="6.62613">
        <ele>2065.3999023438</ele>
        <time>2019-02-08T10:42:37.000Z</time>
      </trkpt>
      <trkpt lat="45.58876" lon="6.62609">
        <ele>2066.8000488281</ele>
        <time>2019-02-08T10:42:40.000Z</time>
      </trkpt>
      <trkpt lat="45.58876" lon="6.62608">
        <ele>2067.1999511719</ele>
        <time>2019-02-08T10:42:42.000Z</time>
      </trkpt>
      <trkpt lat="45.58875" lon="6.62609">
        <ele>2067.1999511719</ele>
        <time>2019-02-08T10:42:49.000Z</time>
      </trkpt>
      <trkpt lat="45.58873" lon="6.62611">
        <ele>2067.3999023438</ele>
        <time>2019-02-08T10:42:54.000Z</time>
      </trkpt>
      <trkpt lat="45.5887" lon="6.62611">
        <ele>2068.1999511719</ele>
        <time>2019-02-08T10:42:59.000Z</time>
      </trkpt>
      <trkpt lat="45.58866" lon="6.62611">
        <ele>2069.3999023438</ele>
        <time>2019-02-08T10:43:06.000Z</time>
      </trkpt>
      <trkpt lat="45.58865" lon="6.62611">
        <ele>2069.6000976562</ele>
        <time>2019-02-08T10:43:07.000Z</time>
      </trkpt>
      <trkpt lat="45.58861" lon="6.6261">
        <ele>2070.8000488281</ele>
        <time>2019-02-08T10:43:12.000Z</time>
      </trkpt>
      <trkpt lat="45.58858" lon="6.6261">
        <ele>2071.8000488281</ele>
        <time>2019-02-08T10:43:17.000Z</time>
      </trkpt>
      <trkpt lat="45.58856" lon="6.62609">
        <ele>2072.8000488281</ele>
        <time>2019-02-08T10:43:19.000Z</time>
      </trkpt>
      <trkpt lat="45.58852" lon="6.62608">
        <ele>2074.1999511719</ele>
        <time>2019-02-08T10:43:24.000Z</time>
      </trkpt>
      <trkpt lat="45.58851" lon="6.62607">
        <ele>2074.6000976562</ele>
        <time>2019-02-08T10:43:26.000Z</time>
      </trkpt>
      <trkpt lat="45.58848" lon="6.62607">
        <ele>2075.3999023438</ele>
        <time>2019-02-08T10:43:30.000Z</time>
      </trkpt>
      <trkpt lat="45.58848" lon="6.62606">
        <ele>2075.6000976562</ele>
        <time>2019-02-08T10:43:32.000Z</time>
      </trkpt>
      <trkpt lat="45.58848" lon="6.62606">
        <ele>2075.6000976562</ele>
        <time>2019-02-08T10:43:38.000Z</time>
      </trkpt>
      <trkpt lat="45.58849" lon="6.62607">
        <ele>2075.3999023438</ele>
        <time>2019-02-08T10:43:39.000Z</time>
      </trkpt>
      <trkpt lat="45.58851" lon="6.62605">
        <ele>2075</ele>
        <time>2019-02-08T10:43:43.000Z</time>
      </trkpt>
      <trkpt lat="45.58852" lon="6.62605">
        <ele>2075</ele>
        <time>2019-02-08T10:43:44.000Z</time>
      </trkpt>
      <trkpt lat="45.58856" lon="6.626">
        <ele>2075</ele>
        <time>2019-02-08T10:43:51.000Z</time>
      </trkpt>
      <trkpt lat="45.58856" lon="6.62599">
        <ele>2075</ele>
        <time>2019-02-08T10:43:53.000Z</time>
      </trkpt>
      <trkpt lat="45.58857" lon="6.62595">
        <ele>2075.6000976562</ele>
        <time>2019-02-08T10:43:57.000Z</time>
      </trkpt>
      <trkpt lat="45.58858" lon="6.62594">
        <ele>2075.8000488281</ele>
        <time>2019-02-08T10:43:58.000Z</time>
      </trkpt>
      <trkpt lat="45.58859" lon="6.6259">
        <ele>2076.1999511719</ele>
        <time>2019-02-08T10:44:03.000Z</time>
      </trkpt>
      <trkpt lat="45.5886" lon="6.62589">
        <ele>2076.3999023438</ele>
        <time>2019-02-08T10:44:04.000Z</time>
      </trkpt>
      <trkpt lat="45.5886" lon="6.62585">
        <ele>2077.1999511719</ele>
        <time>2019-02-08T10:44:09.000Z</time>
      </trkpt>
      <trkpt lat="45.58862" lon="6.6258">
        <ele>2077.8000488281</ele>
        <time>2019-02-08T10:44:13.000Z</time>
      </trkpt>
      <trkpt lat="45.58862" lon="6.62579">
        <ele>2078.1999511719</ele>
        <time>2019-02-08T10:44:14.000Z</time>
      </trkpt>
      <trkpt lat="45.58862" lon="6.62573">
        <ele>2079.8000488281</ele>
        <time>2019-02-08T10:44:19.000Z</time>
      </trkpt>
      <trkpt lat="45.58862" lon="6.62572">
        <ele>2079.8000488281</ele>
        <time>2019-02-08T10:44:20.000Z</time>
      </trkpt>
      <trkpt lat="45.58862" lon="6.62569">
        <ele>2080.6000976562</ele>
        <time>2019-02-08T10:44:24.000Z</time>
      </trkpt>
      <trkpt lat="45.58862" lon="6.62567">
        <ele>2081</ele>
        <time>2019-02-08T10:44:26.000Z</time>
      </trkpt>
      <trkpt lat="45.58861" lon="6.6256">
        <ele>2083.8000488281</ele>
        <time>2019-02-08T10:44:32.000Z</time>
      </trkpt>
      <trkpt lat="45.58862" lon="6.62556">
        <ele>2085</ele>
        <time>2019-02-08T10:44:38.000Z</time>
      </trkpt>
      <trkpt lat="45.58861" lon="6.62554">
        <ele>2085.6000976562</ele>
        <time>2019-02-08T10:44:41.000Z</time>
      </trkpt>
      <trkpt lat="45.58862" lon="6.62551">
        <ele>2086.1999511719</ele>
        <time>2019-02-08T10:44:45.000Z</time>
      </trkpt>
      <trkpt lat="45.58862" lon="6.6255">
        <ele>2086.8000488281</ele>
        <time>2019-02-08T10:44:46.000Z</time>
      </trkpt>
      <trkpt lat="45.58864" lon="6.62546">
        <ele>2087.3999023438</ele>
        <time>2019-02-08T10:44:50.000Z</time>
      </trkpt>
      <trkpt lat="45.58865" lon="6.62543">
        <ele>2088</ele>
        <time>2019-02-08T10:44:54.000Z</time>
      </trkpt>
      <trkpt lat="45.58866" lon="6.62541">
        <ele>2088.1999511719</ele>
        <time>2019-02-08T10:44:59.000Z</time>
      </trkpt>
      <trkpt lat="45.58866" lon="6.62541">
        <ele>2088.3999023438</ele>
        <time>2019-02-08T10:45:08.000Z</time>
      </trkpt>
      <trkpt lat="45.58866" lon="6.62541">
        <ele>2088.3999023438</ele>
        <time>2019-02-08T10:45:10.000Z</time>
      </trkpt>
      <trkpt lat="45.58866" lon="6.62542">
        <ele>2088</ele>
        <time>2019-02-08T10:45:15.000Z</time>
      </trkpt>
      <trkpt lat="45.58864" lon="6.62542">
        <ele>2088.6000976562</ele>
        <time>2019-02-08T10:45:20.000Z</time>
      </trkpt>
      <trkpt lat="45.58863" lon="6.62542">
        <ele>2088.8000488281</ele>
        <time>2019-02-08T10:45:24.000Z</time>
      </trkpt>
      <trkpt lat="45.58863" lon="6.62542">
        <ele>2088.8000488281</ele>
        <time>2019-02-08T10:45:25.000Z</time>
      </trkpt>
      <trkpt lat="45.58859" lon="6.62546">
        <ele>2088.6000976562</ele>
        <time>2019-02-08T10:45:32.000Z</time>
      </trkpt>
      <trkpt lat="45.58857" lon="6.62549">
        <ele>2088.3999023438</ele>
        <time>2019-02-08T10:45:36.000Z</time>
      </trkpt>
      <trkpt lat="45.58854" lon="6.62551">
        <ele>2088.8000488281</ele>
        <time>2019-02-08T10:45:43.000Z</time>
      </trkpt>
      <trkpt lat="45.58851" lon="6.62553">
        <ele>2089</ele>
        <time>2019-02-08T10:45:48.000Z</time>
      </trkpt>
      <trkpt lat="45.58849" lon="6.62552">
        <ele>2089.6000976562</ele>
        <time>2019-02-08T10:45:50.000Z</time>
      </trkpt>
      <trkpt lat="45.58848" lon="6.62552">
        <ele>2090.1999511719</ele>
        <time>2019-02-08T10:45:53.000Z</time>
      </trkpt>
      <trkpt lat="45.58844" lon="6.6255">
        <ele>2091.8000488281</ele>
        <time>2019-02-08T10:45:56.000Z</time>
      </trkpt>
      <trkpt lat="45.58841" lon="6.6255">
        <ele>2092.6000976562</ele>
        <time>2019-02-08T10:46:00.000Z</time>
      </trkpt>
      <trkpt lat="45.5884" lon="6.62551">
        <ele>2092.8000488281</ele>
        <time>2019-02-08T10:46:03.000Z</time>
      </trkpt>
      <trkpt lat="45.58839" lon="6.62552">
        <ele>2092.8000488281</ele>
        <time>2019-02-08T10:46:05.000Z</time>
      </trkpt>
      <trkpt lat="45.58836" lon="6.62553">
        <ele>2093.1999511719</ele>
        <time>2019-02-08T10:46:09.000Z</time>
      </trkpt>
      <trkpt lat="45.58835" lon="6.62555">
        <ele>2092.8000488281</ele>
        <time>2019-02-08T10:46:15.000Z</time>
      </trkpt>
      <trkpt lat="45.58835" lon="6.62551">
        <ele>2094</ele>
        <time>2019-02-08T10:46:18.000Z</time>
      </trkpt>
      <trkpt lat="45.58837" lon="6.62548">
        <ele>2094.6000976562</ele>
        <time>2019-02-08T10:46:21.000Z</time>
      </trkpt>
      <trkpt lat="45.58838" lon="6.62544">
        <ele>2095.3999023438</ele>
        <time>2019-02-08T10:46:25.000Z</time>
      </trkpt>
      <trkpt lat="45.5884" lon="6.62539">
        <ele>2096.6000976562</ele>
        <time>2019-02-08T10:46:30.000Z</time>
      </trkpt>
      <trkpt lat="45.58841" lon="6.62538">
        <ele>2096.8000488281</ele>
        <time>2019-02-08T10:46:31.000Z</time>
      </trkpt>
      <trkpt lat="45.58842" lon="6.62534">
        <ele>2097.3999023438</ele>
        <time>2019-02-08T10:46:36.000Z</time>
      </trkpt>
      <trkpt lat="45.58844" lon="6.62532">
        <ele>2097.8000488281</ele>
        <time>2019-02-08T10:46:38.000Z</time>
      </trkpt>
      <trkpt lat="45.58845" lon="6.62529">
        <ele>2098.1999511719</ele>
        <time>2019-02-08T10:46:42.000Z</time>
      </trkpt>
      <trkpt lat="45.58846" lon="6.62527">
        <ele>2098.8000488281</ele>
        <time>2019-02-08T10:46:43.000Z</time>
      </trkpt>
      <trkpt lat="45.58849" lon="6.62523">
        <ele>2099.3999023438</ele>
        <time>2019-02-08T10:46:48.000Z</time>
      </trkpt>
      <trkpt lat="45.5885" lon="6.62519">
        <ele>2100.1999511719</ele>
        <time>2019-02-08T10:46:52.000Z</time>
      </trkpt>
      <trkpt lat="45.58851" lon="6.62518">
        <ele>2100.3999023438</ele>
        <time>2019-02-08T10:46:53.000Z</time>
      </trkpt>
      <trkpt lat="45.58853" lon="6.62515">
        <ele>2100.8000488281</ele>
        <time>2019-02-08T10:46:57.000Z</time>
      </trkpt>
      <trkpt lat="45.58853" lon="6.62513">
        <ele>2101.1999511719</ele>
        <time>2019-02-08T10:47:02.000Z</time>
      </trkpt>
      <trkpt lat="45.58857" lon="6.62511">
        <ele>2101</ele>
        <time>2019-02-08T10:47:08.000Z</time>
      </trkpt>
      <trkpt lat="45.58858" lon="6.6251">
        <ele>2101</ele>
        <time>2019-02-08T10:47:10.000Z</time>
      </trkpt>
      <trkpt lat="45.5886" lon="6.62509">
        <ele>2100.6000976562</ele>
        <time>2019-02-08T10:47:14.000Z</time>
      </trkpt>
      <trkpt lat="45.58862" lon="6.62508">
        <ele>2100.1999511719</ele>
        <time>2019-02-08T10:47:18.000Z</time>
      </trkpt>
      <trkpt lat="45.58865" lon="6.62507">
        <ele>2099.6000976562</ele>
        <time>2019-02-08T10:47:23.000Z</time>
      </trkpt>
      <trkpt lat="45.58865" lon="6.62508">
        <ele>2099.1999511719</ele>
        <time>2019-02-08T10:47:30.000Z</time>
      </trkpt>
      <trkpt lat="45.58866" lon="6.62508">
        <ele>2099.1999511719</ele>
        <time>2019-02-08T10:47:40.000Z</time>
      </trkpt>
      <trkpt lat="45.58866" lon="6.62508">
        <ele>2099.1999511719</ele>
        <time>2019-02-08T10:47:52.000Z</time>
      </trkpt>
      <trkpt lat="45.58866" lon="6.62508">
        <ele>2099.1999511719</ele>
        <time>2019-02-08T10:48:07.000Z</time>
      </trkpt>
      <trkpt lat="45.58866" lon="6.62508">
        <ele>2099.1999511719</ele>
        <time>2019-02-08T10:48:08.000Z</time>
      </trkpt>
      <trkpt lat="45.58861" lon="6.62505">
        <ele>2101.6000976562</ele>
        <time>2019-02-08T10:48:15.000Z</time>
      </trkpt>
      <trkpt lat="45.58857" lon="6.62503">
        <ele>2103.3999023438</ele>
        <time>2019-02-08T10:48:20.000Z</time>
      </trkpt>
      <trkpt lat="45.58851" lon="6.62503">
        <ele>2105</ele>
        <time>2019-02-08T10:48:27.000Z</time>
      </trkpt>
      <trkpt lat="45.58848" lon="6.62503">
        <ele>2106</ele>
        <time>2019-02-08T10:48:31.000Z</time>
      </trkpt>
      <trkpt lat="45.58846" lon="6.62503">
        <ele>2106.6000976562</ele>
        <time>2019-02-08T10:48:33.000Z</time>
      </trkpt>
      <trkpt lat="45.58842" lon="6.62503">
        <ele>2107.6000976562</ele>
        <time>2019-02-08T10:48:38.000Z</time>
      </trkpt>
      <trkpt lat="45.58842" lon="6.62503">
        <ele>2107.6000976562</ele>
        <time>2019-02-08T10:48:39.000Z</time>
      </trkpt>
      <trkpt lat="45.58838" lon="6.62503">
        <ele>2108.8000488281</ele>
        <time>2019-02-08T10:48:44.000Z</time>
      </trkpt>
      <trkpt lat="45.58837" lon="6.62503">
        <ele>2109.3999023438</ele>
        <time>2019-02-08T10:48:46.000Z</time>
      </trkpt>
      <trkpt lat="45.58837" lon="6.62503">
        <ele>2109.1999511719</ele>
        <time>2019-02-08T10:48:50.000Z</time>
      </trkpt>
      <trkpt lat="45.58835" lon="6.62503">
        <ele>2109.8000488281</ele>
        <time>2019-02-08T10:48:52.000Z</time>
      </trkpt>
      <trkpt lat="45.58835" lon="6.62503">
        <ele>2109.6000976562</ele>
        <time>2019-02-08T10:48:53.000Z</time>
      </trkpt>
      <trkpt lat="45.58831" lon="6.62503">
        <ele>2110.8000488281</ele>
        <time>2019-02-08T10:48:58.000Z</time>
      </trkpt>
      <trkpt lat="45.58827" lon="6.62503">
        <ele>2112.1999511719</ele>
        <time>2019-02-08T10:49:02.000Z</time>
      </trkpt>
      <trkpt lat="45.58825" lon="6.62502">
        <ele>2112.8000488281</ele>
        <time>2019-02-08T10:49:04.000Z</time>
      </trkpt>
      <trkpt lat="45.58822" lon="6.62502">
        <ele>2114</ele>
        <time>2019-02-08T10:49:09.000Z</time>
      </trkpt>
      <trkpt lat="45.58821" lon="6.62502">
        <ele>2114.1999511719</ele>
        <time>2019-02-08T10:49:12.000Z</time>
      </trkpt>
      <trkpt lat="45.58821" lon="6.62502">
        <ele>2114.1999511719</ele>
        <time>2019-02-08T10:49:15.000Z</time>
      </trkpt>
      <trkpt lat="45.5882" lon="6.62502">
        <ele>2114.3999023438</ele>
        <time>2019-02-08T10:49:18.000Z</time>
      </trkpt>
      <trkpt lat="45.58819" lon="6.625">
        <ele>2115.3999023438</ele>
        <time>2019-02-08T10:49:21.000Z</time>
      </trkpt>
      <trkpt lat="45.58814" lon="6.62501">
        <ele>2116.1999511719</ele>
        <time>2019-02-08T10:49:28.000Z</time>
      </trkpt>
      <trkpt lat="45.58813" lon="6.62501">
        <ele>2116.6000976562</ele>
        <time>2019-02-08T10:49:31.000Z</time>
      </trkpt>
      <trkpt lat="45.58811" lon="6.62501">
        <ele>2117.3999023438</ele>
        <time>2019-02-08T10:49:35.000Z</time>
      </trkpt>
      <trkpt lat="45.58806" lon="6.62499">
        <ele>2119.1999511719</ele>
        <time>2019-02-08T10:49:40.000Z</time>
      </trkpt>
      <trkpt lat="45.58805" lon="6.625">
        <ele>2119.6000976562</ele>
        <time>2019-02-08T10:49:43.000Z</time>
      </trkpt>
      <trkpt lat="45.58803" lon="6.625">
        <ele>2120</ele>
        <time>2019-02-08T10:49:46.000Z</time>
      </trkpt>
      <trkpt lat="45.58799" lon="6.62501">
        <ele>2120.6000976562</ele>
        <time>2019-02-08T10:49:52.000Z</time>
      </trkpt>
      <trkpt lat="45.58799" lon="6.62501">
        <ele>2120.6000976562</ele>
        <time>2019-02-08T10:49:54.000Z</time>
      </trkpt>
      <trkpt lat="45.58798" lon="6.62501">
        <ele>2120.6000976562</ele>
        <time>2019-02-08T10:49:59.000Z</time>
      </trkpt>
      <trkpt lat="45.58798" lon="6.625">
        <ele>2121</ele>
        <time>2019-02-08T10:50:05.000Z</time>
      </trkpt>
      <trkpt lat="45.58798" lon="6.625">
        <ele>2121</ele>
        <time>2019-02-08T10:50:06.000Z</time>
      </trkpt>
      <trkpt lat="45.58802" lon="6.62496">
        <ele>2121.8000488281</ele>
        <time>2019-02-08T10:50:11.000Z</time>
      </trkpt>
      <trkpt lat="45.58803" lon="6.62494">
        <ele>2122</ele>
        <time>2019-02-08T10:50:15.000Z</time>
      </trkpt>
      <trkpt lat="45.58803" lon="6.62494">
        <ele>2122</ele>
        <time>2019-02-08T10:50:18.000Z</time>
      </trkpt>
      <trkpt lat="45.58805" lon="6.6249">
        <ele>2122.3999023438</ele>
        <time>2019-02-08T10:50:24.000Z</time>
      </trkpt>
      <trkpt lat="45.58806" lon="6.62488">
        <ele>2122.6000976562</ele>
        <time>2019-02-08T10:50:27.000Z</time>
      </trkpt>
      <trkpt lat="45.58808" lon="6.62486">
        <ele>2123</ele>
        <time>2019-02-08T10:50:29.000Z</time>
      </trkpt>
      <trkpt lat="45.58812" lon="6.62483">
        <ele>2123</ele>
        <time>2019-02-08T10:50:34.000Z</time>
      </trkpt>
      <trkpt lat="45.58813" lon="6.62482">
        <ele>2122.8000488281</ele>
        <time>2019-02-08T10:50:36.000Z</time>
      </trkpt>
      <trkpt lat="45.58814" lon="6.62481">
        <ele>2123</ele>
        <time>2019-02-08T10:50:40.000Z</time>
      </trkpt>
      <trkpt lat="45.58815" lon="6.6248">
        <ele>2123.3999023438</ele>
        <time>2019-02-08T10:50:42.000Z</time>
      </trkpt>
      <trkpt lat="45.58818" lon="6.62478">
        <ele>2123.1999511719</ele>
        <time>2019-02-08T10:50:45.000Z</time>
      </trkpt>
      <trkpt lat="45.5882" lon="6.62476">
        <ele>2123.3999023438</ele>
        <time>2019-02-08T10:50:47.000Z</time>
      </trkpt>
      <trkpt lat="45.5882" lon="6.62476">
        <ele>2123.3999023438</ele>
        <time>2019-02-08T10:50:48.000Z</time>
      </trkpt>
      <trkpt lat="45.58821" lon="6.62475">
        <ele>2123.6000976562</ele>
        <time>2019-02-08T10:50:50.000Z</time>
      </trkpt>
      <trkpt lat="45.58825" lon="6.62471">
        <ele>2123.8000488281</ele>
        <time>2019-02-08T10:50:55.000Z</time>
      </trkpt>
      <trkpt lat="45.58826" lon="6.62469">
        <ele>2124.1999511719</ele>
        <time>2019-02-08T10:50:56.000Z</time>
      </trkpt>
      <trkpt lat="45.58828" lon="6.62467">
        <ele>2124.6000976562</ele>
        <time>2019-02-08T10:51:03.000Z</time>
      </trkpt>
      <trkpt lat="45.58832" lon="6.62462">
        <ele>2125.3999023438</ele>
        <time>2019-02-08T10:51:11.000Z</time>
      </trkpt>
      <trkpt lat="45.58835" lon="6.62457">
        <ele>2126.3999023438</ele>
        <time>2019-02-08T10:51:18.000Z</time>
      </trkpt>
      <trkpt lat="45.58839" lon="6.62453">
        <ele>2127.3999023438</ele>
        <time>2019-02-08T10:51:24.000Z</time>
      </trkpt>
      <trkpt lat="45.5884" lon="6.62451">
        <ele>2127.8000488281</ele>
        <time>2019-02-08T10:51:27.000Z</time>
      </trkpt>
      <trkpt lat="45.5884" lon="6.6245">
        <ele>2128</ele>
        <time>2019-02-08T10:51:29.000Z</time>
      </trkpt>
      <trkpt lat="45.58841" lon="6.62448">
        <ele>2128.3999023438</ele>
        <time>2019-02-08T10:51:31.000Z</time>
      </trkpt>
      <trkpt lat="45.58842" lon="6.62447">
        <ele>2128.6000976562</ele>
        <time>2019-02-08T10:51:33.000Z</time>
      </trkpt>
      <trkpt lat="45.58843" lon="6.62445">
        <ele>2129.1999511719</ele>
        <time>2019-02-08T10:51:37.000Z</time>
      </trkpt>
      <trkpt lat="45.58845" lon="6.62441">
        <ele>2129.8000488281</ele>
        <time>2019-02-08T10:51:41.000Z</time>
      </trkpt>
      <trkpt lat="45.58849" lon="6.62437">
        <ele>2130</ele>
        <time>2019-02-08T10:51:47.000Z</time>
      </trkpt>
      <trkpt lat="45.58849" lon="6.62437">
        <ele>2129.8000488281</ele>
        <time>2019-02-08T10:51:48.000Z</time>
      </trkpt>
      <trkpt lat="45.58851" lon="6.62434">
        <ele>2130.1999511719</ele>
        <time>2019-02-08T10:51:53.000Z</time>
      </trkpt>
      <trkpt lat="45.58852" lon="6.62433">
        <ele>2130.3999023438</ele>
        <time>2019-02-08T10:51:55.000Z</time>
      </trkpt>
      <trkpt lat="45.58856" lon="6.62428">
        <ele>2130.8000488281</ele>
        <time>2019-02-08T10:52:00.000Z</time>
      </trkpt>
      <trkpt lat="45.58856" lon="6.62427">
        <ele>2131</ele>
        <time>2019-02-08T10:52:03.000Z</time>
      </trkpt>
      <trkpt lat="45.58857" lon="6.62426">
        <ele>2131</ele>
        <time>2019-02-08T10:52:07.000Z</time>
      </trkpt>
      <trkpt lat="45.58857" lon="6.62425">
        <ele>2131.3999023438</ele>
        <time>2019-02-08T10:52:16.000Z</time>
      </trkpt>
      <trkpt lat="45.5886" lon="6.62419">
        <ele>2132.3999023438</ele>
        <time>2019-02-08T10:52:22.000Z</time>
      </trkpt>
      <trkpt lat="45.58865" lon="6.62416">
        <ele>2131.8000488281</ele>
        <time>2019-02-08T10:52:28.000Z</time>
      </trkpt>
      <trkpt lat="45.58869" lon="6.62413">
        <ele>2131.3999023438</ele>
        <time>2019-02-08T10:52:33.000Z</time>
      </trkpt>
      <trkpt lat="45.58871" lon="6.62412">
        <ele>2131.1999511719</ele>
        <time>2019-02-08T10:52:35.000Z</time>
      </trkpt>
      <trkpt lat="45.58872" lon="6.62408">
        <ele>2132</ele>
        <time>2019-02-08T10:52:41.000Z</time>
      </trkpt>
      <trkpt lat="45.58873" lon="6.62407">
        <ele>2132.1999511719</ele>
        <time>2019-02-08T10:52:42.000Z</time>
      </trkpt>
      <trkpt lat="45.58874" lon="6.62405">
        <ele>2132.8000488281</ele>
        <time>2019-02-08T10:52:46.000Z</time>
      </trkpt>
      <trkpt lat="45.58875" lon="6.62402">
        <ele>2133.6000976562</ele>
        <time>2019-02-08T10:52:50.000Z</time>
      </trkpt>
      <trkpt lat="45.58875" lon="6.624">
        <ele>2134.1999511719</ele>
        <time>2019-02-08T10:52:52.000Z</time>
      </trkpt>
      <trkpt lat="45.58877" lon="6.62393">
        <ele>2136</ele>
        <time>2019-02-08T10:52:58.000Z</time>
      </trkpt>
      <trkpt lat="45.58878" lon="6.62393">
        <ele>2136</ele>
        <time>2019-02-08T10:52:59.000Z</time>
      </trkpt>
      <trkpt lat="45.58881" lon="6.62388">
        <ele>2136.3999023438</ele>
        <time>2019-02-08T10:53:04.000Z</time>
      </trkpt>
      <trkpt lat="45.58881" lon="6.62386">
        <ele>2136.8000488281</ele>
        <time>2019-02-08T10:53:06.000Z</time>
      </trkpt>
      <trkpt lat="45.58883" lon="6.62384">
        <ele>2136.6000976562</ele>
        <time>2019-02-08T10:53:12.000Z</time>
      </trkpt>
      <trkpt lat="45.58885" lon="6.62381">
        <ele>2137.1999511719</ele>
        <time>2019-02-08T10:53:14.000Z</time>
      </trkpt>
      <trkpt lat="45.58886" lon="6.62378">
        <ele>2137.6000976562</ele>
        <time>2019-02-08T10:53:18.000Z</time>
      </trkpt>
      <trkpt lat="45.58886" lon="6.62378">
        <ele>2137.8000488281</ele>
        <time>2019-02-08T10:53:20.000Z</time>
      </trkpt>
      <trkpt lat="45.58886" lon="6.62377">
        <ele>2138</ele>
        <time>2019-02-08T10:53:25.000Z</time>
      </trkpt>
      <trkpt lat="45.58889" lon="6.62369">
        <ele>2139.6000976562</ele>
        <time>2019-02-08T10:53:31.000Z</time>
      </trkpt>
      <trkpt lat="45.5889" lon="6.62368">
        <ele>2139.6000976562</ele>
        <time>2019-02-08T10:53:33.000Z</time>
      </trkpt>
      <trkpt lat="45.58892" lon="6.62367">
        <ele>2139.6000976562</ele>
        <time>2019-02-08T10:53:36.000Z</time>
      </trkpt>
      <trkpt lat="45.58894" lon="6.62361">
        <ele>2140.8000488281</ele>
        <time>2019-02-08T10:53:41.000Z</time>
      </trkpt>
      <trkpt lat="45.58895" lon="6.6236">
        <ele>2141.1999511719</ele>
        <time>2019-02-08T10:53:42.000Z</time>
      </trkpt>
      <trkpt lat="45.58896" lon="6.62356">
        <ele>2141.8000488281</ele>
        <time>2019-02-08T10:53:49.000Z</time>
      </trkpt>
      <trkpt lat="45.58896" lon="6.62356">
        <ele>2141.8000488281</ele>
        <time>2019-02-08T10:54:07.000Z</time>
      </trkpt>
      <trkpt lat="45.58896" lon="6.62357">
        <ele>2141.8000488281</ele>
        <time>2019-02-08T10:54:27.000Z</time>
      </trkpt>
      <trkpt lat="45.58896" lon="6.62357">
        <ele>2141.8000488281</ele>
        <time>2019-02-08T10:54:40.000Z</time>
      </trkpt>
      <trkpt lat="45.58897" lon="6.62354">
        <ele>2142.3999023438</ele>
        <time>2019-02-08T10:54:42.000Z</time>
      </trkpt>
      <trkpt lat="45.58897" lon="6.62353">
        <ele>2142.8000488281</ele>
        <time>2019-02-08T10:54:45.000Z</time>
      </trkpt>
      <trkpt lat="45.58898" lon="6.62346">
        <ele>2144.8000488281</ele>
        <time>2019-02-08T10:54:49.000Z</time>
      </trkpt>
      <trkpt lat="45.58898" lon="6.62336">
        <ele>2147.8000488281</ele>
        <time>2019-02-08T10:54:54.000Z</time>
      </trkpt>
      <trkpt lat="45.58898" lon="6.62336">
        <ele>2148</ele>
        <time>2019-02-08T10:54:55.000Z</time>
      </trkpt>
      <trkpt lat="45.58898" lon="6.62329">
        <ele>2150</ele>
        <time>2019-02-08T10:55:00.000Z</time>
      </trkpt>
      <trkpt lat="45.58899" lon="6.62327">
        <ele>2150.6000976562</ele>
        <time>2019-02-08T10:55:01.000Z</time>
      </trkpt>
      <trkpt lat="45.58901" lon="6.62319">
        <ele>2152.1999511719</ele>
        <time>2019-02-08T10:55:07.000Z</time>
      </trkpt>
      <trkpt lat="45.58903" lon="6.62314">
        <ele>2153.8000488281</ele>
        <time>2019-02-08T10:55:13.000Z</time>
      </trkpt>
      <trkpt lat="45.58903" lon="6.62313">
        <ele>2154</ele>
        <time>2019-02-08T10:55:14.000Z</time>
      </trkpt>
      <trkpt lat="45.58905" lon="6.6231">
        <ele>2154.6000976562</ele>
        <time>2019-02-08T10:55:18.000Z</time>
      </trkpt>
      <trkpt lat="45.58906" lon="6.62307">
        <ele>2155.1999511719</ele>
        <time>2019-02-08T10:55:20.000Z</time>
      </trkpt>
      <trkpt lat="45.58908" lon="6.62304">
        <ele>2156</ele>
        <time>2019-02-08T10:55:23.000Z</time>
      </trkpt>
      <trkpt lat="45.58911" lon="6.62299">
        <ele>2157</ele>
        <time>2019-02-08T10:55:28.000Z</time>
      </trkpt>
      <trkpt lat="45.58912" lon="6.62297">
        <ele>2157.3999023438</ele>
        <time>2019-02-08T10:55:29.000Z</time>
      </trkpt>
      <trkpt lat="45.58914" lon="6.62294">
        <ele>2157.8000488281</ele>
        <time>2019-02-08T10:55:34.000Z</time>
      </trkpt>
      <trkpt lat="45.58915" lon="6.62293">
        <ele>2158</ele>
        <time>2019-02-08T10:55:36.000Z</time>
      </trkpt>
      <trkpt lat="45.58917" lon="6.6229">
        <ele>2158.3999023438</ele>
        <time>2019-02-08T10:55:41.000Z</time>
      </trkpt>
      <trkpt lat="45.58918" lon="6.6229">
        <ele>2158.1999511719</ele>
        <time>2019-02-08T10:55:42.000Z</time>
      </trkpt>
      <trkpt lat="45.5892" lon="6.62286">
        <ele>2158.8000488281</ele>
        <time>2019-02-08T10:55:47.000Z</time>
      </trkpt>
      <trkpt lat="45.58921" lon="6.62286">
        <ele>2159.1999511719</ele>
        <time>2019-02-08T10:55:48.000Z</time>
      </trkpt>
      <trkpt lat="45.58922" lon="6.62284">
        <ele>2159.3999023438</ele>
        <time>2019-02-08T10:55:52.000Z</time>
      </trkpt>
      <trkpt lat="45.58925" lon="6.6228">
        <ele>2160</ele>
        <time>2019-02-08T10:55:56.000Z</time>
      </trkpt>
      <trkpt lat="45.58926" lon="6.62278">
        <ele>2160.3999023438</ele>
        <time>2019-02-08T10:55:58.000Z</time>
      </trkpt>
      <trkpt lat="45.58929" lon="6.62274">
        <ele>2160.6000976562</ele>
        <time>2019-02-08T10:56:04.000Z</time>
      </trkpt>
      <trkpt lat="45.58929" lon="6.62274">
        <ele>2160.6000976562</ele>
        <time>2019-02-08T10:56:05.000Z</time>
      </trkpt>
      <trkpt lat="45.58932" lon="6.6227">
        <ele>2161</ele>
        <time>2019-02-08T10:56:10.000Z</time>
      </trkpt>
      <trkpt lat="45.58932" lon="6.6227">
        <ele>2161</ele>
        <time>2019-02-08T10:56:11.000Z</time>
      </trkpt>
      <trkpt lat="45.58935" lon="6.62268">
        <ele>2160.8000488281</ele>
        <time>2019-02-08T10:56:16.000Z</time>
      </trkpt>
      <trkpt lat="45.58936" lon="6.62265">
        <ele>2161.1999511719</ele>
        <time>2019-02-08T10:56:19.000Z</time>
      </trkpt>
      <trkpt lat="45.58938" lon="6.62262">
        <ele>2161.6000976562</ele>
        <time>2019-02-08T10:56:22.000Z</time>
      </trkpt>
      <trkpt lat="45.58941" lon="6.62258">
        <ele>2162</ele>
        <time>2019-02-08T10:56:27.000Z</time>
      </trkpt>
      <trkpt lat="45.58944" lon="6.62254">
        <ele>2162.1999511719</ele>
        <time>2019-02-08T10:56:33.000Z</time>
      </trkpt>
      <trkpt lat="45.58945" lon="6.62253">
        <ele>2162.6000976562</ele>
        <time>2019-02-08T10:56:35.000Z</time>
      </trkpt>
      <trkpt lat="45.58946" lon="6.62252">
        <ele>2162.6000976562</ele>
        <time>2019-02-08T10:56:40.000Z</time>
      </trkpt>
      <trkpt lat="45.58948" lon="6.62249">
        <ele>2162.8000488281</ele>
        <time>2019-02-08T10:56:43.000Z</time>
      </trkpt>
      <trkpt lat="45.58949" lon="6.62249">
        <ele>2162.3999023438</ele>
        <time>2019-02-08T10:56:45.000Z</time>
      </trkpt>
      <trkpt lat="45.5895" lon="6.62246">
        <ele>2163</ele>
        <time>2019-02-08T10:56:50.000Z</time>
      </trkpt>
      <trkpt lat="45.5895" lon="6.62246">
        <ele>2163</ele>
        <time>2019-02-08T10:56:52.000Z</time>
      </trkpt>
      <trkpt lat="45.58951" lon="6.62244">
        <ele>2163.6000976562</ele>
        <time>2019-02-08T10:56:56.000Z</time>
      </trkpt>
      <trkpt lat="45.58954" lon="6.62239">
        <ele>2164.1999511719</ele>
        <time>2019-02-08T10:57:02.000Z</time>
      </trkpt>
      <trkpt lat="45.58955" lon="6.62238">
        <ele>2164.1999511719</ele>
        <time>2019-02-08T10:57:03.000Z</time>
      </trkpt>
      <trkpt lat="45.58958" lon="6.62234">
        <ele>2165.1999511719</ele>
        <time>2019-02-08T10:57:08.000Z</time>
      </trkpt>
      <trkpt lat="45.58959" lon="6.62231">
        <ele>2165.8000488281</ele>
        <time>2019-02-08T10:57:12.000Z</time>
      </trkpt>
      <trkpt lat="45.58959" lon="6.62231">
        <ele>2166</ele>
        <time>2019-02-08T10:57:13.000Z</time>
      </trkpt>
      <trkpt lat="45.5896" lon="6.62228">
        <ele>2166.8000488281</ele>
        <time>2019-02-08T10:57:18.000Z</time>
      </trkpt>
      <trkpt lat="45.5896" lon="6.62228">
        <ele>2166.8000488281</ele>
        <time>2019-02-08T10:57:21.000Z</time>
      </trkpt>
      <trkpt lat="45.58962" lon="6.62225">
        <ele>2167.6000976562</ele>
        <time>2019-02-08T10:57:27.000Z</time>
      </trkpt>
      <trkpt lat="45.58964" lon="6.6222">
        <ele>2168.8000488281</ele>
        <time>2019-02-08T10:57:32.000Z</time>
      </trkpt>
      <trkpt lat="45.58964" lon="6.62219">
        <ele>2169</ele>
        <time>2019-02-08T10:57:33.000Z</time>
      </trkpt>
      <trkpt lat="45.58966" lon="6.62215">
        <ele>2169.6000976562</ele>
        <time>2019-02-08T10:57:37.000Z</time>
      </trkpt>
      <trkpt lat="45.58969" lon="6.62209">
        <ele>2171</ele>
        <time>2019-02-08T10:57:42.000Z</time>
      </trkpt>
      <trkpt lat="45.58972" lon="6.62205">
        <ele>2171.6000976562</ele>
        <time>2019-02-08T10:57:47.000Z</time>
      </trkpt>
      <trkpt lat="45.58973" lon="6.62204">
        <ele>2171.6000976562</ele>
        <time>2019-02-08T10:57:49.000Z</time>
      </trkpt>
      <trkpt lat="45.58975" lon="6.62202">
        <ele>2171.8000488281</ele>
        <time>2019-02-08T10:57:55.000Z</time>
      </trkpt>
      <trkpt lat="45.58976" lon="6.62201">
        <ele>2172</ele>
        <time>2019-02-08T10:57:57.000Z</time>
      </trkpt>
      <trkpt lat="45.58977" lon="6.62196">
        <ele>2173.1999511719</ele>
        <time>2019-02-08T10:58:02.000Z</time>
      </trkpt>
      <trkpt lat="45.58977" lon="6.62196">
        <ele>2173.3999023438</ele>
        <time>2019-02-08T10:58:03.000Z</time>
      </trkpt>
      <trkpt lat="45.58978" lon="6.62194">
        <ele>2174</ele>
        <time>2019-02-08T10:58:08.000Z</time>
      </trkpt>
      <trkpt lat="45.58978" lon="6.62193">
        <ele>2174.3999023438</ele>
        <time>2019-02-08T10:58:09.000Z</time>
      </trkpt>
      <trkpt lat="45.5898" lon="6.62189">
        <ele>2175.6000976562</ele>
        <time>2019-02-08T10:58:15.000Z</time>
      </trkpt>
      <trkpt lat="45.58983" lon="6.62185">
        <ele>2176.3999023438</ele>
        <time>2019-02-08T10:58:21.000Z</time>
      </trkpt>
      <trkpt lat="45.58983" lon="6.62183">
        <ele>2176.8000488281</ele>
        <time>2019-02-08T10:58:23.000Z</time>
      </trkpt>
      <trkpt lat="45.58984" lon="6.6218">
        <ele>2177.6000976562</ele>
        <time>2019-02-08T10:58:27.000Z</time>
      </trkpt>
      <trkpt lat="45.58986" lon="6.62178">
        <ele>2178</ele>
        <time>2019-02-08T10:58:30.000Z</time>
      </trkpt>
      <trkpt lat="45.58986" lon="6.62178">
        <ele>2178.1999511719</ele>
        <time>2019-02-08T10:58:32.000Z</time>
      </trkpt>
      <trkpt lat="45.58986" lon="6.62177">
        <ele>2178.3999023438</ele>
        <time>2019-02-08T10:58:38.000Z</time>
      </trkpt>
      <trkpt lat="45.58986" lon="6.62177">
        <ele>2178.3999023438</ele>
        <time>2019-02-08T10:58:44.000Z</time>
      </trkpt>
      <trkpt lat="45.58986" lon="6.62177">
        <ele>2178.3999023438</ele>
        <time>2019-02-08T10:58:58.000Z</time>
      </trkpt>
      <trkpt lat="45.58986" lon="6.62176">
        <ele>2178.6000976562</ele>
        <time>2019-02-08T10:59:05.000Z</time>
      </trkpt>
      <trkpt lat="45.58984" lon="6.62177">
        <ele>2179.1999511719</ele>
        <time>2019-02-08T10:59:11.000Z</time>
      </trkpt>
      <trkpt lat="45.5898" lon="6.62177">
        <ele>2180.3999023438</ele>
        <time>2019-02-08T10:59:17.000Z</time>
      </trkpt>
      <trkpt lat="45.58977" lon="6.62177">
        <ele>2181.6000976562</ele>
        <time>2019-02-08T10:59:22.000Z</time>
      </trkpt>
      <trkpt lat="45.58976" lon="6.62177">
        <ele>2181.6000976562</ele>
        <time>2019-02-08T10:59:26.000Z</time>
      </trkpt>
      <trkpt lat="45.58975" lon="6.62178">
        <ele>2182.1999511719</ele>
        <time>2019-02-08T10:59:28.000Z</time>
      </trkpt>
      <trkpt lat="45.5897" lon="6.62179">
        <ele>2182.8000488281</ele>
        <time>2019-02-08T10:59:34.000Z</time>
      </trkpt>
      <trkpt lat="45.58967" lon="6.6218">
        <ele>2183.8000488281</ele>
        <time>2019-02-08T10:59:38.000Z</time>
      </trkpt>
      <trkpt lat="45.58968" lon="6.6218">
        <ele>2183.6000976562</ele>
        <time>2019-02-08T10:59:39.000Z</time>
      </trkpt>
      <trkpt lat="45.58965" lon="6.6218">
        <ele>2184.8000488281</ele>
        <time>2019-02-08T10:59:44.000Z</time>
      </trkpt>
      <trkpt lat="45.58962" lon="6.62183">
        <ele>2184.8000488281</ele>
        <time>2019-02-08T10:59:48.000Z</time>
      </trkpt>
      <trkpt lat="45.58961" lon="6.62184">
        <ele>2185</ele>
        <time>2019-02-08T10:59:49.000Z</time>
      </trkpt>
      <trkpt lat="45.58958" lon="6.62185">
        <ele>2185.8000488281</ele>
        <time>2019-02-08T10:59:56.000Z</time>
      </trkpt>
      <trkpt lat="45.58957" lon="6.62186">
        <ele>2186.3999023438</ele>
        <time>2019-02-08T10:59:58.000Z</time>
      </trkpt>
      <trkpt lat="45.58955" lon="6.62186">
        <ele>2187</ele>
        <time>2019-02-08T11:00:01.000Z</time>
      </trkpt>
      <trkpt lat="45.58953" lon="6.62189">
        <ele>2187.3999023438</ele>
        <time>2019-02-08T11:00:06.000Z</time>
      </trkpt>
      <trkpt lat="45.58949" lon="6.6219">
        <ele>2188.3999023438</ele>
        <time>2019-02-08T11:00:11.000Z</time>
      </trkpt>
      <trkpt lat="45.58946" lon="6.62192">
        <ele>2189.3999023438</ele>
        <time>2019-02-08T11:00:16.000Z</time>
      </trkpt>
      <trkpt lat="45.58943" lon="6.62193">
        <ele>2190.3999023438</ele>
        <time>2019-02-08T11:00:20.000Z</time>
      </trkpt>
      <trkpt lat="45.58942" lon="6.62193">
        <ele>2190.6000976562</ele>
        <time>2019-02-08T11:00:22.000Z</time>
      </trkpt>
      <trkpt lat="45.58938" lon="6.62192">
        <ele>2192.8000488281</ele>
        <time>2019-02-08T11:00:29.000Z</time>
      </trkpt>
      <trkpt lat="45.58938" lon="6.62192">
        <ele>2192.8000488281</ele>
        <time>2019-02-08T11:00:30.000Z</time>
      </trkpt>
      <trkpt lat="45.58935" lon="6.62194">
        <ele>2193.6000976562</ele>
        <time>2019-02-08T11:00:34.000Z</time>
      </trkpt>
      <trkpt lat="45.58932" lon="6.62196">
        <ele>2194.3999023438</ele>
        <time>2019-02-08T11:00:38.000Z</time>
      </trkpt>
      <trkpt lat="45.58928" lon="6.62198">
        <ele>2195.1999511719</ele>
        <time>2019-02-08T11:00:43.000Z</time>
      </trkpt>
      <trkpt lat="45.58927" lon="6.62199">
        <ele>2195.1999511719</ele>
        <time>2019-02-08T11:00:47.000Z</time>
      </trkpt>
      <trkpt lat="45.58924" lon="6.62202">
        <ele>2194.6000976562</ele>
        <time>2019-02-08T11:00:51.000Z</time>
      </trkpt>
      <trkpt lat="45.58921" lon="6.62205">
        <ele>2194.6000976562</ele>
        <time>2019-02-08T11:00:56.000Z</time>
      </trkpt>
      <trkpt lat="45.58921" lon="6.62205">
        <ele>2194.6000976562</ele>
        <time>2019-02-08T11:00:57.000Z</time>
      </trkpt>
      <trkpt lat="45.5892" lon="6.62206">
        <ele>2194.6000976562</ele>
        <time>2019-02-08T11:01:03.000Z</time>
      </trkpt>
      <trkpt lat="45.5892" lon="6.62206">
        <ele>2194.6000976562</ele>
        <time>2019-02-08T11:01:04.000Z</time>
      </trkpt>
      <trkpt lat="45.58918" lon="6.62206">
        <ele>2195</ele>
        <time>2019-02-08T11:01:16.000Z</time>
      </trkpt>
      <trkpt lat="45.58918" lon="6.62204">
        <ele>2195.8000488281</ele>
        <time>2019-02-08T11:01:21.000Z</time>
      </trkpt>
      <trkpt lat="45.58919" lon="6.62202">
        <ele>2196.6000976562</ele>
        <time>2019-02-08T11:01:25.000Z</time>
      </trkpt>
      <trkpt lat="45.58919" lon="6.62202">
        <ele>2196.6000976562</ele>
        <time>2019-02-08T11:01:26.000Z</time>
      </trkpt>
      <trkpt lat="45.58921" lon="6.62199">
        <ele>2197.3999023438</ele>
        <time>2019-02-08T11:01:31.000Z</time>
      </trkpt>
      <trkpt lat="45.58923" lon="6.62195">
        <ele>2198.8000488281</ele>
        <time>2019-02-08T11:01:37.000Z</time>
      </trkpt>
      <trkpt lat="45.58925" lon="6.6219">
        <ele>2200.3999023438</ele>
        <time>2019-02-08T11:01:42.000Z</time>
      </trkpt>
      <trkpt lat="45.58925" lon="6.62189">
        <ele>2200.8000488281</ele>
        <time>2019-02-08T11:01:43.000Z</time>
      </trkpt>
      <trkpt lat="45.58926" lon="6.62187">
        <ele>2201</ele>
        <time>2019-02-08T11:01:48.000Z</time>
      </trkpt>
      <trkpt lat="45.58928" lon="6.62184">
        <ele>2201.1999511719</ele>
        <time>2019-02-08T11:01:53.000Z</time>
      </trkpt>
      <trkpt lat="45.5893" lon="6.62183">
        <ele>2200.8000488281</ele>
        <time>2019-02-08T11:01:55.000Z</time>
      </trkpt>
      <trkpt lat="45.58933" lon="6.6218">
        <ele>2200.8000488281</ele>
        <time>2019-02-08T11:01:59.000Z</time>
      </trkpt>
      <trkpt lat="45.58934" lon="6.62179">
        <ele>2200.3999023438</ele>
        <time>2019-02-08T11:02:01.000Z</time>
      </trkpt>
      <trkpt lat="45.58936" lon="6.62178">
        <ele>2200</ele>
        <time>2019-02-08T11:02:05.000Z</time>
      </trkpt>
      <trkpt lat="45.58937" lon="6.62177">
        <ele>2199.8000488281</ele>
        <time>2019-02-08T11:02:07.000Z</time>
      </trkpt>
      <trkpt lat="45.58939" lon="6.62174">
        <ele>2200.1999511719</ele>
        <time>2019-02-08T11:02:12.000Z</time>
      </trkpt>
      <trkpt lat="45.58939" lon="6.62174">
        <ele>2200.1999511719</ele>
        <time>2019-02-08T11:02:13.000Z</time>
      </trkpt>
      <trkpt lat="45.5894" lon="6.62173">
        <ele>2200.3999023438</ele>
        <time>2019-02-08T11:02:17.000Z</time>
      </trkpt>
      <trkpt lat="45.58944" lon="6.62167">
        <ele>2200.3999023438</ele>
        <time>2019-02-08T11:02:23.000Z</time>
      </trkpt>
      <trkpt lat="45.58945" lon="6.62166">
        <ele>2200.3999023438</ele>
        <time>2019-02-08T11:02:24.000Z</time>
      </trkpt>
      <trkpt lat="45.58947" lon="6.62165">
        <ele>2200.3999023438</ele>
        <time>2019-02-08T11:02:28.000Z</time>
      </trkpt>
      <trkpt lat="45.58948" lon="6.62163">
        <ele>2200.1999511719</ele>
        <time>2019-02-08T11:02:34.000Z</time>
      </trkpt>
      <trkpt lat="45.58949" lon="6.62162">
        <ele>2200</ele>
        <time>2019-02-08T11:02:35.000Z</time>
      </trkpt>
      <trkpt lat="45.58952" lon="6.62158">
        <ele>2200.3999023438</ele>
        <time>2019-02-08T11:02:40.000Z</time>
      </trkpt>
      <trkpt lat="45.58953" lon="6.62158">
        <ele>2200.1999511719</ele>
        <time>2019-02-08T11:02:43.000Z</time>
      </trkpt>
      <trkpt lat="45.58953" lon="6.62158">
        <ele>2200.1999511719</ele>
        <time>2019-02-08T11:02:49.000Z</time>
      </trkpt>
      <trkpt lat="45.58954" lon="6.62155">
        <ele>2200.6000976562</ele>
        <time>2019-02-08T11:02:54.000Z</time>
      </trkpt>
      <trkpt lat="45.58956" lon="6.62153">
        <ele>2200.8000488281</ele>
        <time>2019-02-08T11:02:59.000Z</time>
      </trkpt>
      <trkpt lat="45.58958" lon="6.62148">
        <ele>2202</ele>
        <time>2019-02-08T11:03:05.000Z</time>
      </trkpt>
      <trkpt lat="45.58959" lon="6.62146">
        <ele>2202.6000976562</ele>
        <time>2019-02-08T11:03:07.000Z</time>
      </trkpt>
      <trkpt lat="45.5896" lon="6.62145">
        <ele>2202.6000976562</ele>
        <time>2019-02-08T11:03:10.000Z</time>
      </trkpt>
      <trkpt lat="45.58964" lon="6.6214">
        <ele>2203.8000488281</ele>
        <time>2019-02-08T11:03:16.000Z</time>
      </trkpt>
      <trkpt lat="45.58966" lon="6.62135">
        <ele>2205.6000976562</ele>
        <time>2019-02-08T11:03:22.000Z</time>
      </trkpt>
      <trkpt lat="45.58966" lon="6.62134">
        <ele>2206.1999511719</ele>
        <time>2019-02-08T11:03:24.000Z</time>
      </trkpt>
      <trkpt lat="45.58967" lon="6.62129">
        <ele>2208.8000488281</ele>
        <time>2019-02-08T11:03:29.000Z</time>
      </trkpt>
      <trkpt lat="45.58967" lon="6.62128">
        <ele>2209.1999511719</ele>
        <time>2019-02-08T11:03:31.000Z</time>
      </trkpt>
      <trkpt lat="45.58967" lon="6.62128">
        <ele>2209.1999511719</ele>
        <time>2019-02-08T11:03:36.000Z</time>
      </trkpt>
      <trkpt lat="45.58967" lon="6.62128">
        <ele>2209.1999511719</ele>
        <time>2019-02-08T11:03:49.000Z</time>
      </trkpt>
      <trkpt lat="45.58964" lon="6.6213">
        <ele>2209.1999511719</ele>
        <time>2019-02-08T11:03:55.000Z</time>
      </trkpt>
      <trkpt lat="45.58962" lon="6.62132">
        <ele>2209.1999511719</ele>
        <time>2019-02-08T11:03:59.000Z</time>
      </trkpt>
      <trkpt lat="45.58961" lon="6.62133">
        <ele>2209</ele>
        <time>2019-02-08T11:04:02.000Z</time>
      </trkpt>
      <trkpt lat="45.5896" lon="6.62134">
        <ele>2208.8000488281</ele>
        <time>2019-02-08T11:04:04.000Z</time>
      </trkpt>
      <trkpt lat="45.58957" lon="6.62136">
        <ele>2209.3999023438</ele>
        <time>2019-02-08T11:04:08.000Z</time>
      </trkpt>
      <trkpt lat="45.58954" lon="6.62137">
        <ele>2210</ele>
        <time>2019-02-08T11:04:12.000Z</time>
      </trkpt>
      <trkpt lat="45.58954" lon="6.62137">
        <ele>2210</ele>
        <time>2019-02-08T11:04:13.000Z</time>
      </trkpt>
      <trkpt lat="45.58952" lon="6.62138">
        <ele>2210.3999023438</ele>
        <time>2019-02-08T11:04:16.000Z</time>
      </trkpt>
      <trkpt lat="45.58951" lon="6.62138">
        <ele>2210.8000488281</ele>
        <time>2019-02-08T11:04:17.000Z</time>
      </trkpt>
      <trkpt lat="45.58949" lon="6.62139">
        <ele>2211.1999511719</ele>
        <time>2019-02-08T11:04:21.000Z</time>
      </trkpt>
      <trkpt lat="45.58947" lon="6.6214">
        <ele>2211.6000976562</ele>
        <time>2019-02-08T11:04:26.000Z</time>
      </trkpt>
      <trkpt lat="45.58947" lon="6.6214">
        <ele>2211.6000976562</ele>
        <time>2019-02-08T11:04:29.000Z</time>
      </trkpt>
      <trkpt lat="45.58946" lon="6.6214">
        <ele>2211.8000488281</ele>
        <time>2019-02-08T11:04:32.000Z</time>
      </trkpt>
      <trkpt lat="45.58946" lon="6.62141">
        <ele>2212</ele>
        <time>2019-02-08T11:04:40.000Z</time>
      </trkpt>
      <trkpt lat="45.58946" lon="6.62141">
        <ele>2212</ele>
        <time>2019-02-08T11:04:47.000Z</time>
      </trkpt>
      <trkpt lat="45.58946" lon="6.62141">
        <ele>2212</ele>
        <time>2019-02-08T11:04:48.000Z</time>
      </trkpt>
      <trkpt lat="45.58946" lon="6.62141">
        <ele>2212</ele>
        <time>2019-02-08T11:04:57.000Z</time>
      </trkpt>
      <trkpt lat="45.58946" lon="6.6214">
        <ele>2212.3999023438</ele>
        <time>2019-02-08T11:05:02.000Z</time>
      </trkpt>
      <trkpt lat="45.58946" lon="6.6214">
        <ele>2212.3999023438</ele>
        <time>2019-02-08T11:05:04.000Z</time>
      </trkpt>
      <trkpt lat="45.58946" lon="6.6214">
        <ele>2212.3999023438</ele>
        <time>2019-02-08T11:05:07.000Z</time>
      </trkpt>
      <trkpt lat="45.58946" lon="6.6214">
        <ele>2212.3999023438</ele>
        <time>2019-02-08T11:05:08.000Z</time>
      </trkpt>
      <trkpt lat="45.58946" lon="6.62138">
        <ele>2213.1999511719</ele>
        <time>2019-02-08T11:05:11.000Z</time>
      </trkpt>
      <trkpt lat="45.58945" lon="6.62137">
        <ele>2214</ele>
        <time>2019-02-08T11:05:16.000Z</time>
      </trkpt>
      <trkpt lat="45.58946" lon="6.62137">
        <ele>2214</ele>
        <time>2019-02-08T11:05:17.000Z</time>
      </trkpt>
      <trkpt lat="45.58946" lon="6.62134">
        <ele>2215</ele>
        <time>2019-02-08T11:05:23.000Z</time>
      </trkpt>
      <trkpt lat="45.58946" lon="6.62134">
        <ele>2215</ele>
        <time>2019-02-08T11:05:25.000Z</time>
      </trkpt>
      <trkpt lat="45.58947" lon="6.62133">
        <ele>2215.6000976562</ele>
        <time>2019-02-08T11:05:29.000Z</time>
      </trkpt>
      <trkpt lat="45.58947" lon="6.62132">
        <ele>2215.8000488281</ele>
        <time>2019-02-08T11:05:34.000Z</time>
      </trkpt>
      <trkpt lat="45.58947" lon="6.62132">
        <ele>2215.8000488281</ele>
        <time>2019-02-08T11:05:35.000Z</time>
      </trkpt>
      <trkpt lat="45.58948" lon="6.62129">
        <ele>2216.8000488281</ele>
        <time>2019-02-08T11:05:41.000Z</time>
      </trkpt>
      <trkpt lat="45.58949" lon="6.62129">
        <ele>2216.8000488281</ele>
        <time>2019-02-08T11:05:43.000Z</time>
      </trkpt>
      <trkpt lat="45.58949" lon="6.62127">
        <ele>2217.3999023438</ele>
        <time>2019-02-08T11:05:49.000Z</time>
      </trkpt>
      <trkpt lat="45.5895" lon="6.62126">
        <ele>2217.6000976562</ele>
        <time>2019-02-08T11:05:50.000Z</time>
      </trkpt>
      <trkpt lat="45.5895" lon="6.62125">
        <ele>2218.1999511719</ele>
        <time>2019-02-08T11:05:56.000Z</time>
      </trkpt>
      <trkpt lat="45.58951" lon="6.62124">
        <ele>2218.6000976562</ele>
        <time>2019-02-08T11:05:57.000Z</time>
      </trkpt>
      <trkpt lat="45.58953" lon="6.62119">
        <ele>2220.3999023438</ele>
        <time>2019-02-08T11:06:02.000Z</time>
      </trkpt>
      <trkpt lat="45.58953" lon="6.62119">
        <ele>2220.3999023438</ele>
        <time>2019-02-08T11:06:11.000Z</time>
      </trkpt>
      <trkpt lat="45.58952" lon="6.62117">
        <ele>2221.6000976562</ele>
        <time>2019-02-08T11:06:18.000Z</time>
      </trkpt>
      <trkpt lat="45.58951" lon="6.62117">
        <ele>2222.6000976562</ele>
        <time>2019-02-08T11:06:24.000Z</time>
      </trkpt>
      <trkpt lat="45.58945" lon="6.62117">
        <ele>2224.8000488281</ele>
        <time>2019-02-08T11:06:29.000Z</time>
      </trkpt>
      <trkpt lat="45.58943" lon="6.62116">
        <ele>2226.6000976562</ele>
        <time>2019-02-08T11:06:34.000Z</time>
      </trkpt>
      <trkpt lat="45.58941" lon="6.62116">
        <ele>2227.3999023438</ele>
        <time>2019-02-08T11:06:37.000Z</time>
      </trkpt>
      <trkpt lat="45.5894" lon="6.62116">
        <ele>2228</ele>
        <time>2019-02-08T11:06:39.000Z</time>
      </trkpt>
      <trkpt lat="45.58938" lon="6.62117">
        <ele>2228.3999023438</ele>
        <time>2019-02-08T11:06:43.000Z</time>
      </trkpt>
      <trkpt lat="45.58935" lon="6.62118">
        <ele>2229</ele>
        <time>2019-02-08T11:06:46.000Z</time>
      </trkpt>
      <trkpt lat="45.58935" lon="6.62118">
        <ele>2229.3999023438</ele>
        <time>2019-02-08T11:06:47.000Z</time>
      </trkpt>
      <trkpt lat="45.5893" lon="6.62121">
        <ele>2230</ele>
        <time>2019-02-08T11:06:55.000Z</time>
      </trkpt>
      <trkpt lat="45.5893" lon="6.62121">
        <ele>2229.8000488281</ele>
        <time>2019-02-08T11:06:56.000Z</time>
      </trkpt>
      <trkpt lat="45.58926" lon="6.62125">
        <ele>2229.8000488281</ele>
        <time>2019-02-08T11:07:02.000Z</time>
      </trkpt>
      <trkpt lat="45.58924" lon="6.62126">
        <ele>2230</ele>
        <time>2019-02-08T11:07:06.000Z</time>
      </trkpt>
      <trkpt lat="45.58923" lon="6.62127">
        <ele>2230</ele>
        <time>2019-02-08T11:07:07.000Z</time>
      </trkpt>
      <trkpt lat="45.5892" lon="6.62131">
        <ele>2229.8000488281</ele>
        <time>2019-02-08T11:07:14.000Z</time>
      </trkpt>
      <trkpt lat="45.58919" lon="6.62132">
        <ele>2229.6000976562</ele>
        <time>2019-02-08T11:07:15.000Z</time>
      </trkpt>
      <trkpt lat="45.58919" lon="6.62133">
        <ele>2229.3999023438</ele>
        <time>2019-02-08T11:07:22.000Z</time>
      </trkpt>
      <trkpt lat="45.58918" lon="6.62133">
        <ele>2229.8000488281</ele>
        <time>2019-02-08T11:07:31.000Z</time>
      </trkpt>
      <trkpt lat="45.58918" lon="6.62133">
        <ele>2229.8000488281</ele>
        <time>2019-02-08T11:07:32.000Z</time>
      </trkpt>
      <trkpt lat="45.58918" lon="6.62133">
        <ele>2229.8000488281</ele>
        <time>2019-02-08T11:07:34.000Z</time>
      </trkpt>
      <trkpt lat="45.58918" lon="6.62133">
        <ele>2229.8000488281</ele>
        <time>2019-02-08T11:07:38.000Z</time>
      </trkpt>
      <trkpt lat="45.58918" lon="6.62133">
        <ele>2229.8000488281</ele>
        <time>2019-02-08T11:07:39.000Z</time>
      </trkpt>
      <trkpt lat="45.5892" lon="6.6213">
        <ele>2230</ele>
        <time>2019-02-08T11:07:47.000Z</time>
      </trkpt>
      <trkpt lat="45.58925" lon="6.62123">
        <ele>2231.6000976562</ele>
        <time>2019-02-08T11:07:54.000Z</time>
      </trkpt>
      <trkpt lat="45.58925" lon="6.62122">
        <ele>2231.8000488281</ele>
        <time>2019-02-08T11:07:56.000Z</time>
      </trkpt>
      <trkpt lat="45.58927" lon="6.62117">
        <ele>2233.1999511719</ele>
        <time>2019-02-08T11:08:02.000Z</time>
      </trkpt>
      <trkpt lat="45.5893" lon="6.62113">
        <ele>2234</ele>
        <time>2019-02-08T11:08:06.000Z</time>
      </trkpt>
      <trkpt lat="45.5893" lon="6.62112">
        <ele>2234.1999511719</ele>
        <time>2019-02-08T11:08:09.000Z</time>
      </trkpt>
      <trkpt lat="45.58933" lon="6.62109">
        <ele>2235.1999511719</ele>
        <time>2019-02-08T11:08:17.000Z</time>
      </trkpt>
      <trkpt lat="45.58935" lon="6.62106">
        <ele>2236</ele>
        <time>2019-02-08T11:08:21.000Z</time>
      </trkpt>
      <trkpt lat="45.58936" lon="6.62105">
        <ele>2236.1999511719</ele>
        <time>2019-02-08T11:08:23.000Z</time>
      </trkpt>
      <trkpt lat="45.58937" lon="6.62102">
        <ele>2237</ele>
        <time>2019-02-08T11:08:28.000Z</time>
      </trkpt>
      <trkpt lat="45.58939" lon="6.62101">
        <ele>2237</ele>
        <time>2019-02-08T11:08:31.000Z</time>
      </trkpt>
      <trkpt lat="45.5894" lon="6.621">
        <ele>2236.8000488281</ele>
        <time>2019-02-08T11:08:33.000Z</time>
      </trkpt>
      <trkpt lat="45.58942" lon="6.62097">
        <ele>2238</ele>
        <time>2019-02-08T11:08:39.000Z</time>
      </trkpt>
      <trkpt lat="45.58943" lon="6.62095">
        <ele>2238.1999511719</ele>
        <time>2019-02-08T11:08:43.000Z</time>
      </trkpt>
      <trkpt lat="45.58943" lon="6.62095">
        <ele>2238.1999511719</ele>
        <time>2019-02-08T11:08:46.000Z</time>
      </trkpt>
      <trkpt lat="45.58943" lon="6.62095">
        <ele>2238.3999023438</ele>
        <time>2019-02-08T11:08:54.000Z</time>
      </trkpt>
      <trkpt lat="45.58943" lon="6.62095">
        <ele>2238.3999023438</ele>
        <time>2019-02-08T11:08:56.000Z</time>
      </trkpt>
      <trkpt lat="45.58943" lon="6.62095">
        <ele>2238.3999023438</ele>
        <time>2019-02-08T11:09:03.000Z</time>
      </trkpt>
      <trkpt lat="45.58941" lon="6.62094">
        <ele>2239.3999023438</ele>
        <time>2019-02-08T11:09:09.000Z</time>
      </trkpt>
      <trkpt lat="45.58939" lon="6.62094">
        <ele>2240.8000488281</ele>
        <time>2019-02-08T11:09:12.000Z</time>
      </trkpt>
      <trkpt lat="45.58939" lon="6.62094">
        <ele>2241.1999511719</ele>
        <time>2019-02-08T11:09:13.000Z</time>
      </trkpt>
      <trkpt lat="45.58934" lon="6.62093">
        <ele>2243.1999511719</ele>
        <time>2019-02-08T11:09:19.000Z</time>
      </trkpt>
      <trkpt lat="45.58932" lon="6.62094">
        <ele>2244</ele>
        <time>2019-02-08T11:09:23.000Z</time>
      </trkpt>
      <trkpt lat="45.58932" lon="6.62094">
        <ele>2244</ele>
        <time>2019-02-08T11:09:31.000Z</time>
      </trkpt>
      <trkpt lat="45.58932" lon="6.62094">
        <ele>2244</ele>
        <time>2019-02-08T11:09:35.000Z</time>
      </trkpt>
      <trkpt lat="45.58931" lon="6.62095">
        <ele>2244</ele>
        <time>2019-02-08T11:09:45.000Z</time>
      </trkpt>
      <trkpt lat="45.5893" lon="6.62095">
        <ele>2244.3999023438</ele>
        <time>2019-02-08T11:09:48.000Z</time>
      </trkpt>
      <trkpt lat="45.58929" lon="6.62095">
        <ele>2244.8000488281</ele>
        <time>2019-02-08T11:09:49.000Z</time>
      </trkpt>
      <trkpt lat="45.58925" lon="6.62095">
        <ele>2246</ele>
        <time>2019-02-08T11:09:56.000Z</time>
      </trkpt>
      <trkpt lat="45.58921" lon="6.62097">
        <ele>2247</ele>
        <time>2019-02-08T11:10:02.000Z</time>
      </trkpt>
      <trkpt lat="45.5892" lon="6.62098">
        <ele>2246.6000976562</ele>
        <time>2019-02-08T11:10:04.000Z</time>
      </trkpt>
      <trkpt lat="45.5892" lon="6.62099">
        <ele>2246.6000976562</ele>
        <time>2019-02-08T11:10:07.000Z</time>
      </trkpt>
      <trkpt lat="45.58919" lon="6.62099">
        <ele>2246.6000976562</ele>
        <time>2019-02-08T11:10:08.000Z</time>
      </trkpt>
      <trkpt lat="45.58918" lon="6.621">
        <ele>2247</ele>
        <time>2019-02-08T11:10:12.000Z</time>
      </trkpt>
      <trkpt lat="45.58917" lon="6.621">
        <ele>2247</ele>
        <time>2019-02-08T11:10:13.000Z</time>
      </trkpt>
      <trkpt lat="45.58913" lon="6.62104">
        <ele>2247.1999511719</ele>
        <time>2019-02-08T11:10:19.000Z</time>
      </trkpt>
      <trkpt lat="45.58912" lon="6.62105">
        <ele>2247.1999511719</ele>
        <time>2019-02-08T11:10:21.000Z</time>
      </trkpt>
      <trkpt lat="45.5891" lon="6.62107">
        <ele>2247</ele>
        <time>2019-02-08T11:10:25.000Z</time>
      </trkpt>
      <trkpt lat="45.58907" lon="6.6211">
        <ele>2247.1999511719</ele>
        <time>2019-02-08T11:10:31.000Z</time>
      </trkpt>
      <trkpt lat="45.58907" lon="6.62109">
        <ele>2247.6000976562</ele>
        <time>2019-02-08T11:10:36.000Z</time>
      </trkpt>
      <trkpt lat="45.58907" lon="6.62109">
        <ele>2247.6000976562</ele>
        <time>2019-02-08T11:10:37.000Z</time>
      </trkpt>
      <trkpt lat="45.58907" lon="6.62109">
        <ele>2247.6000976562</ele>
        <time>2019-02-08T11:10:39.000Z</time>
      </trkpt>
      <trkpt lat="45.58907" lon="6.62109">
        <ele>2247.6000976562</ele>
        <time>2019-02-08T11:10:40.000Z</time>
      </trkpt>
      <trkpt lat="45.58907" lon="6.62109">
        <ele>2247.6000976562</ele>
        <time>2019-02-08T11:10:43.000Z</time>
      </trkpt>
      <trkpt lat="45.58907" lon="6.62109">
        <ele>2247.6000976562</ele>
        <time>2019-02-08T11:10:46.000Z</time>
      </trkpt>
      <trkpt lat="45.58907" lon="6.62109">
        <ele>2247.6000976562</ele>
        <time>2019-02-08T11:10:48.000Z</time>
      </trkpt>
      <trkpt lat="45.58907" lon="6.62109">
        <ele>2247.6000976562</ele>
        <time>2019-02-08T11:10:52.000Z</time>
      </trkpt>
      <trkpt lat="45.58908" lon="6.62108">
        <ele>2247.6000976562</ele>
        <time>2019-02-08T11:10:59.000Z</time>
      </trkpt>
      <trkpt lat="45.58911" lon="6.62102">
        <ele>2248.8000488281</ele>
        <time>2019-02-08T11:11:04.000Z</time>
      </trkpt>
      <trkpt lat="45.58913" lon="6.621">
        <ele>2249.1999511719</ele>
        <time>2019-02-08T11:11:07.000Z</time>
      </trkpt>
      <trkpt lat="45.58913" lon="6.62097">
        <ele>2250.3999023438</ele>
        <time>2019-02-08T11:11:11.000Z</time>
      </trkpt>
      <trkpt lat="45.58914" lon="6.62094">
        <ele>2252</ele>
        <time>2019-02-08T11:11:15.000Z</time>
      </trkpt>
      <trkpt lat="45.58915" lon="6.62091">
        <ele>2253</ele>
        <time>2019-02-08T11:11:17.000Z</time>
      </trkpt>
      <trkpt lat="45.58915" lon="6.62088">
        <ele>2254.3999023438</ele>
        <time>2019-02-08T11:11:19.000Z</time>
      </trkpt>
      <trkpt lat="45.58916" lon="6.62087">
        <ele>2254.8000488281</ele>
        <time>2019-02-08T11:11:23.000Z</time>
      </trkpt>
      <trkpt lat="45.58918" lon="6.62085">
        <ele>2255.1999511719</ele>
        <time>2019-02-08T11:11:28.000Z</time>
      </trkpt>
      <trkpt lat="45.58919" lon="6.62083">
        <ele>2255.3999023438</ele>
        <time>2019-02-08T11:11:31.000Z</time>
      </trkpt>
      <trkpt lat="45.5892" lon="6.62082">
        <ele>2255.8000488281</ele>
        <time>2019-02-08T11:11:34.000Z</time>
      </trkpt>
      <trkpt lat="45.58923" lon="6.6208">
        <ele>2255.8000488281</ele>
        <time>2019-02-08T11:11:42.000Z</time>
      </trkpt>
      <trkpt lat="45.58925" lon="6.62078">
        <ele>2256.1999511719</ele>
        <time>2019-02-08T11:11:44.000Z</time>
      </trkpt>
      <trkpt lat="45.58926" lon="6.62077">
        <ele>2256.1999511719</ele>
        <time>2019-02-08T11:11:48.000Z</time>
      </trkpt>
      <trkpt lat="45.58928" lon="6.62074">
        <ele>2256.6000976562</ele>
        <time>2019-02-08T11:11:53.000Z</time>
      </trkpt>
      <trkpt lat="45.58929" lon="6.62074">
        <ele>2256.8000488281</ele>
        <time>2019-02-08T11:11:55.000Z</time>
      </trkpt>
      <trkpt lat="45.58929" lon="6.62074">
        <ele>2256.8000488281</ele>
        <time>2019-02-08T11:12:01.000Z</time>
      </trkpt>
      <trkpt lat="45.58931" lon="6.62072">
        <ele>2257.1999511719</ele>
        <time>2019-02-08T11:12:06.000Z</time>
      </trkpt>
      <trkpt lat="45.58932" lon="6.6207">
        <ele>2257.6000976562</ele>
        <time>2019-02-08T11:12:11.000Z</time>
      </trkpt>
      <trkpt lat="45.58932" lon="6.62069">
        <ele>2257.6000976562</ele>
        <time>2019-02-08T11:12:18.000Z</time>
      </trkpt>
      <trkpt lat="45.58932" lon="6.62069">
        <ele>2258</ele>
        <time>2019-02-08T11:12:24.000Z</time>
      </trkpt>
      <trkpt lat="45.5893" lon="6.62068">
        <ele>2259.8000488281</ele>
        <time>2019-02-08T11:12:31.000Z</time>
      </trkpt>
      <trkpt lat="45.58925" lon="6.62069">
        <ele>2261.1999511719</ele>
        <time>2019-02-08T11:12:36.000Z</time>
      </trkpt>
      <trkpt lat="45.58925" lon="6.62069">
        <ele>2261.3999023438</ele>
        <time>2019-02-08T11:12:37.000Z</time>
      </trkpt>
      <trkpt lat="45.58923" lon="6.62069">
        <ele>2262</ele>
        <time>2019-02-08T11:12:39.000Z</time>
      </trkpt>
      <trkpt lat="45.5892" lon="6.6207">
        <ele>2263.1999511719</ele>
        <time>2019-02-08T11:12:42.000Z</time>
      </trkpt>
      <trkpt lat="45.58919" lon="6.6207">
        <ele>2263.1999511719</ele>
        <time>2019-02-08T11:12:46.000Z</time>
      </trkpt>
      <trkpt lat="45.58917" lon="6.62071">
        <ele>2263.3999023438</ele>
        <time>2019-02-08T11:12:51.000Z</time>
      </trkpt>
      <trkpt lat="45.58916" lon="6.62071">
        <ele>2264.3999023438</ele>
        <time>2019-02-08T11:12:53.000Z</time>
      </trkpt>
      <trkpt lat="45.58914" lon="6.6207">
        <ele>2265.3999023438</ele>
        <time>2019-02-08T11:12:56.000Z</time>
      </trkpt>
      <trkpt lat="45.58912" lon="6.6207">
        <ele>2266</ele>
        <time>2019-02-08T11:13:02.000Z</time>
      </trkpt>
      <trkpt lat="45.58912" lon="6.62071">
        <ele>2265.8000488281</ele>
        <time>2019-02-08T11:13:07.000Z</time>
      </trkpt>
      <trkpt lat="45.58911" lon="6.62072">
        <ele>2265.6000976562</ele>
        <time>2019-02-08T11:13:08.000Z</time>
      </trkpt>
      <trkpt lat="45.58908" lon="6.62073">
        <ele>2266</ele>
        <time>2019-02-08T11:13:14.000Z</time>
      </trkpt>
      <trkpt lat="45.58907" lon="6.62074">
        <ele>2266.1999511719</ele>
        <time>2019-02-08T11:13:15.000Z</time>
      </trkpt>
      <trkpt lat="45.58906" lon="6.62075">
        <ele>2266</ele>
        <time>2019-02-08T11:13:21.000Z</time>
      </trkpt>
      <trkpt lat="45.58905" lon="6.62077">
        <ele>2265.6000976562</ele>
        <time>2019-02-08T11:13:25.000Z</time>
      </trkpt>
      <trkpt lat="45.58904" lon="6.62078">
        <ele>2265.8000488281</ele>
        <time>2019-02-08T11:13:27.000Z</time>
      </trkpt>
      <trkpt lat="45.58902" lon="6.62079">
        <ele>2265.3999023438</ele>
        <time>2019-02-08T11:13:32.000Z</time>
      </trkpt>
      <trkpt lat="45.58901" lon="6.6208">
        <ele>2265.3999023438</ele>
        <time>2019-02-08T11:13:37.000Z</time>
      </trkpt>
      <trkpt lat="45.58901" lon="6.6208">
        <ele>2265.3999023438</ele>
        <time>2019-02-08T11:13:52.000Z</time>
      </trkpt>
      <trkpt lat="45.58901" lon="6.6208">
        <ele>2265.3999023438</ele>
        <time>2019-02-08T11:13:54.000Z</time>
      </trkpt>
      <trkpt lat="45.58901" lon="6.62081">
        <ele>2265.1999511719</ele>
        <time>2019-02-08T11:14:03.000Z</time>
      </trkpt>
      <trkpt lat="45.58897" lon="6.62084">
        <ele>2265</ele>
        <time>2019-02-08T11:14:09.000Z</time>
      </trkpt>
      <trkpt lat="45.58895" lon="6.62086">
        <ele>2265.1999511719</ele>
        <time>2019-02-08T11:14:15.000Z</time>
      </trkpt>
      <trkpt lat="45.58894" lon="6.62087">
        <ele>2264.8000488281</ele>
        <time>2019-02-08T11:14:25.000Z</time>
      </trkpt>
      <trkpt lat="45.58891" lon="6.6209">
        <ele>2265</ele>
        <time>2019-02-08T11:14:31.000Z</time>
      </trkpt>
      <trkpt lat="45.58892" lon="6.62088">
        <ele>2265.3999023438</ele>
        <time>2019-02-08T11:14:35.000Z</time>
      </trkpt>
      <trkpt lat="45.58892" lon="6.62088">
        <ele>2265.6000976562</ele>
        <time>2019-02-08T11:14:37.000Z</time>
      </trkpt>
      <trkpt lat="45.58894" lon="6.62086">
        <ele>2265.8000488281</ele>
        <time>2019-02-08T11:14:42.000Z</time>
      </trkpt>
      <trkpt lat="45.58897" lon="6.62079">
        <ele>2268</ele>
        <time>2019-02-08T11:14:48.000Z</time>
      </trkpt>
      <trkpt lat="45.58898" lon="6.62077">
        <ele>2268.6000976562</ele>
        <time>2019-02-08T11:14:49.000Z</time>
      </trkpt>
      <trkpt lat="45.58901" lon="6.62069">
        <ele>2272</ele>
        <time>2019-02-08T11:14:54.000Z</time>
      </trkpt>
      <trkpt lat="45.58901" lon="6.62068">
        <ele>2272.3999023438</ele>
        <time>2019-02-08T11:14:55.000Z</time>
      </trkpt>
      <trkpt lat="45.58903" lon="6.62064">
        <ele>2273.3999023438</ele>
        <time>2019-02-08T11:15:01.000Z</time>
      </trkpt>
      <trkpt lat="45.58904" lon="6.62062">
        <ele>2274</ele>
        <time>2019-02-08T11:15:04.000Z</time>
      </trkpt>
      <trkpt lat="45.58903" lon="6.62061">
        <ele>2275.1999511719</ele>
        <time>2019-02-08T11:15:07.000Z</time>
      </trkpt>
      <trkpt lat="45.58904" lon="6.62055">
        <ele>2277.6000976562</ele>
        <time>2019-02-08T11:15:12.000Z</time>
      </trkpt>
      <trkpt lat="45.58904" lon="6.62055">
        <ele>2278</ele>
        <time>2019-02-08T11:15:13.000Z</time>
      </trkpt>
      <trkpt lat="45.58904" lon="6.62055">
        <ele>2278</ele>
        <time>2019-02-08T11:15:20.000Z</time>
      </trkpt>
      <trkpt lat="45.58904" lon="6.62054">
        <ele>2278</ele>
        <time>2019-02-08T11:15:29.000Z</time>
      </trkpt>
      <trkpt lat="45.58905" lon="6.62053">
        <ele>2278.3999023438</ele>
        <time>2019-02-08T11:15:35.000Z</time>
      </trkpt>
      <trkpt lat="45.58901" lon="6.62056">
        <ele>2278.3999023438</ele>
        <time>2019-02-08T11:15:40.000Z</time>
      </trkpt>
      <trkpt lat="45.58899" lon="6.62058">
        <ele>2278.3999023438</ele>
        <time>2019-02-08T11:15:44.000Z</time>
      </trkpt>
      <trkpt lat="45.58899" lon="6.62058">
        <ele>2278.3999023438</ele>
        <time>2019-02-08T11:15:45.000Z</time>
      </trkpt>
      <trkpt lat="45.58897" lon="6.62061">
        <ele>2277.3999023438</ele>
        <time>2019-02-08T11:15:50.000Z</time>
      </trkpt>
      <trkpt lat="45.58895" lon="6.62063">
        <ele>2277.1999511719</ele>
        <time>2019-02-08T11:15:52.000Z</time>
      </trkpt>
      <trkpt lat="45.58892" lon="6.62066">
        <ele>2277.3999023438</ele>
        <time>2019-02-08T11:15:56.000Z</time>
      </trkpt>
      <trkpt lat="45.5889" lon="6.62068">
        <ele>2277.1999511719</ele>
        <time>2019-02-08T11:16:01.000Z</time>
      </trkpt>
      <trkpt lat="45.58886" lon="6.6207">
        <ele>2277.8000488281</ele>
        <time>2019-02-08T11:16:06.000Z</time>
      </trkpt>
      <trkpt lat="45.58886" lon="6.6207">
        <ele>2277.8000488281</ele>
        <time>2019-02-08T11:16:07.000Z</time>
      </trkpt>
      <trkpt lat="45.58883" lon="6.62075">
        <ele>2276.6000976562</ele>
        <time>2019-02-08T11:16:13.000Z</time>
      </trkpt>
      <trkpt lat="45.58883" lon="6.62075">
        <ele>2276.6000976562</ele>
        <time>2019-02-08T11:16:14.000Z</time>
      </trkpt>
      <trkpt lat="45.58883" lon="6.62076">
        <ele>2276.6000976562</ele>
        <time>2019-02-08T11:16:21.000Z</time>
      </trkpt>
      <trkpt lat="45.5888" lon="6.62077">
        <ele>2277.3999023438</ele>
        <time>2019-02-08T11:16:29.000Z</time>
      </trkpt>
      <trkpt lat="45.58877" lon="6.6208">
        <ele>2277.8000488281</ele>
        <time>2019-02-08T11:16:33.000Z</time>
      </trkpt>
      <trkpt lat="45.58877" lon="6.62081">
        <ele>2277.8000488281</ele>
        <time>2019-02-08T11:16:34.000Z</time>
      </trkpt>
      <trkpt lat="45.58873" lon="6.62088">
        <ele>2276.6000976562</ele>
        <time>2019-02-08T11:16:39.000Z</time>
      </trkpt>
      <trkpt lat="45.58873" lon="6.62089">
        <ele>2276.3999023438</ele>
        <time>2019-02-08T11:16:40.000Z</time>
      </trkpt>
      <trkpt lat="45.58872" lon="6.6209">
        <ele>2275.8000488281</ele>
        <time>2019-02-08T11:16:45.000Z</time>
      </trkpt>
      <trkpt lat="45.58872" lon="6.6209">
        <ele>2275.8000488281</ele>
        <time>2019-02-08T11:16:46.000Z</time>
      </trkpt>
      <trkpt lat="45.58872" lon="6.6209">
        <ele>2275.8000488281</ele>
        <time>2019-02-08T11:16:54.000Z</time>
      </trkpt>
      <trkpt lat="45.58872" lon="6.6209">
        <ele>2275.8000488281</ele>
        <time>2019-02-08T11:17:09.000Z</time>
      </trkpt>
      <trkpt lat="45.58872" lon="6.6209">
        <ele>2275.8000488281</ele>
        <time>2019-02-08T11:17:19.000Z</time>
      </trkpt>
      <trkpt lat="45.58872" lon="6.62091">
        <ele>2275.6000976562</ele>
        <time>2019-02-08T11:17:33.000Z</time>
      </trkpt>
      <trkpt lat="45.5887" lon="6.62094">
        <ele>2275.8000488281</ele>
        <time>2019-02-08T11:17:41.000Z</time>
      </trkpt>
      <trkpt lat="45.58869" lon="6.62094">
        <ele>2276</ele>
        <time>2019-02-08T11:17:47.000Z</time>
      </trkpt>
      <trkpt lat="45.5887" lon="6.62091">
        <ele>2277</ele>
        <time>2019-02-08T11:17:50.000Z</time>
      </trkpt>
      <trkpt lat="45.5887" lon="6.62088">
        <ele>2278</ele>
        <time>2019-02-08T11:17:52.000Z</time>
      </trkpt>
      <trkpt lat="45.58872" lon="6.62082">
        <ele>2280.6000976562</ele>
        <time>2019-02-08T11:17:58.000Z</time>
      </trkpt>
      <trkpt lat="45.58872" lon="6.6208">
        <ele>2281</ele>
        <time>2019-02-08T11:17:59.000Z</time>
      </trkpt>
      <trkpt lat="45.58874" lon="6.62074">
        <ele>2283.3999023438</ele>
        <time>2019-02-08T11:18:05.000Z</time>
      </trkpt>
      <trkpt lat="45.58879" lon="6.62068">
        <ele>2283</ele>
        <time>2019-02-08T11:18:11.000Z</time>
      </trkpt>
      <trkpt lat="45.5888" lon="6.62067">
        <ele>2283.1999511719</ele>
        <time>2019-02-08T11:18:13.000Z</time>
      </trkpt>
      <trkpt lat="45.58882" lon="6.62062">
        <ele>2284.1999511719</ele>
        <time>2019-02-08T11:18:17.000Z</time>
      </trkpt>
      <trkpt lat="45.58884" lon="6.6206">
        <ele>2284.3999023438</ele>
        <time>2019-02-08T11:18:23.000Z</time>
      </trkpt>
      <trkpt lat="45.58884" lon="6.6206">
        <ele>2284.3999023438</ele>
        <time>2019-02-08T11:18:33.000Z</time>
      </trkpt>
      <trkpt lat="45.58884" lon="6.6206">
        <ele>2284.3999023438</ele>
        <time>2019-02-08T11:18:41.000Z</time>
      </trkpt>
      <trkpt lat="45.5888" lon="6.62062">
        <ele>2285</ele>
        <time>2019-02-08T11:18:50.000Z</time>
      </trkpt>
      <trkpt lat="45.58879" lon="6.62063">
        <ele>2285.1999511719</ele>
        <time>2019-02-08T11:18:51.000Z</time>
      </trkpt>
      <trkpt lat="45.58876" lon="6.62065">
        <ele>2286.3999023438</ele>
        <time>2019-02-08T11:18:55.000Z</time>
      </trkpt>
      <trkpt lat="45.58873" lon="6.62067">
        <ele>2287.8000488281</ele>
        <time>2019-02-08T11:19:00.000Z</time>
      </trkpt>
      <trkpt lat="45.58872" lon="6.62068">
        <ele>2288</ele>
        <time>2019-02-08T11:19:01.000Z</time>
      </trkpt>
      <trkpt lat="45.58867" lon="6.6207">
        <ele>2289.6000976562</ele>
        <time>2019-02-08T11:19:05.000Z</time>
      </trkpt>
      <trkpt lat="45.58866" lon="6.62071">
        <ele>2290</ele>
        <time>2019-02-08T11:19:07.000Z</time>
      </trkpt>
      <trkpt lat="45.58865" lon="6.62074">
        <ele>2289</ele>
        <time>2019-02-08T11:19:10.000Z</time>
      </trkpt>
      <trkpt lat="45.58864" lon="6.62077">
        <ele>2288.1999511719</ele>
        <time>2019-02-08T11:19:13.000Z</time>
      </trkpt>
      <trkpt lat="45.58862" lon="6.6208">
        <ele>2288</ele>
        <time>2019-02-08T11:19:18.000Z</time>
      </trkpt>
      <trkpt lat="45.58861" lon="6.62081">
        <ele>2288</ele>
        <time>2019-02-08T11:19:23.000Z</time>
      </trkpt>
      <trkpt lat="45.5886" lon="6.62082">
        <ele>2288</ele>
        <time>2019-02-08T11:19:28.000Z</time>
      </trkpt>
      <trkpt lat="45.5886" lon="6.62082">
        <ele>2288.1999511719</ele>
        <time>2019-02-08T11:19:30.000Z</time>
      </trkpt>
      <trkpt lat="45.5886" lon="6.62082">
        <ele>2288.1999511719</ele>
        <time>2019-02-08T11:19:33.000Z</time>
      </trkpt>
      <trkpt lat="45.58859" lon="6.62082">
        <ele>2288.6000976562</ele>
        <time>2019-02-08T11:19:35.000Z</time>
      </trkpt>
      <trkpt lat="45.5886" lon="6.62081">
        <ele>2289</ele>
        <time>2019-02-08T11:19:43.000Z</time>
      </trkpt>
      <trkpt lat="45.5886" lon="6.62079">
        <ele>2289.8000488281</ele>
        <time>2019-02-08T11:19:54.000Z</time>
      </trkpt>
      <trkpt lat="45.58861" lon="6.62071">
        <ele>2292.8000488281</ele>
        <time>2019-02-08T11:20:00.000Z</time>
      </trkpt>
      <trkpt lat="45.58862" lon="6.62069">
        <ele>2293.6000976562</ele>
        <time>2019-02-08T11:20:01.000Z</time>
      </trkpt>
      <trkpt lat="45.58864" lon="6.62063">
        <ele>2295</ele>
        <time>2019-02-08T11:20:05.000Z</time>
      </trkpt>
      <trkpt lat="45.58864" lon="6.62061">
        <ele>2295.6000976562</ele>
        <time>2019-02-08T11:20:07.000Z</time>
      </trkpt>
      <trkpt lat="45.58867" lon="6.62055">
        <ele>2296.6000976562</ele>
        <time>2019-02-08T11:20:12.000Z</time>
      </trkpt>
      <trkpt lat="45.58867" lon="6.62054">
        <ele>2296.8000488281</ele>
        <time>2019-02-08T11:20:14.000Z</time>
      </trkpt>
      <trkpt lat="45.58868" lon="6.62052">
        <ele>2297</ele>
        <time>2019-02-08T11:20:17.000Z</time>
      </trkpt>
      <trkpt lat="45.58869" lon="6.6205">
        <ele>2297.6000976562</ele>
        <time>2019-02-08T11:20:20.000Z</time>
      </trkpt>
      <trkpt lat="45.5887" lon="6.62048">
        <ele>2298</ele>
        <time>2019-02-08T11:20:23.000Z</time>
      </trkpt>
      <trkpt lat="45.58871" lon="6.62046">
        <ele>2298.3999023438</ele>
        <time>2019-02-08T11:20:27.000Z</time>
      </trkpt>
      <trkpt lat="45.58872" lon="6.62045">
        <ele>2298.8000488281</ele>
        <time>2019-02-08T11:20:28.000Z</time>
      </trkpt>
      <trkpt lat="45.58873" lon="6.62042">
        <ele>2299.1999511719</ele>
        <time>2019-02-08T11:20:33.000Z</time>
      </trkpt>
      <trkpt lat="45.58875" lon="6.62041">
        <ele>2299.1999511719</ele>
        <time>2019-02-08T11:20:37.000Z</time>
      </trkpt>
      <trkpt lat="45.58875" lon="6.6204">
        <ele>2299.1999511719</ele>
        <time>2019-02-08T11:20:38.000Z</time>
      </trkpt>
      <trkpt lat="45.58876" lon="6.62039">
        <ele>2299.6000976562</ele>
        <time>2019-02-08T11:20:43.000Z</time>
      </trkpt>
      <trkpt lat="45.58876" lon="6.62039">
        <ele>2299.6000976562</ele>
        <time>2019-02-08T11:20:47.000Z</time>
      </trkpt>
      <trkpt lat="45.58876" lon="6.62038">
        <ele>2300.1999511719</ele>
        <time>2019-02-08T11:20:59.000Z</time>
      </trkpt>
      <trkpt lat="45.58876" lon="6.62036">
        <ele>2301</ele>
        <time>2019-02-08T11:21:07.000Z</time>
      </trkpt>
      <trkpt lat="45.58872" lon="6.62036">
        <ele>2303</ele>
        <time>2019-02-08T11:21:14.000Z</time>
      </trkpt>
      <trkpt lat="45.5887" lon="6.62038">
        <ele>2303.1999511719</ele>
        <time>2019-02-08T11:21:17.000Z</time>
      </trkpt>
      <trkpt lat="45.58868" lon="6.62038">
        <ele>2304.1999511719</ele>
        <time>2019-02-08T11:21:19.000Z</time>
      </trkpt>
      <trkpt lat="45.58864" lon="6.62041">
        <ele>2304.8000488281</ele>
        <time>2019-02-08T11:21:24.000Z</time>
      </trkpt>
      <trkpt lat="45.58861" lon="6.62044">
        <ele>2305</ele>
        <time>2019-02-08T11:21:29.000Z</time>
      </trkpt>
      <trkpt lat="45.58861" lon="6.62044">
        <ele>2305</ele>
        <time>2019-02-08T11:21:30.000Z</time>
      </trkpt>
      <trkpt lat="45.58855" lon="6.62048">
        <ele>2306.8000488281</ele>
        <time>2019-02-08T11:21:36.000Z</time>
      </trkpt>
      <trkpt lat="45.58855" lon="6.62049">
        <ele>2306.8000488281</ele>
        <time>2019-02-08T11:21:38.000Z</time>
      </trkpt>
      <trkpt lat="45.58852" lon="6.62052">
        <ele>2307</ele>
        <time>2019-02-08T11:21:42.000Z</time>
      </trkpt>
      <trkpt lat="45.58851" lon="6.62053">
        <ele>2307.6000976562</ele>
        <time>2019-02-08T11:21:47.000Z</time>
      </trkpt>
      <trkpt lat="45.5885" lon="6.62053">
        <ele>2307.6000976562</ele>
        <time>2019-02-08T11:21:48.000Z</time>
      </trkpt>
      <trkpt lat="45.58847" lon="6.62057">
        <ele>2308.1999511719</ele>
        <time>2019-02-08T11:21:53.000Z</time>
      </trkpt>
      <trkpt lat="45.58847" lon="6.62057">
        <ele>2308.1999511719</ele>
        <time>2019-02-08T11:21:55.000Z</time>
      </trkpt>
      <trkpt lat="45.58847" lon="6.62057">
        <ele>2308.1999511719</ele>
        <time>2019-02-08T11:21:59.000Z</time>
      </trkpt>
      <trkpt lat="45.58845" lon="6.62059">
        <ele>2308.3999023438</ele>
        <time>2019-02-08T11:22:04.000Z</time>
      </trkpt>
      <trkpt lat="45.58842" lon="6.62065">
        <ele>2307.8000488281</ele>
        <time>2019-02-08T11:22:10.000Z</time>
      </trkpt>
      <trkpt lat="45.58842" lon="6.62066">
        <ele>2307.6000976562</ele>
        <time>2019-02-08T11:22:11.000Z</time>
      </trkpt>
      <trkpt lat="45.58841" lon="6.62069">
        <ele>2307.1999511719</ele>
        <time>2019-02-08T11:22:17.000Z</time>
      </trkpt>
      <trkpt lat="45.58841" lon="6.62069">
        <ele>2307.1999511719</ele>
        <time>2019-02-08T11:22:18.000Z</time>
      </trkpt>
      <trkpt lat="45.58841" lon="6.62069">
        <ele>2307.1999511719</ele>
        <time>2019-02-08T11:22:29.000Z</time>
      </trkpt>
      <trkpt lat="45.58838" lon="6.62071">
        <ele>2307.6000976562</ele>
        <time>2019-02-08T11:22:35.000Z</time>
      </trkpt>
      <trkpt lat="45.58838" lon="6.62071">
        <ele>2307.6000976562</ele>
        <time>2019-02-08T11:22:36.000Z</time>
      </trkpt>
      <trkpt lat="45.58835" lon="6.62075">
        <ele>2307.6000976562</ele>
        <time>2019-02-08T11:22:42.000Z</time>
      </trkpt>
      <trkpt lat="45.58835" lon="6.62075">
        <ele>2307.6000976562</ele>
        <time>2019-02-08T11:23:02.000Z</time>
      </trkpt>
      <trkpt lat="45.58835" lon="6.62075">
        <ele>2307.6000976562</ele>
        <time>2019-02-08T11:23:11.000Z</time>
      </trkpt>
      <trkpt lat="45.58832" lon="6.62077">
        <ele>2308.1999511719</ele>
        <time>2019-02-08T11:23:17.000Z</time>
      </trkpt>
      <trkpt lat="45.58832" lon="6.62077">
        <ele>2308.1999511719</ele>
        <time>2019-02-08T11:23:18.000Z</time>
      </trkpt>
      <trkpt lat="45.58833" lon="6.62075">
        <ele>2308.6000976562</ele>
        <time>2019-02-08T11:23:24.000Z</time>
      </trkpt>
      <trkpt lat="45.58834" lon="6.62074">
        <ele>2309</ele>
        <time>2019-02-08T11:23:25.000Z</time>
      </trkpt>
      <trkpt lat="45.58836" lon="6.6207">
        <ele>2310</ele>
        <time>2019-02-08T11:23:29.000Z</time>
      </trkpt>
      <trkpt lat="45.58837" lon="6.62065">
        <ele>2310.8000488281</ele>
        <time>2019-02-08T11:23:35.000Z</time>
      </trkpt>
      <trkpt lat="45.58838" lon="6.6206">
        <ele>2312.6000976562</ele>
        <time>2019-02-08T11:23:41.000Z</time>
      </trkpt>
      <trkpt lat="45.58839" lon="6.62058">
        <ele>2312.8000488281</ele>
        <time>2019-02-08T11:23:43.000Z</time>
      </trkpt>
      <trkpt lat="45.58841" lon="6.62053">
        <ele>2313.6000976562</ele>
        <time>2019-02-08T11:23:48.000Z</time>
      </trkpt>
      <trkpt lat="45.58843" lon="6.62048">
        <ele>2314.3999023438</ele>
        <time>2019-02-08T11:23:52.000Z</time>
      </trkpt>
      <trkpt lat="45.58844" lon="6.62045">
        <ele>2315.3999023438</ele>
        <time>2019-02-08T11:23:56.000Z</time>
      </trkpt>
      <trkpt lat="45.58844" lon="6.62044">
        <ele>2315.6000976562</ele>
        <time>2019-02-08T11:23:58.000Z</time>
      </trkpt>
      <trkpt lat="45.58846" lon="6.6204">
        <ele>2316.1999511719</ele>
        <time>2019-02-08T11:24:04.000Z</time>
      </trkpt>
      <trkpt lat="45.58847" lon="6.62035">
        <ele>2317.3999023438</ele>
        <time>2019-02-08T11:24:11.000Z</time>
      </trkpt>
      <trkpt lat="45.58848" lon="6.62033">
        <ele>2317.6000976562</ele>
        <time>2019-02-08T11:24:15.000Z</time>
      </trkpt>
      <trkpt lat="45.58848" lon="6.62033">
        <ele>2317.6000976562</ele>
        <time>2019-02-08T11:24:17.000Z</time>
      </trkpt>
      <trkpt lat="45.58848" lon="6.62033">
        <ele>2317.6000976562</ele>
        <time>2019-02-08T11:24:31.000Z</time>
      </trkpt>
      <trkpt lat="45.58849" lon="6.62032">
        <ele>2317.6000976562</ele>
        <time>2019-02-08T11:24:40.000Z</time>
      </trkpt>
      <trkpt lat="45.5885" lon="6.62031">
        <ele>2318.1999511719</ele>
        <time>2019-02-08T11:24:53.000Z</time>
      </trkpt>
      <trkpt lat="45.58852" lon="6.62027">
        <ele>2318.6000976562</ele>
        <time>2019-02-08T11:24:59.000Z</time>
      </trkpt>
      <trkpt lat="45.58851" lon="6.62027">
        <ele>2319.3999023438</ele>
        <time>2019-02-08T11:25:09.000Z</time>
      </trkpt>
      <trkpt lat="45.58848" lon="6.62028">
        <ele>2320.6000976562</ele>
        <time>2019-02-08T11:25:14.000Z</time>
      </trkpt>
      <trkpt lat="45.58847" lon="6.62028">
        <ele>2320.8000488281</ele>
        <time>2019-02-08T11:25:15.000Z</time>
      </trkpt>
      <trkpt lat="45.58844" lon="6.62029">
        <ele>2322.1999511719</ele>
        <time>2019-02-08T11:25:21.000Z</time>
      </trkpt>
      <trkpt lat="45.5884" lon="6.6203">
        <ele>2324</ele>
        <time>2019-02-08T11:25:27.000Z</time>
      </trkpt>
      <trkpt lat="45.58837" lon="6.62034">
        <ele>2324.6000976562</ele>
        <time>2019-02-08T11:25:33.000Z</time>
      </trkpt>
      <trkpt lat="45.58835" lon="6.62036">
        <ele>2324.6000976562</ele>
        <time>2019-02-08T11:25:35.000Z</time>
      </trkpt>
      <trkpt lat="45.58832" lon="6.62039">
        <ele>2325.6000976562</ele>
        <time>2019-02-08T11:25:39.000Z</time>
      </trkpt>
      <trkpt lat="45.58831" lon="6.62041">
        <ele>2325.1999511719</ele>
        <time>2019-02-08T11:25:43.000Z</time>
      </trkpt>
      <trkpt lat="45.58831" lon="6.62041">
        <ele>2325.1999511719</ele>
        <time>2019-02-08T11:25:46.000Z</time>
      </trkpt>
      <trkpt lat="45.58831" lon="6.62041">
        <ele>2325.1999511719</ele>
        <time>2019-02-08T11:25:53.000Z</time>
      </trkpt>
      <trkpt lat="45.58831" lon="6.62041">
        <ele>2325.1999511719</ele>
        <time>2019-02-08T11:26:03.000Z</time>
      </trkpt>
      <trkpt lat="45.58828" lon="6.62045">
        <ele>2325.6000976562</ele>
        <time>2019-02-08T11:26:09.000Z</time>
      </trkpt>
      <trkpt lat="45.58825" lon="6.6205">
        <ele>2325</ele>
        <time>2019-02-08T11:26:15.000Z</time>
      </trkpt>
      <trkpt lat="45.58825" lon="6.62051">
        <ele>2325</ele>
        <time>2019-02-08T11:26:17.000Z</time>
      </trkpt>
      <trkpt lat="45.58825" lon="6.62051">
        <ele>2325</ele>
        <time>2019-02-08T11:26:23.000Z</time>
      </trkpt>
      <trkpt lat="45.58825" lon="6.62051">
        <ele>2325</ele>
        <time>2019-02-08T11:26:36.000Z</time>
      </trkpt>
      <trkpt lat="45.58823" lon="6.62055">
        <ele>2324.1999511719</ele>
        <time>2019-02-08T11:26:49.000Z</time>
      </trkpt>
      <trkpt lat="45.58822" lon="6.62057">
        <ele>2324</ele>
        <time>2019-02-08T11:26:50.000Z</time>
      </trkpt>
      <trkpt lat="45.5882" lon="6.6206">
        <ele>2324</ele>
        <time>2019-02-08T11:26:53.000Z</time>
      </trkpt>
      <trkpt lat="45.5882" lon="6.62061">
        <ele>2324</ele>
        <time>2019-02-08T11:26:55.000Z</time>
      </trkpt>
      <trkpt lat="45.58819" lon="6.6206">
        <ele>2324.1999511719</ele>
        <time>2019-02-08T11:27:01.000Z</time>
      </trkpt>
      <trkpt lat="45.58819" lon="6.6206">
        <ele>2324.3999023438</ele>
        <time>2019-02-08T11:27:02.000Z</time>
      </trkpt>
      <trkpt lat="45.58819" lon="6.6206">
        <ele>2324.6000976562</ele>
        <time>2019-02-08T11:27:06.000Z</time>
      </trkpt>
      <trkpt lat="45.5882" lon="6.62057">
        <ele>2325.1999511719</ele>
        <time>2019-02-08T11:27:08.000Z</time>
      </trkpt>
      <trkpt lat="45.58821" lon="6.62052">
        <ele>2326.6000976562</ele>
        <time>2019-02-08T11:27:13.000Z</time>
      </trkpt>
      <trkpt lat="45.58822" lon="6.62047">
        <ele>2328.8000488281</ele>
        <time>2019-02-08T11:27:17.000Z</time>
      </trkpt>
      <trkpt lat="45.58823" lon="6.62044">
        <ele>2329.3999023438</ele>
        <time>2019-02-08T11:27:19.000Z</time>
      </trkpt>
      <trkpt lat="45.58824" lon="6.62037">
        <ele>2331.1999511719</ele>
        <time>2019-02-08T11:27:24.000Z</time>
      </trkpt>
      <trkpt lat="45.58824" lon="6.62036">
        <ele>2331.6000976562</ele>
        <time>2019-02-08T11:27:25.000Z</time>
      </trkpt>
      <trkpt lat="45.58825" lon="6.62033">
        <ele>2332.3999023438</ele>
        <time>2019-02-08T11:27:31.000Z</time>
      </trkpt>
      <trkpt lat="45.58827" lon="6.6203">
        <ele>2332.8000488281</ele>
        <time>2019-02-08T11:27:36.000Z</time>
      </trkpt>
      <trkpt lat="45.58827" lon="6.62029">
        <ele>2333</ele>
        <time>2019-02-08T11:27:37.000Z</time>
      </trkpt>
      <trkpt lat="45.58828" lon="6.62026">
        <ele>2333.1999511719</ele>
        <time>2019-02-08T11:27:41.000Z</time>
      </trkpt>
      <trkpt lat="45.5883" lon="6.62024">
        <ele>2333.3999023438</ele>
        <time>2019-02-08T11:27:44.000Z</time>
      </trkpt>
      <trkpt lat="45.58831" lon="6.62022">
        <ele>2333.3999023438</ele>
        <time>2019-02-08T11:27:48.000Z</time>
      </trkpt>
      <trkpt lat="45.58832" lon="6.62021">
        <ele>2333</ele>
        <time>2019-02-08T11:27:50.000Z</time>
      </trkpt>
      <trkpt lat="45.58834" lon="6.6202">
        <ele>2332.3999023438</ele>
        <time>2019-02-08T11:27:55.000Z</time>
      </trkpt>
      <trkpt lat="45.58834" lon="6.6202">
        <ele>2332.3999023438</ele>
        <time>2019-02-08T11:28:03.000Z</time>
      </trkpt>
      <trkpt lat="45.58833" lon="6.6202">
        <ele>2333</ele>
        <time>2019-02-08T11:28:14.000Z</time>
      </trkpt>
      <trkpt lat="45.58831" lon="6.6202">
        <ele>2334.6000976562</ele>
        <time>2019-02-08T11:28:20.000Z</time>
      </trkpt>
      <trkpt lat="45.58828" lon="6.62022">
        <ele>2335.6000976562</ele>
        <time>2019-02-08T11:28:24.000Z</time>
      </trkpt>
      <trkpt lat="45.58826" lon="6.62023">
        <ele>2336</ele>
        <time>2019-02-08T11:28:26.000Z</time>
      </trkpt>
      <trkpt lat="45.58822" lon="6.62026">
        <ele>2337.1999511719</ele>
        <time>2019-02-08T11:28:32.000Z</time>
      </trkpt>
      <trkpt lat="45.58822" lon="6.62026">
        <ele>2337.1999511719</ele>
        <time>2019-02-08T11:28:35.000Z</time>
      </trkpt>
      <trkpt lat="45.58821" lon="6.62028">
        <ele>2337.3999023438</ele>
        <time>2019-02-08T11:28:38.000Z</time>
      </trkpt>
      <trkpt lat="45.58819" lon="6.62031">
        <ele>2337.6000976562</ele>
        <time>2019-02-08T11:28:44.000Z</time>
      </trkpt>
      <trkpt lat="45.58818" lon="6.62032">
        <ele>2337.3999023438</ele>
        <time>2019-02-08T11:28:45.000Z</time>
      </trkpt>
      <trkpt lat="45.58817" lon="6.62034">
        <ele>2337.1999511719</ele>
        <time>2019-02-08T11:28:50.000Z</time>
      </trkpt>
      <trkpt lat="45.58815" lon="6.62036">
        <ele>2337.1999511719</ele>
        <time>2019-02-08T11:28:57.000Z</time>
      </trkpt>
      <trkpt lat="45.58815" lon="6.62037">
        <ele>2337.1999511719</ele>
        <time>2019-02-08T11:28:58.000Z</time>
      </trkpt>
      <trkpt lat="45.58813" lon="6.6204">
        <ele>2337.3999023438</ele>
        <time>2019-02-08T11:29:02.000Z</time>
      </trkpt>
      <trkpt lat="45.58812" lon="6.62043">
        <ele>2336.6000976562</ele>
        <time>2019-02-08T11:29:07.000Z</time>
      </trkpt>
      <trkpt lat="45.5881" lon="6.62046">
        <ele>2336.6000976562</ele>
        <time>2019-02-08T11:29:11.000Z</time>
      </trkpt>
      <trkpt lat="45.5881" lon="6.62046">
        <ele>2336.3999023438</ele>
        <time>2019-02-08T11:29:12.000Z</time>
      </trkpt>
      <trkpt lat="45.58809" lon="6.6205">
        <ele>2335.1999511719</ele>
        <time>2019-02-08T11:29:18.000Z</time>
      </trkpt>
      <trkpt lat="45.58809" lon="6.62051">
        <ele>2335.1999511719</ele>
        <time>2019-02-08T11:29:25.000Z</time>
      </trkpt>
      <trkpt lat="45.58809" lon="6.62051">
        <ele>2335.1999511719</ele>
        <time>2019-02-08T11:29:31.000Z</time>
      </trkpt>
      <trkpt lat="45.58809" lon="6.62051">
        <ele>2335.1999511719</ele>
        <time>2019-02-08T11:29:33.000Z</time>
      </trkpt>
      <trkpt lat="45.58809" lon="6.62051">
        <ele>2335.1999511719</ele>
        <time>2019-02-08T11:29:35.000Z</time>
      </trkpt>
      <trkpt lat="45.58809" lon="6.6205">
        <ele>2335.3999023438</ele>
        <time>2019-02-08T11:29:38.000Z</time>
      </trkpt>
      <trkpt lat="45.58809" lon="6.6205">
        <ele>2335.3999023438</ele>
        <time>2019-02-08T11:29:45.000Z</time>
      </trkpt>
      <trkpt lat="45.58809" lon="6.62048">
        <ele>2336.1999511719</ele>
        <time>2019-02-08T11:29:54.000Z</time>
      </trkpt>
      <trkpt lat="45.5881" lon="6.62044">
        <ele>2337.1999511719</ele>
        <time>2019-02-08T11:29:59.000Z</time>
      </trkpt>
      <trkpt lat="45.5881" lon="6.62043">
        <ele>2337.6000976562</ele>
        <time>2019-02-08T11:30:06.000Z</time>
      </trkpt>
      <trkpt lat="45.58811" lon="6.62038">
        <ele>2339.8000488281</ele>
        <time>2019-02-08T11:30:14.000Z</time>
      </trkpt>
      <trkpt lat="45.58811" lon="6.62037">
        <ele>2340</ele>
        <time>2019-02-08T11:30:16.000Z</time>
      </trkpt>
      <trkpt lat="45.58811" lon="6.62034">
        <ele>2341</ele>
        <time>2019-02-08T11:30:20.000Z</time>
      </trkpt>
      <trkpt lat="45.58812" lon="6.62029">
        <ele>2342.6000976562</ele>
        <time>2019-02-08T11:30:29.000Z</time>
      </trkpt>
      <trkpt lat="45.58812" lon="6.62028">
        <ele>2342.8000488281</ele>
        <time>2019-02-08T11:30:31.000Z</time>
      </trkpt>
      <trkpt lat="45.58813" lon="6.62025">
        <ele>2343.3999023438</ele>
        <time>2019-02-08T11:30:35.000Z</time>
      </trkpt>
      <trkpt lat="45.58815" lon="6.62019">
        <ele>2345</ele>
        <time>2019-02-08T11:30:42.000Z</time>
      </trkpt>
      <trkpt lat="45.58816" lon="6.62017">
        <ele>2345.1999511719</ele>
        <time>2019-02-08T11:30:46.000Z</time>
      </trkpt>
      <trkpt lat="45.58817" lon="6.62016">
        <ele>2345.3999023438</ele>
        <time>2019-02-08T11:30:48.000Z</time>
      </trkpt>
      <trkpt lat="45.58818" lon="6.62014">
        <ele>2345.1999511719</ele>
        <time>2019-02-08T11:30:54.000Z</time>
      </trkpt>
      <trkpt lat="45.58818" lon="6.62014">
        <ele>2345.1999511719</ele>
        <time>2019-02-08T11:30:56.000Z</time>
      </trkpt>
      <trkpt lat="45.58819" lon="6.62013">
        <ele>2345</ele>
        <time>2019-02-08T11:31:03.000Z</time>
      </trkpt>
      <trkpt lat="45.58819" lon="6.62013">
        <ele>2345</ele>
        <time>2019-02-08T11:31:11.000Z</time>
      </trkpt>
      <trkpt lat="45.58819" lon="6.62013">
        <ele>2345</ele>
        <time>2019-02-08T11:31:20.000Z</time>
      </trkpt>
      <trkpt lat="45.58818" lon="6.62013">
        <ele>2345.6000976562</ele>
        <time>2019-02-08T11:31:26.000Z</time>
      </trkpt>
      <trkpt lat="45.58815" lon="6.62013">
        <ele>2347.3999023438</ele>
        <time>2019-02-08T11:31:28.000Z</time>
      </trkpt>
      <trkpt lat="45.58814" lon="6.62013">
        <ele>2347.8000488281</ele>
        <time>2019-02-08T11:31:34.000Z</time>
      </trkpt>
      <trkpt lat="45.58812" lon="6.62014">
        <ele>2349.1999511719</ele>
        <time>2019-02-08T11:31:39.000Z</time>
      </trkpt>
      <trkpt lat="45.58812" lon="6.62015">
        <ele>2348.8000488281</ele>
        <time>2019-02-08T11:31:43.000Z</time>
      </trkpt>
      <trkpt lat="45.5881" lon="6.62017">
        <ele>2349</ele>
        <time>2019-02-08T11:31:46.000Z</time>
      </trkpt>
      <trkpt lat="45.5881" lon="6.62018">
        <ele>2348.6000976562</ele>
        <time>2019-02-08T11:31:53.000Z</time>
      </trkpt>
      <trkpt lat="45.5881" lon="6.62018">
        <ele>2348.6000976562</ele>
        <time>2019-02-08T11:31:58.000Z</time>
      </trkpt>
      <trkpt lat="45.5881" lon="6.62018">
        <ele>2348.6000976562</ele>
        <time>2019-02-08T11:32:01.000Z</time>
      </trkpt>
      <trkpt lat="45.58807" lon="6.62025">
        <ele>2347.6000976562</ele>
        <time>2019-02-08T11:32:08.000Z</time>
      </trkpt>
      <trkpt lat="45.58806" lon="6.62026">
        <ele>2347.6000976562</ele>
        <time>2019-02-08T11:32:15.000Z</time>
      </trkpt>
      <trkpt lat="45.58806" lon="6.62026">
        <ele>2347.6000976562</ele>
        <time>2019-02-08T11:32:20.000Z</time>
      </trkpt>
      <trkpt lat="45.58805" lon="6.62027">
        <ele>2348.1999511719</ele>
        <time>2019-02-08T11:32:24.000Z</time>
      </trkpt>
      <trkpt lat="45.58805" lon="6.62026">
        <ele>2348.1999511719</ele>
        <time>2019-02-08T11:32:33.000Z</time>
      </trkpt>
      <trkpt lat="45.58805" lon="6.62025">
        <ele>2349.1999511719</ele>
        <time>2019-02-08T11:32:39.000Z</time>
      </trkpt>
      <trkpt lat="45.58805" lon="6.6202">
        <ele>2350.8000488281</ele>
        <time>2019-02-08T11:32:45.000Z</time>
      </trkpt>
      <trkpt lat="45.58805" lon="6.62017">
        <ele>2352</ele>
        <time>2019-02-08T11:32:50.000Z</time>
      </trkpt>
      <trkpt lat="45.58806" lon="6.62015">
        <ele>2352.6000976562</ele>
        <time>2019-02-08T11:32:55.000Z</time>
      </trkpt>
      <trkpt lat="45.58807" lon="6.62011">
        <ele>2353.8000488281</ele>
        <time>2019-02-08T11:33:01.000Z</time>
      </trkpt>
      <trkpt lat="45.58807" lon="6.62009">
        <ele>2354.1999511719</ele>
        <time>2019-02-08T11:33:06.000Z</time>
      </trkpt>
      <trkpt lat="45.58808" lon="6.62008">
        <ele>2354.1999511719</ele>
        <time>2019-02-08T11:33:08.000Z</time>
      </trkpt>
      <trkpt lat="45.58809" lon="6.62008">
        <ele>2354</ele>
        <time>2019-02-08T11:33:14.000Z</time>
      </trkpt>
      <trkpt lat="45.5881" lon="6.62005">
        <ele>2354.1999511719</ele>
        <time>2019-02-08T11:33:18.000Z</time>
      </trkpt>
      <trkpt lat="45.58811" lon="6.62005">
        <ele>2353.8000488281</ele>
        <time>2019-02-08T11:33:21.000Z</time>
      </trkpt>
      <trkpt lat="45.58813" lon="6.62002">
        <ele>2353.6000976562</ele>
        <time>2019-02-08T11:33:30.000Z</time>
      </trkpt>
      <trkpt lat="45.58814" lon="6.62001">
        <ele>2353.1999511719</ele>
        <time>2019-02-08T11:33:34.000Z</time>
      </trkpt>
      <trkpt lat="45.58814" lon="6.62001">
        <ele>2353.1999511719</ele>
        <time>2019-02-08T11:33:38.000Z</time>
      </trkpt>
      <trkpt lat="45.58814" lon="6.62001">
        <ele>2353.1999511719</ele>
        <time>2019-02-08T11:33:49.000Z</time>
      </trkpt>
      <trkpt lat="45.58814" lon="6.62001">
        <ele>2353.1999511719</ele>
        <time>2019-02-08T11:33:50.000Z</time>
      </trkpt>
      <trkpt lat="45.58814" lon="6.62002">
        <ele>2353.3999023438</ele>
        <time>2019-02-08T11:33:53.000Z</time>
      </trkpt>
      <trkpt lat="45.58811" lon="6.62002">
        <ele>2354.3999023438</ele>
        <time>2019-02-08T11:33:58.000Z</time>
      </trkpt>
      <trkpt lat="45.58809" lon="6.62003">
        <ele>2355.3999023438</ele>
        <time>2019-02-08T11:34:02.000Z</time>
      </trkpt>
      <trkpt lat="45.58809" lon="6.62003">
        <ele>2356</ele>
        <time>2019-02-08T11:34:05.000Z</time>
      </trkpt>
      <trkpt lat="45.58806" lon="6.62004">
        <ele>2357.1999511719</ele>
        <time>2019-02-08T11:34:12.000Z</time>
      </trkpt>
      <trkpt lat="45.58802" lon="6.62004">
        <ele>2359.3999023438</ele>
        <time>2019-02-08T11:34:20.000Z</time>
      </trkpt>
      <trkpt lat="45.58798" lon="6.62011">
        <ele>2358.1999511719</ele>
        <time>2019-02-08T11:34:27.000Z</time>
      </trkpt>
      <trkpt lat="45.58796" lon="6.62013">
        <ele>2357.6000976562</ele>
        <time>2019-02-08T11:34:34.000Z</time>
      </trkpt>
      <trkpt lat="45.58796" lon="6.62013">
        <ele>2357.6000976562</ele>
        <time>2019-02-08T11:34:39.000Z</time>
      </trkpt>
      <trkpt lat="45.58795" lon="6.62015">
        <ele>2357.1999511719</ele>
        <time>2019-02-08T11:34:43.000Z</time>
      </trkpt>
      <trkpt lat="45.58794" lon="6.62016">
        <ele>2357</ele>
        <time>2019-02-08T11:34:50.000Z</time>
      </trkpt>
      <trkpt lat="45.58794" lon="6.62016">
        <ele>2357</ele>
        <time>2019-02-08T11:34:51.000Z</time>
      </trkpt>
      <trkpt lat="45.58793" lon="6.62019">
        <ele>2356.1999511719</ele>
        <time>2019-02-08T11:34:57.000Z</time>
      </trkpt>
      <trkpt lat="45.58793" lon="6.62019">
        <ele>2356.1999511719</ele>
        <time>2019-02-08T11:34:59.000Z</time>
      </trkpt>
      <trkpt lat="45.58793" lon="6.62019">
        <ele>2356.1999511719</ele>
        <time>2019-02-08T11:35:03.000Z</time>
      </trkpt>
      <trkpt lat="45.58793" lon="6.62019">
        <ele>2356.1999511719</ele>
        <time>2019-02-08T11:35:04.000Z</time>
      </trkpt>
      <trkpt lat="45.58793" lon="6.62019">
        <ele>2356.1999511719</ele>
        <time>2019-02-08T11:35:06.000Z</time>
      </trkpt>
      <trkpt lat="45.58793" lon="6.62018">
        <ele>2356.8000488281</ele>
        <time>2019-02-08T11:35:12.000Z</time>
      </trkpt>
      <trkpt lat="45.58793" lon="6.62018">
        <ele>2356.8000488281</ele>
        <time>2019-02-08T11:35:13.000Z</time>
      </trkpt>
      <trkpt lat="45.58794" lon="6.62012">
        <ele>2358.8000488281</ele>
        <time>2019-02-08T11:35:19.000Z</time>
      </trkpt>
      <trkpt lat="45.58794" lon="6.62012">
        <ele>2359</ele>
        <time>2019-02-08T11:35:22.000Z</time>
      </trkpt>
      <trkpt lat="45.58794" lon="6.6201">
        <ele>2359.8000488281</ele>
        <time>2019-02-08T11:35:25.000Z</time>
      </trkpt>
      <trkpt lat="45.58795" lon="6.62006">
        <ele>2361.3999023438</ele>
        <time>2019-02-08T11:35:31.000Z</time>
      </trkpt>
      <trkpt lat="45.58795" lon="6.62005">
        <ele>2361.6000976562</ele>
        <time>2019-02-08T11:35:32.000Z</time>
      </trkpt>
      <trkpt lat="45.58795" lon="6.62004">
        <ele>2362.1999511719</ele>
        <time>2019-02-08T11:35:37.000Z</time>
      </trkpt>
      <trkpt lat="45.58795" lon="6.62001">
        <ele>2363.3999023438</ele>
        <time>2019-02-08T11:35:42.000Z</time>
      </trkpt>
      <trkpt lat="45.58795" lon="6.62">
        <ele>2363.8000488281</ele>
        <time>2019-02-08T11:35:43.000Z</time>
      </trkpt>
      <trkpt lat="45.58795" lon="6.62">
        <ele>2363.8000488281</ele>
        <time>2019-02-08T11:35:52.000Z</time>
      </trkpt>
      <trkpt lat="45.58795" lon="6.62">
        <ele>2363.8000488281</ele>
        <time>2019-02-08T11:36:02.000Z</time>
      </trkpt>
      <trkpt lat="45.58793" lon="6.62001">
        <ele>2363.8000488281</ele>
        <time>2019-02-08T11:36:09.000Z</time>
      </trkpt>
      <trkpt lat="45.58789" lon="6.62006">
        <ele>2363</ele>
        <time>2019-02-08T11:36:17.000Z</time>
      </trkpt>
      <trkpt lat="45.58787" lon="6.62008">
        <ele>2362.8000488281</ele>
        <time>2019-02-08T11:36:21.000Z</time>
      </trkpt>
      <trkpt lat="45.58786" lon="6.6201">
        <ele>2362.1999511719</ele>
        <time>2019-02-08T11:36:24.000Z</time>
      </trkpt>
      <trkpt lat="45.58787" lon="6.62016">
        <ele>2359.6000976562</ele>
        <time>2019-02-08T11:36:30.000Z</time>
      </trkpt>
      <trkpt lat="45.58786" lon="6.62019">
        <ele>2358.3999023438</ele>
        <time>2019-02-08T11:36:37.000Z</time>
      </trkpt>
      <trkpt lat="45.58786" lon="6.62019">
        <ele>2358.3999023438</ele>
        <time>2019-02-08T11:36:41.000Z</time>
      </trkpt>
      <trkpt lat="45.58786" lon="6.62018">
        <ele>2358.6000976562</ele>
        <time>2019-02-08T11:36:46.000Z</time>
      </trkpt>
      <trkpt lat="45.58786" lon="6.62018">
        <ele>2358.6000976562</ele>
        <time>2019-02-08T11:36:55.000Z</time>
      </trkpt>
      <trkpt lat="45.58786" lon="6.62017">
        <ele>2359.1999511719</ele>
        <time>2019-02-08T11:37:02.000Z</time>
      </trkpt>
      <trkpt lat="45.58786" lon="6.62013">
        <ele>2360.8000488281</ele>
        <time>2019-02-08T11:37:07.000Z</time>
      </trkpt>
      <trkpt lat="45.58786" lon="6.62011">
        <ele>2361.6000976562</ele>
        <time>2019-02-08T11:37:11.000Z</time>
      </trkpt>
      <trkpt lat="45.58787" lon="6.6201">
        <ele>2362</ele>
        <time>2019-02-08T11:37:12.000Z</time>
      </trkpt>
      <trkpt lat="45.58787" lon="6.62007">
        <ele>2363</ele>
        <time>2019-02-08T11:37:16.000Z</time>
      </trkpt>
      <trkpt lat="45.58787" lon="6.62004">
        <ele>2364.3999023438</ele>
        <time>2019-02-08T11:37:22.000Z</time>
      </trkpt>
      <trkpt lat="45.58788" lon="6.62003">
        <ele>2364.6000976562</ele>
        <time>2019-02-08T11:37:30.000Z</time>
      </trkpt>
      <trkpt lat="45.58788" lon="6.62003">
        <ele>2364.6000976562</ele>
        <time>2019-02-08T11:37:44.000Z</time>
      </trkpt>
      <trkpt lat="45.58788" lon="6.62003">
        <ele>2364.6000976562</ele>
        <time>2019-02-08T11:37:57.000Z</time>
      </trkpt>
      <trkpt lat="45.58788" lon="6.62003">
        <ele>2364.6000976562</ele>
        <time>2019-02-08T11:38:07.000Z</time>
      </trkpt>
      <trkpt lat="45.58787" lon="6.62003">
        <ele>2365</ele>
        <time>2019-02-08T11:38:21.000Z</time>
      </trkpt>
      <trkpt lat="45.58786" lon="6.62004">
        <ele>2364.8000488281</ele>
        <time>2019-02-08T11:38:28.000Z</time>
      </trkpt>
      <trkpt lat="45.58785" lon="6.62004">
        <ele>2364.8000488281</ele>
        <time>2019-02-08T11:38:29.000Z</time>
      </trkpt>
      <trkpt lat="45.58784" lon="6.62009">
        <ele>2363.3999023438</ele>
        <time>2019-02-08T11:38:35.000Z</time>
      </trkpt>
      <trkpt lat="45.58783" lon="6.6201">
        <ele>2362.8000488281</ele>
        <time>2019-02-08T11:38:40.000Z</time>
      </trkpt>
      <trkpt lat="45.58783" lon="6.62013">
        <ele>2362</ele>
        <time>2019-02-08T11:38:50.000Z</time>
      </trkpt>
      <trkpt lat="45.58783" lon="6.62014">
        <ele>2361.6000976562</ele>
        <time>2019-02-08T11:38:57.000Z</time>
      </trkpt>
      <trkpt lat="45.58783" lon="6.62014">
        <ele>2361.6000976562</ele>
        <time>2019-02-08T11:39:04.000Z</time>
      </trkpt>
      <trkpt lat="45.58783" lon="6.62014">
        <ele>2361.6000976562</ele>
        <time>2019-02-08T11:39:08.000Z</time>
      </trkpt>
      <trkpt lat="45.58783" lon="6.62011">
        <ele>2363</ele>
        <time>2019-02-08T11:39:14.000Z</time>
      </trkpt>
      <trkpt lat="45.58784" lon="6.62006">
        <ele>2364.8000488281</ele>
        <time>2019-02-08T11:39:19.000Z</time>
      </trkpt>
      <trkpt lat="45.58784" lon="6.62006">
        <ele>2364.8000488281</ele>
        <time>2019-02-08T11:39:31.000Z</time>
      </trkpt>
      <trkpt lat="45.58784" lon="6.62006">
        <ele>2364.8000488281</ele>
        <time>2019-02-08T11:39:44.000Z</time>
      </trkpt>
      <trkpt lat="45.58784" lon="6.62006">
        <ele>2364.8000488281</ele>
        <time>2019-02-08T11:39:45.000Z</time>
      </trkpt>
      <trkpt lat="45.58784" lon="6.62005">
        <ele>2365</ele>
        <time>2019-02-08T11:40:01.000Z</time>
      </trkpt>
      <trkpt lat="45.58784" lon="6.62005">
        <ele>2365</ele>
        <time>2019-02-08T11:40:07.000Z</time>
      </trkpt>
      <trkpt lat="45.58784" lon="6.62005">
        <ele>2365</ele>
        <time>2019-02-08T11:40:09.000Z</time>
      </trkpt>
      <trkpt lat="45.58784" lon="6.62006">
        <ele>2364.6000976562</ele>
        <time>2019-02-08T11:40:20.000Z</time>
      </trkpt>
      <trkpt lat="45.58784" lon="6.62006">
        <ele>2364.6000976562</ele>
        <time>2019-02-08T11:40:23.000Z</time>
      </trkpt>
      <trkpt lat="45.58784" lon="6.62006">
        <ele>2364.6000976562</ele>
        <time>2019-02-08T11:40:26.000Z</time>
      </trkpt>
      <trkpt lat="45.58784" lon="6.62006">
        <ele>2364.6000976562</ele>
        <time>2019-02-08T11:40:31.000Z</time>
      </trkpt>
      <trkpt lat="45.58782" lon="6.62007">
        <ele>2364.6000976562</ele>
        <time>2019-02-08T11:40:39.000Z</time>
      </trkpt>
      <trkpt lat="45.58782" lon="6.62008">
        <ele>2364.1999511719</ele>
        <time>2019-02-08T11:40:40.000Z</time>
      </trkpt>
      <trkpt lat="45.58782" lon="6.62008">
        <ele>2364.1999511719</ele>
        <time>2019-02-08T11:40:47.000Z</time>
      </trkpt>
      <trkpt lat="45.58781" lon="6.62011">
        <ele>2363.3999023438</ele>
        <time>2019-02-08T11:40:54.000Z</time>
      </trkpt>
      <trkpt lat="45.58781" lon="6.62011">
        <ele>2363.3999023438</ele>
        <time>2019-02-08T11:40:56.000Z</time>
      </trkpt>
      <trkpt lat="45.58781" lon="6.62011">
        <ele>2363.3999023438</ele>
        <time>2019-02-08T11:41:04.000Z</time>
      </trkpt>
      <trkpt lat="45.5878" lon="6.6201">
        <ele>2364</ele>
        <time>2019-02-08T11:41:07.000Z</time>
      </trkpt>
      <trkpt lat="45.5878" lon="6.6201">
        <ele>2364</ele>
        <time>2019-02-08T11:41:12.000Z</time>
      </trkpt>
      <trkpt lat="45.5878" lon="6.6201">
        <ele>2364.1999511719</ele>
        <time>2019-02-08T11:41:15.000Z</time>
      </trkpt>
      <trkpt lat="45.58779" lon="6.62008">
        <ele>2365.1999511719</ele>
        <time>2019-02-08T11:41:18.000Z</time>
      </trkpt>
      <trkpt lat="45.58779" lon="6.62008">
        <ele>2365.1999511719</ele>
        <time>2019-02-08T11:41:21.000Z</time>
      </trkpt>
      <trkpt lat="45.58779" lon="6.62008">
        <ele>2365.1999511719</ele>
        <time>2019-02-08T11:41:31.000Z</time>
      </trkpt>
      <trkpt lat="45.58779" lon="6.62007">
        <ele>2365.3999023438</ele>
        <time>2019-02-08T11:41:38.000Z</time>
      </trkpt>
      <trkpt lat="45.58779" lon="6.62006">
        <ele>2366</ele>
        <time>2019-02-08T11:41:46.000Z</time>
      </trkpt>
      <trkpt lat="45.58779" lon="6.62005">
        <ele>2366.3999023438</ele>
        <time>2019-02-08T11:41:51.000Z</time>
      </trkpt>
      <trkpt lat="45.58779" lon="6.62005">
        <ele>2366.3999023438</ele>
        <time>2019-02-08T11:41:54.000Z</time>
      </trkpt>
      <trkpt lat="45.58779" lon="6.62005">
        <ele>2366.3999023438</ele>
        <time>2019-02-08T11:42:02.000Z</time>
      </trkpt>
      <trkpt lat="45.58779" lon="6.62005">
        <ele>2366.3999023438</ele>
        <time>2019-02-08T11:42:15.000Z</time>
      </trkpt>
      <trkpt lat="45.58778" lon="6.62006">
        <ele>2366.3999023438</ele>
        <time>2019-02-08T11:42:22.000Z</time>
      </trkpt>
      <trkpt lat="45.58778" lon="6.62006">
        <ele>2366.3999023438</ele>
        <time>2019-02-08T11:42:23.000Z</time>
      </trkpt>
      <trkpt lat="45.58776" lon="6.62011">
        <ele>2364.6000976562</ele>
        <time>2019-02-08T11:42:30.000Z</time>
      </trkpt>
      <trkpt lat="45.58775" lon="6.62014">
        <ele>2363.8000488281</ele>
        <time>2019-02-08T11:42:35.000Z</time>
      </trkpt>
      <trkpt lat="45.58775" lon="6.62015">
        <ele>2363.6000976562</ele>
        <time>2019-02-08T11:42:36.000Z</time>
      </trkpt>
      <trkpt lat="45.58774" lon="6.62015">
        <ele>2363.8000488281</ele>
        <time>2019-02-08T11:42:41.000Z</time>
      </trkpt>
      <trkpt lat="45.58774" lon="6.62015">
        <ele>2363.8000488281</ele>
        <time>2019-02-08T11:42:48.000Z</time>
      </trkpt>
      <trkpt lat="45.58774" lon="6.6201">
        <ele>2366</ele>
        <time>2019-02-08T11:42:56.000Z</time>
      </trkpt>
      <trkpt lat="45.58773" lon="6.62006">
        <ele>2368</ele>
        <time>2019-02-08T11:43:02.000Z</time>
      </trkpt>
      <trkpt lat="45.58773" lon="6.62006">
        <ele>2368</ele>
        <time>2019-02-08T11:43:05.000Z</time>
      </trkpt>
      <trkpt lat="45.58773" lon="6.62006">
        <ele>2368</ele>
        <time>2019-02-08T11:43:13.000Z</time>
      </trkpt>
      <trkpt lat="45.58773" lon="6.62006">
        <ele>2368</ele>
        <time>2019-02-08T11:43:22.000Z</time>
      </trkpt>
      <trkpt lat="45.58771" lon="6.6201">
        <ele>2366.8000488281</ele>
        <time>2019-02-08T11:43:28.000Z</time>
      </trkpt>
      <trkpt lat="45.5877" lon="6.62013">
        <ele>2365.8000488281</ele>
        <time>2019-02-08T11:43:30.000Z</time>
      </trkpt>
      <trkpt lat="45.5877" lon="6.62015">
        <ele>2365.1999511719</ele>
        <time>2019-02-08T11:43:34.000Z</time>
      </trkpt>
      <trkpt lat="45.58769" lon="6.62017">
        <ele>2364.6000976562</ele>
        <time>2019-02-08T11:43:40.000Z</time>
      </trkpt>
      <trkpt lat="45.58769" lon="6.62016">
        <ele>2364.8000488281</ele>
        <time>2019-02-08T11:43:47.000Z</time>
      </trkpt>
      <trkpt lat="45.58769" lon="6.62016">
        <ele>2364.8000488281</ele>
        <time>2019-02-08T11:43:50.000Z</time>
      </trkpt>
      <trkpt lat="45.58768" lon="6.62012">
        <ele>2367</ele>
        <time>2019-02-08T11:43:56.000Z</time>
      </trkpt>
      <trkpt lat="45.58767" lon="6.6201">
        <ele>2368</ele>
        <time>2019-02-08T11:44:05.000Z</time>
      </trkpt>
      <trkpt lat="45.58767" lon="6.6201">
        <ele>2368</ele>
        <time>2019-02-08T11:44:24.000Z</time>
      </trkpt>
      <trkpt lat="45.58767" lon="6.62009">
        <ele>2368.3999023438</ele>
        <time>2019-02-08T11:44:38.000Z</time>
      </trkpt>
      <trkpt lat="45.58768" lon="6.62003">
        <ele>2370.6000976562</ele>
        <time>2019-02-08T11:44:43.000Z</time>
      </trkpt>
      <trkpt lat="45.58765" lon="6.62003">
        <ele>2371.6000976562</ele>
        <time>2019-02-08T11:44:50.000Z</time>
      </trkpt>
      <trkpt lat="45.58764" lon="6.62002">
        <ele>2372.8000488281</ele>
        <time>2019-02-08T11:44:57.000Z</time>
      </trkpt>
      <trkpt lat="45.58765" lon="6.62003">
        <ele>2371.8000488281</ele>
        <time>2019-02-08T11:45:03.000Z</time>
      </trkpt>
      <trkpt lat="45.58766" lon="6.62006">
        <ele>2370.1999511719</ele>
        <time>2019-02-08T11:45:06.000Z</time>
      </trkpt>
      <trkpt lat="45.58765" lon="6.6201">
        <ele>2369</ele>
        <time>2019-02-08T11:45:08.000Z</time>
      </trkpt>
      <trkpt lat="45.58764" lon="6.62013">
        <ele>2368</ele>
        <time>2019-02-08T11:45:11.000Z</time>
      </trkpt>
      <trkpt lat="45.58764" lon="6.62016">
        <ele>2366.3999023438</ele>
        <time>2019-02-08T11:45:16.000Z</time>
      </trkpt>
      <trkpt lat="45.58764" lon="6.62016">
        <ele>2366.3999023438</ele>
        <time>2019-02-08T11:45:19.000Z</time>
      </trkpt>
      <trkpt lat="45.58764" lon="6.62016">
        <ele>2366.3999023438</ele>
        <time>2019-02-08T11:45:23.000Z</time>
      </trkpt>
      <trkpt lat="45.58763" lon="6.62012">
        <ele>2368.1999511719</ele>
        <time>2019-02-08T11:45:30.000Z</time>
      </trkpt>
      <trkpt lat="45.58762" lon="6.62009">
        <ele>2370</ele>
        <time>2019-02-08T11:45:35.000Z</time>
      </trkpt>
      <trkpt lat="45.58762" lon="6.62007">
        <ele>2371</ele>
        <time>2019-02-08T11:45:39.000Z</time>
      </trkpt>
      <trkpt lat="45.58762" lon="6.62004">
        <ele>2372.3999023438</ele>
        <time>2019-02-08T11:45:40.000Z</time>
      </trkpt>
      <trkpt lat="45.58762" lon="6.62003">
        <ele>2372.6000976562</ele>
        <time>2019-02-08T11:45:45.000Z</time>
      </trkpt>
      <trkpt lat="45.58762" lon="6.62003">
        <ele>2372.6000976562</ele>
        <time>2019-02-08T11:45:47.000Z</time>
      </trkpt>
      <trkpt lat="45.58761" lon="6.62003">
        <ele>2372.8000488281</ele>
        <time>2019-02-08T11:45:56.000Z</time>
      </trkpt>
      <trkpt lat="45.58759" lon="6.62006">
        <ele>2372</ele>
        <time>2019-02-08T11:45:59.000Z</time>
      </trkpt>
      <trkpt lat="45.58759" lon="6.62009">
        <ele>2371.1999511719</ele>
        <time>2019-02-08T11:46:02.000Z</time>
      </trkpt>
      <trkpt lat="45.58757" lon="6.62012">
        <ele>2370.3999023438</ele>
        <time>2019-02-08T11:46:07.000Z</time>
      </trkpt>
      <trkpt lat="45.58757" lon="6.62012">
        <ele>2370.3999023438</ele>
        <time>2019-02-08T11:46:13.000Z</time>
      </trkpt>
      <trkpt lat="45.58757" lon="6.62011">
        <ele>2371</ele>
        <time>2019-02-08T11:46:16.000Z</time>
      </trkpt>
      <trkpt lat="45.58757" lon="6.62008">
        <ele>2372</ele>
        <time>2019-02-08T11:46:27.000Z</time>
      </trkpt>
      <trkpt lat="45.58757" lon="6.62004">
        <ele>2373.8000488281</ele>
        <time>2019-02-08T11:46:32.000Z</time>
      </trkpt>
      <trkpt lat="45.58757" lon="6.62003">
        <ele>2374.3999023438</ele>
        <time>2019-02-08T11:46:36.000Z</time>
      </trkpt>
      <trkpt lat="45.58757" lon="6.62003">
        <ele>2374.3999023438</ele>
        <time>2019-02-08T11:46:41.000Z</time>
      </trkpt>
      <trkpt lat="45.58754" lon="6.62005">
        <ele>2374.6000976562</ele>
        <time>2019-02-08T11:46:47.000Z</time>
      </trkpt>
      <trkpt lat="45.58752" lon="6.62006">
        <ele>2374.1999511719</ele>
        <time>2019-02-08T11:46:50.000Z</time>
      </trkpt>
      <trkpt lat="45.58751" lon="6.62011">
        <ele>2372.8000488281</ele>
        <time>2019-02-08T11:46:53.000Z</time>
      </trkpt>
      <trkpt lat="45.58751" lon="6.62011">
        <ele>2372.8000488281</ele>
        <time>2019-02-08T11:46:54.000Z</time>
      </trkpt>
      <trkpt lat="45.58751" lon="6.62011">
        <ele>2372.6000976562</ele>
        <time>2019-02-08T11:47:02.000Z</time>
      </trkpt>
      <trkpt lat="45.5875" lon="6.6201">
        <ele>2373.3999023438</ele>
        <time>2019-02-08T11:47:10.000Z</time>
      </trkpt>
      <trkpt lat="45.5875" lon="6.6201">
        <ele>2373.3999023438</ele>
        <time>2019-02-08T11:47:16.000Z</time>
      </trkpt>
      <trkpt lat="45.5875" lon="6.6201">
        <ele>2373.3999023438</ele>
        <time>2019-02-08T11:47:34.000Z</time>
      </trkpt>
      <trkpt lat="45.5875" lon="6.6201">
        <ele>2373.3999023438</ele>
        <time>2019-02-08T11:47:47.000Z</time>
      </trkpt>
      <trkpt lat="45.5875" lon="6.6201">
        <ele>2373.6000976562</ele>
        <time>2019-02-08T11:47:57.000Z</time>
      </trkpt>
      <trkpt lat="45.58752" lon="6.62003">
        <ele>2376.1999511719</ele>
        <time>2019-02-08T11:48:02.000Z</time>
      </trkpt>
      <trkpt lat="45.58752" lon="6.62001">
        <ele>2376.6000976562</ele>
        <time>2019-02-08T11:48:04.000Z</time>
      </trkpt>
      <trkpt lat="45.58753" lon="6.62">
        <ele>2376.8000488281</ele>
        <time>2019-02-08T11:48:05.000Z</time>
      </trkpt>
      <trkpt lat="45.58754" lon="6.61998">
        <ele>2377.6000976562</ele>
        <time>2019-02-08T11:48:08.000Z</time>
      </trkpt>
      <trkpt lat="45.58754" lon="6.61998">
        <ele>2377.6000976562</ele>
        <time>2019-02-08T11:48:09.000Z</time>
      </trkpt>
      <trkpt lat="45.58754" lon="6.61998">
        <ele>2377.6000976562</ele>
        <time>2019-02-08T11:48:10.000Z</time>
      </trkpt>
      <trkpt lat="45.58754" lon="6.61998">
        <ele>2377.6000976562</ele>
        <time>2019-02-08T11:48:14.000Z</time>
      </trkpt>
      <trkpt lat="45.58754" lon="6.61998">
        <ele>2377.6000976562</ele>
        <time>2019-02-08T11:48:23.000Z</time>
      </trkpt>
      <trkpt lat="45.58755" lon="6.61994">
        <ele>2379</ele>
        <time>2019-02-08T11:48:28.000Z</time>
      </trkpt>
      <trkpt lat="45.58755" lon="6.61992">
        <ele>2379.6000976562</ele>
        <time>2019-02-08T11:48:29.000Z</time>
      </trkpt>
      <trkpt lat="45.58755" lon="6.61991">
        <ele>2380</ele>
        <time>2019-02-08T11:48:30.000Z</time>
      </trkpt>
      <trkpt lat="45.58757" lon="6.61985">
        <ele>2382</ele>
        <time>2019-02-08T11:48:34.000Z</time>
      </trkpt>
      <trkpt lat="45.58757" lon="6.61983">
        <ele>2382.3999023438</ele>
        <time>2019-02-08T11:48:38.000Z</time>
      </trkpt>
      <trkpt lat="45.58757" lon="6.61981">
        <ele>2382.8000488281</ele>
        <time>2019-02-08T11:48:39.000Z</time>
      </trkpt>
      <trkpt lat="45.58757" lon="6.61979">
        <ele>2383</ele>
        <time>2019-02-08T11:48:40.000Z</time>
      </trkpt>
      <trkpt lat="45.58757" lon="6.61972">
        <ele>2384</ele>
        <time>2019-02-08T11:48:45.000Z</time>
      </trkpt>
      <trkpt lat="45.58758" lon="6.61971">
        <ele>2384.1999511719</ele>
        <time>2019-02-08T11:48:46.000Z</time>
      </trkpt>
      <trkpt lat="45.58757" lon="6.61966">
        <ele>2385.1999511719</ele>
        <time>2019-02-08T11:48:50.000Z</time>
      </trkpt>
      <trkpt lat="45.58756" lon="6.61962">
        <ele>2386</ele>
        <time>2019-02-08T11:48:53.000Z</time>
      </trkpt>
      <trkpt lat="45.58757" lon="6.6196">
        <ele>2386.3999023438</ele>
        <time>2019-02-08T11:48:55.000Z</time>
      </trkpt>
      <trkpt lat="45.58757" lon="6.61951">
        <ele>2387.6000976562</ele>
        <time>2019-02-08T11:49:00.000Z</time>
      </trkpt>
      <trkpt lat="45.58758" lon="6.6195">
        <ele>2387.6000976562</ele>
        <time>2019-02-08T11:49:01.000Z</time>
      </trkpt>
      <trkpt lat="45.58759" lon="6.61946">
        <ele>2387.8000488281</ele>
        <time>2019-02-08T11:49:06.000Z</time>
      </trkpt>
      <trkpt lat="45.58759" lon="6.61946">
        <ele>2387.8000488281</ele>
        <time>2019-02-08T11:49:12.000Z</time>
      </trkpt>
      <trkpt lat="45.58759" lon="6.61946">
        <ele>2387.8000488281</ele>
        <time>2019-02-08T11:49:18.000Z</time>
      </trkpt>
      <trkpt lat="45.58759" lon="6.61946">
        <ele>2387.8000488281</ele>
        <time>2019-02-08T11:49:22.000Z</time>
      </trkpt>
      <trkpt lat="45.58759" lon="6.61946">
        <ele>2387.8000488281</ele>
        <time>2019-02-08T11:49:24.000Z</time>
      </trkpt>
      <trkpt lat="45.5876" lon="6.61947">
        <ele>2387.6000976562</ele>
        <time>2019-02-08T11:49:26.000Z</time>
      </trkpt>
      <trkpt lat="45.58761" lon="6.61948">
        <ele>2387.1999511719</ele>
        <time>2019-02-08T11:49:28.000Z</time>
      </trkpt>
      <trkpt lat="45.58762" lon="6.6195">
        <ele>2386.1999511719</ele>
        <time>2019-02-08T11:49:32.000Z</time>
      </trkpt>
      <trkpt lat="45.58765" lon="6.61953">
        <ele>2385</ele>
        <time>2019-02-08T11:49:37.000Z</time>
      </trkpt>
      <trkpt lat="45.58765" lon="6.61953">
        <ele>2384.8000488281</ele>
        <time>2019-02-08T11:49:38.000Z</time>
      </trkpt>
      <trkpt lat="45.58767" lon="6.61954">
        <ele>2384</ele>
        <time>2019-02-08T11:49:41.000Z</time>
      </trkpt>
      <trkpt lat="45.58769" lon="6.61957">
        <ele>2383.1999511719</ele>
        <time>2019-02-08T11:49:45.000Z</time>
      </trkpt>
      <trkpt lat="45.58769" lon="6.61957">
        <ele>2383</ele>
        <time>2019-02-08T11:49:46.000Z</time>
      </trkpt>
      <trkpt lat="45.58769" lon="6.61957">
        <ele>2383.1999511719</ele>
        <time>2019-02-08T11:49:52.000Z</time>
      </trkpt>
      <trkpt lat="45.58769" lon="6.61957">
        <ele>2383.1999511719</ele>
        <time>2019-02-08T11:50:03.000Z</time>
      </trkpt>
      <trkpt lat="45.58769" lon="6.61957">
        <ele>2383.1999511719</ele>
        <time>2019-02-08T11:50:15.000Z</time>
      </trkpt>
      <trkpt lat="45.58769" lon="6.61957">
        <ele>2383.1999511719</ele>
        <time>2019-02-08T11:50:17.000Z</time>
      </trkpt>
      <trkpt lat="45.58769" lon="6.61957">
        <ele>2383</ele>
        <time>2019-02-08T11:50:25.000Z</time>
      </trkpt>
      <trkpt lat="45.58769" lon="6.61957">
        <ele>2383</ele>
        <time>2019-02-08T11:50:28.000Z</time>
      </trkpt>
      <trkpt lat="45.58769" lon="6.61957">
        <ele>2383</ele>
        <time>2019-02-08T11:50:30.000Z</time>
      </trkpt>
      <trkpt lat="45.58769" lon="6.61957">
        <ele>2383</ele>
        <time>2019-02-08T11:50:44.000Z</time>
      </trkpt>
      <trkpt lat="45.58769" lon="6.61957">
        <ele>2383</ele>
        <time>2019-02-08T11:50:57.000Z</time>
      </trkpt>
      <trkpt lat="45.58769" lon="6.61957">
        <ele>2383</ele>
        <time>2019-02-08T11:51:07.000Z</time>
      </trkpt>
      <trkpt lat="45.58769" lon="6.61957">
        <ele>2383</ele>
        <time>2019-02-08T11:51:15.000Z</time>
      </trkpt>
      <trkpt lat="45.58769" lon="6.61957">
        <ele>2383</ele>
        <time>2019-02-08T11:51:25.000Z</time>
      </trkpt>
      <trkpt lat="45.58769" lon="6.61957">
        <ele>2383</ele>
        <time>2019-02-08T11:51:39.000Z</time>
      </trkpt>
      <trkpt lat="45.58769" lon="6.61957">
        <ele>2383</ele>
        <time>2019-02-08T11:51:54.000Z</time>
      </trkpt>
      <trkpt lat="45.58769" lon="6.61957">
        <ele>2383</ele>
        <time>2019-02-08T11:52:11.000Z</time>
      </trkpt>
      <trkpt lat="45.58769" lon="6.61958">
        <ele>2382.8000488281</ele>
        <time>2019-02-08T11:52:33.000Z</time>
      </trkpt>
      <trkpt lat="45.58769" lon="6.61958">
        <ele>2382.8000488281</ele>
        <time>2019-02-08T11:52:47.000Z</time>
      </trkpt>
      <trkpt lat="45.58769" lon="6.61958">
        <ele>2382.8000488281</ele>
        <time>2019-02-08T11:52:53.000Z</time>
      </trkpt>
      <trkpt lat="45.58769" lon="6.61958">
        <ele>2382.8000488281</ele>
        <time>2019-02-08T11:53:01.000Z</time>
      </trkpt>
      <trkpt lat="45.58769" lon="6.61958">
        <ele>2382.8000488281</ele>
        <time>2019-02-08T11:53:18.000Z</time>
      </trkpt>
      <trkpt lat="45.58769" lon="6.61958">
        <ele>2382.8000488281</ele>
        <time>2019-02-08T11:53:21.000Z</time>
      </trkpt>
      <trkpt lat="45.5877" lon="6.61958">
        <ele>2382.3999023438</ele>
        <time>2019-02-08T11:53:28.000Z</time>
      </trkpt>
      <trkpt lat="45.5877" lon="6.61958">
        <ele>2382.3999023438</ele>
        <time>2019-02-08T11:53:40.000Z</time>
      </trkpt>
      <trkpt lat="45.58771" lon="6.61958">
        <ele>2382.1999511719</ele>
        <time>2019-02-08T11:53:42.000Z</time>
      </trkpt>
      <trkpt lat="45.58773" lon="6.61956">
        <ele>2382.1999511719</ele>
        <time>2019-02-08T11:53:48.000Z</time>
      </trkpt>
      <trkpt lat="45.58772" lon="6.61956">
        <ele>2382</ele>
        <time>2019-02-08T11:53:55.000Z</time>
      </trkpt>
      <trkpt lat="45.58772" lon="6.61957">
        <ele>2381.8000488281</ele>
        <time>2019-02-08T11:54:02.000Z</time>
      </trkpt>
      <trkpt lat="45.58772" lon="6.61957">
        <ele>2381.8000488281</ele>
        <time>2019-02-08T11:54:17.000Z</time>
      </trkpt>
      <trkpt lat="45.58773" lon="6.61956">
        <ele>2382</ele>
        <time>2019-02-08T11:54:26.000Z</time>
      </trkpt>
      <trkpt lat="45.58773" lon="6.61956">
        <ele>2382</ele>
        <time>2019-02-08T11:54:42.000Z</time>
      </trkpt>
      <trkpt lat="45.58773" lon="6.61957">
        <ele>2381.8000488281</ele>
        <time>2019-02-08T11:55:00.000Z</time>
      </trkpt>
      <trkpt lat="45.58773" lon="6.61957">
        <ele>2381.8000488281</ele>
        <time>2019-02-08T11:55:11.000Z</time>
      </trkpt>
      <trkpt lat="45.58773" lon="6.61957">
        <ele>2381.8000488281</ele>
        <time>2019-02-08T11:55:27.000Z</time>
      </trkpt>
      <trkpt lat="45.58773" lon="6.61957">
        <ele>2381.8000488281</ele>
        <time>2019-02-08T11:55:37.000Z</time>
      </trkpt>
      <trkpt lat="45.58773" lon="6.61957">
        <ele>2381.8000488281</ele>
        <time>2019-02-08T11:55:46.000Z</time>
      </trkpt>
      <trkpt lat="45.58773" lon="6.61957">
        <ele>2381.8000488281</ele>
        <time>2019-02-08T11:55:48.000Z</time>
      </trkpt>
      <trkpt lat="45.58774" lon="6.61956">
        <ele>2382</ele>
        <time>2019-02-08T11:55:52.000Z</time>
      </trkpt>
      <trkpt lat="45.58774" lon="6.61956">
        <ele>2382</ele>
        <time>2019-02-08T11:55:54.000Z</time>
      </trkpt>
      <trkpt lat="45.58774" lon="6.61956">
        <ele>2382</ele>
        <time>2019-02-08T11:56:04.000Z</time>
      </trkpt>
      <trkpt lat="45.58773" lon="6.61956">
        <ele>2382</ele>
        <time>2019-02-08T11:56:10.000Z</time>
      </trkpt>
      <trkpt lat="45.58773" lon="6.61956">
        <ele>2382.1999511719</ele>
        <time>2019-02-08T11:56:19.000Z</time>
      </trkpt>
      <trkpt lat="45.58773" lon="6.61956">
        <ele>2382.1999511719</ele>
        <time>2019-02-08T11:56:28.000Z</time>
      </trkpt>
      <trkpt lat="45.58773" lon="6.61956">
        <ele>2382.1999511719</ele>
        <time>2019-02-08T11:56:49.000Z</time>
      </trkpt>
      <trkpt lat="45.58773" lon="6.61956">
        <ele>2382.1999511719</ele>
        <time>2019-02-08T11:57:03.000Z</time>
      </trkpt>
      <trkpt lat="45.58773" lon="6.61956">
        <ele>2382</ele>
        <time>2019-02-08T11:57:14.000Z</time>
      </trkpt>
      <trkpt lat="45.58773" lon="6.61956">
        <ele>2382</ele>
        <time>2019-02-08T11:57:25.000Z</time>
      </trkpt>
      <trkpt lat="45.58773" lon="6.61956">
        <ele>2382</ele>
        <time>2019-02-08T11:57:35.000Z</time>
      </trkpt>
      <trkpt lat="45.58773" lon="6.61956">
        <ele>2382</ele>
        <time>2019-02-08T11:57:44.000Z</time>
      </trkpt>
      <trkpt lat="45.58773" lon="6.61956">
        <ele>2382</ele>
        <time>2019-02-08T11:58:03.000Z</time>
      </trkpt>
      <trkpt lat="45.58773" lon="6.61956">
        <ele>2382</ele>
        <time>2019-02-08T11:58:24.000Z</time>
      </trkpt>
      <trkpt lat="45.58773" lon="6.61956">
        <ele>2382</ele>
        <time>2019-02-08T11:58:38.000Z</time>
      </trkpt>
      <trkpt lat="45.58773" lon="6.61956">
        <ele>2382</ele>
        <time>2019-02-08T11:58:59.000Z</time>
      </trkpt>
      <trkpt lat="45.58773" lon="6.61956">
        <ele>2382</ele>
        <time>2019-02-08T11:59:15.000Z</time>
      </trkpt>
      <trkpt lat="45.58773" lon="6.61956">
        <ele>2382</ele>
        <time>2019-02-08T11:59:27.000Z</time>
      </trkpt>
      <trkpt lat="45.58773" lon="6.61956">
        <ele>2382</ele>
        <time>2019-02-08T11:59:29.000Z</time>
      </trkpt>
      <trkpt lat="45.58773" lon="6.61956">
        <ele>2382</ele>
        <time>2019-02-08T11:59:34.000Z</time>
      </trkpt>
      <trkpt lat="45.58773" lon="6.61956">
        <ele>2382</ele>
        <time>2019-02-08T11:59:40.000Z</time>
      </trkpt>
      <trkpt lat="45.58773" lon="6.61956">
        <ele>2382</ele>
        <time>2019-02-08T11:59:48.000Z</time>
      </trkpt>
      <trkpt lat="45.58773" lon="6.61956">
        <ele>2382</ele>
        <time>2019-02-08T11:59:57.000Z</time>
      </trkpt>
      <trkpt lat="45.58773" lon="6.61956">
        <ele>2382</ele>
        <time>2019-02-08T12:00:12.000Z</time>
      </trkpt>
      <trkpt lat="45.58773" lon="6.61956">
        <ele>2382</ele>
        <time>2019-02-08T12:00:32.000Z</time>
      </trkpt>
      <trkpt lat="45.58773" lon="6.61956">
        <ele>2382</ele>
        <time>2019-02-08T12:00:44.000Z</time>
      </trkpt>
      <trkpt lat="45.58773" lon="6.61956">
        <ele>2382</ele>
        <time>2019-02-08T12:01:00.000Z</time>
      </trkpt>
      <trkpt lat="45.58773" lon="6.61956">
        <ele>2382</ele>
        <time>2019-02-08T12:01:15.000Z</time>
      </trkpt>
      <trkpt lat="45.58773" lon="6.61956">
        <ele>2382</ele>
        <time>2019-02-08T12:01:30.000Z</time>
      </trkpt>
      <trkpt lat="45.58773" lon="6.61956">
        <ele>2382</ele>
        <time>2019-02-08T12:01:44.000Z</time>
      </trkpt>
      <trkpt lat="45.58773" lon="6.61956">
        <ele>2382</ele>
        <time>2019-02-08T12:02:02.000Z</time>
      </trkpt>
      <trkpt lat="45.58773" lon="6.61956">
        <ele>2382</ele>
        <time>2019-02-08T12:02:15.000Z</time>
      </trkpt>
      <trkpt lat="45.58773" lon="6.61956">
        <ele>2382</ele>
        <time>2019-02-08T12:02:25.000Z</time>
      </trkpt>
      <trkpt lat="45.58773" lon="6.61956">
        <ele>2382</ele>
        <time>2019-02-08T12:02:26.000Z</time>
      </trkpt>
      <trkpt lat="45.58773" lon="6.61956">
        <ele>2382.1999511719</ele>
        <time>2019-02-08T12:02:33.000Z</time>
      </trkpt>
      <trkpt lat="45.58773" lon="6.61956">
        <ele>2382.1999511719</ele>
        <time>2019-02-08T12:02:37.000Z</time>
      </trkpt>
      <trkpt lat="45.58773" lon="6.61956">
        <ele>2382.1999511719</ele>
        <time>2019-02-08T12:02:47.000Z</time>
      </trkpt>
      <trkpt lat="45.58773" lon="6.61956">
        <ele>2382.1999511719</ele>
        <time>2019-02-08T12:02:48.000Z</time>
      </trkpt>
      <trkpt lat="45.58773" lon="6.61956">
        <ele>2382.1999511719</ele>
        <time>2019-02-08T12:02:53.000Z</time>
      </trkpt>
      <trkpt lat="45.58773" lon="6.61956">
        <ele>2382.1999511719</ele>
        <time>2019-02-08T12:02:57.000Z</time>
      </trkpt>
      <trkpt lat="45.58773" lon="6.61956">
        <ele>2382.1999511719</ele>
        <time>2019-02-08T12:02:58.000Z</time>
      </trkpt>
      <trkpt lat="45.58773" lon="6.61956">
        <ele>2382</ele>
        <time>2019-02-08T12:03:12.000Z</time>
      </trkpt>
      <trkpt lat="45.58773" lon="6.61956">
        <ele>2382</ele>
        <time>2019-02-08T12:03:28.000Z</time>
      </trkpt>
      <trkpt lat="45.58773" lon="6.61956">
        <ele>2382</ele>
        <time>2019-02-08T12:03:40.000Z</time>
      </trkpt>
      <trkpt lat="45.58773" lon="6.61956">
        <ele>2382</ele>
        <time>2019-02-08T12:03:56.000Z</time>
      </trkpt>
      <trkpt lat="45.58773" lon="6.61956">
        <ele>2382</ele>
        <time>2019-02-08T12:04:06.000Z</time>
      </trkpt>
      <trkpt lat="45.58773" lon="6.61956">
        <ele>2382</ele>
        <time>2019-02-08T12:04:18.000Z</time>
      </trkpt>
      <trkpt lat="45.58773" lon="6.61956">
        <ele>2382.1999511719</ele>
        <time>2019-02-08T12:04:31.000Z</time>
      </trkpt>
      <trkpt lat="45.58773" lon="6.61956">
        <ele>2382.1999511719</ele>
        <time>2019-02-08T12:04:44.000Z</time>
      </trkpt>
      <trkpt lat="45.58775" lon="6.61954">
        <ele>2383.3999023438</ele>
        <time>2019-02-08T12:04:48.000Z</time>
      </trkpt>
      <trkpt lat="45.58775" lon="6.61953">
        <ele>2383.6000976562</ele>
        <time>2019-02-08T12:04:49.000Z</time>
      </trkpt>
      <trkpt lat="45.58776" lon="6.61952">
        <ele>2384</ele>
        <time>2019-02-08T12:04:57.000Z</time>
      </trkpt>
      <trkpt lat="45.58776" lon="6.61952">
        <ele>2384</ele>
        <time>2019-02-08T12:05:08.000Z</time>
      </trkpt>
      <trkpt lat="45.58776" lon="6.61953">
        <ele>2383.8000488281</ele>
        <time>2019-02-08T12:05:14.000Z</time>
      </trkpt>
      <trkpt lat="45.58775" lon="6.61954">
        <ele>2383</ele>
        <time>2019-02-08T12:05:21.000Z</time>
      </trkpt>
      <trkpt lat="45.58775" lon="6.61954">
        <ele>2383</ele>
        <time>2019-02-08T12:05:28.000Z</time>
      </trkpt>
      <trkpt lat="45.58775" lon="6.61954">
        <ele>2383</ele>
        <time>2019-02-08T12:05:47.000Z</time>
      </trkpt>
      <trkpt lat="45.58775" lon="6.61955">
        <ele>2382.8000488281</ele>
        <time>2019-02-08T12:06:10.000Z</time>
      </trkpt>
      <trkpt lat="45.58775" lon="6.61955">
        <ele>2382.8000488281</ele>
        <time>2019-02-08T12:06:29.000Z</time>
      </trkpt>
      <trkpt lat="45.58774" lon="6.61955">
        <ele>2382.6000976562</ele>
        <time>2019-02-08T12:06:38.000Z</time>
      </trkpt>
      <trkpt lat="45.58774" lon="6.61955">
        <ele>2382.6000976562</ele>
        <time>2019-02-08T12:06:55.000Z</time>
      </trkpt>
      <trkpt lat="45.58774" lon="6.61955">
        <ele>2382.6000976562</ele>
        <time>2019-02-08T12:07:09.000Z</time>
      </trkpt>
      <trkpt lat="45.58774" lon="6.61955">
        <ele>2382.6000976562</ele>
        <time>2019-02-08T12:07:10.000Z</time>
      </trkpt>
      <trkpt lat="45.58774" lon="6.61956">
        <ele>2382.3999023438</ele>
        <time>2019-02-08T12:07:12.000Z</time>
      </trkpt>
      <trkpt lat="45.58774" lon="6.61956">
        <ele>2382.3999023438</ele>
        <time>2019-02-08T12:07:14.000Z</time>
      </trkpt>
      <trkpt lat="45.58774" lon="6.61956">
        <ele>2382.3999023438</ele>
        <time>2019-02-08T12:07:19.000Z</time>
      </trkpt>
      <trkpt lat="45.58774" lon="6.61956">
        <ele>2382.3999023438</ele>
        <time>2019-02-08T12:07:30.000Z</time>
      </trkpt>
      <trkpt lat="45.58774" lon="6.61955">
        <ele>2382.3999023438</ele>
        <time>2019-02-08T12:07:40.000Z</time>
      </trkpt>
      <trkpt lat="45.58774" lon="6.61955">
        <ele>2382.3999023438</ele>
        <time>2019-02-08T12:07:51.000Z</time>
      </trkpt>
      <trkpt lat="45.58774" lon="6.61955">
        <ele>2382.3999023438</ele>
        <time>2019-02-08T12:08:03.000Z</time>
      </trkpt>
      <trkpt lat="45.58774" lon="6.61955">
        <ele>2382.3999023438</ele>
        <time>2019-02-08T12:08:17.000Z</time>
      </trkpt>
      <trkpt lat="45.58774" lon="6.61955">
        <ele>2382.3999023438</ele>
        <time>2019-02-08T12:08:21.000Z</time>
      </trkpt>
      <trkpt lat="45.58774" lon="6.61955">
        <ele>2382.3999023438</ele>
        <time>2019-02-08T12:08:23.000Z</time>
      </trkpt>
      <trkpt lat="45.58774" lon="6.61955">
        <ele>2382.3999023438</ele>
        <time>2019-02-08T12:08:26.000Z</time>
      </trkpt>
      <trkpt lat="45.58774" lon="6.61955">
        <ele>2382.3999023438</ele>
        <time>2019-02-08T12:08:29.000Z</time>
      </trkpt>
      <trkpt lat="45.58774" lon="6.61955">
        <ele>2382.3999023438</ele>
        <time>2019-02-08T12:08:37.000Z</time>
      </trkpt>
      <trkpt lat="45.58774" lon="6.61955">
        <ele>2382.3999023438</ele>
        <time>2019-02-08T12:08:51.000Z</time>
      </trkpt>
      <trkpt lat="45.58774" lon="6.61955">
        <ele>2382.3999023438</ele>
        <time>2019-02-08T12:09:03.000Z</time>
      </trkpt>
      <trkpt lat="45.58774" lon="6.61955">
        <ele>2382.3999023438</ele>
        <time>2019-02-08T12:09:14.000Z</time>
      </trkpt>
      <trkpt lat="45.58774" lon="6.61955">
        <ele>2382.3999023438</ele>
        <time>2019-02-08T12:09:25.000Z</time>
      </trkpt>
      <trkpt lat="45.58774" lon="6.61955">
        <ele>2382.3999023438</ele>
        <time>2019-02-08T12:09:33.000Z</time>
      </trkpt>
      <trkpt lat="45.58772" lon="6.61954">
        <ele>2383.1999511719</ele>
        <time>2019-02-08T12:09:35.000Z</time>
      </trkpt>
      <trkpt lat="45.58768" lon="6.61956">
        <ele>2383.3999023438</ele>
        <time>2019-02-08T12:09:37.000Z</time>
      </trkpt>
      <trkpt lat="45.58766" lon="6.6197">
        <ele>2381.6000976562</ele>
        <time>2019-02-08T12:09:41.000Z</time>
      </trkpt>
      <trkpt lat="45.5876" lon="6.61975">
        <ele>2382.6000976562</ele>
        <time>2019-02-08T12:09:44.000Z</time>
      </trkpt>
      <trkpt lat="45.58756" lon="6.61982">
        <ele>2382.8000488281</ele>
        <time>2019-02-08T12:09:46.000Z</time>
      </trkpt>
      <trkpt lat="45.58754" lon="6.61988">
        <ele>2381.8000488281</ele>
        <time>2019-02-08T12:09:47.000Z</time>
      </trkpt>
      <trkpt lat="45.58753" lon="6.61992">
        <ele>2380.1999511719</ele>
        <time>2019-02-08T12:09:48.000Z</time>
      </trkpt>
      <trkpt lat="45.58749" lon="6.61998">
        <ele>2379</ele>
        <time>2019-02-08T12:09:50.000Z</time>
      </trkpt>
      <trkpt lat="45.5875" lon="6.61997">
        <ele>2379</ele>
        <time>2019-02-08T12:09:51.000Z</time>
      </trkpt>
      <trkpt lat="45.58751" lon="6.61996">
        <ele>2379.3999023438</ele>
        <time>2019-02-08T12:09:53.000Z</time>
      </trkpt>
      <trkpt lat="45.58751" lon="6.61997">
        <ele>2379</ele>
        <time>2019-02-08T12:09:54.000Z</time>
      </trkpt>
      <trkpt lat="45.58749" lon="6.61999">
        <ele>2378.6000976562</ele>
        <time>2019-02-08T12:09:55.000Z</time>
      </trkpt>
      <trkpt lat="45.58745" lon="6.62001">
        <ele>2378.8000488281</ele>
        <time>2019-02-08T12:09:56.000Z</time>
      </trkpt>
      <trkpt lat="45.58741" lon="6.62004">
        <ele>2378.8000488281</ele>
        <time>2019-02-08T12:09:58.000Z</time>
      </trkpt>
      <trkpt lat="45.58741" lon="6.62004">
        <ele>2378.8000488281</ele>
        <time>2019-02-08T12:09:59.000Z</time>
      </trkpt>
      <trkpt lat="45.58741" lon="6.62005">
        <ele>2378.3999023438</ele>
        <time>2019-02-08T12:10:00.000Z</time>
      </trkpt>
      <trkpt lat="45.58742" lon="6.62008">
        <ele>2376.8000488281</ele>
        <time>2019-02-08T12:10:03.000Z</time>
      </trkpt>
      <trkpt lat="45.58742" lon="6.62009">
        <ele>2376.6000976562</ele>
        <time>2019-02-08T12:10:09.000Z</time>
      </trkpt>
      <trkpt lat="45.58742" lon="6.62009">
        <ele>2376.6000976562</ele>
        <time>2019-02-08T12:10:11.000Z</time>
      </trkpt>
      <trkpt lat="45.58742" lon="6.62009">
        <ele>2376.6000976562</ele>
        <time>2019-02-08T12:10:23.000Z</time>
      </trkpt>
      <trkpt lat="45.58742" lon="6.62009">
        <ele>2376.6000976562</ele>
        <time>2019-02-08T12:10:36.000Z</time>
      </trkpt>
      <trkpt lat="45.58742" lon="6.62009">
        <ele>2376.6000976562</ele>
        <time>2019-02-08T12:10:50.000Z</time>
      </trkpt>
      <trkpt lat="45.58742" lon="6.62009">
        <ele>2376.6000976562</ele>
        <time>2019-02-08T12:11:06.000Z</time>
      </trkpt>
      <trkpt lat="45.58742" lon="6.6201">
        <ele>2376</ele>
        <time>2019-02-08T12:11:15.000Z</time>
      </trkpt>
      <trkpt lat="45.58742" lon="6.6201">
        <ele>2376</ele>
        <time>2019-02-08T12:11:36.000Z</time>
      </trkpt>
      <trkpt lat="45.58742" lon="6.62009">
        <ele>2376</ele>
        <time>2019-02-08T12:11:52.000Z</time>
      </trkpt>
      <trkpt lat="45.58742" lon="6.62009">
        <ele>2376</ele>
        <time>2019-02-08T12:12:03.000Z</time>
      </trkpt>
      <trkpt lat="45.58742" lon="6.62009">
        <ele>2376</ele>
        <time>2019-02-08T12:12:21.000Z</time>
      </trkpt>
      <trkpt lat="45.58744" lon="6.62007">
        <ele>2376.6000976562</ele>
        <time>2019-02-08T12:12:31.000Z</time>
      </trkpt>
      <trkpt lat="45.58744" lon="6.62006">
        <ele>2376.8000488281</ele>
        <time>2019-02-08T12:12:32.000Z</time>
      </trkpt>
      <trkpt lat="45.58746" lon="6.62003">
        <ele>2377.8000488281</ele>
        <time>2019-02-08T12:12:37.000Z</time>
      </trkpt>
      <trkpt lat="45.58746" lon="6.62003">
        <ele>2377.8000488281</ele>
        <time>2019-02-08T12:12:39.000Z</time>
      </trkpt>
      <trkpt lat="45.58747" lon="6.62002">
        <ele>2377.8000488281</ele>
        <time>2019-02-08T12:12:47.000Z</time>
      </trkpt>
      <trkpt lat="45.58749" lon="6.62002">
        <ele>2377</ele>
        <time>2019-02-08T12:12:49.000Z</time>
      </trkpt>
      <trkpt lat="45.58751" lon="6.62008">
        <ele>2373.8000488281</ele>
        <time>2019-02-08T12:12:51.000Z</time>
      </trkpt>
      <trkpt lat="45.58752" lon="6.62009">
        <ele>2373.1999511719</ele>
        <time>2019-02-08T12:12:52.000Z</time>
      </trkpt>
      <trkpt lat="45.58753" lon="6.62007">
        <ele>2373.6000976562</ele>
        <time>2019-02-08T12:12:53.000Z</time>
      </trkpt>
      <trkpt lat="45.58756" lon="6.62006">
        <ele>2373.1999511719</ele>
        <time>2019-02-08T12:12:54.000Z</time>
      </trkpt>
      <trkpt lat="45.58765" lon="6.6201">
        <ele>2368.8000488281</ele>
        <time>2019-02-08T12:12:57.000Z</time>
      </trkpt>
      <trkpt lat="45.58769" lon="6.62011">
        <ele>2367.1999511719</ele>
        <time>2019-02-08T12:12:58.000Z</time>
      </trkpt>
      <trkpt lat="45.58772" lon="6.62014">
        <ele>2365</ele>
        <time>2019-02-08T12:12:59.000Z</time>
      </trkpt>
      <trkpt lat="45.58776" lon="6.62016">
        <ele>2362.8000488281</ele>
        <time>2019-02-08T12:13:00.000Z</time>
      </trkpt>
      <trkpt lat="45.58781" lon="6.62014">
        <ele>2362.1999511719</ele>
        <time>2019-02-08T12:13:01.000Z</time>
      </trkpt>
      <trkpt lat="45.58785" lon="6.62012">
        <ele>2361.8000488281</ele>
        <time>2019-02-08T12:13:02.000Z</time>
      </trkpt>
      <trkpt lat="45.58789" lon="6.62012">
        <ele>2360.3999023438</ele>
        <time>2019-02-08T12:13:03.000Z</time>
      </trkpt>
      <trkpt lat="45.58793" lon="6.62014">
        <ele>2358.6000976562</ele>
        <time>2019-02-08T12:13:04.000Z</time>
      </trkpt>
      <trkpt lat="45.58796" lon="6.62012">
        <ele>2358</ele>
        <time>2019-02-08T12:13:05.000Z</time>
      </trkpt>
      <trkpt lat="45.58801" lon="6.62012">
        <ele>2356.3999023438</ele>
        <time>2019-02-08T12:13:06.000Z</time>
      </trkpt>
      <trkpt lat="45.58806" lon="6.62014">
        <ele>2352.8000488281</ele>
        <time>2019-02-08T12:13:07.000Z</time>
      </trkpt>
      <trkpt lat="45.58811" lon="6.62016">
        <ele>2348.8000488281</ele>
        <time>2019-02-08T12:13:08.000Z</time>
      </trkpt>
      <trkpt lat="45.58815" lon="6.62016">
        <ele>2346.1999511719</ele>
        <time>2019-02-08T12:13:09.000Z</time>
      </trkpt>
      <trkpt lat="45.5882" lon="6.62015">
        <ele>2343.3999023438</ele>
        <time>2019-02-08T12:13:10.000Z</time>
      </trkpt>
      <trkpt lat="45.58825" lon="6.62017">
        <ele>2339.6000976562</ele>
        <time>2019-02-08T12:13:11.000Z</time>
      </trkpt>
      <trkpt lat="45.58831" lon="6.62022">
        <ele>2334</ele>
        <time>2019-02-08T12:13:12.000Z</time>
      </trkpt>
      <trkpt lat="45.58837" lon="6.62023">
        <ele>2329.1999511719</ele>
        <time>2019-02-08T12:13:13.000Z</time>
      </trkpt>
      <trkpt lat="45.58843" lon="6.62022">
        <ele>2326.1999511719</ele>
        <time>2019-02-08T12:13:14.000Z</time>
      </trkpt>
      <trkpt lat="45.58848" lon="6.62025">
        <ele>2322</ele>
        <time>2019-02-08T12:13:15.000Z</time>
      </trkpt>
      <trkpt lat="45.58855" lon="6.62031">
        <ele>2315.3999023438</ele>
        <time>2019-02-08T12:13:16.000Z</time>
      </trkpt>
      <trkpt lat="45.58862" lon="6.62033">
        <ele>2310.6000976562</ele>
        <time>2019-02-08T12:13:17.000Z</time>
      </trkpt>
      <trkpt lat="45.5887" lon="6.62033">
        <ele>2305.8000488281</ele>
        <time>2019-02-08T12:13:18.000Z</time>
      </trkpt>
      <trkpt lat="45.58879" lon="6.62036">
        <ele>2299.3999023438</ele>
        <time>2019-02-08T12:13:19.000Z</time>
      </trkpt>
      <trkpt lat="45.58888" lon="6.62042">
        <ele>2291.8000488281</ele>
        <time>2019-02-08T12:13:20.000Z</time>
      </trkpt>
      <trkpt lat="45.58896" lon="6.62047">
        <ele>2285.3999023438</ele>
        <time>2019-02-08T12:13:21.000Z</time>
      </trkpt>
      <trkpt lat="45.58904" lon="6.62049">
        <ele>2280.6000976562</ele>
        <time>2019-02-08T12:13:22.000Z</time>
      </trkpt>
      <trkpt lat="45.58912" lon="6.62055">
        <ele>2274.3999023438</ele>
        <time>2019-02-08T12:13:23.000Z</time>
      </trkpt>
      <trkpt lat="45.58918" lon="6.6206">
        <ele>2268.8000488281</ele>
        <time>2019-02-08T12:13:24.000Z</time>
      </trkpt>
      <trkpt lat="45.58923" lon="6.62063">
        <ele>2265.1999511719</ele>
        <time>2019-02-08T12:13:25.000Z</time>
      </trkpt>
      <trkpt lat="45.58926" lon="6.62065">
        <ele>2262.8000488281</ele>
        <time>2019-02-08T12:13:26.000Z</time>
      </trkpt>
      <trkpt lat="45.58929" lon="6.62066">
        <ele>2261.1999511719</ele>
        <time>2019-02-08T12:13:27.000Z</time>
      </trkpt>
      <trkpt lat="45.5893" lon="6.62066">
        <ele>2260</ele>
        <time>2019-02-08T12:13:28.000Z</time>
      </trkpt>
      <trkpt lat="45.58932" lon="6.62067">
        <ele>2259.3999023438</ele>
        <time>2019-02-08T12:13:29.000Z</time>
      </trkpt>
      <trkpt lat="45.58931" lon="6.6207">
        <ele>2258</ele>
        <time>2019-02-08T12:13:30.000Z</time>
      </trkpt>
      <trkpt lat="45.58929" lon="6.62071">
        <ele>2258</ele>
        <time>2019-02-08T12:13:31.000Z</time>
      </trkpt>
      <trkpt lat="45.5892" lon="6.62073">
        <ele>2261</ele>
        <time>2019-02-08T12:13:32.000Z</time>
      </trkpt>
      <trkpt lat="45.5891" lon="6.62075">
        <ele>2264.6000976562</ele>
        <time>2019-02-08T12:13:34.000Z</time>
      </trkpt>
      <trkpt lat="45.5891" lon="6.62075">
        <ele>2264.6000976562</ele>
        <time>2019-02-08T12:13:35.000Z</time>
      </trkpt>
      <trkpt lat="45.5891" lon="6.62075">
        <ele>2264.6000976562</ele>
        <time>2019-02-08T12:13:37.000Z</time>
      </trkpt>
      <trkpt lat="45.5891" lon="6.62075">
        <ele>2264.6000976562</ele>
        <time>2019-02-08T12:13:43.000Z</time>
      </trkpt>
      <trkpt lat="45.5891" lon="6.62075">
        <ele>2264.1999511719</ele>
        <time>2019-02-08T12:13:54.000Z</time>
      </trkpt>
      <trkpt lat="45.58898" lon="6.62074">
        <ele>2270.1999511719</ele>
        <time>2019-02-08T12:13:56.000Z</time>
      </trkpt>
      <trkpt lat="45.589" lon="6.62072">
        <ele>2270.6000976562</ele>
        <time>2019-02-08T12:13:57.000Z</time>
      </trkpt>
      <trkpt lat="45.58907" lon="6.62075">
        <ele>2265.8000488281</ele>
        <time>2019-02-08T12:14:00.000Z</time>
      </trkpt>
      <trkpt lat="45.58908" lon="6.62076">
        <ele>2264.6000976562</ele>
        <time>2019-02-08T12:14:01.000Z</time>
      </trkpt>
      <trkpt lat="45.58908" lon="6.62079">
        <ele>2262.8000488281</ele>
        <time>2019-02-08T12:14:02.000Z</time>
      </trkpt>
      <trkpt lat="45.5891" lon="6.6208">
        <ele>2261.3999023438</ele>
        <time>2019-02-08T12:14:03.000Z</time>
      </trkpt>
      <trkpt lat="45.5891" lon="6.6208">
        <ele>2261.3999023438</ele>
        <time>2019-02-08T12:14:04.000Z</time>
      </trkpt>
      <trkpt lat="45.5891" lon="6.6208">
        <ele>2261.3999023438</ele>
        <time>2019-02-08T12:14:05.000Z</time>
      </trkpt>
      <trkpt lat="45.5891" lon="6.6208">
        <ele>2261.3999023438</ele>
        <time>2019-02-08T12:14:07.000Z</time>
      </trkpt>
      <trkpt lat="45.5891" lon="6.6208">
        <ele>2261.3999023438</ele>
        <time>2019-02-08T12:14:12.000Z</time>
      </trkpt>
      <trkpt lat="45.5891" lon="6.6208">
        <ele>2261.3999023438</ele>
        <time>2019-02-08T12:14:13.000Z</time>
      </trkpt>
      <trkpt lat="45.58913" lon="6.62084">
        <ele>2258.1999511719</ele>
        <time>2019-02-08T12:14:19.000Z</time>
      </trkpt>
      <trkpt lat="45.58913" lon="6.62084">
        <ele>2258.1999511719</ele>
        <time>2019-02-08T12:14:20.000Z</time>
      </trkpt>
      <trkpt lat="45.58913" lon="6.62084">
        <ele>2258.1999511719</ele>
        <time>2019-02-08T12:14:35.000Z</time>
      </trkpt>
      <trkpt lat="45.58913" lon="6.62084">
        <ele>2258.1999511719</ele>
        <time>2019-02-08T12:14:49.000Z</time>
      </trkpt>
      <trkpt lat="45.58914" lon="6.62084">
        <ele>2257.8000488281</ele>
        <time>2019-02-08T12:15:10.000Z</time>
      </trkpt>
      <trkpt lat="45.58914" lon="6.62084">
        <ele>2257.8000488281</ele>
        <time>2019-02-08T12:15:26.000Z</time>
      </trkpt>
      <trkpt lat="45.58913" lon="6.62084">
        <ele>2257.6000976562</ele>
        <time>2019-02-08T12:15:44.000Z</time>
      </trkpt>
      <trkpt lat="45.58913" lon="6.62084">
        <ele>2257.6000976562</ele>
        <time>2019-02-08T12:16:02.000Z</time>
      </trkpt>
      <trkpt lat="45.58914" lon="6.62085">
        <ele>2257</ele>
        <time>2019-02-08T12:16:17.000Z</time>
      </trkpt>
      <trkpt lat="45.58914" lon="6.62085">
        <ele>2257</ele>
        <time>2019-02-08T12:16:35.000Z</time>
      </trkpt>
      <trkpt lat="45.58914" lon="6.62085">
        <ele>2257</ele>
        <time>2019-02-08T12:16:48.000Z</time>
      </trkpt>
      <trkpt lat="45.58843" lon="6.62087">
        <ele>2296</ele>
        <time>2019-02-08T12:17:07.000Z</time>
      </trkpt>
      <trkpt lat="45.58837" lon="6.62081">
        <ele>2303.1999511719</ele>
        <time>2019-02-08T12:17:25.000Z</time>
      </trkpt>
      <trkpt lat="45.58835" lon="6.62079">
        <ele>2305.1999511719</ele>
        <time>2019-02-08T12:17:37.000Z</time>
      </trkpt>
      <trkpt lat="45.58837" lon="6.62083">
        <ele>2302.1999511719</ele>
        <time>2019-02-08T12:17:57.000Z</time>
      </trkpt>
      <trkpt lat="45.58837" lon="6.62083">
        <ele>2301.6000976562</ele>
        <time>2019-02-08T12:18:19.000Z</time>
      </trkpt>
      <trkpt lat="45.58836" lon="6.62079">
        <ele>2304.1999511719</ele>
        <time>2019-02-08T12:18:38.000Z</time>
      </trkpt>
      <trkpt lat="45.58837" lon="6.6208">
        <ele>2303.3999023438</ele>
        <time>2019-02-08T12:18:59.000Z</time>
      </trkpt>
      <trkpt lat="45.58837" lon="6.6208">
        <ele>2303.3999023438</ele>
        <time>2019-02-08T12:19:16.000Z</time>
      </trkpt>
      <trkpt lat="45.58835" lon="6.62086">
        <ele>2302</ele>
        <time>2019-02-08T12:19:25.000Z</time>
      </trkpt>
      <trkpt lat="45.58835" lon="6.62087">
        <ele>2301.6000976562</ele>
        <time>2019-02-08T12:19:30.000Z</time>
      </trkpt>
      <trkpt lat="45.58835" lon="6.62087">
        <ele>2301.6000976562</ele>
        <time>2019-02-08T12:19:52.000Z</time>
      </trkpt>
      <trkpt lat="45.58835" lon="6.62087">
        <ele>2301.1999511719</ele>
        <time>2019-02-08T12:20:13.000Z</time>
      </trkpt>
      <trkpt lat="45.58835" lon="6.62087">
        <ele>2301.1999511719</ele>
        <time>2019-02-08T12:20:27.000Z</time>
      </trkpt>
      <trkpt lat="45.58837" lon="6.62089">
        <ele>2298.8000488281</ele>
        <time>2019-02-08T12:20:38.000Z</time>
      </trkpt>
      <trkpt lat="45.5884" lon="6.62089">
        <ele>2297.1999511719</ele>
        <time>2019-02-08T12:20:43.000Z</time>
      </trkpt>
      <trkpt lat="45.5884" lon="6.62089">
        <ele>2297.1999511719</ele>
        <time>2019-02-08T12:20:44.000Z</time>
      </trkpt>
      <trkpt lat="45.5884" lon="6.62088">
        <ele>2297.3999023438</ele>
        <time>2019-02-08T12:20:45.000Z</time>
      </trkpt>
      <trkpt lat="45.58842" lon="6.62089">
        <ele>2295.8000488281</ele>
        <time>2019-02-08T12:20:47.000Z</time>
      </trkpt>
      <trkpt lat="45.58843" lon="6.62092">
        <ele>2293.6000976562</ele>
        <time>2019-02-08T12:20:49.000Z</time>
      </trkpt>
      <trkpt lat="45.58844" lon="6.62092">
        <ele>2293.6000976562</ele>
        <time>2019-02-08T12:20:50.000Z</time>
      </trkpt>
      <trkpt lat="45.58846" lon="6.62093">
        <ele>2291.1999511719</ele>
        <time>2019-02-08T12:20:54.000Z</time>
      </trkpt>
      <trkpt lat="45.58846" lon="6.62093">
        <ele>2291</ele>
        <time>2019-02-08T12:20:59.000Z</time>
      </trkpt>
      <trkpt lat="45.58846" lon="6.62093">
        <ele>2291.1999511719</ele>
        <time>2019-02-08T12:21:00.000Z</time>
      </trkpt>
      <trkpt lat="45.58848" lon="6.62093">
        <ele>2290.1999511719</ele>
        <time>2019-02-08T12:21:02.000Z</time>
      </trkpt>
      <trkpt lat="45.58849" lon="6.62092">
        <ele>2289.8000488281</ele>
        <time>2019-02-08T12:21:04.000Z</time>
      </trkpt>
      <trkpt lat="45.5885" lon="6.62093">
        <ele>2288.8000488281</ele>
        <time>2019-02-08T12:21:06.000Z</time>
      </trkpt>
      <trkpt lat="45.5885" lon="6.62095">
        <ele>2287.6000976562</ele>
        <time>2019-02-08T12:21:07.000Z</time>
      </trkpt>
      <trkpt lat="45.5885" lon="6.62095">
        <ele>2287.6000976562</ele>
        <time>2019-02-08T12:21:08.000Z</time>
      </trkpt>
      <trkpt lat="45.58851" lon="6.62095">
        <ele>2287</ele>
        <time>2019-02-08T12:21:09.000Z</time>
      </trkpt>
      <trkpt lat="45.58851" lon="6.62096">
        <ele>2286.3999023438</ele>
        <time>2019-02-08T12:21:10.000Z</time>
      </trkpt>
      <trkpt lat="45.58852" lon="6.62097">
        <ele>2285.6000976562</ele>
        <time>2019-02-08T12:21:12.000Z</time>
      </trkpt>
      <trkpt lat="45.58852" lon="6.62096">
        <ele>2285.6000976562</ele>
        <time>2019-02-08T12:21:15.000Z</time>
      </trkpt>
      <trkpt lat="45.58852" lon="6.62096">
        <ele>2285.6000976562</ele>
        <time>2019-02-08T12:21:16.000Z</time>
      </trkpt>
      <trkpt lat="45.58852" lon="6.62097">
        <ele>2285.1999511719</ele>
        <time>2019-02-08T12:21:22.000Z</time>
      </trkpt>
      <trkpt lat="45.58855" lon="6.62098">
        <ele>2282.6000976562</ele>
        <time>2019-02-08T12:21:25.000Z</time>
      </trkpt>
      <trkpt lat="45.58857" lon="6.621">
        <ele>2280.3999023438</ele>
        <time>2019-02-08T12:21:28.000Z</time>
      </trkpt>
      <trkpt lat="45.58857" lon="6.621">
        <ele>2280.1999511719</ele>
        <time>2019-02-08T12:21:29.000Z</time>
      </trkpt>
      <trkpt lat="45.58859" lon="6.62101">
        <ele>2278.8000488281</ele>
        <time>2019-02-08T12:21:31.000Z</time>
      </trkpt>
      <trkpt lat="45.5886" lon="6.62101">
        <ele>2278</ele>
        <time>2019-02-08T12:21:32.000Z</time>
      </trkpt>
      <trkpt lat="45.58864" lon="6.62104">
        <ele>2274.1999511719</ele>
        <time>2019-02-08T12:21:34.000Z</time>
      </trkpt>
      <trkpt lat="45.58869" lon="6.62107">
        <ele>2269.1999511719</ele>
        <time>2019-02-08T12:21:36.000Z</time>
      </trkpt>
      <trkpt lat="45.58871" lon="6.62107">
        <ele>2268</ele>
        <time>2019-02-08T12:21:37.000Z</time>
      </trkpt>
      <trkpt lat="45.58873" lon="6.62106">
        <ele>2267.6000976562</ele>
        <time>2019-02-08T12:21:38.000Z</time>
      </trkpt>
      <trkpt lat="45.58873" lon="6.62106">
        <ele>2267.1999511719</ele>
        <time>2019-02-08T12:21:40.000Z</time>
      </trkpt>
      <trkpt lat="45.58874" lon="6.62106">
        <ele>2267</ele>
        <time>2019-02-08T12:21:41.000Z</time>
      </trkpt>
      <trkpt lat="45.58874" lon="6.62106">
        <ele>2267</ele>
        <time>2019-02-08T12:21:43.000Z</time>
      </trkpt>
      <trkpt lat="45.58874" lon="6.62106">
        <ele>2267</ele>
        <time>2019-02-08T12:21:44.000Z</time>
      </trkpt>
      <trkpt lat="45.58868" lon="6.62111">
        <ele>2268.1999511719</ele>
        <time>2019-02-08T12:21:52.000Z</time>
      </trkpt>
      <trkpt lat="45.5887" lon="6.62112">
        <ele>2266.1999511719</ele>
        <time>2019-02-08T12:21:54.000Z</time>
      </trkpt>
      <trkpt lat="45.58872" lon="6.62114">
        <ele>2263.6000976562</ele>
        <time>2019-02-08T12:21:56.000Z</time>
      </trkpt>
      <trkpt lat="45.58873" lon="6.62114">
        <ele>2263</ele>
        <time>2019-02-08T12:21:57.000Z</time>
      </trkpt>
      <trkpt lat="45.58874" lon="6.62114">
        <ele>2262.6000976562</ele>
        <time>2019-02-08T12:21:58.000Z</time>
      </trkpt>
      <trkpt lat="45.58875" lon="6.62114">
        <ele>2261.8000488281</ele>
        <time>2019-02-08T12:21:59.000Z</time>
      </trkpt>
      <trkpt lat="45.58877" lon="6.62117">
        <ele>2259</ele>
        <time>2019-02-08T12:22:01.000Z</time>
      </trkpt>
      <trkpt lat="45.5888" lon="6.62121">
        <ele>2255.6000976562</ele>
        <time>2019-02-08T12:22:03.000Z</time>
      </trkpt>
      <trkpt lat="45.58882" lon="6.62129">
        <ele>2249.8000488281</ele>
        <time>2019-02-08T12:22:05.000Z</time>
      </trkpt>
      <trkpt lat="45.58882" lon="6.62132">
        <ele>2248.1999511719</ele>
        <time>2019-02-08T12:22:06.000Z</time>
      </trkpt>
      <trkpt lat="45.58884" lon="6.62136">
        <ele>2245</ele>
        <time>2019-02-08T12:22:07.000Z</time>
      </trkpt>
      <trkpt lat="45.58885" lon="6.62141">
        <ele>2242.1999511719</ele>
        <time>2019-02-08T12:22:08.000Z</time>
      </trkpt>
      <trkpt lat="45.58886" lon="6.62145">
        <ele>2239.1999511719</ele>
        <time>2019-02-08T12:22:09.000Z</time>
      </trkpt>
      <trkpt lat="45.58888" lon="6.62146">
        <ele>2237.3999023438</ele>
        <time>2019-02-08T12:22:10.000Z</time>
      </trkpt>
      <trkpt lat="45.58892" lon="6.62147">
        <ele>2235.3999023438</ele>
        <time>2019-02-08T12:22:11.000Z</time>
      </trkpt>
      <trkpt lat="45.58896" lon="6.6215">
        <ele>2231.8000488281</ele>
        <time>2019-02-08T12:22:12.000Z</time>
      </trkpt>
      <trkpt lat="45.58899" lon="6.62154">
        <ele>2228.1999511719</ele>
        <time>2019-02-08T12:22:13.000Z</time>
      </trkpt>
      <trkpt lat="45.58902" lon="6.62155">
        <ele>2226.3999023438</ele>
        <time>2019-02-08T12:22:14.000Z</time>
      </trkpt>
      <trkpt lat="45.58906" lon="6.62157">
        <ele>2224</ele>
        <time>2019-02-08T12:22:15.000Z</time>
      </trkpt>
      <trkpt lat="45.58909" lon="6.62161">
        <ele>2220.1999511719</ele>
        <time>2019-02-08T12:22:16.000Z</time>
      </trkpt>
      <trkpt lat="45.58913" lon="6.62164">
        <ele>2217.3999023438</ele>
        <time>2019-02-08T12:22:17.000Z</time>
      </trkpt>
      <trkpt lat="45.5891" lon="6.62166">
        <ele>2217.8000488281</ele>
        <time>2019-02-08T12:22:18.000Z</time>
      </trkpt>
      <trkpt lat="45.58914" lon="6.6217">
        <ele>2214.3999023438</ele>
        <time>2019-02-08T12:22:19.000Z</time>
      </trkpt>
      <trkpt lat="45.58919" lon="6.62177">
        <ele>2209.1999511719</ele>
        <time>2019-02-08T12:22:20.000Z</time>
      </trkpt>
      <trkpt lat="45.58912" lon="6.62185">
        <ele>2208.3999023438</ele>
        <time>2019-02-08T12:22:21.000Z</time>
      </trkpt>
      <trkpt lat="45.58915" lon="6.62189">
        <ele>2205.1999511719</ele>
        <time>2019-02-08T12:22:22.000Z</time>
      </trkpt>
      <trkpt lat="45.58909" lon="6.62191">
        <ele>2206.3999023438</ele>
        <time>2019-02-08T12:22:23.000Z</time>
      </trkpt>
      <trkpt lat="45.58906" lon="6.62195">
        <ele>2205.8000488281</ele>
        <time>2019-02-08T12:22:24.000Z</time>
      </trkpt>
      <trkpt lat="45.58909" lon="6.62198">
        <ele>2202.6000976562</ele>
        <time>2019-02-08T12:22:25.000Z</time>
      </trkpt>
      <trkpt lat="45.58909" lon="6.62206">
        <ele>2198.8000488281</ele>
        <time>2019-02-08T12:22:26.000Z</time>
      </trkpt>
      <trkpt lat="45.5891" lon="6.6221">
        <ele>2196.1999511719</ele>
        <time>2019-02-08T12:22:27.000Z</time>
      </trkpt>
      <trkpt lat="45.5891" lon="6.62216">
        <ele>2193</ele>
        <time>2019-02-08T12:22:28.000Z</time>
      </trkpt>
      <trkpt lat="45.58912" lon="6.62221">
        <ele>2189.6000976562</ele>
        <time>2019-02-08T12:22:29.000Z</time>
      </trkpt>
      <trkpt lat="45.58913" lon="6.62227">
        <ele>2186.6000976562</ele>
        <time>2019-02-08T12:22:30.000Z</time>
      </trkpt>
      <trkpt lat="45.58914" lon="6.62232">
        <ele>2183.3999023438</ele>
        <time>2019-02-08T12:22:31.000Z</time>
      </trkpt>
      <trkpt lat="45.58917" lon="6.62235">
        <ele>2180.6000976562</ele>
        <time>2019-02-08T12:22:32.000Z</time>
      </trkpt>
      <trkpt lat="45.58914" lon="6.62235">
        <ele>2181.6000976562</ele>
        <time>2019-02-08T12:22:33.000Z</time>
      </trkpt>
      <trkpt lat="45.58913" lon="6.62237">
        <ele>2181.3999023438</ele>
        <time>2019-02-08T12:22:34.000Z</time>
      </trkpt>
      <trkpt lat="45.58911" lon="6.62237">
        <ele>2181.8000488281</ele>
        <time>2019-02-08T12:22:35.000Z</time>
      </trkpt>
      <trkpt lat="45.58911" lon="6.62237">
        <ele>2181.8000488281</ele>
        <time>2019-02-08T12:22:36.000Z</time>
      </trkpt>
      <trkpt lat="45.58911" lon="6.62237">
        <ele>2181.8000488281</ele>
        <time>2019-02-08T12:22:37.000Z</time>
      </trkpt>
      <trkpt lat="45.58911" lon="6.62237">
        <ele>2181.8000488281</ele>
        <time>2019-02-08T12:22:38.000Z</time>
      </trkpt>
      <trkpt lat="45.58911" lon="6.62237">
        <ele>2181.8000488281</ele>
        <time>2019-02-08T12:22:40.000Z</time>
      </trkpt>
      <trkpt lat="45.58911" lon="6.62237">
        <ele>2181.8000488281</ele>
        <time>2019-02-08T12:22:41.000Z</time>
      </trkpt>
      <trkpt lat="45.58911" lon="6.62237">
        <ele>2181.8000488281</ele>
        <time>2019-02-08T12:22:53.000Z</time>
      </trkpt>
      <trkpt lat="45.58906" lon="6.62241">
        <ele>2182.1999511719</ele>
        <time>2019-02-08T12:22:59.000Z</time>
      </trkpt>
      <trkpt lat="45.58903" lon="6.62247">
        <ele>2181</ele>
        <time>2019-02-08T12:23:00.000Z</time>
      </trkpt>
      <trkpt lat="45.58906" lon="6.62269">
        <ele>2171.1999511719</ele>
        <time>2019-02-08T12:23:03.000Z</time>
      </trkpt>
      <trkpt lat="45.58906" lon="6.62281">
        <ele>2166</ele>
        <time>2019-02-08T12:23:04.000Z</time>
      </trkpt>
      <trkpt lat="45.58908" lon="6.62291">
        <ele>2161.3999023438</ele>
        <time>2019-02-08T12:23:05.000Z</time>
      </trkpt>
      <trkpt lat="45.5891" lon="6.62298">
        <ele>2157.3999023438</ele>
        <time>2019-02-08T12:23:06.000Z</time>
      </trkpt>
      <trkpt lat="45.58914" lon="6.62308">
        <ele>2152</ele>
        <time>2019-02-08T12:23:07.000Z</time>
      </trkpt>
      <trkpt lat="45.58917" lon="6.62318">
        <ele>2146.6000976562</ele>
        <time>2019-02-08T12:23:08.000Z</time>
      </trkpt>
      <trkpt lat="45.5892" lon="6.6233">
        <ele>2142</ele>
        <time>2019-02-08T12:23:09.000Z</time>
      </trkpt>
      <trkpt lat="45.58923" lon="6.62342">
        <ele>2137.8000488281</ele>
        <time>2019-02-08T12:23:10.000Z</time>
      </trkpt>
      <trkpt lat="45.58926" lon="6.62352">
        <ele>2133.6000976562</ele>
        <time>2019-02-08T12:23:11.000Z</time>
      </trkpt>
      <trkpt lat="45.58931" lon="6.62363">
        <ele>2128.8000488281</ele>
        <time>2019-02-08T12:23:12.000Z</time>
      </trkpt>
      <trkpt lat="45.58936" lon="6.62376">
        <ele>2122.8000488281</ele>
        <time>2019-02-08T12:23:13.000Z</time>
      </trkpt>
      <trkpt lat="45.58941" lon="6.6239">
        <ele>2116.6000976562</ele>
        <time>2019-02-08T12:23:14.000Z</time>
      </trkpt>
      <trkpt lat="45.58944" lon="6.62403">
        <ele>2111.6000976562</ele>
        <time>2019-02-08T12:23:15.000Z</time>
      </trkpt>
      <trkpt lat="45.58948" lon="6.62414">
        <ele>2108</ele>
        <time>2019-02-08T12:23:16.000Z</time>
      </trkpt>
      <trkpt lat="45.58954" lon="6.62429">
        <ele>2103.1999511719</ele>
        <time>2019-02-08T12:23:17.000Z</time>
      </trkpt>
      <trkpt lat="45.58959" lon="6.62444">
        <ele>2098.3999023438</ele>
        <time>2019-02-08T12:23:18.000Z</time>
      </trkpt>
      <trkpt lat="45.58959" lon="6.62462">
        <ele>2094.8000488281</ele>
        <time>2019-02-08T12:23:19.000Z</time>
      </trkpt>
      <trkpt lat="45.58962" lon="6.62475">
        <ele>2091.1999511719</ele>
        <time>2019-02-08T12:23:20.000Z</time>
      </trkpt>
      <trkpt lat="45.58962" lon="6.62494">
        <ele>2086.3999023438</ele>
        <time>2019-02-08T12:23:21.000Z</time>
      </trkpt>
      <trkpt lat="45.58965" lon="6.62507">
        <ele>2083.8000488281</ele>
        <time>2019-02-08T12:23:22.000Z</time>
      </trkpt>
      <trkpt lat="45.58969" lon="6.62522">
        <ele>2080.3999023438</ele>
        <time>2019-02-08T12:23:23.000Z</time>
      </trkpt>
      <trkpt lat="45.58972" lon="6.62536">
        <ele>2077.1999511719</ele>
        <time>2019-02-08T12:23:24.000Z</time>
      </trkpt>
      <trkpt lat="45.58975" lon="6.62546">
        <ele>2074.6000976562</ele>
        <time>2019-02-08T12:23:25.000Z</time>
      </trkpt>
      <trkpt lat="45.58981" lon="6.62558">
        <ele>2071.3999023438</ele>
        <time>2019-02-08T12:23:26.000Z</time>
      </trkpt>
      <trkpt lat="45.58987" lon="6.62572">
        <ele>2067.8000488281</ele>
        <time>2019-02-08T12:23:27.000Z</time>
      </trkpt>
      <trkpt lat="45.5899" lon="6.62584">
        <ele>2065</ele>
        <time>2019-02-08T12:23:28.000Z</time>
      </trkpt>
      <trkpt lat="45.58994" lon="6.62602">
        <ele>2060.3999023438</ele>
        <time>2019-02-08T12:23:29.000Z</time>
      </trkpt>
      <trkpt lat="45.58999" lon="6.62621">
        <ele>2054.6000976562</ele>
        <time>2019-02-08T12:23:30.000Z</time>
      </trkpt>
      <trkpt lat="45.58998" lon="6.6264">
        <ele>2049.3999023438</ele>
        <time>2019-02-08T12:23:31.000Z</time>
      </trkpt>
      <trkpt lat="45.58998" lon="6.62657">
        <ele>2045.4000244141</ele>
        <time>2019-02-08T12:23:32.000Z</time>
      </trkpt>
      <trkpt lat="45.59001" lon="6.62667">
        <ele>2043.8000488281</ele>
        <time>2019-02-08T12:23:33.000Z</time>
      </trkpt>
      <trkpt lat="45.59005" lon="6.6268">
        <ele>2041.5999755859</ele>
        <time>2019-02-08T12:23:34.000Z</time>
      </trkpt>
      <trkpt lat="45.59009" lon="6.62692">
        <ele>2039.4000244141</ele>
        <time>2019-02-08T12:23:35.000Z</time>
      </trkpt>
      <trkpt lat="45.59013" lon="6.62704">
        <ele>2036.8000488281</ele>
        <time>2019-02-08T12:23:36.000Z</time>
      </trkpt>
      <trkpt lat="45.59018" lon="6.62715">
        <ele>2034.4000244141</ele>
        <time>2019-02-08T12:23:37.000Z</time>
      </trkpt>
      <trkpt lat="45.59018" lon="6.62725">
        <ele>2032.4000244141</ele>
        <time>2019-02-08T12:23:38.000Z</time>
      </trkpt>
      <trkpt lat="45.59018" lon="6.62735">
        <ele>2030.4000244141</ele>
        <time>2019-02-08T12:23:39.000Z</time>
      </trkpt>
      <trkpt lat="45.59019" lon="6.62744">
        <ele>2028.8000488281</ele>
        <time>2019-02-08T12:23:40.000Z</time>
      </trkpt>
      <trkpt lat="45.5902" lon="6.62748">
        <ele>2028</ele>
        <time>2019-02-08T12:23:41.000Z</time>
      </trkpt>
      <trkpt lat="45.59022" lon="6.62753">
        <ele>2027.1999511719</ele>
        <time>2019-02-08T12:23:42.000Z</time>
      </trkpt>
      <trkpt lat="45.59025" lon="6.62759">
        <ele>2026</ele>
        <time>2019-02-08T12:23:44.000Z</time>
      </trkpt>
      <trkpt lat="45.59024" lon="6.62759">
        <ele>2026</ele>
        <time>2019-02-08T12:23:46.000Z</time>
      </trkpt>
      <trkpt lat="45.59024" lon="6.6276">
        <ele>2026</ele>
        <time>2019-02-08T12:23:48.000Z</time>
      </trkpt>
      <trkpt lat="45.59023" lon="6.6276">
        <ele>2026</ele>
        <time>2019-02-08T12:23:52.000Z</time>
      </trkpt>
      <trkpt lat="45.59023" lon="6.6276">
        <ele>2026</ele>
        <time>2019-02-08T12:23:57.000Z</time>
      </trkpt>
      <trkpt lat="45.59023" lon="6.6276">
        <ele>2026</ele>
        <time>2019-02-08T12:24:00.000Z</time>
      </trkpt>
      <trkpt lat="45.59023" lon="6.62756">
        <ele>2026.5999755859</ele>
        <time>2019-02-08T12:24:01.000Z</time>
      </trkpt>
      <trkpt lat="45.59025" lon="6.62755">
        <ele>2026.8000488281</ele>
        <time>2019-02-08T12:24:03.000Z</time>
      </trkpt>
      <trkpt lat="45.59025" lon="6.62758">
        <ele>2026.1999511719</ele>
        <time>2019-02-08T12:24:04.000Z</time>
      </trkpt>
      <trkpt lat="45.59024" lon="6.62782">
        <ele>2022.1999511719</ele>
        <time>2019-02-08T12:24:06.000Z</time>
      </trkpt>
      <trkpt lat="45.59026" lon="6.62794">
        <ele>2020.1999511719</ele>
        <time>2019-02-08T12:24:07.000Z</time>
      </trkpt>
      <trkpt lat="45.59025" lon="6.62799">
        <ele>2019.1999511719</ele>
        <time>2019-02-08T12:24:08.000Z</time>
      </trkpt>
      <trkpt lat="45.59024" lon="6.62804">
        <ele>2018.4000244141</ele>
        <time>2019-02-08T12:24:09.000Z</time>
      </trkpt>
      <trkpt lat="45.59027" lon="6.62807">
        <ele>2017.8000488281</ele>
        <time>2019-02-08T12:24:10.000Z</time>
      </trkpt>
      <trkpt lat="45.59027" lon="6.62817">
        <ele>2016</ele>
        <time>2019-02-08T12:24:11.000Z</time>
      </trkpt>
      <trkpt lat="45.59028" lon="6.62828">
        <ele>2014</ele>
        <time>2019-02-08T12:24:12.000Z</time>
      </trkpt>
      <trkpt lat="45.59029" lon="6.62836">
        <ele>2012.4000244141</ele>
        <time>2019-02-08T12:24:13.000Z</time>
      </trkpt>
      <trkpt lat="45.59029" lon="6.62846">
        <ele>2010.8000488281</ele>
        <time>2019-02-08T12:24:14.000Z</time>
      </trkpt>
      <trkpt lat="45.59029" lon="6.62856">
        <ele>2008.8000488281</ele>
        <time>2019-02-08T12:24:15.000Z</time>
      </trkpt>
      <trkpt lat="45.59026" lon="6.62864">
        <ele>2007.5999755859</ele>
        <time>2019-02-08T12:24:16.000Z</time>
      </trkpt>
      <trkpt lat="45.59024" lon="6.62872">
        <ele>2006</ele>
        <time>2019-02-08T12:24:17.000Z</time>
      </trkpt>
      <trkpt lat="45.59021" lon="6.62881">
        <ele>2004.1999511719</ele>
        <time>2019-02-08T12:24:18.000Z</time>
      </trkpt>
      <trkpt lat="45.5902" lon="6.62889">
        <ele>2002.5999755859</ele>
        <time>2019-02-08T12:24:19.000Z</time>
      </trkpt>
      <trkpt lat="45.5902" lon="6.62895">
        <ele>2001.4000244141</ele>
        <time>2019-02-08T12:24:20.000Z</time>
      </trkpt>
      <trkpt lat="45.5902" lon="6.629">
        <ele>2000.4000244141</ele>
        <time>2019-02-08T12:24:21.000Z</time>
      </trkpt>
      <trkpt lat="45.59021" lon="6.62903">
        <ele>2000</ele>
        <time>2019-02-08T12:24:22.000Z</time>
      </trkpt>
      <trkpt lat="45.59022" lon="6.62904">
        <ele>1999.8000488281</ele>
        <time>2019-02-08T12:24:23.000Z</time>
      </trkpt>
      <trkpt lat="45.59022" lon="6.62905">
        <ele>1999.5999755859</ele>
        <time>2019-02-08T12:24:24.000Z</time>
      </trkpt>
      <trkpt lat="45.59022" lon="6.62906">
        <ele>1999.4000244141</ele>
        <time>2019-02-08T12:24:26.000Z</time>
      </trkpt>
      <trkpt lat="45.59022" lon="6.62905">
        <ele>1999.5999755859</ele>
        <time>2019-02-08T12:24:31.000Z</time>
      </trkpt>
      <trkpt lat="45.59022" lon="6.62905">
        <ele>1999.5999755859</ele>
        <time>2019-02-08T12:24:41.000Z</time>
      </trkpt>
      <trkpt lat="45.59022" lon="6.62905">
        <ele>1999.5999755859</ele>
        <time>2019-02-08T12:24:54.000Z</time>
      </trkpt>
      <trkpt lat="45.59023" lon="6.62903">
        <ele>1999.8000488281</ele>
        <time>2019-02-08T12:25:13.000Z</time>
      </trkpt>
      <trkpt lat="45.59024" lon="6.62909">
        <ele>1999</ele>
        <time>2019-02-08T12:25:21.000Z</time>
      </trkpt>
      <trkpt lat="45.59024" lon="6.62917">
        <ele>1997.8000488281</ele>
        <time>2019-02-08T12:25:23.000Z</time>
      </trkpt>
      <trkpt lat="45.59023" lon="6.62923">
        <ele>1997</ele>
        <time>2019-02-08T12:25:24.000Z</time>
      </trkpt>
      <trkpt lat="45.59021" lon="6.62923">
        <ele>1997</ele>
        <time>2019-02-08T12:25:25.000Z</time>
      </trkpt>
      <trkpt lat="45.59022" lon="6.62931">
        <ele>1996</ele>
        <time>2019-02-08T12:25:26.000Z</time>
      </trkpt>
      <trkpt lat="45.59023" lon="6.62939">
        <ele>1994.5999755859</ele>
        <time>2019-02-08T12:25:27.000Z</time>
      </trkpt>
      <trkpt lat="45.59025" lon="6.62947">
        <ele>1993.5999755859</ele>
        <time>2019-02-08T12:25:28.000Z</time>
      </trkpt>
      <trkpt lat="45.59026" lon="6.62949">
        <ele>1993.1999511719</ele>
        <time>2019-02-08T12:25:29.000Z</time>
      </trkpt>
      <trkpt lat="45.59028" lon="6.62953">
        <ele>1992.5999755859</ele>
        <time>2019-02-08T12:25:30.000Z</time>
      </trkpt>
      <trkpt lat="45.59029" lon="6.62951">
        <ele>1993</ele>
        <time>2019-02-08T12:25:31.000Z</time>
      </trkpt>
      <trkpt lat="45.5903" lon="6.62954">
        <ele>1992.5999755859</ele>
        <time>2019-02-08T12:25:32.000Z</time>
      </trkpt>
      <trkpt lat="45.59031" lon="6.62957">
        <ele>1992</ele>
        <time>2019-02-08T12:25:34.000Z</time>
      </trkpt>
      <trkpt lat="45.59031" lon="6.62957">
        <ele>1992</ele>
        <time>2019-02-08T12:25:37.000Z</time>
      </trkpt>
      <trkpt lat="45.59031" lon="6.62957">
        <ele>1992</ele>
        <time>2019-02-08T12:25:47.000Z</time>
      </trkpt>
      <trkpt lat="45.59031" lon="6.62957">
        <ele>1992</ele>
        <time>2019-02-08T12:25:57.000Z</time>
      </trkpt>
      <trkpt lat="45.59031" lon="6.62959">
        <ele>1991.8000488281</ele>
        <time>2019-02-08T12:26:08.000Z</time>
      </trkpt>
      <trkpt lat="45.59031" lon="6.62959">
        <ele>1991.8000488281</ele>
        <time>2019-02-08T12:26:19.000Z</time>
      </trkpt>
      <trkpt lat="45.59031" lon="6.62959">
        <ele>1991.8000488281</ele>
        <time>2019-02-08T12:26:29.000Z</time>
      </trkpt>
      <trkpt lat="45.59031" lon="6.6296">
        <ele>1991.8000488281</ele>
        <time>2019-02-08T12:26:31.000Z</time>
      </trkpt>
      <trkpt lat="45.59026" lon="6.6295">
        <ele>1993.1999511719</ele>
        <time>2019-02-08T12:26:33.000Z</time>
      </trkpt>
      <trkpt lat="45.59018" lon="6.62949">
        <ele>1993.1999511719</ele>
        <time>2019-02-08T12:26:35.000Z</time>
      </trkpt>
      <trkpt lat="45.59016" lon="6.62959">
        <ele>1992</ele>
        <time>2019-02-08T12:26:36.000Z</time>
      </trkpt>
      <trkpt lat="45.59017" lon="6.62972">
        <ele>1990.4000244141</ele>
        <time>2019-02-08T12:26:37.000Z</time>
      </trkpt>
      <trkpt lat="45.59014" lon="6.62985">
        <ele>1989</ele>
        <time>2019-02-08T12:26:38.000Z</time>
      </trkpt>
      <trkpt lat="45.59013" lon="6.62997">
        <ele>1987.1999511719</ele>
        <time>2019-02-08T12:26:39.000Z</time>
      </trkpt>
      <trkpt lat="45.5901" lon="6.63009">
        <ele>1985.5999755859</ele>
        <time>2019-02-08T12:26:40.000Z</time>
      </trkpt>
      <trkpt lat="45.5901" lon="6.63026">
        <ele>1983.1999511719</ele>
        <time>2019-02-08T12:26:41.000Z</time>
      </trkpt>
      <trkpt lat="45.59008" lon="6.6304">
        <ele>1981.5999755859</ele>
        <time>2019-02-08T12:26:42.000Z</time>
      </trkpt>
      <trkpt lat="45.59007" lon="6.63053">
        <ele>1980</ele>
        <time>2019-02-08T12:26:43.000Z</time>
      </trkpt>
      <trkpt lat="45.59006" lon="6.63066">
        <ele>1978.4000244141</ele>
        <time>2019-02-08T12:26:44.000Z</time>
      </trkpt>
      <trkpt lat="45.59007" lon="6.63078">
        <ele>1976</ele>
        <time>2019-02-08T12:26:45.000Z</time>
      </trkpt>
      <trkpt lat="45.59009" lon="6.63088">
        <ele>1973.5999755859</ele>
        <time>2019-02-08T12:26:46.000Z</time>
      </trkpt>
      <trkpt lat="45.59009" lon="6.631">
        <ele>1970.8000488281</ele>
        <time>2019-02-08T12:26:47.000Z</time>
      </trkpt>
      <trkpt lat="45.59009" lon="6.63114">
        <ele>1968</ele>
        <time>2019-02-08T12:26:48.000Z</time>
      </trkpt>
      <trkpt lat="45.59013" lon="6.63127">
        <ele>1965.1999511719</ele>
        <time>2019-02-08T12:26:49.000Z</time>
      </trkpt>
      <trkpt lat="45.59016" lon="6.6314">
        <ele>1962.5999755859</ele>
        <time>2019-02-08T12:26:50.000Z</time>
      </trkpt>
      <trkpt lat="45.59018" lon="6.63151">
        <ele>1960.5999755859</ele>
        <time>2019-02-08T12:26:51.000Z</time>
      </trkpt>
      <trkpt lat="45.59018" lon="6.63163">
        <ele>1957.8000488281</ele>
        <time>2019-02-08T12:26:52.000Z</time>
      </trkpt>
      <trkpt lat="45.59018" lon="6.63173">
        <ele>1955.5999755859</ele>
        <time>2019-02-08T12:26:53.000Z</time>
      </trkpt>
      <trkpt lat="45.59018" lon="6.63183">
        <ele>1953.1999511719</ele>
        <time>2019-02-08T12:26:54.000Z</time>
      </trkpt>
      <trkpt lat="45.59018" lon="6.63193">
        <ele>1951</ele>
        <time>2019-02-08T12:26:55.000Z</time>
      </trkpt>
      <trkpt lat="45.59017" lon="6.63202">
        <ele>1948.8000488281</ele>
        <time>2019-02-08T12:26:56.000Z</time>
      </trkpt>
      <trkpt lat="45.59016" lon="6.63224">
        <ele>1940.8000488281</ele>
        <time>2019-02-08T12:26:58.000Z</time>
      </trkpt>
      <trkpt lat="45.59017" lon="6.63235">
        <ele>1936.8000488281</ele>
        <time>2019-02-08T12:26:59.000Z</time>
      </trkpt>
      <trkpt lat="45.59016" lon="6.63247">
        <ele>1935.1999511719</ele>
        <time>2019-02-08T12:27:00.000Z</time>
      </trkpt>
      <trkpt lat="45.59018" lon="6.63255">
        <ele>1934.1999511719</ele>
        <time>2019-02-08T12:27:01.000Z</time>
      </trkpt>
      <trkpt lat="45.5902" lon="6.63267">
        <ele>1932.8000488281</ele>
        <time>2019-02-08T12:27:02.000Z</time>
      </trkpt>
      <trkpt lat="45.59019" lon="6.63276">
        <ele>1931.4000244141</ele>
        <time>2019-02-08T12:27:03.000Z</time>
      </trkpt>
      <trkpt lat="45.59019" lon="6.63289">
        <ele>1929.4000244141</ele>
        <time>2019-02-08T12:27:04.000Z</time>
      </trkpt>
      <trkpt lat="45.59017" lon="6.63302">
        <ele>1926.1999511719</ele>
        <time>2019-02-08T12:27:05.000Z</time>
      </trkpt>
      <trkpt lat="45.59018" lon="6.63314">
        <ele>1923.4000244141</ele>
        <time>2019-02-08T12:27:06.000Z</time>
      </trkpt>
      <trkpt lat="45.59017" lon="6.63327">
        <ele>1920.8000488281</ele>
        <time>2019-02-08T12:27:07.000Z</time>
      </trkpt>
      <trkpt lat="45.59018" lon="6.63338">
        <ele>1919.4000244141</ele>
        <time>2019-02-08T12:27:08.000Z</time>
      </trkpt>
      <trkpt lat="45.59015" lon="6.63348">
        <ele>1917.5999755859</ele>
        <time>2019-02-08T12:27:09.000Z</time>
      </trkpt>
      <trkpt lat="45.59016" lon="6.63362">
        <ele>1915.8000488281</ele>
        <time>2019-02-08T12:27:10.000Z</time>
      </trkpt>
      <trkpt lat="45.59012" lon="6.63378">
        <ele>1912.8000488281</ele>
        <time>2019-02-08T12:27:11.000Z</time>
      </trkpt>
      <trkpt lat="45.59014" lon="6.63385">
        <ele>1912.1999511719</ele>
        <time>2019-02-08T12:27:12.000Z</time>
      </trkpt>
      <trkpt lat="45.59013" lon="6.63395">
        <ele>1910.4000244141</ele>
        <time>2019-02-08T12:27:13.000Z</time>
      </trkpt>
      <trkpt lat="45.59016" lon="6.63406">
        <ele>1909.1999511719</ele>
        <time>2019-02-08T12:27:14.000Z</time>
      </trkpt>
      <trkpt lat="45.59013" lon="6.63415">
        <ele>1906.4000244141</ele>
        <time>2019-02-08T12:27:15.000Z</time>
      </trkpt>
      <trkpt lat="45.59012" lon="6.63417">
        <ele>1906</ele>
        <time>2019-02-08T12:27:16.000Z</time>
      </trkpt>
      <trkpt lat="45.5901" lon="6.6342">
        <ele>1905</ele>
        <time>2019-02-08T12:27:17.000Z</time>
      </trkpt>
      <trkpt lat="45.5901" lon="6.63424">
        <ele>1904.1999511719</ele>
        <time>2019-02-08T12:27:18.000Z</time>
      </trkpt>
      <trkpt lat="45.59008" lon="6.63428">
        <ele>1903</ele>
        <time>2019-02-08T12:27:19.000Z</time>
      </trkpt>
      <trkpt lat="45.59011" lon="6.6343">
        <ele>1902.8000488281</ele>
        <time>2019-02-08T12:27:20.000Z</time>
      </trkpt>
      <trkpt lat="45.5901" lon="6.63432">
        <ele>1902.1999511719</ele>
        <time>2019-02-08T12:27:21.000Z</time>
      </trkpt>
      <trkpt lat="45.59014" lon="6.63433">
        <ele>1902.5999755859</ele>
        <time>2019-02-08T12:27:22.000Z</time>
      </trkpt>
      <trkpt lat="45.59015" lon="6.63436">
        <ele>1902</ele>
        <time>2019-02-08T12:27:23.000Z</time>
      </trkpt>
      <trkpt lat="45.59014" lon="6.6344">
        <ele>1901</ele>
        <time>2019-02-08T12:27:24.000Z</time>
      </trkpt>
      <trkpt lat="45.59014" lon="6.63445">
        <ele>1899.8000488281</ele>
        <time>2019-02-08T12:27:25.000Z</time>
      </trkpt>
      <trkpt lat="45.59016" lon="6.63451">
        <ele>1898.8000488281</ele>
        <time>2019-02-08T12:27:26.000Z</time>
      </trkpt>
      <trkpt lat="45.59013" lon="6.63456">
        <ele>1897.8000488281</ele>
        <time>2019-02-08T12:27:27.000Z</time>
      </trkpt>
      <trkpt lat="45.59009" lon="6.63463">
        <ele>1896.1999511719</ele>
        <time>2019-02-08T12:27:28.000Z</time>
      </trkpt>
      <trkpt lat="45.5901" lon="6.63469">
        <ele>1895.1999511719</ele>
        <time>2019-02-08T12:27:29.000Z</time>
      </trkpt>
      <trkpt lat="45.59009" lon="6.63471">
        <ele>1894.8000488281</ele>
        <time>2019-02-08T12:27:30.000Z</time>
      </trkpt>
      <trkpt lat="45.59006" lon="6.63469">
        <ele>1894.8000488281</ele>
        <time>2019-02-08T12:27:31.000Z</time>
      </trkpt>
      <trkpt lat="45.59004" lon="6.63474">
        <ele>1894</ele>
        <time>2019-02-08T12:27:32.000Z</time>
      </trkpt>
      <trkpt lat="45.59003" lon="6.63472">
        <ele>1894.1999511719</ele>
        <time>2019-02-08T12:27:33.000Z</time>
      </trkpt>
      <trkpt lat="45.58999" lon="6.6347">
        <ele>1894.1999511719</ele>
        <time>2019-02-08T12:27:34.000Z</time>
      </trkpt>
      <trkpt lat="45.58993" lon="6.63465">
        <ele>1894.4000244141</ele>
        <time>2019-02-08T12:27:35.000Z</time>
      </trkpt>
      <trkpt lat="45.58988" lon="6.63464">
        <ele>1894.1999511719</ele>
        <time>2019-02-08T12:27:36.000Z</time>
      </trkpt>
      <trkpt lat="45.58984" lon="6.63465">
        <ele>1893.8000488281</ele>
        <time>2019-02-08T12:27:37.000Z</time>
      </trkpt>
      <trkpt lat="45.58983" lon="6.63465">
        <ele>1893.5999755859</ele>
        <time>2019-02-08T12:27:38.000Z</time>
      </trkpt>
      <trkpt lat="45.58981" lon="6.63466">
        <ele>1893.4000244141</ele>
        <time>2019-02-08T12:27:39.000Z</time>
      </trkpt>
      <trkpt lat="45.5898" lon="6.63467">
        <ele>1893.1999511719</ele>
        <time>2019-02-08T12:27:40.000Z</time>
      </trkpt>
      <trkpt lat="45.58978" lon="6.63477">
        <ele>1891.1999511719</ele>
        <time>2019-02-08T12:27:42.000Z</time>
      </trkpt>
      <trkpt lat="45.58976" lon="6.63483">
        <ele>1890</ele>
        <time>2019-02-08T12:27:43.000Z</time>
      </trkpt>
      <trkpt lat="45.58972" lon="6.63501">
        <ele>1887.1999511719</ele>
        <time>2019-02-08T12:27:45.000Z</time>
      </trkpt>
      <trkpt lat="45.58969" lon="6.63511">
        <ele>1885.8000488281</ele>
        <time>2019-02-08T12:27:46.000Z</time>
      </trkpt>
      <trkpt lat="45.58971" lon="6.6352">
        <ele>1884.5999755859</ele>
        <time>2019-02-08T12:27:47.000Z</time>
      </trkpt>
      <trkpt lat="45.58972" lon="6.63529">
        <ele>1883.4000244141</ele>
        <time>2019-02-08T12:27:48.000Z</time>
      </trkpt>
      <trkpt lat="45.58974" lon="6.63536">
        <ele>1882.5999755859</ele>
        <time>2019-02-08T12:27:49.000Z</time>
      </trkpt>
      <trkpt lat="45.58978" lon="6.63543">
        <ele>1881.8000488281</ele>
        <time>2019-02-08T12:27:50.000Z</time>
      </trkpt>
      <trkpt lat="45.5898" lon="6.6355">
        <ele>1880.8000488281</ele>
        <time>2019-02-08T12:27:51.000Z</time>
      </trkpt>
      <trkpt lat="45.58982" lon="6.63556">
        <ele>1880.1999511719</ele>
        <time>2019-02-08T12:27:52.000Z</time>
      </trkpt>
      <trkpt lat="45.58985" lon="6.6356">
        <ele>1879.8000488281</ele>
        <time>2019-02-08T12:27:53.000Z</time>
      </trkpt>
      <trkpt lat="45.58988" lon="6.63568">
        <ele>1878.8000488281</ele>
        <time>2019-02-08T12:27:54.000Z</time>
      </trkpt>
      <trkpt lat="45.58987" lon="6.63575">
        <ele>1877.1999511719</ele>
        <time>2019-02-08T12:27:55.000Z</time>
      </trkpt>
      <trkpt lat="45.58987" lon="6.63579">
        <ele>1876.4000244141</ele>
        <time>2019-02-08T12:27:56.000Z</time>
      </trkpt>
      <trkpt lat="45.58987" lon="6.63589">
        <ele>1874.1999511719</ele>
        <time>2019-02-08T12:27:58.000Z</time>
      </trkpt>
      <trkpt lat="45.58987" lon="6.63598">
        <ele>1873</ele>
        <time>2019-02-08T12:28:00.000Z</time>
      </trkpt>
      <trkpt lat="45.58987" lon="6.63611">
        <ele>1871.4000244141</ele>
        <time>2019-02-08T12:28:03.000Z</time>
      </trkpt>
      <trkpt lat="45.58987" lon="6.63616">
        <ele>1870.5999755859</ele>
        <time>2019-02-08T12:28:04.000Z</time>
      </trkpt>
      <trkpt lat="45.58989" lon="6.6364">
        <ele>1867.4000244141</ele>
        <time>2019-02-08T12:28:09.000Z</time>
      </trkpt>
      <trkpt lat="45.58989" lon="6.63645">
        <ele>1866.5999755859</ele>
        <time>2019-02-08T12:28:10.000Z</time>
      </trkpt>
      <trkpt lat="45.5899" lon="6.63662">
        <ele>1864</ele>
        <time>2019-02-08T12:28:13.000Z</time>
      </trkpt>
      <trkpt lat="45.5899" lon="6.63668">
        <ele>1863</ele>
        <time>2019-02-08T12:28:14.000Z</time>
      </trkpt>
      <trkpt lat="45.5899" lon="6.63676">
        <ele>1861.4000244141</ele>
        <time>2019-02-08T12:28:16.000Z</time>
      </trkpt>
      <trkpt lat="45.58991" lon="6.63683">
        <ele>1860.1999511719</ele>
        <time>2019-02-08T12:28:17.000Z</time>
      </trkpt>
      <trkpt lat="45.58992" lon="6.63698">
        <ele>1857.5999755859</ele>
        <time>2019-02-08T12:28:19.000Z</time>
      </trkpt>
      <trkpt lat="45.58993" lon="6.63701">
        <ele>1857.1999511719</ele>
        <time>2019-02-08T12:28:20.000Z</time>
      </trkpt>
      <trkpt lat="45.58995" lon="6.63721">
        <ele>1853.5999755859</ele>
        <time>2019-02-08T12:28:23.000Z</time>
      </trkpt>
      <trkpt lat="45.58998" lon="6.63734">
        <ele>1851.1999511719</ele>
        <time>2019-02-08T12:28:25.000Z</time>
      </trkpt>
      <trkpt lat="45.58999" lon="6.63736">
        <ele>1850.5999755859</ele>
        <time>2019-02-08T12:28:26.000Z</time>
      </trkpt>
      <trkpt lat="45.58998" lon="6.63737">
        <ele>1850.5999755859</ele>
        <time>2019-02-08T12:28:27.000Z</time>
      </trkpt>
      <trkpt lat="45.58998" lon="6.6374">
        <ele>1850</ele>
        <time>2019-02-08T12:28:29.000Z</time>
      </trkpt>
      <trkpt lat="45.58997" lon="6.63743">
        <ele>1849.4000244141</ele>
        <time>2019-02-08T12:28:30.000Z</time>
      </trkpt>
      <trkpt lat="45.58997" lon="6.63746">
        <ele>1849</ele>
        <time>2019-02-08T12:28:31.000Z</time>
      </trkpt>
      <trkpt lat="45.58996" lon="6.63752">
        <ele>1847.8000488281</ele>
        <time>2019-02-08T12:28:35.000Z</time>
      </trkpt>
      <trkpt lat="45.58995" lon="6.63754">
        <ele>1847.5999755859</ele>
        <time>2019-02-08T12:28:38.000Z</time>
      </trkpt>
      <trkpt lat="45.58993" lon="6.63766">
        <ele>1845.5999755859</ele>
        <time>2019-02-08T12:28:42.000Z</time>
      </trkpt>
      <trkpt lat="45.58989" lon="6.63776">
        <ele>1844.4000244141</ele>
        <time>2019-02-08T12:28:45.000Z</time>
      </trkpt>
      <trkpt lat="45.58985" lon="6.63783">
        <ele>1843.8000488281</ele>
        <time>2019-02-08T12:28:47.000Z</time>
      </trkpt>
      <trkpt lat="45.58983" lon="6.63786">
        <ele>1843.5999755859</ele>
        <time>2019-02-08T12:28:48.000Z</time>
      </trkpt>
      <trkpt lat="45.58979" lon="6.63791">
        <ele>1843.1999511719</ele>
        <time>2019-02-08T12:28:50.000Z</time>
      </trkpt>
      <trkpt lat="45.58976" lon="6.63795">
        <ele>1842.8000488281</ele>
        <time>2019-02-08T12:28:51.000Z</time>
      </trkpt>
      <trkpt lat="45.58968" lon="6.63798">
        <ele>1843.4000244141</ele>
        <time>2019-02-08T12:28:53.000Z</time>
      </trkpt>
      <trkpt lat="45.58964" lon="6.63797">
        <ele>1843.8000488281</ele>
        <time>2019-02-08T12:28:54.000Z</time>
      </trkpt>
      <trkpt lat="45.58959" lon="6.638">
        <ele>1843.4000244141</ele>
        <time>2019-02-08T12:28:55.000Z</time>
      </trkpt>
      <trkpt lat="45.58953" lon="6.638">
        <ele>1843.8000488281</ele>
        <time>2019-02-08T12:28:56.000Z</time>
      </trkpt>
      <trkpt lat="45.58942" lon="6.63803">
        <ele>1844</ele>
        <time>2019-02-08T12:28:58.000Z</time>
      </trkpt>
      <trkpt lat="45.58939" lon="6.63805">
        <ele>1844.1999511719</ele>
        <time>2019-02-08T12:28:59.000Z</time>
      </trkpt>
      <trkpt lat="45.58936" lon="6.63807">
        <ele>1844.1999511719</ele>
        <time>2019-02-08T12:29:00.000Z</time>
      </trkpt>
      <trkpt lat="45.58935" lon="6.63807">
        <ele>1844.1999511719</ele>
        <time>2019-02-08T12:29:01.000Z</time>
      </trkpt>
      <trkpt lat="45.58931" lon="6.63812">
        <ele>1844</ele>
        <time>2019-02-08T12:29:03.000Z</time>
      </trkpt>
      <trkpt lat="45.58928" lon="6.63818">
        <ele>1843.4000244141</ele>
        <time>2019-02-08T12:29:04.000Z</time>
      </trkpt>
      <trkpt lat="45.58926" lon="6.63825">
        <ele>1842.8000488281</ele>
        <time>2019-02-08T12:29:05.000Z</time>
      </trkpt>
      <trkpt lat="45.58925" lon="6.63834">
        <ele>1841.8000488281</ele>
        <time>2019-02-08T12:29:06.000Z</time>
      </trkpt>
      <trkpt lat="45.58923" lon="6.63845">
        <ele>1840.4000244141</ele>
        <time>2019-02-08T12:29:08.000Z</time>
      </trkpt>
      <trkpt lat="45.58922" lon="6.63853">
        <ele>1839.4000244141</ele>
        <time>2019-02-08T12:29:10.000Z</time>
      </trkpt>
      <trkpt lat="45.5892" lon="6.6386">
        <ele>1838.5999755859</ele>
        <time>2019-02-08T12:29:12.000Z</time>
      </trkpt>
      <trkpt lat="45.58909" lon="6.63873">
        <ele>1838</ele>
        <time>2019-02-08T12:29:15.000Z</time>
      </trkpt>
      <trkpt lat="45.58895" lon="6.63887">
        <ele>1837.1999511719</ele>
        <time>2019-02-08T12:29:18.000Z</time>
      </trkpt>
      <trkpt lat="45.58892" lon="6.63891">
        <ele>1837</ele>
        <time>2019-02-08T12:29:19.000Z</time>
      </trkpt>
      <trkpt lat="45.58889" lon="6.63894">
        <ele>1836.8000488281</ele>
        <time>2019-02-08T12:29:20.000Z</time>
      </trkpt>
      <trkpt lat="45.58886" lon="6.63895">
        <ele>1837</ele>
        <time>2019-02-08T12:29:21.000Z</time>
      </trkpt>
      <trkpt lat="45.58881" lon="6.639">
        <ele>1837</ele>
        <time>2019-02-08T12:29:22.000Z</time>
      </trkpt>
      <trkpt lat="45.58875" lon="6.63907">
        <ele>1837.4000244141</ele>
        <time>2019-02-08T12:29:23.000Z</time>
      </trkpt>
      <trkpt lat="45.58868" lon="6.63915">
        <ele>1837.5999755859</ele>
        <time>2019-02-08T12:29:24.000Z</time>
      </trkpt>
      <trkpt lat="45.58863" lon="6.63923">
        <ele>1837.4000244141</ele>
        <time>2019-02-08T12:29:25.000Z</time>
      </trkpt>
      <trkpt lat="45.58859" lon="6.63927">
        <ele>1837.5999755859</ele>
        <time>2019-02-08T12:29:26.000Z</time>
      </trkpt>
      <trkpt lat="45.58855" lon="6.63929">
        <ele>1838.1999511719</ele>
        <time>2019-02-08T12:29:27.000Z</time>
      </trkpt>
      <trkpt lat="45.58851" lon="6.6393">
        <ele>1839</ele>
        <time>2019-02-08T12:29:28.000Z</time>
      </trkpt>
      <trkpt lat="45.58845" lon="6.63921">
        <ele>1841.4000244141</ele>
        <time>2019-02-08T12:29:30.000Z</time>
      </trkpt>
      <trkpt lat="45.58838" lon="6.6392">
        <ele>1843</ele>
        <time>2019-02-08T12:29:32.000Z</time>
      </trkpt>
      <trkpt lat="45.5883" lon="6.63918">
        <ele>1845</ele>
        <time>2019-02-08T12:29:38.000Z</time>
      </trkpt>
      <trkpt lat="45.5883" lon="6.63915">
        <ele>1845.4000244141</ele>
        <time>2019-02-08T12:29:48.000Z</time>
      </trkpt>
      <trkpt lat="45.58833" lon="6.63912">
        <ele>1845.1999511719</ele>
        <time>2019-02-08T12:29:55.000Z</time>
      </trkpt>
      <trkpt lat="45.58833" lon="6.63911">
        <ele>1845.1999511719</ele>
        <time>2019-02-08T12:30:05.000Z</time>
      </trkpt>
      <trkpt lat="45.58831" lon="6.6391">
        <ele>1845.8000488281</ele>
        <time>2019-02-08T12:30:14.000Z</time>
      </trkpt>
      <trkpt lat="45.58848" lon="6.63909">
        <ele>1842.5999755859</ele>
        <time>2019-02-08T12:30:19.000Z</time>
      </trkpt>
      <trkpt lat="45.58861" lon="6.63916">
        <ele>1839</ele>
        <time>2019-02-08T12:30:23.000Z</time>
      </trkpt>
      <trkpt lat="45.58863" lon="6.63917">
        <ele>1838.1999511719</ele>
        <time>2019-02-08T12:30:25.000Z</time>
      </trkpt>
      <trkpt lat="45.58866" lon="6.63925">
        <ele>1836.8000488281</ele>
        <time>2019-02-08T12:30:30.000Z</time>
      </trkpt>
      <trkpt lat="45.58869" lon="6.63944">
        <ele>1833.1999511719</ele>
        <time>2019-02-08T12:30:36.000Z</time>
      </trkpt>
      <trkpt lat="45.58875" lon="6.63967">
        <ele>1828.8000488281</ele>
        <time>2019-02-08T12:30:43.000Z</time>
      </trkpt>
      <trkpt lat="45.58876" lon="6.63974">
        <ele>1827.4000244141</ele>
        <time>2019-02-08T12:30:44.000Z</time>
      </trkpt>
      <trkpt lat="45.58878" lon="6.63983">
        <ele>1826</ele>
        <time>2019-02-08T12:30:45.000Z</time>
      </trkpt>
      <trkpt lat="45.5888" lon="6.6399">
        <ele>1824.4000244141</ele>
        <time>2019-02-08T12:30:46.000Z</time>
      </trkpt>
      <trkpt lat="45.58884" lon="6.64008">
        <ele>1820.8000488281</ele>
        <time>2019-02-08T12:30:48.000Z</time>
      </trkpt>
      <trkpt lat="45.58887" lon="6.64027">
        <ele>1817.4000244141</ele>
        <time>2019-02-08T12:30:50.000Z</time>
      </trkpt>
      <trkpt lat="45.58889" lon="6.64037">
        <ele>1815.8000488281</ele>
        <time>2019-02-08T12:30:51.000Z</time>
      </trkpt>
      <trkpt lat="45.58891" lon="6.64047">
        <ele>1814.4000244141</ele>
        <time>2019-02-08T12:30:52.000Z</time>
      </trkpt>
      <trkpt lat="45.58893" lon="6.64058">
        <ele>1812.5999755859</ele>
        <time>2019-02-08T12:30:53.000Z</time>
      </trkpt>
      <trkpt lat="45.58895" lon="6.64067">
        <ele>1811</ele>
        <time>2019-02-08T12:30:54.000Z</time>
      </trkpt>
      <trkpt lat="45.58898" lon="6.64077">
        <ele>1809.1999511719</ele>
        <time>2019-02-08T12:30:55.000Z</time>
      </trkpt>
      <trkpt lat="45.58899" lon="6.64088">
        <ele>1807.1999511719</ele>
        <time>2019-02-08T12:30:56.000Z</time>
      </trkpt>
      <trkpt lat="45.58902" lon="6.64098">
        <ele>1805.4000244141</ele>
        <time>2019-02-08T12:30:57.000Z</time>
      </trkpt>
      <trkpt lat="45.58904" lon="6.6411">
        <ele>1803.4000244141</ele>
        <time>2019-02-08T12:30:58.000Z</time>
      </trkpt>
      <trkpt lat="45.5891" lon="6.64118">
        <ele>1801.8000488281</ele>
        <time>2019-02-08T12:30:59.000Z</time>
      </trkpt>
      <trkpt lat="45.58914" lon="6.64129">
        <ele>1800</ele>
        <time>2019-02-08T12:31:00.000Z</time>
      </trkpt>
      <trkpt lat="45.58916" lon="6.64142">
        <ele>1797.8000488281</ele>
        <time>2019-02-08T12:31:01.000Z</time>
      </trkpt>
      <trkpt lat="45.58918" lon="6.64155">
        <ele>1795.4000244141</ele>
        <time>2019-02-08T12:31:02.000Z</time>
      </trkpt>
      <trkpt lat="45.58919" lon="6.64163">
        <ele>1793.1999511719</ele>
        <time>2019-02-08T12:31:03.000Z</time>
      </trkpt>
      <trkpt lat="45.58924" lon="6.64175">
        <ele>1789.8000488281</ele>
        <time>2019-02-08T12:31:04.000Z</time>
      </trkpt>
      <trkpt lat="45.58927" lon="6.64183">
        <ele>1787.8000488281</ele>
        <time>2019-02-08T12:31:05.000Z</time>
      </trkpt>
      <trkpt lat="45.58933" lon="6.64193">
        <ele>1784.8000488281</ele>
        <time>2019-02-08T12:31:06.000Z</time>
      </trkpt>
      <trkpt lat="45.58936" lon="6.64198">
        <ele>1783.4000244141</ele>
        <time>2019-02-08T12:31:07.000Z</time>
      </trkpt>
      <trkpt lat="45.58939" lon="6.64201">
        <ele>1782.5999755859</ele>
        <time>2019-02-08T12:31:08.000Z</time>
      </trkpt>
      <trkpt lat="45.58942" lon="6.64205">
        <ele>1781.1999511719</ele>
        <time>2019-02-08T12:31:09.000Z</time>
      </trkpt>
      <trkpt lat="45.58945" lon="6.64212">
        <ele>1779.1999511719</ele>
        <time>2019-02-08T12:31:10.000Z</time>
      </trkpt>
      <trkpt lat="45.58948" lon="6.64219">
        <ele>1777.5999755859</ele>
        <time>2019-02-08T12:31:11.000Z</time>
      </trkpt>
      <trkpt lat="45.5895" lon="6.64224">
        <ele>1776.8000488281</ele>
        <time>2019-02-08T12:31:12.000Z</time>
      </trkpt>
      <trkpt lat="45.58952" lon="6.64229">
        <ele>1775.5999755859</ele>
        <time>2019-02-08T12:31:13.000Z</time>
      </trkpt>
      <trkpt lat="45.58955" lon="6.64235">
        <ele>1774.4000244141</ele>
        <time>2019-02-08T12:31:14.000Z</time>
      </trkpt>
      <trkpt lat="45.58959" lon="6.64239">
        <ele>1772.8000488281</ele>
        <time>2019-02-08T12:31:15.000Z</time>
      </trkpt>
      <trkpt lat="45.58959" lon="6.64248">
        <ele>1770.5999755859</ele>
        <time>2019-02-08T12:31:16.000Z</time>
      </trkpt>
      <trkpt lat="45.5896" lon="6.64258">
        <ele>1767.5999755859</ele>
        <time>2019-02-08T12:31:17.000Z</time>
      </trkpt>
      <trkpt lat="45.58961" lon="6.64265">
        <ele>1765.8000488281</ele>
        <time>2019-02-08T12:31:18.000Z</time>
      </trkpt>
      <trkpt lat="45.58961" lon="6.64269">
        <ele>1764.5999755859</ele>
        <time>2019-02-08T12:31:19.000Z</time>
      </trkpt>
      <trkpt lat="45.58961" lon="6.64268">
        <ele>1765</ele>
        <time>2019-02-08T12:31:20.000Z</time>
      </trkpt>
      <trkpt lat="45.5896" lon="6.6427">
        <ele>1764.8000488281</ele>
        <time>2019-02-08T12:31:21.000Z</time>
      </trkpt>
      <trkpt lat="45.5896" lon="6.64271">
        <ele>1764.5999755859</ele>
        <time>2019-02-08T12:31:22.000Z</time>
      </trkpt>
      <trkpt lat="45.58959" lon="6.64273">
        <ele>1764.1999511719</ele>
        <time>2019-02-08T12:31:24.000Z</time>
      </trkpt>
      <trkpt lat="45.5896" lon="6.64274">
        <ele>1763.8000488281</ele>
        <time>2019-02-08T12:31:27.000Z</time>
      </trkpt>
      <trkpt lat="45.5896" lon="6.64277">
        <ele>1763</ele>
        <time>2019-02-08T12:31:28.000Z</time>
      </trkpt>
      <trkpt lat="45.58961" lon="6.64288">
        <ele>1760.1999511719</ele>
        <time>2019-02-08T12:31:32.000Z</time>
      </trkpt>
      <trkpt lat="45.58966" lon="6.64289">
        <ele>1759</ele>
        <time>2019-02-08T12:31:33.000Z</time>
      </trkpt>
      <trkpt lat="45.58973" lon="6.64294">
        <ele>1756.1999511719</ele>
        <time>2019-02-08T12:31:35.000Z</time>
      </trkpt>
      <trkpt lat="45.58973" lon="6.64301">
        <ele>1754.1999511719</ele>
        <time>2019-02-08T12:31:36.000Z</time>
      </trkpt>
      <trkpt lat="45.58976" lon="6.64306">
        <ele>1752.4000244141</ele>
        <time>2019-02-08T12:31:37.000Z</time>
      </trkpt>
      <trkpt lat="45.58979" lon="6.64313">
        <ele>1749.5999755859</ele>
        <time>2019-02-08T12:31:38.000Z</time>
      </trkpt>
      <trkpt lat="45.58983" lon="6.64318">
        <ele>1747.4000244141</ele>
        <time>2019-02-08T12:31:39.000Z</time>
      </trkpt>
      <trkpt lat="45.58986" lon="6.64323">
        <ele>1744.4000244141</ele>
        <time>2019-02-08T12:31:40.000Z</time>
      </trkpt>
      <trkpt lat="45.58988" lon="6.64331">
        <ele>1739.8000488281</ele>
        <time>2019-02-08T12:31:41.000Z</time>
      </trkpt>
      <trkpt lat="45.58988" lon="6.64336">
        <ele>1737.1999511719</ele>
        <time>2019-02-08T12:31:42.000Z</time>
      </trkpt>
      <trkpt lat="45.58988" lon="6.6434">
        <ele>1735.5999755859</ele>
        <time>2019-02-08T12:31:43.000Z</time>
      </trkpt>
      <trkpt lat="45.58988" lon="6.64341">
        <ele>1735.4000244141</ele>
        <time>2019-02-08T12:31:44.000Z</time>
      </trkpt>
      <trkpt lat="45.58988" lon="6.64342">
        <ele>1734.5999755859</ele>
        <time>2019-02-08T12:31:45.000Z</time>
      </trkpt>
      <trkpt lat="45.58989" lon="6.64343">
        <ele>1734</ele>
        <time>2019-02-08T12:31:46.000Z</time>
      </trkpt>
      <trkpt lat="45.5899" lon="6.64341">
        <ele>1734.1999511719</ele>
        <time>2019-02-08T12:31:47.000Z</time>
      </trkpt>
      <trkpt lat="45.58992" lon="6.64339">
        <ele>1734.5999755859</ele>
        <time>2019-02-08T12:31:49.000Z</time>
      </trkpt>
      <trkpt lat="45.58992" lon="6.64339">
        <ele>1734.5999755859</ele>
        <time>2019-02-08T12:31:53.000Z</time>
      </trkpt>
      <trkpt lat="45.58992" lon="6.64339">
        <ele>1734.5999755859</ele>
        <time>2019-02-08T12:31:55.000Z</time>
      </trkpt>
      <trkpt lat="45.58992" lon="6.64339">
        <ele>1734.5999755859</ele>
        <time>2019-02-08T12:32:04.000Z</time>
      </trkpt>
      <trkpt lat="45.58992" lon="6.64339">
        <ele>1734.5999755859</ele>
        <time>2019-02-08T12:32:05.000Z</time>
      </trkpt>
      <trkpt lat="45.58992" lon="6.64339">
        <ele>1734.5999755859</ele>
        <time>2019-02-08T12:32:14.000Z</time>
      </trkpt>
      <trkpt lat="45.58992" lon="6.64339">
        <ele>1734.5999755859</ele>
        <time>2019-02-08T12:32:20.000Z</time>
      </trkpt>
      <trkpt lat="45.58992" lon="6.64339">
        <ele>1734.5999755859</ele>
        <time>2019-02-08T12:32:24.000Z</time>
      </trkpt>
      <trkpt lat="45.58993" lon="6.64338">
        <ele>1735</ele>
        <time>2019-02-08T12:32:36.000Z</time>
      </trkpt>
      <trkpt lat="45.58993" lon="6.64338">
        <ele>1735</ele>
        <time>2019-02-08T12:32:37.000Z</time>
      </trkpt>
      <trkpt lat="45.58993" lon="6.64338">
        <ele>1735</ele>
        <time>2019-02-08T12:32:45.000Z</time>
      </trkpt>
      <trkpt lat="45.58993" lon="6.64338">
        <ele>1735</ele>
        <time>2019-02-08T12:32:53.000Z</time>
      </trkpt>
      <trkpt lat="45.58993" lon="6.64338">
        <ele>1735</ele>
        <time>2019-02-08T12:32:59.000Z</time>
      </trkpt>
      <trkpt lat="45.58993" lon="6.64338">
        <ele>1735</ele>
        <time>2019-02-08T12:33:00.000Z</time>
      </trkpt>
      <trkpt lat="45.58995" lon="6.64337">
        <ele>1735</ele>
        <time>2019-02-08T12:33:13.000Z</time>
      </trkpt>
      <trkpt lat="45.58996" lon="6.64336">
        <ele>1735</ele>
        <time>2019-02-08T12:33:24.000Z</time>
      </trkpt>
      <trkpt lat="45.58996" lon="6.64336">
        <ele>1735</ele>
        <time>2019-02-08T12:33:34.000Z</time>
      </trkpt>
      <trkpt lat="45.58996" lon="6.64336">
        <ele>1734.8000488281</ele>
        <time>2019-02-08T12:33:42.000Z</time>
      </trkpt>
      <trkpt lat="45.58996" lon="6.64336">
        <ele>1734.8000488281</ele>
        <time>2019-02-08T12:33:48.000Z</time>
      </trkpt>
      <trkpt lat="45.58996" lon="6.64336">
        <ele>1734.8000488281</ele>
        <time>2019-02-08T12:33:49.000Z</time>
      </trkpt>
      <trkpt lat="45.58999" lon="6.64335">
        <ele>1734.8000488281</ele>
        <time>2019-02-08T12:33:57.000Z</time>
      </trkpt>
      <trkpt lat="45.59002" lon="6.64337">
        <ele>1732.5999755859</ele>
        <time>2019-02-08T12:34:02.000Z</time>
      </trkpt>
      <trkpt lat="45.59006" lon="6.64336">
        <ele>1732.1999511719</ele>
        <time>2019-02-08T12:34:05.000Z</time>
      </trkpt>
      <trkpt lat="45.59007" lon="6.64336">
        <ele>1732</ele>
        <time>2019-02-08T12:34:06.000Z</time>
      </trkpt>
      <trkpt lat="45.59009" lon="6.64337">
        <ele>1730.8000488281</ele>
        <time>2019-02-08T12:34:07.000Z</time>
      </trkpt>
      <trkpt lat="45.59011" lon="6.64344">
        <ele>1726.8000488281</ele>
        <time>2019-02-08T12:34:09.000Z</time>
      </trkpt>
      <trkpt lat="45.5901" lon="6.64348">
        <ele>1725</ele>
        <time>2019-02-08T12:34:10.000Z</time>
      </trkpt>
      <trkpt lat="45.5901" lon="6.64352">
        <ele>1723.4000244141</ele>
        <time>2019-02-08T12:34:11.000Z</time>
      </trkpt>
      <trkpt lat="45.59012" lon="6.64361">
        <ele>1718.5999755859</ele>
        <time>2019-02-08T12:34:13.000Z</time>
      </trkpt>
      <trkpt lat="45.59012" lon="6.64363">
        <ele>1717.1999511719</ele>
        <time>2019-02-08T12:34:14.000Z</time>
      </trkpt>
      <trkpt lat="45.59013" lon="6.64367">
        <ele>1715.5999755859</ele>
        <time>2019-02-08T12:34:15.000Z</time>
      </trkpt>
      <trkpt lat="45.59015" lon="6.64371">
        <ele>1713.4000244141</ele>
        <time>2019-02-08T12:34:16.000Z</time>
      </trkpt>
      <trkpt lat="45.59016" lon="6.64373">
        <ele>1711.8000488281</ele>
        <time>2019-02-08T12:34:17.000Z</time>
      </trkpt>
      <trkpt lat="45.59016" lon="6.64376">
        <ele>1710.8000488281</ele>
        <time>2019-02-08T12:34:18.000Z</time>
      </trkpt>
      <trkpt lat="45.59016" lon="6.64379">
        <ele>1709.8000488281</ele>
        <time>2019-02-08T12:34:19.000Z</time>
      </trkpt>
      <trkpt lat="45.59018" lon="6.64381">
        <ele>1708.5999755859</ele>
        <time>2019-02-08T12:34:20.000Z</time>
      </trkpt>
      <trkpt lat="45.59021" lon="6.64379">
        <ele>1708</ele>
        <time>2019-02-08T12:34:21.000Z</time>
      </trkpt>
      <trkpt lat="45.59023" lon="6.64377">
        <ele>1707.5999755859</ele>
        <time>2019-02-08T12:34:22.000Z</time>
      </trkpt>
      <trkpt lat="45.59027" lon="6.64376">
        <ele>1707</ele>
        <time>2019-02-08T12:34:24.000Z</time>
      </trkpt>
      <trkpt lat="45.59028" lon="6.64377">
        <ele>1706.1999511719</ele>
        <time>2019-02-08T12:34:25.000Z</time>
      </trkpt>
      <trkpt lat="45.5903" lon="6.64376">
        <ele>1706</ele>
        <time>2019-02-08T12:34:26.000Z</time>
      </trkpt>
      <trkpt lat="45.59031" lon="6.64376">
        <ele>1705.5999755859</ele>
        <time>2019-02-08T12:34:27.000Z</time>
      </trkpt>
      <trkpt lat="45.59033" lon="6.64377">
        <ele>1704.5999755859</ele>
        <time>2019-02-08T12:34:30.000Z</time>
      </trkpt>
      <trkpt lat="45.59036" lon="6.6438">
        <ele>1702.1999511719</ele>
        <time>2019-02-08T12:34:32.000Z</time>
      </trkpt>
      <trkpt lat="45.59039" lon="6.64382">
        <ele>1700.4000244141</ele>
        <time>2019-02-08T12:34:34.000Z</time>
      </trkpt>
      <trkpt lat="45.59043" lon="6.64386">
        <ele>1697.4000244141</ele>
        <time>2019-02-08T12:34:37.000Z</time>
      </trkpt>
      <trkpt lat="45.59045" lon="6.64386">
        <ele>1696.8000488281</ele>
        <time>2019-02-08T12:34:38.000Z</time>
      </trkpt>
      <trkpt lat="45.59047" lon="6.64389">
        <ele>1695</ele>
        <time>2019-02-08T12:34:41.000Z</time>
      </trkpt>
      <trkpt lat="45.5905" lon="6.6439">
        <ele>1693.8000488281</ele>
        <time>2019-02-08T12:34:42.000Z</time>
      </trkpt>
      <trkpt lat="45.59051" lon="6.64391">
        <ele>1693</ele>
        <time>2019-02-08T12:34:43.000Z</time>
      </trkpt>
      <trkpt lat="45.59056" lon="6.64393">
        <ele>1690</ele>
        <time>2019-02-08T12:34:45.000Z</time>
      </trkpt>
      <trkpt lat="45.59058" lon="6.64396">
        <ele>1687.8000488281</ele>
        <time>2019-02-08T12:34:46.000Z</time>
      </trkpt>
      <trkpt lat="45.59059" lon="6.64399">
        <ele>1686.1999511719</ele>
        <time>2019-02-08T12:34:47.000Z</time>
      </trkpt>
      <trkpt lat="45.59061" lon="6.64402">
        <ele>1684.1999511719</ele>
        <time>2019-02-08T12:34:48.000Z</time>
      </trkpt>
      <trkpt lat="45.59061" lon="6.64406">
        <ele>1682</ele>
        <time>2019-02-08T12:34:50.000Z</time>
      </trkpt>
      <trkpt lat="45.59062" lon="6.64408">
        <ele>1681.1999511719</ele>
        <time>2019-02-08T12:34:51.000Z</time>
      </trkpt>
      <trkpt lat="45.59062" lon="6.64409">
        <ele>1680.4000244141</ele>
        <time>2019-02-08T12:34:52.000Z</time>
      </trkpt>
      <trkpt lat="45.59062" lon="6.64411">
        <ele>1679.5999755859</ele>
        <time>2019-02-08T12:34:53.000Z</time>
      </trkpt>
      <trkpt lat="45.59062" lon="6.64413">
        <ele>1678.5999755859</ele>
        <time>2019-02-08T12:34:54.000Z</time>
      </trkpt>
      <trkpt lat="45.59063" lon="6.64415">
        <ele>1677.5999755859</ele>
        <time>2019-02-08T12:34:55.000Z</time>
      </trkpt>
      <trkpt lat="45.59066" lon="6.64415">
        <ele>1676.5999755859</ele>
        <time>2019-02-08T12:34:58.000Z</time>
      </trkpt>
      <trkpt lat="45.59066" lon="6.64415">
        <ele>1676.5999755859</ele>
        <time>2019-02-08T12:34:59.000Z</time>
      </trkpt>
      <trkpt lat="45.59066" lon="6.64411">
        <ele>1678</ele>
        <time>2019-02-08T12:35:05.000Z</time>
      </trkpt>
      <trkpt lat="45.59066" lon="6.64411">
        <ele>1678.1999511719</ele>
        <time>2019-02-08T12:35:06.000Z</time>
      </trkpt>
      <trkpt lat="45.59066" lon="6.64409">
        <ele>1679.1999511719</ele>
        <time>2019-02-08T12:35:10.000Z</time>
      </trkpt>
      <trkpt lat="45.59067" lon="6.64411">
        <ele>1678</ele>
        <time>2019-02-08T12:35:15.000Z</time>
      </trkpt>
      <trkpt lat="45.59068" lon="6.64411">
        <ele>1677.8000488281</ele>
        <time>2019-02-08T12:35:16.000Z</time>
      </trkpt>
      <trkpt lat="45.5907" lon="6.64415">
        <ele>1675</ele>
        <time>2019-02-08T12:35:19.000Z</time>
      </trkpt>
      <trkpt lat="45.5907" lon="6.64417">
        <ele>1674.4000244141</ele>
        <time>2019-02-08T12:35:21.000Z</time>
      </trkpt>
      <trkpt lat="45.59068" lon="6.64422">
        <ele>1672.5999755859</ele>
        <time>2019-02-08T12:35:24.000Z</time>
      </trkpt>
      <trkpt lat="45.59065" lon="6.64426">
        <ele>1672</ele>
        <time>2019-02-08T12:35:26.000Z</time>
      </trkpt>
      <trkpt lat="45.59064" lon="6.64429">
        <ele>1671.4000244141</ele>
        <time>2019-02-08T12:35:27.000Z</time>
      </trkpt>
      <trkpt lat="45.59064" lon="6.64433">
        <ele>1670</ele>
        <time>2019-02-08T12:35:30.000Z</time>
      </trkpt>
      <trkpt lat="45.59064" lon="6.64435">
        <ele>1669.1999511719</ele>
        <time>2019-02-08T12:35:33.000Z</time>
      </trkpt>
      <trkpt lat="45.59064" lon="6.64435">
        <ele>1669</ele>
        <time>2019-02-08T12:35:35.000Z</time>
      </trkpt>
      <trkpt lat="45.59064" lon="6.64435">
        <ele>1669</ele>
        <time>2019-02-08T12:35:43.000Z</time>
      </trkpt>
      <trkpt lat="45.59064" lon="6.64435">
        <ele>1669</ele>
        <time>2019-02-08T12:35:44.000Z</time>
      </trkpt>
      <trkpt lat="45.59065" lon="6.64435">
        <ele>1669</ele>
        <time>2019-02-08T12:35:51.000Z</time>
      </trkpt>
      <trkpt lat="45.59065" lon="6.64435">
        <ele>1669</ele>
        <time>2019-02-08T12:36:01.000Z</time>
      </trkpt>
      <trkpt lat="45.59065" lon="6.64435">
        <ele>1669</ele>
        <time>2019-02-08T12:36:11.000Z</time>
      </trkpt>
      <trkpt lat="45.59065" lon="6.64435">
        <ele>1669</ele>
        <time>2019-02-08T12:36:17.000Z</time>
      </trkpt>
      <trkpt lat="45.59065" lon="6.64435">
        <ele>1669</ele>
        <time>2019-02-08T12:36:24.000Z</time>
      </trkpt>
      <trkpt lat="45.59065" lon="6.64435">
        <ele>1668.5999755859</ele>
        <time>2019-02-08T12:36:33.000Z</time>
      </trkpt>
      <trkpt lat="45.59065" lon="6.64436">
        <ele>1668.4000244141</ele>
        <time>2019-02-08T12:36:45.000Z</time>
      </trkpt>
      <trkpt lat="45.59067" lon="6.64428">
        <ele>1670.8000488281</ele>
        <time>2019-02-08T12:36:53.000Z</time>
      </trkpt>
      <trkpt lat="45.59066" lon="6.64428">
        <ele>1671.1999511719</ele>
        <time>2019-02-08T12:36:54.000Z</time>
      </trkpt>
      <trkpt lat="45.59066" lon="6.64427">
        <ele>1671.1999511719</ele>
        <time>2019-02-08T12:36:57.000Z</time>
      </trkpt>
      <trkpt lat="45.59068" lon="6.64428">
        <ele>1670.4000244141</ele>
        <time>2019-02-08T12:37:00.000Z</time>
      </trkpt>
      <trkpt lat="45.5907" lon="6.64428">
        <ele>1669.5999755859</ele>
        <time>2019-02-08T12:37:03.000Z</time>
      </trkpt>
      <trkpt lat="45.59071" lon="6.64429">
        <ele>1668.5999755859</ele>
        <time>2019-02-08T12:37:04.000Z</time>
      </trkpt>
      <trkpt lat="45.59075" lon="6.64432">
        <ele>1666.1999511719</ele>
        <time>2019-02-08T12:37:07.000Z</time>
      </trkpt>
      <trkpt lat="45.59074" lon="6.64436">
        <ele>1664.8000488281</ele>
        <time>2019-02-08T12:37:09.000Z</time>
      </trkpt>
      <trkpt lat="45.59074" lon="6.64439">
        <ele>1663.8000488281</ele>
        <time>2019-02-08T12:37:11.000Z</time>
      </trkpt>
      <trkpt lat="45.59076" lon="6.6444">
        <ele>1662.8000488281</ele>
        <time>2019-02-08T12:37:13.000Z</time>
      </trkpt>
      <trkpt lat="45.59076" lon="6.64441">
        <ele>1662</ele>
        <time>2019-02-08T12:37:14.000Z</time>
      </trkpt>
      <trkpt lat="45.59075" lon="6.64445">
        <ele>1660.8000488281</ele>
        <time>2019-02-08T12:37:16.000Z</time>
      </trkpt>
      <trkpt lat="45.59075" lon="6.64449">
        <ele>1659.4000244141</ele>
        <time>2019-02-08T12:37:18.000Z</time>
      </trkpt>
      <trkpt lat="45.59076" lon="6.64451">
        <ele>1658.1999511719</ele>
        <time>2019-02-08T12:37:19.000Z</time>
      </trkpt>
      <trkpt lat="45.5908" lon="6.64449">
        <ele>1657.4000244141</ele>
        <time>2019-02-08T12:37:21.000Z</time>
      </trkpt>
      <trkpt lat="45.59083" lon="6.6445">
        <ele>1655.8000488281</ele>
        <time>2019-02-08T12:37:23.000Z</time>
      </trkpt>
      <trkpt lat="45.59084" lon="6.64451">
        <ele>1655.1999511719</ele>
        <time>2019-02-08T12:37:24.000Z</time>
      </trkpt>
      <trkpt lat="45.59084" lon="6.64452">
        <ele>1654.8000488281</ele>
        <time>2019-02-08T12:37:25.000Z</time>
      </trkpt>
      <trkpt lat="45.59084" lon="6.64451">
        <ele>1654.8000488281</ele>
        <time>2019-02-08T12:37:26.000Z</time>
      </trkpt>
      <trkpt lat="45.59085" lon="6.64452">
        <ele>1654.4000244141</ele>
        <time>2019-02-08T12:37:28.000Z</time>
      </trkpt>
      <trkpt lat="45.59088" lon="6.64451">
        <ele>1653.4000244141</ele>
        <time>2019-02-08T12:37:31.000Z</time>
      </trkpt>
      <trkpt lat="45.59089" lon="6.64451">
        <ele>1653</ele>
        <time>2019-02-08T12:37:32.000Z</time>
      </trkpt>
      <trkpt lat="45.59093" lon="6.64452">
        <ele>1651.1999511719</ele>
        <time>2019-02-08T12:37:34.000Z</time>
      </trkpt>
      <trkpt lat="45.59095" lon="6.64452">
        <ele>1650.1999511719</ele>
        <time>2019-02-08T12:37:35.000Z</time>
      </trkpt>
      <trkpt lat="45.59098" lon="6.64454">
        <ele>1648.1999511719</ele>
        <time>2019-02-08T12:37:37.000Z</time>
      </trkpt>
      <trkpt lat="45.59097" lon="6.64457">
        <ele>1647.5999755859</ele>
        <time>2019-02-08T12:37:38.000Z</time>
      </trkpt>
      <trkpt lat="45.59097" lon="6.64458">
        <ele>1647</ele>
        <time>2019-02-08T12:37:39.000Z</time>
      </trkpt>
      <trkpt lat="45.59097" lon="6.64459">
        <ele>1646.5999755859</ele>
        <time>2019-02-08T12:37:40.000Z</time>
      </trkpt>
      <trkpt lat="45.59097" lon="6.6446">
        <ele>1646.4000244141</ele>
        <time>2019-02-08T12:37:42.000Z</time>
      </trkpt>
      <trkpt lat="45.59097" lon="6.6446">
        <ele>1646.4000244141</ele>
        <time>2019-02-08T12:37:47.000Z</time>
      </trkpt>
      <trkpt lat="45.59097" lon="6.6446">
        <ele>1646.4000244141</ele>
        <time>2019-02-08T12:38:03.000Z</time>
      </trkpt>
      <trkpt lat="45.59095" lon="6.64468">
        <ele>1644</ele>
        <time>2019-02-08T12:38:14.000Z</time>
      </trkpt>
      <trkpt lat="45.59095" lon="6.64468">
        <ele>1643.8000488281</ele>
        <time>2019-02-08T12:38:18.000Z</time>
      </trkpt>
      <trkpt lat="45.59096" lon="6.64468">
        <ele>1643.5999755859</ele>
        <time>2019-02-08T12:38:19.000Z</time>
      </trkpt>
      <trkpt lat="45.59097" lon="6.64469">
        <ele>1642.8000488281</ele>
        <time>2019-02-08T12:38:21.000Z</time>
      </trkpt>
      <trkpt lat="45.59097" lon="6.64475">
        <ele>1640.4000244141</ele>
        <time>2019-02-08T12:38:25.000Z</time>
      </trkpt>
      <trkpt lat="45.59099" lon="6.64479">
        <ele>1638</ele>
        <time>2019-02-08T12:38:28.000Z</time>
      </trkpt>
      <trkpt lat="45.59101" lon="6.6448">
        <ele>1636.5999755859</ele>
        <time>2019-02-08T12:38:29.000Z</time>
      </trkpt>
      <trkpt lat="45.59103" lon="6.64483">
        <ele>1634.5999755859</ele>
        <time>2019-02-08T12:38:30.000Z</time>
      </trkpt>
      <trkpt lat="45.59105" lon="6.64485">
        <ele>1633.1999511719</ele>
        <time>2019-02-08T12:38:31.000Z</time>
      </trkpt>
      <trkpt lat="45.59107" lon="6.64486">
        <ele>1632</ele>
        <time>2019-02-08T12:38:32.000Z</time>
      </trkpt>
      <trkpt lat="45.59109" lon="6.64487">
        <ele>1631</ele>
        <time>2019-02-08T12:38:33.000Z</time>
      </trkpt>
      <trkpt lat="45.59109" lon="6.64488">
        <ele>1630.5999755859</ele>
        <time>2019-02-08T12:38:34.000Z</time>
      </trkpt>
      <trkpt lat="45.59109" lon="6.64488">
        <ele>1630.1999511719</ele>
        <time>2019-02-08T12:38:35.000Z</time>
      </trkpt>
      <trkpt lat="45.59111" lon="6.64489">
        <ele>1629</ele>
        <time>2019-02-08T12:38:36.000Z</time>
      </trkpt>
      <trkpt lat="45.59111" lon="6.6449">
        <ele>1628.5999755859</ele>
        <time>2019-02-08T12:38:37.000Z</time>
      </trkpt>
      <trkpt lat="45.59111" lon="6.64493">
        <ele>1627.1999511719</ele>
        <time>2019-02-08T12:38:39.000Z</time>
      </trkpt>
      <trkpt lat="45.59112" lon="6.64494">
        <ele>1626.4000244141</ele>
        <time>2019-02-08T12:38:40.000Z</time>
      </trkpt>
      <trkpt lat="45.59113" lon="6.64501">
        <ele>1623.1999511719</ele>
        <time>2019-02-08T12:38:43.000Z</time>
      </trkpt>
      <trkpt lat="45.59114" lon="6.64503">
        <ele>1621.8000488281</ele>
        <time>2019-02-08T12:38:44.000Z</time>
      </trkpt>
      <trkpt lat="45.59116" lon="6.64506">
        <ele>1620</ele>
        <time>2019-02-08T12:38:46.000Z</time>
      </trkpt>
      <trkpt lat="45.59118" lon="6.64507">
        <ele>1619</ele>
        <time>2019-02-08T12:38:48.000Z</time>
      </trkpt>
      <trkpt lat="45.59118" lon="6.64506">
        <ele>1618.8000488281</ele>
        <time>2019-02-08T12:38:49.000Z</time>
      </trkpt>
      <trkpt lat="45.5912" lon="6.64506">
        <ele>1618</ele>
        <time>2019-02-08T12:38:50.000Z</time>
      </trkpt>
      <trkpt lat="45.59121" lon="6.64508">
        <ele>1616.5999755859</ele>
        <time>2019-02-08T12:38:51.000Z</time>
      </trkpt>
      <trkpt lat="45.59122" lon="6.6451">
        <ele>1615.4000244141</ele>
        <time>2019-02-08T12:38:52.000Z</time>
      </trkpt>
      <trkpt lat="45.59123" lon="6.64513">
        <ele>1613.8000488281</ele>
        <time>2019-02-08T12:38:53.000Z</time>
      </trkpt>
      <trkpt lat="45.59124" lon="6.64517">
        <ele>1611.8000488281</ele>
        <time>2019-02-08T12:38:55.000Z</time>
      </trkpt>
      <trkpt lat="45.59124" lon="6.64518">
        <ele>1611.4000244141</ele>
        <time>2019-02-08T12:38:57.000Z</time>
      </trkpt>
      <trkpt lat="45.59126" lon="6.64517">
        <ele>1610.8000488281</ele>
        <time>2019-02-08T12:38:59.000Z</time>
      </trkpt>
      <trkpt lat="45.59128" lon="6.64517">
        <ele>1610</ele>
        <time>2019-02-08T12:39:01.000Z</time>
      </trkpt>
      <trkpt lat="45.59131" lon="6.64518">
        <ele>1609</ele>
        <time>2019-02-08T12:39:04.000Z</time>
      </trkpt>
      <trkpt lat="45.59132" lon="6.64519">
        <ele>1607.4000244141</ele>
        <time>2019-02-08T12:39:06.000Z</time>
      </trkpt>
      <trkpt lat="45.59133" lon="6.64519">
        <ele>1607.5999755859</ele>
        <time>2019-02-08T12:39:08.000Z</time>
      </trkpt>
      <trkpt lat="45.59133" lon="6.64522">
        <ele>1606.1999511719</ele>
        <time>2019-02-08T12:39:11.000Z</time>
      </trkpt>
      <trkpt lat="45.59133" lon="6.64522">
        <ele>1605.8000488281</ele>
        <time>2019-02-08T12:39:15.000Z</time>
      </trkpt>
      <trkpt lat="45.59133" lon="6.64524">
        <ele>1605.5999755859</ele>
        <time>2019-02-08T12:39:17.000Z</time>
      </trkpt>
      <trkpt lat="45.59132" lon="6.64525">
        <ele>1605.4000244141</ele>
        <time>2019-02-08T12:39:18.000Z</time>
      </trkpt>
      <trkpt lat="45.5913" lon="6.64528">
        <ele>1604.8000488281</ele>
        <time>2019-02-08T12:39:19.000Z</time>
      </trkpt>
      <trkpt lat="45.5913" lon="6.64533">
        <ele>1602.5999755859</ele>
        <time>2019-02-08T12:39:21.000Z</time>
      </trkpt>
      <trkpt lat="45.59133" lon="6.64536">
        <ele>1600.1999511719</ele>
        <time>2019-02-08T12:39:24.000Z</time>
      </trkpt>
      <trkpt lat="45.59133" lon="6.64536">
        <ele>1600.1999511719</ele>
        <time>2019-02-08T12:39:25.000Z</time>
      </trkpt>
      <trkpt lat="45.59134" lon="6.64536">
        <ele>1599.5999755859</ele>
        <time>2019-02-08T12:39:26.000Z</time>
      </trkpt>
      <trkpt lat="45.59136" lon="6.64536">
        <ele>1599</ele>
        <time>2019-02-08T12:39:28.000Z</time>
      </trkpt>
      <trkpt lat="45.59136" lon="6.64536">
        <ele>1599</ele>
        <time>2019-02-08T12:39:31.000Z</time>
      </trkpt>
      <trkpt lat="45.59136" lon="6.64536">
        <ele>1599</ele>
        <time>2019-02-08T12:39:34.000Z</time>
      </trkpt>
      <trkpt lat="45.59137" lon="6.64539">
        <ele>1597.5999755859</ele>
        <time>2019-02-08T12:39:41.000Z</time>
      </trkpt>
      <trkpt lat="45.59138" lon="6.6454">
        <ele>1596.5999755859</ele>
        <time>2019-02-08T12:39:46.000Z</time>
      </trkpt>
      <trkpt lat="45.59138" lon="6.6454">
        <ele>1596.5999755859</ele>
        <time>2019-02-08T12:39:48.000Z</time>
      </trkpt>
      <trkpt lat="45.59138" lon="6.64541">
        <ele>1596</ele>
        <time>2019-02-08T12:39:53.000Z</time>
      </trkpt>
      <trkpt lat="45.59139" lon="6.64542">
        <ele>1595.5999755859</ele>
        <time>2019-02-08T12:39:55.000Z</time>
      </trkpt>
      <trkpt lat="45.59141" lon="6.64543">
        <ele>1594.4000244141</ele>
        <time>2019-02-08T12:40:01.000Z</time>
      </trkpt>
      <trkpt lat="45.59141" lon="6.64544">
        <ele>1594.1999511719</ele>
        <time>2019-02-08T12:40:06.000Z</time>
      </trkpt>
      <trkpt lat="45.59141" lon="6.64544">
        <ele>1594.1999511719</ele>
        <time>2019-02-08T12:40:07.000Z</time>
      </trkpt>
      <trkpt lat="45.59141" lon="6.64544">
        <ele>1594.1999511719</ele>
        <time>2019-02-08T12:40:10.000Z</time>
      </trkpt>
      <trkpt lat="45.59142" lon="6.64541">
        <ele>1595.1999511719</ele>
        <time>2019-02-08T12:40:16.000Z</time>
      </trkpt>
      <trkpt lat="45.59143" lon="6.64541">
        <ele>1595</ele>
        <time>2019-02-08T12:40:24.000Z</time>
      </trkpt>
      <trkpt lat="45.59143" lon="6.64542">
        <ele>1594.5999755859</ele>
        <time>2019-02-08T12:40:25.000Z</time>
      </trkpt>
      <trkpt lat="45.59144" lon="6.64542">
        <ele>1594.1999511719</ele>
        <time>2019-02-08T12:40:32.000Z</time>
      </trkpt>
      <trkpt lat="45.59146" lon="6.64542">
        <ele>1593.8000488281</ele>
        <time>2019-02-08T12:40:33.000Z</time>
      </trkpt>
      <trkpt lat="45.59148" lon="6.64546">
        <ele>1591.4000244141</ele>
        <time>2019-02-08T12:40:35.000Z</time>
      </trkpt>
      <trkpt lat="45.59148" lon="6.64547">
        <ele>1590.8000488281</ele>
        <time>2019-02-08T12:40:36.000Z</time>
      </trkpt>
      <trkpt lat="45.59149" lon="6.64548">
        <ele>1590.5999755859</ele>
        <time>2019-02-08T12:40:38.000Z</time>
      </trkpt>
      <trkpt lat="45.59149" lon="6.64548">
        <ele>1590.5999755859</ele>
        <time>2019-02-08T12:40:40.000Z</time>
      </trkpt>
      <trkpt lat="45.59149" lon="6.64549">
        <ele>1589.8000488281</ele>
        <time>2019-02-08T12:40:42.000Z</time>
      </trkpt>
      <trkpt lat="45.59151" lon="6.6455">
        <ele>1589</ele>
        <time>2019-02-08T12:40:44.000Z</time>
      </trkpt>
      <trkpt lat="45.59154" lon="6.64552">
        <ele>1587.1999511719</ele>
        <time>2019-02-08T12:40:46.000Z</time>
      </trkpt>
      <trkpt lat="45.59155" lon="6.64555">
        <ele>1585.8000488281</ele>
        <time>2019-02-08T12:40:47.000Z</time>
      </trkpt>
      <trkpt lat="45.59152" lon="6.64558">
        <ele>1585</ele>
        <time>2019-02-08T12:40:49.000Z</time>
      </trkpt>
      <trkpt lat="45.5915" lon="6.6456">
        <ele>1585</ele>
        <time>2019-02-08T12:40:50.000Z</time>
      </trkpt>
      <trkpt lat="45.59145" lon="6.64563">
        <ele>1584.8000488281</ele>
        <time>2019-02-08T12:40:52.000Z</time>
      </trkpt>
      <trkpt lat="45.5914" lon="6.64568">
        <ele>1584.1999511719</ele>
        <time>2019-02-08T12:40:54.000Z</time>
      </trkpt>
      <trkpt lat="45.59136" lon="6.64572">
        <ele>1583.8000488281</ele>
        <time>2019-02-08T12:40:56.000Z</time>
      </trkpt>
      <trkpt lat="45.59133" lon="6.64576">
        <ele>1583.5999755859</ele>
        <time>2019-02-08T12:40:58.000Z</time>
      </trkpt>
      <trkpt lat="45.59123" lon="6.64585">
        <ele>1584.1999511719</ele>
        <time>2019-02-08T12:41:04.000Z</time>
      </trkpt>
      <trkpt lat="45.59121" lon="6.64586">
        <ele>1584.4000244141</ele>
        <time>2019-02-08T12:41:10.000Z</time>
      </trkpt>
      <trkpt lat="45.59116" lon="6.64588">
        <ele>1585.8000488281</ele>
        <time>2019-02-08T12:41:16.000Z</time>
      </trkpt>
      <trkpt lat="45.59105" lon="6.64591">
        <ele>1589</ele>
        <time>2019-02-08T12:41:24.000Z</time>
      </trkpt>
      <trkpt lat="45.591" lon="6.64593">
        <ele>1590</ele>
        <time>2019-02-08T12:41:32.000Z</time>
      </trkpt>
      <trkpt lat="45.59093" lon="6.64601">
        <ele>1590</ele>
        <time>2019-02-08T12:41:40.000Z</time>
      </trkpt>
      <trkpt lat="45.59087" lon="6.64611">
        <ele>1588.8000488281</ele>
        <time>2019-02-08T12:41:48.000Z</time>
      </trkpt>
      <trkpt lat="45.59086" lon="6.64611">
        <ele>1588.8000488281</ele>
        <time>2019-02-08T12:41:49.000Z</time>
      </trkpt>
      <trkpt lat="45.59084" lon="6.64613">
        <ele>1588.8000488281</ele>
        <time>2019-02-08T12:41:50.000Z</time>
      </trkpt>
      <trkpt lat="45.59077" lon="6.64621">
        <ele>1588</ele>
        <time>2019-02-08T12:41:55.000Z</time>
      </trkpt>
      <trkpt lat="45.5907" lon="6.64638">
        <ele>1584.1999511719</ele>
        <time>2019-02-08T12:42:02.000Z</time>
      </trkpt>
      <trkpt lat="45.59056" lon="6.64647">
        <ele>1585.5999755859</ele>
        <time>2019-02-08T12:42:09.000Z</time>
      </trkpt>
      <trkpt lat="45.59053" lon="6.64649">
        <ele>1585.8000488281</ele>
        <time>2019-02-08T12:42:10.000Z</time>
      </trkpt>
      <trkpt lat="45.59043" lon="6.64656">
        <ele>1585.8000488281</ele>
        <time>2019-02-08T12:42:13.000Z</time>
      </trkpt>
      <trkpt lat="45.59034" lon="6.64662">
        <ele>1585.8000488281</ele>
        <time>2019-02-08T12:42:16.000Z</time>
      </trkpt>
      <trkpt lat="45.59018" lon="6.64674">
        <ele>1585.1999511719</ele>
        <time>2019-02-08T12:42:20.000Z</time>
      </trkpt>
      <trkpt lat="45.59006" lon="6.6469">
        <ele>1582</ele>
        <time>2019-02-08T12:42:24.000Z</time>
      </trkpt>
      <trkpt lat="45.59004" lon="6.64694">
        <ele>1581.4000244141</ele>
        <time>2019-02-08T12:42:25.000Z</time>
      </trkpt>
      <trkpt lat="45.58991" lon="6.64712">
        <ele>1579.4000244141</ele>
        <time>2019-02-08T12:42:31.000Z</time>
      </trkpt>
      <trkpt lat="45.58976" lon="6.64721">
        <ele>1580.5999755859</ele>
        <time>2019-02-08T12:42:37.000Z</time>
      </trkpt>
      <trkpt lat="45.58974" lon="6.64722">
        <ele>1581.1999511719</ele>
        <time>2019-02-08T12:42:38.000Z</time>
      </trkpt>
      <trkpt lat="45.58964" lon="6.64722">
        <ele>1583.1999511719</ele>
        <time>2019-02-08T12:42:42.000Z</time>
      </trkpt>
      <trkpt lat="45.58957" lon="6.64724">
        <ele>1584</ele>
        <time>2019-02-08T12:42:45.000Z</time>
      </trkpt>
      <trkpt lat="45.58952" lon="6.64725">
        <ele>1584</ele>
        <time>2019-02-08T12:42:47.000Z</time>
      </trkpt>
      <trkpt lat="45.58936" lon="6.64726">
        <ele>1585.5999755859</ele>
        <time>2019-02-08T12:42:52.000Z</time>
      </trkpt>
      <trkpt lat="45.58926" lon="6.64728">
        <ele>1586.1999511719</ele>
        <time>2019-02-08T12:42:55.000Z</time>
      </trkpt>
      <trkpt lat="45.58907" lon="6.64741">
        <ele>1583.5999755859</ele>
        <time>2019-02-08T12:43:00.000Z</time>
      </trkpt>
      <trkpt lat="45.58904" lon="6.64745">
        <ele>1582.4000244141</ele>
        <time>2019-02-08T12:43:01.000Z</time>
      </trkpt>
      <trkpt lat="45.58896" lon="6.64757">
        <ele>1580.1999511719</ele>
        <time>2019-02-08T12:43:04.000Z</time>
      </trkpt>
      <trkpt lat="45.5889" lon="6.64768">
        <ele>1579</ele>
        <time>2019-02-08T12:43:07.000Z</time>
      </trkpt>
      <trkpt lat="45.58884" lon="6.64778">
        <ele>1577.8000488281</ele>
        <time>2019-02-08T12:43:10.000Z</time>
      </trkpt>
      <trkpt lat="45.58877" lon="6.64783">
        <ele>1576.1999511719</ele>
        <time>2019-02-08T12:43:13.000Z</time>
      </trkpt>
      <trkpt lat="45.58872" lon="6.64783">
        <ele>1576</ele>
        <time>2019-02-08T12:43:15.000Z</time>
      </trkpt>
      <trkpt lat="45.58862" lon="6.64781">
        <ele>1576</ele>
        <time>2019-02-08T12:43:18.000Z</time>
      </trkpt>
      <trkpt lat="45.58855" lon="6.64779">
        <ele>1576.1999511719</ele>
        <time>2019-02-08T12:43:20.000Z</time>
      </trkpt>
      <trkpt lat="45.58845" lon="6.64777">
        <ele>1576.1999511719</ele>
        <time>2019-02-08T12:43:22.000Z</time>
      </trkpt>
      <trkpt lat="45.58836" lon="6.64776">
        <ele>1575.5999755859</ele>
        <time>2019-02-08T12:43:23.000Z</time>
      </trkpt>
      <trkpt lat="45.58829" lon="6.64778">
        <ele>1573.5999755859</ele>
        <time>2019-02-08T12:43:24.000Z</time>
      </trkpt>
      <trkpt lat="45.58822" lon="6.64783">
        <ele>1570.8000488281</ele>
        <time>2019-02-08T12:43:25.000Z</time>
      </trkpt>
      <trkpt lat="45.58816" lon="6.64789">
        <ele>1567.8000488281</ele>
        <time>2019-02-08T12:43:26.000Z</time>
      </trkpt>
      <trkpt lat="45.5881" lon="6.64794">
        <ele>1565.1999511719</ele>
        <time>2019-02-08T12:43:27.000Z</time>
      </trkpt>
      <trkpt lat="45.58807" lon="6.64801">
        <ele>1562.1999511719</ele>
        <time>2019-02-08T12:43:28.000Z</time>
      </trkpt>
      <trkpt lat="45.58805" lon="6.64808">
        <ele>1559.1999511719</ele>
        <time>2019-02-08T12:43:29.000Z</time>
      </trkpt>
      <trkpt lat="45.58802" lon="6.64815">
        <ele>1556.4000244141</ele>
        <time>2019-02-08T12:43:30.000Z</time>
      </trkpt>
      <trkpt lat="45.58798" lon="6.64822">
        <ele>1554.5999755859</ele>
        <time>2019-02-08T12:43:31.000Z</time>
      </trkpt>
      <trkpt lat="45.58796" lon="6.64829">
        <ele>1552.5999755859</ele>
        <time>2019-02-08T12:43:32.000Z</time>
      </trkpt>
      <trkpt lat="45.5879" lon="6.64843">
        <ele>1548.4000244141</ele>
        <time>2019-02-08T12:43:34.000Z</time>
      </trkpt>
      <trkpt lat="45.58783" lon="6.64857">
        <ele>1544.5999755859</ele>
        <time>2019-02-08T12:43:36.000Z</time>
      </trkpt>
      <trkpt lat="45.58776" lon="6.64871">
        <ele>1541.1999511719</ele>
        <time>2019-02-08T12:43:38.000Z</time>
      </trkpt>
      <trkpt lat="45.58766" lon="6.64886">
        <ele>1538.4000244141</ele>
        <time>2019-02-08T12:43:40.000Z</time>
      </trkpt>
      <trkpt lat="45.58761" lon="6.64894">
        <ele>1536.8000488281</ele>
        <time>2019-02-08T12:43:41.000Z</time>
      </trkpt>
      <trkpt lat="45.58757" lon="6.64904">
        <ele>1534.8000488281</ele>
        <time>2019-02-08T12:43:42.000Z</time>
      </trkpt>
      <trkpt lat="45.58753" lon="6.64914">
        <ele>1533</ele>
        <time>2019-02-08T12:43:43.000Z</time>
      </trkpt>
      <trkpt lat="45.58749" lon="6.64923">
        <ele>1531.5999755859</ele>
        <time>2019-02-08T12:43:44.000Z</time>
      </trkpt>
      <trkpt lat="45.58744" lon="6.64933">
        <ele>1530.1999511719</ele>
        <time>2019-02-08T12:43:45.000Z</time>
      </trkpt>
      <trkpt lat="45.5874" lon="6.64943">
        <ele>1529</ele>
        <time>2019-02-08T12:43:46.000Z</time>
      </trkpt>
      <trkpt lat="45.58736" lon="6.64953">
        <ele>1528.1999511719</ele>
        <time>2019-02-08T12:43:47.000Z</time>
      </trkpt>
      <trkpt lat="45.58731" lon="6.64962">
        <ele>1527.5999755859</ele>
        <time>2019-02-08T12:43:48.000Z</time>
      </trkpt>
      <trkpt lat="45.58725" lon="6.64971">
        <ele>1527.1999511719</ele>
        <time>2019-02-08T12:43:49.000Z</time>
      </trkpt>
      <trkpt lat="45.5872" lon="6.6498">
        <ele>1526.8000488281</ele>
        <time>2019-02-08T12:43:50.000Z</time>
      </trkpt>
      <trkpt lat="45.58715" lon="6.64988">
        <ele>1526</ele>
        <time>2019-02-08T12:43:51.000Z</time>
      </trkpt>
      <trkpt lat="45.5871" lon="6.64995">
        <ele>1524.4000244141</ele>
        <time>2019-02-08T12:43:52.000Z</time>
      </trkpt>
      <trkpt lat="45.58705" lon="6.65003">
        <ele>1523</ele>
        <time>2019-02-08T12:43:53.000Z</time>
      </trkpt>
      <trkpt lat="45.587" lon="6.65009">
        <ele>1522</ele>
        <time>2019-02-08T12:43:54.000Z</time>
      </trkpt>
      <trkpt lat="45.58695" lon="6.65015">
        <ele>1521</ele>
        <time>2019-02-08T12:43:55.000Z</time>
      </trkpt>
      <trkpt lat="45.5869" lon="6.65022">
        <ele>1519.8000488281</ele>
        <time>2019-02-08T12:43:56.000Z</time>
      </trkpt>
      <trkpt lat="45.58685" lon="6.65029">
        <ele>1518.5999755859</ele>
        <time>2019-02-08T12:43:57.000Z</time>
      </trkpt>
      <trkpt lat="45.58675" lon="6.65041">
        <ele>1517.4000244141</ele>
        <time>2019-02-08T12:43:59.000Z</time>
      </trkpt>
      <trkpt lat="45.58666" lon="6.65053">
        <ele>1516.5999755859</ele>
        <time>2019-02-08T12:44:01.000Z</time>
      </trkpt>
      <trkpt lat="45.58661" lon="6.65059">
        <ele>1516.1999511719</ele>
        <time>2019-02-08T12:44:02.000Z</time>
      </trkpt>
      <trkpt lat="45.58657" lon="6.65065">
        <ele>1515.5999755859</ele>
        <time>2019-02-08T12:44:03.000Z</time>
      </trkpt>
      <trkpt lat="45.58653" lon="6.65071">
        <ele>1515</ele>
        <time>2019-02-08T12:44:04.000Z</time>
      </trkpt>
      <trkpt lat="45.58648" lon="6.65077">
        <ele>1514</ele>
        <time>2019-02-08T12:44:05.000Z</time>
      </trkpt>
      <trkpt lat="45.58644" lon="6.65082">
        <ele>1513.1999511719</ele>
        <time>2019-02-08T12:44:06.000Z</time>
      </trkpt>
      <trkpt lat="45.58637" lon="6.65092">
        <ele>1511.8000488281</ele>
        <time>2019-02-08T12:44:08.000Z</time>
      </trkpt>
      <trkpt lat="45.58633" lon="6.65097">
        <ele>1510.5999755859</ele>
        <time>2019-02-08T12:44:09.000Z</time>
      </trkpt>
      <trkpt lat="45.58629" lon="6.65102">
        <ele>1509</ele>
        <time>2019-02-08T12:44:10.000Z</time>
      </trkpt>
      <trkpt lat="45.58623" lon="6.65107">
        <ele>1507.5999755859</ele>
        <time>2019-02-08T12:44:11.000Z</time>
      </trkpt>
      <trkpt lat="45.58613" lon="6.65116">
        <ele>1504.5999755859</ele>
        <time>2019-02-08T12:44:13.000Z</time>
      </trkpt>
      <trkpt lat="45.58607" lon="6.65121">
        <ele>1503.1999511719</ele>
        <time>2019-02-08T12:44:14.000Z</time>
      </trkpt>
      <trkpt lat="45.58601" lon="6.65125">
        <ele>1502.4000244141</ele>
        <time>2019-02-08T12:44:15.000Z</time>
      </trkpt>
      <trkpt lat="45.58596" lon="6.65131">
        <ele>1501.5999755859</ele>
        <time>2019-02-08T12:44:16.000Z</time>
      </trkpt>
      <trkpt lat="45.58591" lon="6.65135">
        <ele>1500.8000488281</ele>
        <time>2019-02-08T12:44:17.000Z</time>
      </trkpt>
      <trkpt lat="45.58584" lon="6.6514">
        <ele>1500.4000244141</ele>
        <time>2019-02-08T12:44:18.000Z</time>
      </trkpt>
      <trkpt lat="45.58571" lon="6.6515">
        <ele>1499.1999511719</ele>
        <time>2019-02-08T12:44:20.000Z</time>
      </trkpt>
      <trkpt lat="45.58566" lon="6.65154">
        <ele>1498.4000244141</ele>
        <time>2019-02-08T12:44:21.000Z</time>
      </trkpt>
      <trkpt lat="45.58557" lon="6.65156">
        <ele>1498.4000244141</ele>
        <time>2019-02-08T12:44:22.000Z</time>
      </trkpt>
      <trkpt lat="45.58551" lon="6.65161">
        <ele>1497.5999755859</ele>
        <time>2019-02-08T12:44:23.000Z</time>
      </trkpt>
      <trkpt lat="45.58544" lon="6.65165">
        <ele>1496</ele>
        <time>2019-02-08T12:44:24.000Z</time>
      </trkpt>
      <trkpt lat="45.58538" lon="6.65169">
        <ele>1494.1999511719</ele>
        <time>2019-02-08T12:44:25.000Z</time>
      </trkpt>
      <trkpt lat="45.58532" lon="6.65174">
        <ele>1492.1999511719</ele>
        <time>2019-02-08T12:44:26.000Z</time>
      </trkpt>
      <trkpt lat="45.58525" lon="6.65179">
        <ele>1490.1999511719</ele>
        <time>2019-02-08T12:44:27.000Z</time>
      </trkpt>
      <trkpt lat="45.5852" lon="6.65183">
        <ele>1488.5999755859</ele>
        <time>2019-02-08T12:44:28.000Z</time>
      </trkpt>
      <trkpt lat="45.58515" lon="6.65188">
        <ele>1486.8000488281</ele>
        <time>2019-02-08T12:44:29.000Z</time>
      </trkpt>
      <trkpt lat="45.58509" lon="6.65192">
        <ele>1485</ele>
        <time>2019-02-08T12:44:30.000Z</time>
      </trkpt>
      <trkpt lat="45.58497" lon="6.65199">
        <ele>1483.1999511719</ele>
        <time>2019-02-08T12:44:32.000Z</time>
      </trkpt>
      <trkpt lat="45.58492" lon="6.65202">
        <ele>1482.1999511719</ele>
        <time>2019-02-08T12:44:33.000Z</time>
      </trkpt>
      <trkpt lat="45.58487" lon="6.65206">
        <ele>1481.4000244141</ele>
        <time>2019-02-08T12:44:34.000Z</time>
      </trkpt>
      <trkpt lat="45.58481" lon="6.65209">
        <ele>1480.4000244141</ele>
        <time>2019-02-08T12:44:35.000Z</time>
      </trkpt>
      <trkpt lat="45.58476" lon="6.65211">
        <ele>1479.8000488281</ele>
        <time>2019-02-08T12:44:36.000Z</time>
      </trkpt>
      <trkpt lat="45.58471" lon="6.65213">
        <ele>1479.4000244141</ele>
        <time>2019-02-08T12:44:37.000Z</time>
      </trkpt>
      <trkpt lat="45.58458" lon="6.65208">
        <ele>1479.5999755859</ele>
        <time>2019-02-08T12:44:38.000Z</time>
      </trkpt>
      <trkpt lat="45.58448" lon="6.65205">
        <ele>1479.5999755859</ele>
        <time>2019-02-08T12:44:39.000Z</time>
      </trkpt>
      <trkpt lat="45.58439" lon="6.65201">
        <ele>1479.8000488281</ele>
        <time>2019-02-08T12:44:40.000Z</time>
      </trkpt>
      <trkpt lat="45.5842" lon="6.6519">
        <ele>1480.8000488281</ele>
        <time>2019-02-08T12:44:41.000Z</time>
      </trkpt>
      <trkpt lat="45.5841" lon="6.65187">
        <ele>1480.4000244141</ele>
        <time>2019-02-08T12:44:42.000Z</time>
      </trkpt>
      <trkpt lat="45.58403" lon="6.65186">
        <ele>1479.5999755859</ele>
        <time>2019-02-08T12:44:43.000Z</time>
      </trkpt>
      <trkpt lat="45.58396" lon="6.65184">
        <ele>1479</ele>
        <time>2019-02-08T12:44:44.000Z</time>
      </trkpt>
      <trkpt lat="45.5839" lon="6.65183">
        <ele>1478.4000244141</ele>
        <time>2019-02-08T12:44:45.000Z</time>
      </trkpt>
      <trkpt lat="45.58383" lon="6.65181">
        <ele>1477.5999755859</ele>
        <time>2019-02-08T12:44:46.000Z</time>
      </trkpt>
      <trkpt lat="45.58375" lon="6.6518">
        <ele>1475.8000488281</ele>
        <time>2019-02-08T12:44:47.000Z</time>
      </trkpt>
      <trkpt lat="45.58368" lon="6.65179">
        <ele>1473.8000488281</ele>
        <time>2019-02-08T12:44:48.000Z</time>
      </trkpt>
      <trkpt lat="45.5836" lon="6.65178">
        <ele>1472.1999511719</ele>
        <time>2019-02-08T12:44:49.000Z</time>
      </trkpt>
      <trkpt lat="45.58352" lon="6.65177">
        <ele>1470.5999755859</ele>
        <time>2019-02-08T12:44:50.000Z</time>
      </trkpt>
      <trkpt lat="45.58344" lon="6.65175">
        <ele>1468.8000488281</ele>
        <time>2019-02-08T12:44:51.000Z</time>
      </trkpt>
      <trkpt lat="45.58336" lon="6.65173">
        <ele>1467.1999511719</ele>
        <time>2019-02-08T12:44:52.000Z</time>
      </trkpt>
      <trkpt lat="45.58328" lon="6.65172">
        <ele>1465.1999511719</ele>
        <time>2019-02-08T12:44:53.000Z</time>
      </trkpt>
      <trkpt lat="45.5832" lon="6.65172">
        <ele>1463</ele>
        <time>2019-02-08T12:44:54.000Z</time>
      </trkpt>
      <trkpt lat="45.58312" lon="6.65172">
        <ele>1461</ele>
        <time>2019-02-08T12:44:55.000Z</time>
      </trkpt>
      <trkpt lat="45.58303" lon="6.65171">
        <ele>1459</ele>
        <time>2019-02-08T12:44:56.000Z</time>
      </trkpt>
      <trkpt lat="45.58296" lon="6.6517">
        <ele>1457.1999511719</ele>
        <time>2019-02-08T12:44:57.000Z</time>
      </trkpt>
      <trkpt lat="45.58288" lon="6.65168">
        <ele>1455.8000488281</ele>
        <time>2019-02-08T12:44:58.000Z</time>
      </trkpt>
      <trkpt lat="45.58281" lon="6.65167">
        <ele>1454.4000244141</ele>
        <time>2019-02-08T12:44:59.000Z</time>
      </trkpt>
      <trkpt lat="45.58272" lon="6.65166">
        <ele>1452.5999755859</ele>
        <time>2019-02-08T12:45:00.000Z</time>
      </trkpt>
      <trkpt lat="45.58263" lon="6.65167">
        <ele>1450.1999511719</ele>
        <time>2019-02-08T12:45:01.000Z</time>
      </trkpt>
      <trkpt lat="45.58255" lon="6.65166">
        <ele>1448</ele>
        <time>2019-02-08T12:45:02.000Z</time>
      </trkpt>
      <trkpt lat="45.58247" lon="6.65165">
        <ele>1446.5999755859</ele>
        <time>2019-02-08T12:45:03.000Z</time>
      </trkpt>
      <trkpt lat="45.58239" lon="6.65163">
        <ele>1445</ele>
        <time>2019-02-08T12:45:04.000Z</time>
      </trkpt>
      <trkpt lat="45.58231" lon="6.65163">
        <ele>1443.1999511719</ele>
        <time>2019-02-08T12:45:05.000Z</time>
      </trkpt>
      <trkpt lat="45.58223" lon="6.65162">
        <ele>1441.5999755859</ele>
        <time>2019-02-08T12:45:06.000Z</time>
      </trkpt>
      <trkpt lat="45.58215" lon="6.65161">
        <ele>1440.4000244141</ele>
        <time>2019-02-08T12:45:07.000Z</time>
      </trkpt>
      <trkpt lat="45.58208" lon="6.65159">
        <ele>1440.1999511719</ele>
        <time>2019-02-08T12:45:08.000Z</time>
      </trkpt>
      <trkpt lat="45.58201" lon="6.65158">
        <ele>1439.8000488281</ele>
        <time>2019-02-08T12:45:09.000Z</time>
      </trkpt>
      <trkpt lat="45.58193" lon="6.65159">
        <ele>1438.8000488281</ele>
        <time>2019-02-08T12:45:10.000Z</time>
      </trkpt>
      <trkpt lat="45.58185" lon="6.6516">
        <ele>1437.5999755859</ele>
        <time>2019-02-08T12:45:11.000Z</time>
      </trkpt>
      <trkpt lat="45.58178" lon="6.65162">
        <ele>1436.4000244141</ele>
        <time>2019-02-08T12:45:12.000Z</time>
      </trkpt>
      <trkpt lat="45.5817" lon="6.65165">
        <ele>1435</ele>
        <time>2019-02-08T12:45:13.000Z</time>
      </trkpt>
      <trkpt lat="45.58164" lon="6.65167">
        <ele>1433.5999755859</ele>
        <time>2019-02-08T12:45:14.000Z</time>
      </trkpt>
      <trkpt lat="45.58157" lon="6.65171">
        <ele>1432</ele>
        <time>2019-02-08T12:45:15.000Z</time>
      </trkpt>
      <trkpt lat="45.58149" lon="6.65175">
        <ele>1430.1999511719</ele>
        <time>2019-02-08T12:45:16.000Z</time>
      </trkpt>
      <trkpt lat="45.58142" lon="6.65178">
        <ele>1428.5999755859</ele>
        <time>2019-02-08T12:45:17.000Z</time>
      </trkpt>
      <trkpt lat="45.58135" lon="6.65183">
        <ele>1426.5999755859</ele>
        <time>2019-02-08T12:45:18.000Z</time>
      </trkpt>
      <trkpt lat="45.58128" lon="6.65188">
        <ele>1425.1999511719</ele>
        <time>2019-02-08T12:45:19.000Z</time>
      </trkpt>
      <trkpt lat="45.58122" lon="6.65193">
        <ele>1423.5999755859</ele>
        <time>2019-02-08T12:45:20.000Z</time>
      </trkpt>
      <trkpt lat="45.58115" lon="6.65198">
        <ele>1421.8000488281</ele>
        <time>2019-02-08T12:45:21.000Z</time>
      </trkpt>
      <trkpt lat="45.58108" lon="6.65204">
        <ele>1420</ele>
        <time>2019-02-08T12:45:22.000Z</time>
      </trkpt>
      <trkpt lat="45.58101" lon="6.65209">
        <ele>1418.4000244141</ele>
        <time>2019-02-08T12:45:23.000Z</time>
      </trkpt>
      <trkpt lat="45.58094" lon="6.65214">
        <ele>1416.8000488281</ele>
        <time>2019-02-08T12:45:24.000Z</time>
      </trkpt>
      <trkpt lat="45.58087" lon="6.65219">
        <ele>1415.1999511719</ele>
        <time>2019-02-08T12:45:25.000Z</time>
      </trkpt>
      <trkpt lat="45.5808" lon="6.65224">
        <ele>1413.5999755859</ele>
        <time>2019-02-08T12:45:26.000Z</time>
      </trkpt>
      <trkpt lat="45.58074" lon="6.65229">
        <ele>1411.5999755859</ele>
        <time>2019-02-08T12:45:27.000Z</time>
      </trkpt>
      <trkpt lat="45.58067" lon="6.65235">
        <ele>1410</ele>
        <time>2019-02-08T12:45:28.000Z</time>
      </trkpt>
      <trkpt lat="45.58055" lon="6.65241">
        <ele>1407.5999755859</ele>
        <time>2019-02-08T12:45:30.000Z</time>
      </trkpt>
      <trkpt lat="45.58048" lon="6.65245">
        <ele>1406.5999755859</ele>
        <time>2019-02-08T12:45:31.000Z</time>
      </trkpt>
      <trkpt lat="45.58042" lon="6.65248">
        <ele>1405.4000244141</ele>
        <time>2019-02-08T12:45:32.000Z</time>
      </trkpt>
      <trkpt lat="45.5803" lon="6.65255">
        <ele>1403.1999511719</ele>
        <time>2019-02-08T12:45:34.000Z</time>
      </trkpt>
      <trkpt lat="45.58018" lon="6.65259">
        <ele>1401.5999755859</ele>
        <time>2019-02-08T12:45:36.000Z</time>
      </trkpt>
      <trkpt lat="45.58011" lon="6.65261">
        <ele>1400.8000488281</ele>
        <time>2019-02-08T12:45:37.000Z</time>
      </trkpt>
      <trkpt lat="45.58005" lon="6.65263">
        <ele>1400</ele>
        <time>2019-02-08T12:45:38.000Z</time>
      </trkpt>
      <trkpt lat="45.57992" lon="6.65265">
        <ele>1398.4000244141</ele>
        <time>2019-02-08T12:45:40.000Z</time>
      </trkpt>
      <trkpt lat="45.57979" lon="6.65266">
        <ele>1397.1999511719</ele>
        <time>2019-02-08T12:45:42.000Z</time>
      </trkpt>
      <trkpt lat="45.57967" lon="6.65266">
        <ele>1396.1999511719</ele>
        <time>2019-02-08T12:45:44.000Z</time>
      </trkpt>
      <trkpt lat="45.5795" lon="6.65265">
        <ele>1394.4000244141</ele>
        <time>2019-02-08T12:45:47.000Z</time>
      </trkpt>
      <trkpt lat="45.57945" lon="6.65264">
        <ele>1394</ele>
        <time>2019-02-08T12:45:48.000Z</time>
      </trkpt>
      <trkpt lat="45.57939" lon="6.65263">
        <ele>1393.5999755859</ele>
        <time>2019-02-08T12:45:49.000Z</time>
      </trkpt>
      <trkpt lat="45.57928" lon="6.6526">
        <ele>1393.1999511719</ele>
        <time>2019-02-08T12:45:51.000Z</time>
      </trkpt>
      <trkpt lat="45.57916" lon="6.65256">
        <ele>1392.8000488281</ele>
        <time>2019-02-08T12:45:53.000Z</time>
      </trkpt>
      <trkpt lat="45.57905" lon="6.65253">
        <ele>1392.5999755859</ele>
        <time>2019-02-08T12:45:55.000Z</time>
      </trkpt>
      <trkpt lat="45.57894" lon="6.6525">
        <ele>1392.1999511719</ele>
        <time>2019-02-08T12:45:57.000Z</time>
      </trkpt>
      <trkpt lat="45.57883" lon="6.65248">
        <ele>1391.4000244141</ele>
        <time>2019-02-08T12:45:59.000Z</time>
      </trkpt>
      <trkpt lat="45.57872" lon="6.65248">
        <ele>1390.4000244141</ele>
        <time>2019-02-08T12:46:01.000Z</time>
      </trkpt>
      <trkpt lat="45.57859" lon="6.65245">
        <ele>1390</ele>
        <time>2019-02-08T12:46:04.000Z</time>
      </trkpt>
      <trkpt lat="45.57856" lon="6.65242">
        <ele>1390.4000244141</ele>
        <time>2019-02-08T12:46:05.000Z</time>
      </trkpt>
      <trkpt lat="45.5785" lon="6.65235">
        <ele>1391.8000488281</ele>
        <time>2019-02-08T12:46:07.000Z</time>
      </trkpt>
      <trkpt lat="45.57839" lon="6.6523">
        <ele>1392</ele>
        <time>2019-02-08T12:46:10.000Z</time>
      </trkpt>
      <trkpt lat="45.57836" lon="6.65228">
        <ele>1392</ele>
        <time>2019-02-08T12:46:11.000Z</time>
      </trkpt>
      <trkpt lat="45.57832" lon="6.65226">
        <ele>1392.1999511719</ele>
        <time>2019-02-08T12:46:12.000Z</time>
      </trkpt>
      <trkpt lat="45.57819" lon="6.65221">
        <ele>1391.8000488281</ele>
        <time>2019-02-08T12:46:16.000Z</time>
      </trkpt>
      <trkpt lat="45.57799" lon="6.65214">
        <ele>1391.4000244141</ele>
        <time>2019-02-08T12:46:23.000Z</time>
      </trkpt>
      <trkpt lat="45.5779" lon="6.65212">
        <ele>1390</ele>
        <time>2019-02-08T12:46:27.000Z</time>
      </trkpt>
      <trkpt lat="45.57787" lon="6.65213">
        <ele>1389.1999511719</ele>
        <time>2019-02-08T12:46:29.000Z</time>
      </trkpt>
      <trkpt lat="45.57786" lon="6.65213">
        <ele>1388.8000488281</ele>
        <time>2019-02-08T12:46:31.000Z</time>
      </trkpt>
      <trkpt lat="45.57786" lon="6.65213">
        <ele>1388.8000488281</ele>
        <time>2019-02-08T12:46:34.000Z</time>
      </trkpt>
      <trkpt lat="45.57785" lon="6.65213">
        <ele>1388.8000488281</ele>
        <time>2019-02-08T12:46:41.000Z</time>
      </trkpt>
      <trkpt lat="45.57785" lon="6.65213">
        <ele>1388.8000488281</ele>
        <time>2019-02-08T12:46:55.000Z</time>
      </trkpt>
      <trkpt lat="45.57785" lon="6.65213">
        <ele>1388.8000488281</ele>
        <time>2019-02-08T12:47:11.000Z</time>
      </trkpt>
      <trkpt lat="45.57785" lon="6.65212">
        <ele>1389</ele>
        <time>2019-02-08T12:47:28.000Z</time>
      </trkpt>
      <trkpt lat="45.57785" lon="6.65212">
        <ele>1389</ele>
        <time>2019-02-08T12:47:43.000Z</time>
      </trkpt>
    </trkseg>
  </trk>
</gpx>